# Wetter Temperatur Luftdruck Luftfeuchtigkeit Sichtweite Windgeschwindigkeit Windrichtung Zeit
1 Clouds 1 1008 69 10000 0.51 0 12:19 22.04.2021
2 Clear 0 1007 74 10000 4.12 60 11:45 22.04.2021
3 Clear 0 1007 74 10000 4.12 60 11:22 22.04.2021
4 Clear -1 1007 80 10000 4.63 40 10:43 22.04.2021
5 Clear -1 1007 80 10000 4.63 40 10:21 22.04.2021
6 Clear -1 1006 80 10000 4.63 0 09:42 22.04.2021
7 Clear -1 1006 80 10000 4.63 0 09:19 22.04.2021
8 Clouds -1 1006 74 10000 2.57 0 08:38 22.04.2021
9 Clouds -1 1006 74 10000 2.57 0 08:18 22.04.2021
10 Clouds -1 1006 80 10000 4.12 50 07:40 22.04.2021
11 Clouds -1 1006 80 10000 4.12 50 07:20 22.04.2021
12 Clouds -1 1006 86 10000 4.63 60 06:23 22.04.2021
13 Clear -1 1005 80 10000 1.54 0 05:25 22.04.2021
14 Clouds -2 1005 74 10000 4.12 30 03:31 22.04.2021
15 Clear 0 1004 74 10000 4.12 40 00:55 22.04.2021
16 Clear 1 1004 60 10000 5.14 40 23:47 21.04.2021
17 Clear 1 1004 60 10000 5.14 40 23:26 21.04.2021
18 Clear 1 1004 64 10000 6.69 50 22:42 21.04.2021
19 Clear 1 1004 64 10000 6.69 50 22:24 21.04.2021
20 Clear 1 1004 69 10000 6.69 40 21:46 21.04.2021
21 Clear 1 1004 69 10000 6.69 40 21:24 21.04.2021
22 Clear 0 1004 64 10000 7.2 50 20:58 21.04.2021
23 Clear 0 1004 64 10000 7.2 50 20:21 21.04.2021
24 Clear 0 1005 69 10000 7.2 40 19:43 21.04.2021
25 Clear 0 1005 69 10000 7.2 40 19:24 21.04.2021
26 Clear 0 1005 69 10000 8.49 50 18:46 21.04.2021
27 Clear 0 1005 64 10000 8.75 50 18:27 21.04.2021
28 Clear 0 1005 64 10000 8.75 50 17:48 21.04.2021
29 Clear 0 1005 64 10000 8.75 50 17:25 21.04.2021
30 Clear 0 1006 64 10000 8.75 50 16:55 21.04.2021
31 Clear 0 1006 69 10000 9.26 60 15:59 21.04.2021
32 Clear 0 1006 69 10000 9.26 60 15:41 21.04.2021
33 Clear -1 1007 74 10000 8.23 60 14:58 21.04.2021
34 Clear -1 1007 74 10000 8.23 60 14:40 21.04.2021
35 Clear -1 1007 74 10000 8.23 60 14:18 21.04.2021
36 Clear -1 1007 80 10000 7.2 60 13:40 21.04.2021
37 Clear -1 1007 80 10000 7.2 60 13:21 21.04.2021
38 Clear -1 1008 86 10000 7.72 60 12:31 21.04.2021
39 Clouds -1 1009 86 10000 9.26 70 11:50 21.04.2021
40 Clouds -1 1009 86 10000 9.26 70 11:30 21.04.2021
41 Clouds -1 1009 86 10000 7.2 60 10:52 21.04.2021
42 Clouds -1 1009 86 10000 7.2 60 10:34 21.04.2021
43 Clouds -1 1010 93 10000 7.2 60 09:54 21.04.2021
44 Clouds -1 1010 93 10000 7.2 60 09:19 21.04.2021
45 Clouds -1 1011 93 10000 7.2 60 08:41 21.04.2021
46 Clouds -1 1011 93 10000 7.2 60 08:20 21.04.2021
47 Clouds -2 1011 93 10000 5.14 60 07:32 21.04.2021
48 Clouds -2 1012 100 10000 4.12 40 06:57 21.04.2021
49 Clouds -1 1012 93 10000 6.17 50 05:26 21.04.2021
50 Clouds -1 1014 93 10000 6.17 20 01:33 21.04.2021
51 Clouds -1 1015 93 10000 4.63 360 23:51 20.04.2021
52 Clouds -1 1015 93 10000 4.63 360 23:32 20.04.2021
53 Clouds -1 1015 93 10000 4.63 10 22:42 20.04.2021
54 Clouds -1 1015 93 10000 4.63 10 22:23 20.04.2021
55 Clouds 0 1015 93 10000 3.6 20 21:47 20.04.2021
56 Clouds 0 1015 93 10000 3.6 20 21:27 20.04.2021
57 Clouds 0 1015 93 10000 3.09 360 20:57 20.04.2021
58 Clouds 0 1015 93 10000 3.09 360 20:38 20.04.2021
59 Clouds 0 1015 93 10000 3.09 360 20:38 20.04.2021
60 Clouds 0 1015 93 10000 3.09 360 20:18 20.04.2021
61 Clouds 1 1015 86 7000 1.03 350 19:42 20.04.2021
62 Clouds 1 1015 86 7000 1.03 350 19:24 20.04.2021
63 Clouds 0 1015 93 10000 3.09 280 18:39 20.04.2021
64 Snow 0 1015 93 10000 3.09 280 18:21 20.04.2021
65 Snow 0 1014 93 10000 7.2 170 17:39 20.04.2021
66 Snow 1 1014 93 3000 7.72 180 16:50 20.04.2021
67 Snow 1 1013 93 3000 8.75 180 15:53 20.04.2021
68 Snow 1 1013 93 3000 8.75 180 15:30 20.04.2021
69 Snow 1 1013 93 2000 8.75 180 14:59 20.04.2021
70 Snow 1 1013 93 2000 8.75 180 14:35 20.04.2021
71 Snow 0 1012 100 1500 11.32 160 13:53 20.04.2021
72 Snow 0 1012 100 1500 11.32 160 13:24 20.04.2021
73 Snow 0 1010 100 1500 13.89 160 12:44 20.04.2021
74 Snow 0 1010 100 1500 13.89 160 12:22 20.04.2021
75 Snow 0 1014 100 1500 14.4 160 11:46 20.04.2021
76 Snow 0 1014 100 1500 14.4 160 11:24 20.04.2021
77 Snow 1 1014 93 1400 14.4 160 10:45 20.04.2021
78 Snow 1 1013 93 1400 14.4 160 10:23 20.04.2021
79 Snow 1 1010 93 1300 12.86 160 09:44 20.04.2021
80 Snow 1 1010 93 2500 13.89 170 08:56 20.04.2021
81 Snow 1 1010 93 2500 13.89 170 08:29 20.04.2021
82 Snow 1 1011 93 2600 12.86 160 07:49 20.04.2021
83 Snow 1 1011 93 3800 12.86 160 06:54 20.04.2021
84 Snow 1 1011 93 1800 12.86 160 05:40 20.04.2021
85 Snow 1 1011 93 2900 13.38 160 04:42 20.04.2021
86 Snow 0 1012 100 1600 13.89 160 01:58 20.04.2021
87 Snow 0 1012 100 1300 13.89 160 00:49 20.04.2021
88 Snow 0 1012 100 1100 14.92 160 23:47 19.04.2021
89 Snow 0 1012 100 1100 14.92 160 23:27 19.04.2021
90 Snow 0 1011 100 1200 14.4 160 22:36 19.04.2021
91 Snow 0 1011 97 204 13.86 160 21:54 19.04.2021
92 Snow 0 1011 97 204 13.86 160 21:35 19.04.2021
93 Snow 0 1011 100 1000 13.89 160 20:56 19.04.2021
94 Snow 0 1011 100 1000 13.89 160 20:38 19.04.2021
95 Snow 0 1011 100 1000 13.89 160 20:20 19.04.2021
96 Snow 0 1011 100 700 15.95 160 19:42 19.04.2021
97 Snow 0 1011 100 700 15.95 160 19:24 19.04.2021
98 Snow 0 1011 100 900 16.98 160 18:47 19.04.2021
99 Snow 0 1011 100 900 16.98 160 18:23 19.04.2021
100 Snow 0 1011 100 1000 16.46 160 17:55 19.04.2021
101 Snow 0 1011 100 1000 16.46 160 17:30 19.04.2021
102 Snow 0 1011 100 600 17.49 160 16:58 19.04.2021
103 Snow 0 1011 100 600 17.49 160 16:39 19.04.2021
104 Snow 0 1011 100 600 17.49 160 16:20 19.04.2021
105 Snow 0 1010 100 600 16.46 160 15:40 19.04.2021
106 Snow 0 1010 100 600 16.46 160 15:20 19.04.2021
107 Snow 0 1011 93 900 16.46 160 14:37 19.04.2021
108 Snow 0 1011 93 900 16.46 160 14:19 19.04.2021
109 Snow 0 1011 93 1000 14.92 150 13:36 19.04.2021
110 Snow 0 1011 93 1000 14.92 150 13:18 19.04.2021
111 Snow 0 1012 86 2000 8.23 150 12:42 19.04.2021
112 Snow 0 1012 86 2000 8.23 150 12:22 19.04.2021
113 Snow -4 1013 93 2000 8.75 60 11:53 19.04.2021
114 Snow -4 1013 93 2000 8.75 60 11:21 19.04.2021
115 Snow -4 1013 80 2100 9.77 70 10:45 19.04.2021
116 Snow -4 1013 80 2100 9.77 70 10:21 19.04.2021
117 Snow -4 1014 68 3400 8.75 80 09:49 19.04.2021
118 Snow -4 1014 68 3400 8.75 80 09:27 19.04.2021
119 Snow -3 1014 59 10000 5.66 100 08:58 19.04.2021
120 Clouds -3 1014 59 10000 5.66 100 08:25 19.04.2021
121 Clouds -4 1015 58 10000 7.72 80 07:48 19.04.2021
122 Clouds -4 1015 58 10000 7.72 80 07:19 19.04.2021
123 Clouds -4 1015 58 10000 7.72 80 07:19 19.04.2021
124 Clouds -4 1015 58 10000 6.69 80 06:28 19.04.2021
125 Clouds -4 1017 54 10000 7.2 80 02:35 19.04.2021
126 Clouds -5 1017 58 10000 5.66 90 00:47 19.04.2021
127 Clouds -5 1017 58 10000 5.14 80 23:50 18.04.2021
128 Clouds -5 1017 58 10000 5.14 80 23:18 18.04.2021
129 Clouds -4 1017 58 10000 3.09 100 22:47 18.04.2021
130 Clouds -4 1017 58 10000 3.09 100 22:29 18.04.2021
131 Clouds -5 1018 63 10000 3.6 70 21:29 18.04.2021
132 Clouds -5 1017 63 10000 4.63 80 20:59 18.04.2021
133 Clouds -5 1017 63 10000 4.63 80 20:39 18.04.2021
134 Clouds -5 1017 63 10000 4.63 80 20:39 18.04.2021
135 Clouds -5 1017 63 10000 4.63 80 20:20 18.04.2021
136 Clouds -6 1017 63 10000 4.12 60 19:45 18.04.2021
137 Clouds -6 1017 63 10000 4.12 60 19:27 18.04.2021
138 Clouds -6 1018 63 10000 4.63 70 18:54 18.04.2021
139 Clouds -6 1018 63 10000 4.63 70 18:30 18.04.2021
140 Clouds -7 1018 68 10000 6.17 60 17:50 18.04.2021
141 Clouds -7 1018 68 10000 6.17 60 17:31 18.04.2021
142 Clouds -7 1018 63 10000 5.14 70 16:55 18.04.2021
143 Clouds -7 1018 63 10000 5.14 70 16:36 18.04.2021
144 Clouds -8 1018 62 10000 4.63 80 15:59 18.04.2021
145 Clouds -8 1018 62 10000 4.63 80 15:38 18.04.2021
146 Clouds -8 1018 62 10000 4.63 80 15:18 18.04.2021
147 Clouds -8 1018 62 10000 6.69 70 14:41 18.04.2021
148 Clouds -8 1018 62 10000 6.69 70 14:19 18.04.2021
149 Clouds -8 1018 57 10000 6.17 80 13:49 18.04.2021
150 Clouds -8 1018 57 10000 6.17 80 13:49 18.04.2021
151 Clouds -8 1018 57 10000 6.17 80 13:29 18.04.2021
152 Clouds -8 1018 57 10000 6.17 80 12:39 18.04.2021
153 Clouds -8 1018 53 10000 4.12 100 11:59 18.04.2021
154 Clouds -8 1018 53 10000 4.12 100 11:40 18.04.2021
155 Clouds -8 1018 53 10000 4.12 100 11:20 18.04.2021
156 Clouds -9 1017 57 10000 5.66 80 10:44 18.04.2021
157 Clouds -9 1017 57 10000 5.66 80 10:19 18.04.2021
158 Clouds -9 1017 53 10000 5.14 100 09:41 18.04.2021
159 Clouds -9 1017 53 10000 5.14 100 09:23 18.04.2021
160 Clouds -9 1017 53 10000 9.77 80 08:47 18.04.2021
161 Clouds -9 1017 53 10000 9.77 80 08:28 18.04.2021
162 Clouds -9 1016 57 10000 8.75 90 07:41 18.04.2021
163 Clouds -10 1017 62 10000 10.29 80 06:56 18.04.2021
164 Clouds -10 1017 52 10000 8.75 80 05:27 18.04.2021
165 Clouds -9 1017 48 10000 5.66 90 04:53 18.04.2021
166 Clouds -10 1017 52 10000 5.66 90 02:23 18.04.2021
167 Clouds -9 1017 48 10000 5.14 110 00:58 18.04.2021
168 Clouds -9 1017 48 10000 5.14 110 00:28 18.04.2021
169 Clouds -9 1016 53 10000 4.63 100 23:27 17.04.2021
170 Clouds -7 1016 49 10000 3.6 100 22:49 17.04.2021
171 Clouds -7 1016 49 10000 3.6 100 22:29 17.04.2021
172 Clouds -7 1016 45 10000 3.09 100 21:45 17.04.2021
173 Clouds -7 1016 45 10000 3.09 100 21:24 17.04.2021
174 Clouds -7 1015 45 10000 3.6 100 20:41 17.04.2021
175 Clouds -7 1015 45 10000 3.6 100 20:23 17.04.2021
176 Clouds -7 1015 53 10000 3.09 110 19:42 17.04.2021
177 Clouds -7 1015 53 10000 3.09 110 19:20 17.04.2021
178 Clouds -7 1014 53 10000 3.6 120 18:49 17.04.2021
179 Clouds -7 1014 53 10000 3.6 120 18:23 17.04.2021
180 Clouds -8 1014 57 10000 3.6 100 17:42 17.04.2021
181 Clouds -9 1014 62 10000 3.6 110 16:58 17.04.2021
182 Clouds -9 1014 62 10000 3.6 110 16:39 17.04.2021
183 Clouds -9 1014 62 10000 3.6 110 16:19 17.04.2021
184 Snow -10 1014 79 10000 1.03 360 15:22 17.04.2021
185 Clouds -10 1013 79 10000 2.06 100 14:44 17.04.2021
186 Clouds -11 1013 79 10000 2.06 100 14:20 17.04.2021
187 Clouds -11 1013 73 10000 1.03 120 13:43 17.04.2021
188 Clouds -11 1012 79 10000 1.54 50 12:55 17.04.2021
189 Clouds -11 1012 79 10000 1.54 50 12:32 17.04.2021
190 Clouds -10 1012 73 10000 2.57 320 11:51 17.04.2021
191 Clouds -10 1012 73 10000 2.57 320 11:32 17.04.2021
192 Clouds -11 1011 73 10000 1.03 120 10:51 17.04.2021
193 Clouds -11 1011 73 10000 1.03 120 10:33 17.04.2021
194 Snow -11 1011 85 10000 0.51 170 09:47 17.04.2021
195 Snow -11 1010 79 6000 1.54 140 08:54 17.04.2021
196 Snow -11 1010 79 6000 1.54 140 08:29 17.04.2021
197 Snow -11 1010 67 10000 2.06 120 07:45 17.04.2021
198 Snow -11 1010 67 10000 2.57 130 05:42 17.04.2021
199 Snow -11 1010 79 10000 2.06 110 03:43 17.04.2021
200 Snow -11 1009 79 10000 2.57 70 00:56 17.04.2021
201 Snow -11 1009 79 10000 2.57 70 00:30 17.04.2021
202 Snow -10 1009 62 10000 2.06 330 23:58 16.04.2021
203 Snow -11 1009 62 10000 2.06 330 23:34 16.04.2021
204 Snow -11 1009 73 10000 2.06 360 22:51 16.04.2021
205 Snow -11 1009 73 10000 2.06 360 22:23 16.04.2021
206 Snow -10 1008 67 4000 2.06 10 21:56 16.04.2021
207 Snow -10 1008 67 4000 2.06 10 21:38 16.04.2021
208 Snow -10 1008 62 4500 4.12 340 20:55 16.04.2021
209 Snow -10 1008 62 4500 4.12 340 20:36 16.04.2021
210 Clouds -10 1008 57 10000 6.17 340 19:58 16.04.2021
211 Clouds -10 1008 57 10000 6.17 340 19:40 16.04.2021
212 Clouds -10 1008 57 10000 6.17 340 19:18 16.04.2021
213 Clouds -10 1007 52 10000 5.66 360 18:25 16.04.2021
214 Clouds -10 1007 57 10000 5.14 360 17:48 16.04.2021
215 Clouds -10 1007 57 10000 5.14 360 17:19 16.04.2021
216 Clouds -11 1007 57 10000 5.66 350 16:45 16.04.2021
217 Clouds -11 1007 57 10000 5.66 350 16:26 16.04.2021
218 Clouds -11 1007 62 10000 5.14 340 15:55 16.04.2021
219 Clouds -11 1007 62 10000 5.14 340 15:29 16.04.2021
220 Clouds -11 1007 67 10000 5.14 340 14:44 16.04.2021
221 Clouds -11 1007 67 10000 5.14 340 14:23 16.04.2021
222 Clouds -11 1007 62 10000 5.14 340 13:55 16.04.2021
223 Clouds -11 1007 62 10000 5.14 340 13:22 16.04.2021
224 Clouds -12 1007 61 10000 5.66 340 12:53 16.04.2021
225 Clouds -12 1007 61 10000 5.66 340 12:34 16.04.2021
226 Clouds -12 1007 72 10000 5.66 350 11:59 16.04.2021
227 Clouds -12 1007 72 10000 5.66 350 11:39 16.04.2021
228 Clouds -12 1007 72 10000 5.66 350 11:20 16.04.2021
229 Clouds -12 1006 67 10000 5.66 350 10:41 16.04.2021
230 Clouds -12 1006 67 10000 5.66 350 10:20 16.04.2021
231 Clouds -11 1006 73 10000 4.63 340 09:44 16.04.2021
232 Clouds -11 1006 73 10000 4.63 340 09:21 16.04.2021
233 Clouds -11 1006 79 7000 6.17 350 08:44 16.04.2021
234 Clouds -11 1006 79 7000 6.17 350 08:19 16.04.2021
235 Clouds -10 1006 67 10000 5.14 360 07:42 16.04.2021
236 Clouds -10 1006 67 10000 5.14 360 07:18 16.04.2021
237 Snow -10 1006 67 10000 5.14 350 06:35 16.04.2021
238 Clouds -10 1006 73 10000 6.17 340 05:32 16.04.2021
239 Clouds -9 1008 86 10000 9.26 330 01:40 16.04.2021
240 Clouds -8 1008 73 10000 7.2 330 00:44 16.04.2021
241 Clouds -8 1008 73 10000 7.2 330 00:21 16.04.2021
242 Clouds -8 1008 62 10000 7.2 340 23:52 15.04.2021
243 Clouds -8 1008 62 10000 7.2 340 23:32 15.04.2021
244 Clouds -7 1007 63 10000 7.72 350 22:50 15.04.2021
245 Clouds -7 1007 63 10000 7.72 350 22:23 15.04.2021
246 Clouds -7 1008 63 10000 7.2 360 21:43 15.04.2021
247 Clouds -7 1008 63 10000 7.2 360 21:25 15.04.2021
248 Clouds -7 1008 63 10000 7.2 20 20:49 15.04.2021
249 Clouds -7 1008 63 10000 7.2 20 20:25 15.04.2021
250 Clouds -7 1007 63 10000 7.72 20 19:57 15.04.2021
251 Clouds -7 1007 63 10000 7.72 20 19:39 15.04.2021
252 Clouds -7 1007 63 10000 7.72 20 19:20 15.04.2021
253 Clouds -7 1008 68 10000 7.72 10 18:39 15.04.2021
254 Clouds -7 1008 68 10000 7.72 10 18:18 15.04.2021
255 Clouds -7 1008 68 10000 7.72 20 17:53 15.04.2021
256 Clouds -7 1008 68 10000 7.72 20 17:30 15.04.2021
257 Clouds -7 1008 63 10000 7.72 10 16:44 15.04.2021
258 Clouds -7 1008 63 10000 7.72 10 16:24 15.04.2021
259 Clouds -8 1007 79 10000 9.26 350 15:51 15.04.2021
260 Clouds -8 1007 79 10000 9.26 350 15:28 15.04.2021
261 Clouds -7 1008 68 10000 7.2 360 14:44 15.04.2021
262 Clouds -7 1008 68 10000 7.2 360 14:44 15.04.2021
263 Clouds -7 1008 68 10000 7.2 360 14:26 15.04.2021
264 Clouds -7 1008 73 10000 6.69 360 13:57 15.04.2021
265 Clouds -7 1008 73 10000 6.69 360 13:39 15.04.2021
266 Clouds -7 1008 68 10000 7.72 10 12:54 15.04.2021
267 Clouds -7 1008 68 10000 7.72 10 12:27 15.04.2021
268 Clouds -7 1008 73 10000 6.69 350 11:59 15.04.2021
269 Clouds -7 1008 73 10000 6.69 350 11:39 15.04.2021
270 Clouds -7 1008 73 10000 6.69 350 11:21 15.04.2021
271 Clouds -7 1008 73 10000 7.2 360 10:43 15.04.2021
272 Clouds -7 1008 73 10000 7.2 360 10:25 15.04.2021
273 Clouds -6 1008 73 10000 7.72 340 09:33 15.04.2021
274 Clouds -6 1008 79 10000 9.26 330 08:54 15.04.2021
275 Clouds -6 1008 79 10000 9.26 330 08:36 15.04.2021
276 Clouds -5 1008 80 10000 7.72 350 07:48 15.04.2021
277 Clouds -5 1008 80 10000 7.72 350 07:22 15.04.2021
278 Snow -5 1008 93 3600 12.35 330 06:37 15.04.2021
279 Snow -5 1008 93 3600 12.35 330 06:19 15.04.2021
280 Snow -5 1009 93 3000 11.32 320 04:49 15.04.2021
281 Snow -6 1011 93 10000 6.17 320 00:24 15.04.2021
282 Snow -6 1012 93 10000 7.2 320 23:37 14.04.2021
283 Snow -6 1012 93 10000 7.2 320 23:18 14.04.2021
284 Snow -5 1012 86 10000 7.2 330 22:43 14.04.2021
285 Snow -5 1012 86 10000 7.2 330 22:22 14.04.2021
286 Snow -5 1012 86 10000 7.72 330 21:43 14.04.2021
287 Snow -5 1012 86 10000 7.72 330 21:23 14.04.2021
288 Clouds -5 1012 93 10000 7.72 340 20:55 14.04.2021
289 Clouds -5 1012 93 10000 7.72 340 20:32 14.04.2021
290 Clouds -4 1012 93 10000 6.17 340 19:51 14.04.2021
291 Clouds -4 1012 93 10000 6.17 340 19:20 14.04.2021
292 Clouds -4 1012 100 10000 6.17 330 18:56 14.04.2021
293 Snow -4 1012 100 10000 6.17 330 18:22 14.04.2021
294 Snow -3 1013 93 10000 5.66 320 17:58 14.04.2021
295 Snow -3 1013 93 10000 5.66 320 17:25 14.04.2021
296 Snow -3 1013 93 8000 5.14 320 16:54 14.04.2021
297 Snow -3 1013 93 8000 5.14 320 16:26 14.04.2021
298 Snow -3 1013 100 2000 4.12 330 15:42 14.04.2021
299 Snow -3 1013 100 2000 4.12 330 15:24 14.04.2021
300 Snow -3 1013 100 1500 3.09 330 14:49 14.04.2021
301 Snow -3 1013 100 1500 3.09 330 14:27 14.04.2021
302 Snow -3 1014 100 1000 3.09 330 13:58 14.04.2021
303 Snow -3 1014 100 1000 3.09 330 13:37 14.04.2021
304 Snow -2 1014 100 1000 3.6 310 12:39 14.04.2021
305 Snow -1 1014 100 1000 3.6 240 11:44 14.04.2021
306 Snow -1 1014 100 1000 3.6 240 11:25 14.04.2021
307 Snow -1 1014 100 1000 6.17 190 10:56 14.04.2021
308 Snow -1 1014 100 1000 6.17 190 10:33 14.04.2021
309 Snow -1 1014 100 10000 6.69 210 09:43 14.04.2021
310 Snow -1 1014 100 10000 6.69 210 09:21 14.04.2021
311 Snow -1 1014 100 10000 7.2 180 08:47 14.04.2021
312 Snow -1 1014 100 10000 7.2 180 08:22 14.04.2021
313 Snow -1 1015 100 800 6.69 180 07:27 14.04.2021
314 Clouds -1 1016 100 10000 6.69 190 06:27 14.04.2021
315 Snow -1 1016 100 250 6.69 200 05:23 14.04.2021
316 Fog -1 1018 100 200 2.57 240 01:54 14.04.2021
317 Clouds 1 1018 86 10000 1.54 230 00:49 14.04.2021
318 Clouds 1 1018 86 10000 1.54 230 00:25 14.04.2021
319 Clouds 2 1019 75 10000 2.06 250 23:31 13.04.2021
320 Clouds 5 1019 56 10000 1.03 330 22:44 13.04.2021
321 Clouds 5 1019 56 10000 1.03 330 22:20 13.04.2021
322 Clouds 5 1020 60 10000 1.03 250 21:48 13.04.2021
323 Clouds 5 1020 60 10000 1.03 250 21:30 13.04.2021
324 Clouds 5 1020 56 10000 2.06 10 20:48 13.04.2021
325 Clouds 5 1020 56 10000 2.06 10 20:24 13.04.2021
326 Clouds 3 1021 60 10000 2.57 0 19:57 13.04.2021
327 Clouds 3 1021 60 10000 2.57 0 19:25 13.04.2021
328 Clouds 5 1022 60 10000 0.51 0 18:48 13.04.2021
329 Clouds 5 1022 60 10000 0.51 0 18:30 13.04.2021
330 Clouds 3 1022 65 10000 1.54 180 17:40 13.04.2021
331 Clouds 3 1022 65 10000 1.54 180 17:21 13.04.2021
332 Clouds 2 1023 75 10000 2.06 180 16:45 13.04.2021
333 Clouds 2 1023 75 10000 2.06 180 16:26 13.04.2021
334 Clouds 2 1024 64 10000 0.51 0 15:55 13.04.2021
335 Clouds 2 1024 64 10000 0.51 0 15:37 13.04.2021
336 Clouds 1 1024 80 10000 4.63 70 14:58 13.04.2021
337 Clouds 1 1024 80 10000 4.63 70 14:24 13.04.2021
338 Clouds 1 1025 75 10000 1.03 0 13:55 13.04.2021
339 Clouds 1 1025 75 10000 1.03 0 13:36 13.04.2021
340 Clouds 1 1025 75 10000 3.09 360 13:18 13.04.2021
341 Clouds 1 1025 75 10000 3.09 360 12:44 13.04.2021
342 Clouds 1 1025 75 10000 3.09 360 12:22 13.04.2021
343 Clouds 0 1025 74 10000 2.57 180 11:36 13.04.2021
344 Clouds 0 1026 69 10000 1.54 170 10:57 13.04.2021
345 Clouds 0 1026 69 10000 1.54 170 10:39 13.04.2021
346 Clouds 0 1026 69 10000 1.54 170 10:18 13.04.2021
347 Clouds 1 1026 64 10000 1.54 180 09:46 13.04.2021
348 Clouds 1 1026 64 10000 1.54 180 09:19 13.04.2021
349 Clouds 0 1027 74 10000 2.06 130 08:43 13.04.2021
350 Clouds 0 1027 74 10000 2.06 130 08:21 13.04.2021
351 Clouds 0 1027 74 10000 4.12 60 07:43 13.04.2021
352 Clear 0 1027 74 10000 4.12 60 07:22 13.04.2021
353 Clear -1 1028 86 10000 4.63 50 06:19 13.04.2021
354 Clear 1 1030 60 10000 4.12 80 03:41 13.04.2021
355 Clouds 1 1031 75 10000 0.51 0 01:31 13.04.2021
356 Clouds 3 1032 60 10000 0.51 130 23:50 12.04.2021
357 Clouds 3 1032 60 10000 0.51 130 23:32 12.04.2021
358 Clouds 3 1032 65 10000 2.57 10 22:46 12.04.2021
359 Clouds 3 1032 65 10000 2.57 10 22:28 12.04.2021
360 Clouds 2 1033 75 10000 2.06 90 21:48 12.04.2021
361 Clouds 2 1033 75 10000 2.06 90 21:25 12.04.2021
362 Clouds 2 1033 69 10000 3.09 60 20:46 12.04.2021
363 Clouds 2 1033 69 10000 3.09 60 20:26 12.04.2021
364 Clouds 4 1034 60 10000 1.03 350 19:59 12.04.2021
365 Clouds 4 1034 60 10000 1.03 350 19:39 12.04.2021
366 Clouds 4 1034 60 10000 1.03 350 19:20 12.04.2021
367 Clouds 3 1034 70 10000 1.03 330 18:48 12.04.2021
368 Clouds 3 1034 70 10000 1.03 330 18:30 12.04.2021
369 Clouds 4 1034 60 10000 0.51 0 17:55 12.04.2021
370 Clouds 4 1034 60 10000 0.51 0 17:37 12.04.2021
371 Clouds 4 1034 60 10000 0.51 0 17:19 12.04.2021
372 Clouds 4 1034 60 10000 1.54 120 16:37 12.04.2021
373 Clouds 4 1034 60 10000 1.54 120 16:18 12.04.2021
374 Clouds 5 1035 52 10000 0.51 0 15:33 12.04.2021
375 Clouds 4 1034 56 10000 1.03 0 14:55 12.04.2021
376 Clouds 4 1034 56 10000 1.03 0 14:37 12.04.2021
377 Clouds 4 1034 56 10000 1.03 0 14:18 12.04.2021
378 Clouds 2 1034 64 10000 0.51 0 13:40 12.04.2021
379 Clouds 2 1034 64 10000 0.51 0 13:18 12.04.2021
380 Clouds 1 1034 69 10000 1.03 100 12:43 12.04.2021
381 Clouds 1 1034 69 10000 1.03 100 12:22 12.04.2021
382 Clouds 3 1034 56 10000 1.54 0 11:35 12.04.2021
383 Clouds 2 1033 60 10000 2.57 0 10:51 12.04.2021
384 Clouds 2 1033 60 10000 2.57 0 10:28 12.04.2021
385 Clouds 2 1032 64 10000 7.2 180 09:52 12.04.2021
386 Clouds 2 1032 64 10000 7.2 180 09:23 12.04.2021
387 Clouds 3 1032 65 10000 8.23 180 08:51 12.04.2021
388 Clouds 0 1031 80 10000 2.06 60 07:55 12.04.2021
389 Clouds 0 1031 80 10000 2.06 60 07:30 12.04.2021
390 Clouds 1 1030 69 10000 3.09 50 06:40 12.04.2021
391 Clouds 1 1030 75 10000 5.14 40 05:47 12.04.2021
392 Clouds 1 1030 69 10000 7.2 40 03:19 12.04.2021
393 Clouds 1 1030 80 10000 5.66 20 00:30 12.04.2021
394 Clouds 1 1029 80 10000 6.17 30 23:56 11.04.2021
395 Clouds 1 1029 80 10000 6.17 30 23:38 11.04.2021
396 Clouds 2 1029 69 10000 6.17 40 23:19 11.04.2021
397 Clouds 2 1029 69 10000 6.69 40 22:38 11.04.2021
398 Clouds 2 1029 69 10000 6.69 40 22:19 11.04.2021
399 Clouds 3 1029 60 10000 5.66 40 21:42 11.04.2021
400 Clouds 3 1029 60 10000 5.66 40 21:24 11.04.2021
401 Clouds 2 1029 69 10000 6.17 40 20:46 11.04.2021
402 Clouds 2 1029 69 10000 6.17 40 20:25 11.04.2021
403 Clouds 1 1029 80 10000 7.2 60 19:44 11.04.2021
404 Clouds 1 1029 80 10000 7.2 60 19:21 11.04.2021
405 Clouds 1 1029 80 10000 7.72 20 18:58 11.04.2021
406 Clouds 1 1029 80 10000 7.72 20 18:40 11.04.2021
407 Clouds 1 1029 80 10000 7.72 20 18:21 11.04.2021
408 Clouds 1 1029 93 10000 7.72 40 17:41 11.04.2021
409 Clouds 1 1029 93 10000 7.72 40 17:22 11.04.2021
410 Clouds 0 1030 93 10000 6.17 20 16:42 11.04.2021
411 Clouds 0 1030 93 10000 6.17 20 16:22 11.04.2021
412 Fog -1 1030 100 10000 6.17 20 15:47 11.04.2021
413 Fog -1 1030 100 10000 6.17 20 15:26 11.04.2021
414 Fog -1 1030 100 10000 6.17 20 15:26 11.04.2021
415 Fog -2 1030 100 800 7.2 20 14:52 11.04.2021
416 Fog -2 1030 100 800 7.2 20 14:30 11.04.2021
417 Fog -2 1029 100 10000 7.2 40 13:47 11.04.2021
418 Fog -2 1029 100 10000 7.2 40 13:28 11.04.2021
419 Mist -2 1029 100 5000 6.69 50 12:48 11.04.2021
420 Mist -2 1029 100 5000 6.69 50 12:21 11.04.2021
421 Clouds -2 1030 100 10000 6.69 30 11:49 11.04.2021
422 Clouds -2 1030 100 10000 6.69 30 11:22 11.04.2021
423 Clouds -2 1029 93 10000 6.17 30 10:47 11.04.2021
424 Clouds -2 1029 93 10000 6.17 30 10:47 11.04.2021
425 Clouds -2 1029 93 10000 6.17 30 10:27 11.04.2021
426 Clouds -2 1029 93 10000 5.66 40 09:56 11.04.2021
427 Clouds -2 1029 93 10000 5.66 40 09:32 11.04.2021
428 Clouds -3 1029 100 10000 5.66 40 08:42 11.04.2021
429 Clouds -3 1029 100 10000 5.66 40 08:21 11.04.2021
430 Clouds -3 1029 100 10000 4.63 10 07:21 11.04.2021
431 Snow -3 1030 100 10000 3.6 40 06:26 11.04.2021
432 Snow -3 1030 100 2500 3.6 20 05:41 11.04.2021
433 Snow -3 1030 100 2500 3.6 20 05:19 11.04.2021
434 Snow -3 1030 100 2400 2.57 10 04:34 11.04.2021
435 Clouds -3 1030 100 10000 4.12 10 01:45 11.04.2021
436 Clouds -2 1030 93 10000 3.6 20 00:33 11.04.2021
437 Clouds -2 1030 93 10000 3.6 10 23:47 10.04.2021
438 Clouds -2 1030 93 10000 3.6 10 23:24 10.04.2021
439 Clouds -2 1030 93 10000 4.12 360 22:43 10.04.2021
440 Clouds -2 1030 93 10000 4.12 360 22:20 10.04.2021
441 Clouds -2 1030 93 10000 4.12 360 22:20 10.04.2021
442 Clouds -2 1029 93 10000 3.09 360 21:40 10.04.2021
443 Clouds -2 1029 93 10000 3.09 360 21:20 10.04.2021
444 Clouds -2 1029 100 8000 4.12 350 20:42 10.04.2021
445 Clouds -2 1029 100 8000 4.12 350 20:23 10.04.2021
446 Mist -1 1029 93 1000 3.09 360 19:44 10.04.2021
447 Snow -1 1029 93 1000 3.09 360 19:25 10.04.2021
448 Snow -1 1029 93 1200 3.6 350 18:50 10.04.2021
449 Snow -1 1029 93 1200 3.6 350 18:28 10.04.2021
450 Snow -1 1028 100 5000 3.09 10 17:37 10.04.2021
451 Snow -1 1028 100 1900 1.54 350 16:57 10.04.2021
452 Snow -1 1028 100 1900 1.54 350 16:27 10.04.2021
453 Snow 0 1028 93 1300 4.63 190 15:53 10.04.2021
454 Snow 0 1028 93 1300 4.63 190 15:19 10.04.2021
455 Snow 0 1027 100 900 4.12 190 14:41 10.04.2021
456 Snow 0 1027 100 900 4.12 190 14:19 10.04.2021
457 Snow 0 1026 100 2200 4.12 190 13:42 10.04.2021
458 Snow 0 1026 100 3700 4.12 190 12:53 10.04.2021
459 Rain 0 1026 100 3700 4.12 190 12:28 10.04.2021
460 Rain 1 1025 100 9000 5.66 190 11:49 10.04.2021
461 Snow 1 1025 100 9000 5.66 190 11:26 10.04.2021
462 Snow 1 1025 100 9000 5.66 190 11:25 10.04.2021
463 Snow 2 1025 93 7000 7.72 180 10:52 10.04.2021
464 Snow 2 1025 93 7000 7.72 180 10:31 10.04.2021
465 Snow 2 1025 93 6000 7.72 180 09:50 10.04.2021
466 Snow 2 1025 93 6000 7.72 180 09:20 10.04.2021
467 Snow 2 1025 93 6000 7.72 180 09:20 10.04.2021
468 Snow 2 1024 93 4000 6.69 180 08:48 10.04.2021
469 Rain 2 1024 93 4000 6.69 180 08:29 10.04.2021
470 Rain 2 1024 93 4000 6.69 180 08:29 10.04.2021
471 Rain 2 1024 93 4000 6.69 180 08:29 10.04.2021
472 Rain 2 1024 93 5000 7.2 180 07:40 10.04.2021
473 Snow 2 1024 93 5000 7.2 180 07:21 10.04.2021
474 Snow 2 1024 93 6000 7.2 180 06:24 10.04.2021
475 Rain 3 1023 87 7000 8.75 170 04:25 10.04.2021
476 Rain 3 1023 87 6000 7.2 160 02:51 10.04.2021
477 Rain 3 1023 87 6000 7.2 160 02:33 10.04.2021
478 Rain 3 1021 81 10000 9.26 170 00:44 10.04.2021
479 Rain 3 1021 81 10000 9.26 170 00:25 10.04.2021
480 Rain 3 1021 87 5000 10.8 170 23:42 09.04.2021
481 Snow 3 1020 81 5000 13.89 160 22:59 09.04.2021
482 Snow 3 1020 81 5000 13.89 160 22:38 09.04.2021
483 Snow 3 1020 81 5000 13.89 160 22:38 09.04.2021
484 Clouds 3 1020 81 5000 8.23 180 21:59 09.04.2021
485 Clouds 3 1020 81 5000 8.23 180 21:38 09.04.2021
486 Clouds 3 1020 81 5000 8.23 180 21:19 09.04.2021
487 Clouds 3 1020 81 5000 8.23 180 21:19 09.04.2021
488 Clouds 2 1021 93 5000 6.69 200 20:43 09.04.2021
489 Clouds 2 1021 93 5000 6.69 200 20:23 09.04.2021
490 Clouds 1 1020 100 4000 6.69 190 19:54 09.04.2021
491 Clouds 1 1020 100 4000 6.69 190 19:36 09.04.2021
492 Rain 1 1020 100 4000 6.69 190 19:18 09.04.2021
493 Rain 1 1020 93 6000 7.2 190 18:41 09.04.2021
494 Rain 1 1020 93 6000 7.2 190 18:41 09.04.2021
495 Rain 1 1020 93 6000 7.2 190 18:19 09.04.2021
496 Rain 2 1020 87 10000 7.72 180 17:37 09.04.2021
497 Snow 3 1019 81 10000 13.89 160 16:56 09.04.2021
498 Rain 3 1019 81 10000 13.89 160 16:36 09.04.2021
499 Clouds 3 1019 75 9000 12.35 160 15:57 09.04.2021
500 Clouds 3 1019 75 9000 12.35 160 15:37 09.04.2021
501 Clouds 3 1019 75 9000 12.35 160 15:18 09.04.2021
502 Snow 3 1018 75 8000 12.86 160 14:40 09.04.2021
503 Snow 2 1018 87 7000 15.95 150 13:53 09.04.2021
504 Snow 2 1018 87 7000 15.95 150 13:26 09.04.2021
505 Snow 2 1018 75 10000 15.95 150 12:54 09.04.2021
506 Snow 2 1018 75 10000 15.95 150 12:36 09.04.2021
507 Snow 2 1018 80 6000 12.35 160 11:46 09.04.2021
508 Snow 2 1018 80 6000 12.35 160 11:23 09.04.2021
509 Snow 2 1018 80 6000 12.35 160 11:23 09.04.2021
510 Snow 1 1018 86 6000 10.8 160 10:48 09.04.2021
511 Snow 1 1018 86 6000 10.8 160 10:29 09.04.2021
512 Snow 2 1017 80 9000 12.86 160 09:50 09.04.2021
513 Snow 2 1017 80 9000 12.86 160 09:24 09.04.2021
514 Snow 2 1017 80 10000 14.92 160 08:52 09.04.2021
515 Snow 2 1017 87 4700 15.43 160 07:39 09.04.2021
516 Snow 2 1017 87 8000 15.95 160 06:56 09.04.2021
517 Snow 1 1016 93 8000 20.06 160 05:56 09.04.2021
518 Snow 2 1018 75 10000 18.01 160 03:53 09.04.2021
519 Snow 2 1018 80 4900 19.03 160 01:48 09.04.2021
520 Snow 1 1018 86 6000 18.01 160 00:38 09.04.2021
521 Snow 1 1018 86 6000 18.01 160 00:19 09.04.2021
522 Snow 2 1018 80 7000 18.52 160 23:29 08.04.2021
523 Clouds 2 1018 69 10000 19.03 160 22:45 08.04.2021
524 Clouds 2 1018 69 10000 19.03 160 22:25 08.04.2021
525 Clouds 2 1019 69 10000 16.46 160 21:56 08.04.2021
526 Clouds 2 1019 69 10000 16.46 160 21:37 08.04.2021
527 Clouds 2 1019 69 10000 16.46 160 21:19 08.04.2021
528 Clouds 1 1019 80 10000 16.46 160 20:52 08.04.2021
529 Clouds 1 1019 80 10000 16.46 160 20:31 08.04.2021
530 Clouds 1 1020 86 10000 12.86 170 19:55 08.04.2021
531 Clouds 1 1020 86 10000 12.86 170 19:20 08.04.2021
532 Clouds 1 1019 80 10000 13.38 160 18:51 08.04.2021
533 Clouds 1 1019 80 10000 13.38 160 18:23 08.04.2021
534 Clouds 2 1020 64 10000 13.38 170 17:50 08.04.2021
535 Clouds 2 1020 64 10000 13.38 170 17:26 08.04.2021
536 Clouds 2 1020 69 10000 13.38 160 16:55 08.04.2021
537 Clouds 2 1020 69 10000 13.38 160 16:35 08.04.2021
538 Clouds 2 1021 69 10000 12.35 160 15:49 08.04.2021
539 Clouds 2 1021 69 10000 12.35 160 15:31 08.04.2021
540 Clouds 2 1022 69 10000 9.26 170 14:58 08.04.2021
541 Clouds 2 1022 69 10000 9.26 170 14:37 08.04.2021
542 Clouds 2 1022 69 10000 9.26 170 14:19 08.04.2021
543 Clouds 2 1021 69 10000 10.29 170 13:43 08.04.2021
544 Clouds 2 1021 69 10000 10.29 170 13:23 08.04.2021
545 Clouds 0 1022 93 10000 8.75 190 12:45 08.04.2021
546 Clouds 0 1022 93 10000 8.75 190 12:25 08.04.2021
547 Clouds 0 1022 93 10000 8.23 190 11:47 08.04.2021
548 Clouds 0 1022 93 10000 8.23 190 11:20 08.04.2021
549 Clouds 2 1022 75 10000 9.26 190 10:43 08.04.2021
550 Clouds 2 1022 75 10000 9.26 190 10:24 08.04.2021
551 Clouds 2 1022 75 10000 10.29 160 09:43 08.04.2021
552 Clouds 3 1022 65 10000 13.89 160 08:51 08.04.2021
553 Clouds 3 1022 65 10000 13.89 160 08:30 08.04.2021
554 Clouds 4 1022 60 10000 12.35 160 07:59 08.04.2021
555 Clouds 4 1022 60 10000 12.35 160 07:40 08.04.2021
556 Clouds 4 1024 45 10000 6.17 180 04:51 08.04.2021
557 Clouds 3 1024 44 10000 3.27 91 01:25 08.04.2021
558 Clouds 2 1025 55 10000 1.03 150 00:30 08.04.2021
559 Clouds 1 1025 60 10000 2.06 210 23:45 07.04.2021
560 Clouds 1 1025 60 10000 2.06 210 23:22 07.04.2021
561 Clouds 2 1025 48 10000 1.54 170 22:54 07.04.2021
562 Clouds 2 1025 48 10000 1.54 170 22:35 07.04.2021
563 Clouds 2 1026 51 10000 3.09 0 21:53 07.04.2021
564 Clouds 2 1026 51 10000 3.09 0 21:32 07.04.2021
565 Clouds 2 1026 51 10000 6.17 80 20:49 07.04.2021
566 Clouds 2 1026 51 10000 6.17 80 20:28 07.04.2021
567 Clouds 2 1027 51 10000 2.06 0 19:50 07.04.2021
568 Clouds 2 1027 51 10000 2.06 0 19:31 07.04.2021
569 Clouds 2 1028 48 10000 2.06 30 18:56 07.04.2021
570 Clouds 2 1028 48 10000 2.06 30 18:22 07.04.2021
571 Clouds 0 1029 64 10000 7.72 80 17:59 07.04.2021
572 Clouds 0 1029 64 10000 7.72 80 17:40 07.04.2021
573 Clear 0 1029 69 10000 9.26 60 16:59 07.04.2021
574 Clear 0 1029 69 10000 9.26 60 16:40 07.04.2021
575 Clear 0 1029 69 10000 9.26 60 16:20 07.04.2021
576 Clear 0 1029 69 10000 8.23 60 15:50 07.04.2021
577 Clear 0 1029 69 10000 8.23 60 15:25 07.04.2021
578 Clear 0 1029 69 10000 8.23 60 15:25 07.04.2021
579 Snow -1 1029 74 10000 10.29 60 14:37 07.04.2021
580 Snow -1 1029 74 10000 10.29 60 14:18 07.04.2021
581 Snow -1 1029 80 10000 9.26 60 13:37 07.04.2021
582 Snow -1 1029 80 10000 9.26 60 13:19 07.04.2021
583 Clear -2 1030 86 10000 8.75 70 12:39 07.04.2021
584 Clear -2 1030 86 10000 8.75 70 12:18 07.04.2021
585 Clouds -2 1030 86 10000 9.26 70 11:39 07.04.2021
586 Clouds -2 1030 86 10000 9.26 70 11:20 07.04.2021
587 Clouds -2 1031 86 10000 6.17 60 10:46 07.04.2021
588 Clouds -3 1031 93 10000 6.17 50 09:47 07.04.2021
589 Clouds -3 1031 93 10000 6.17 50 09:28 07.04.2021
590 Clouds -3 1031 93 10000 7.72 60 08:51 07.04.2021
591 Clouds -3 1031 93 10000 7.72 60 08:26 07.04.2021
592 Snow -3 1032 93 10000 7.72 60 07:48 07.04.2021
593 Snow -3 1032 93 10000 7.72 60 07:28 07.04.2021
594 Snow -3 1032 100 10000 7.72 50 06:39 07.04.2021
595 Clouds -3 1032 100 10000 6.69 50 05:22 07.04.2021
596 Clouds -4 1033 93 10000 5.66 350 01:23 07.04.2021
597 Clouds -4 1033 93 10000 5.14 360 23:47 06.04.2021
598 Clouds -4 1033 93 10000 5.14 360 23:22 06.04.2021
599 Clouds -3 1033 93 10000 6.17 340 22:55 06.04.2021
600 Clouds -3 1033 93 10000 6.17 340 22:21 06.04.2021
601 Clouds -3 1034 93 10000 5.66 350 21:55 06.04.2021
602 Clouds -3 1034 93 10000 5.66 350 21:37 06.04.2021
603 Clouds -3 1034 93 10000 5.66 350 21:18 06.04.2021
604 Clouds -3 1033 93 10000 6.17 350 20:41 06.04.2021
605 Clouds -3 1033 93 10000 6.17 350 20:20 06.04.2021
606 Clouds -3 1033 93 10000 5.14 360 19:44 06.04.2021
607 Clouds -3 1033 93 10000 5.14 360 19:25 06.04.2021
608 Snow -3 1033 100 10000 6.17 350 18:45 06.04.2021
609 Snow -3 1033 100 10000 6.17 350 18:22 06.04.2021
610 Snow -3 1033 100 3000 5.14 360 17:45 06.04.2021
611 Snow -3 1033 100 3000 5.14 360 17:20 06.04.2021
612 Snow -2 1033 93 3500 4.12 360 16:49 06.04.2021
613 Snow -2 1032 93 1600 5.14 360 16:30 06.04.2021
614 Snow -2 1032 100 1400 4.63 10 15:28 06.04.2021
615 Snow -2 1032 100 1400 2.06 20 14:55 06.04.2021
616 Snow -2 1032 100 1400 2.06 20 14:37 06.04.2021
617 Snow -2 1032 100 1400 2.06 20 14:37 06.04.2021
618 Snow -2 1032 100 1400 2.06 20 14:18 06.04.2021
619 Snow 0 1031 100 600 5.14 210 13:40 06.04.2021
620 Snow 0 1031 100 600 5.14 210 13:21 06.04.2021
621 Snow 0 1030 100 1300 10.29 180 12:41 06.04.2021
622 Snow 0 1030 100 1300 10.29 180 12:20 06.04.2021
623 Snow 0 1029 100 1100 10.29 180 11:48 06.04.2021
624 Snow 0 1029 100 1100 10.29 180 11:21 06.04.2021
625 Snow 1 1029 93 1800 11.83 170 10:47 06.04.2021
626 Snow 1 1029 93 1800 11.83 170 10:25 06.04.2021
627 Snow 1 1028 93 1900 12.35 170 09:48 06.04.2021
628 Snow 1 1028 93 1900 12.35 170 09:48 06.04.2021
629 Snow 1 1028 93 1900 12.35 170 09:29 06.04.2021
630 Snow 1 1028 100 1900 13.38 180 08:40 06.04.2021
631 Snow 1 1028 93 2500 12.86 170 07:57 06.04.2021
632 Snow 2 1028 93 4000 10.29 170 06:55 06.04.2021
633 Rain 2 1029 87 3000 10.8 170 05:22 06.04.2021
634 Rain 3 1029 87 1900 11.32 170 02:54 06.04.2021
635 Rain 3 1029 93 3000 11.83 180 00:44 06.04.2021
636 Rain 3 1029 93 3000 11.83 180 00:21 06.04.2021
637 Rain 3 1029 93 3500 11.32 170 23:42 05.04.2021
638 Rain 3 1029 93 3500 11.32 170 23:19 05.04.2021
639 Rain 3 1030 87 3500 11.32 170 22:48 05.04.2021
640 Rain 3 1030 87 3500 11.32 170 22:26 05.04.2021
641 Rain 3 1029 87 8000 13.38 160 21:43 05.04.2021
642 Snow 3 1029 87 8000 13.38 160 21:21 05.04.2021
643 Snow 3 1030 87 4100 9.26 170 20:43 05.04.2021
644 Rain 3 1030 87 4100 9.26 170 20:25 05.04.2021
645 Fog 2 1031 93 2000 7.2 190 19:43 05.04.2021
646 Rain 2 1031 93 2000 7.2 190 19:21 05.04.2021
647 Rain 2 1031 93 3000 10.29 180 18:49 05.04.2021
648 Rain 2 1031 93 3000 10.29 180 18:31 05.04.2021
649 Rain 2 1031 93 5000 10.29 180 17:59 05.04.2021
650 Rain 2 1031 93 5000 10.29 180 17:41 05.04.2021
651 Snow 2 1031 93 5000 10.29 180 17:19 05.04.2021
652 Snow 2 1031 93 5000 9.26 170 16:42 05.04.2021
653 Snow 2 1031 93 5000 9.26 170 16:20 05.04.2021
654 Snow 2 1031 93 5000 10.29 170 15:52 05.04.2021
655 Snow 2 1031 93 5000 10.29 170 15:27 05.04.2021
656 Snow 2 1031 93 5000 8.75 160 14:47 05.04.2021
657 Snow 2 1031 93 5000 8.75 160 14:27 05.04.2021
658 Snow 1 1031 100 10000 10.8 170 13:31 05.04.2021
659 Snow 1 1031 100 10000 9.77 170 12:48 05.04.2021
660 Snow 1 1031 100 10000 9.77 170 12:26 05.04.2021
661 Snow 0 1032 97 50 6.13 178 11:56 05.04.2021
662 Snow 0 1032 97 50 6.13 178 11:33 05.04.2021
663 Snow 0 1031 100 3000 6.17 180 10:59 05.04.2021
664 Snow 0 1031 100 3000 6.17 180 10:59 05.04.2021
665 Snow -2 1031 100 3000 6.17 180 10:40 05.04.2021
666 Drizzle -2 1031 100 3000 6.17 180 10:22 05.04.2021
667 Snow -3 1032 100 2300 1.54 0 09:47 05.04.2021
668 Snow -3 1032 100 2300 1.54 0 09:22 05.04.2021
669 Snow -1 1032 98 97 2.65 195 08:42 05.04.2021
670 Snow -3 1032 97 93 0.94 272 08:24 05.04.2021
671 Snow -3 1032 97 93 0.94 272 07:36 05.04.2021
672 Snow -2 1031 97 94 1.88 270 05:23 05.04.2021
673 Snow 2 1017 93 44 21.01 150 01:35 05.04.2021
674 Snow 2 1017 93 44 21.01 150 00:38 05.04.2021
675 Snow 2 1017 93 46 21.01 150 23:51 04.04.2021
676 Snow 2 1017 93 47 21.01 150 23:24 04.04.2021
677 Snow 2 1017 93 47 21.01 150 22:51 04.04.2021
678 Snow 2 1017 93 46 21.01 150 22:29 04.04.2021
679 Snow 2 1017 93 48 21.01 150 21:28 04.04.2021
680 Snow 2 1017 93 48 21.01 150 20:57 04.04.2021
681 Snow 2 1017 93 51 21.01 150 20:30 04.04.2021
682 Snow 2 1017 93 48 21.01 150 20:30 04.04.2021
683 Snow 2 1017 93 48 21.01 150 20:30 04.04.2021
684 Snow 2 1017 93 59 21.01 150 19:57 04.04.2021
685 Snow 2 1017 93 59 21.01 150 19:36 04.04.2021
686 Snow 2 1017 93 58 21.01 150 19:18 04.04.2021
687 Snow 2 1017 93 58 21.01 150 19:18 04.04.2021
688 Snow 2 1017 93 58 21.01 150 18:42 04.04.2021
689 Snow 2 1017 93 63 21.01 150 18:21 04.04.2021
690 Snow 1 1021 96 63 19.28 175 17:44 04.04.2021
691 Snow 1 1021 96 61 19.84 174 17:23 04.04.2021
692 Snow 1 1021 96 61 19.84 174 16:44 04.04.2021
693 Snow 1 1020 96 69 19.9 173 16:19 04.04.2021
694 Snow 1 1020 96 69 19.9 173 15:34 04.04.2021
695 Snow 2 1017 93 1100 21.09 150 14:46 04.04.2021
696 Snow 2 1017 93 1100 21.09 150 14:27 04.04.2021
697 Snow 3 1019 81 1800 16.98 150 13:52 04.04.2021
698 Snow 3 1019 81 1800 16.98 150 13:25 04.04.2021
699 Snow 0 1020 93 3900 2.06 0 12:44 04.04.2021
700 Snow 0 1020 93 3900 2.06 0 12:25 04.04.2021
701 Snow -1 1022 100 4000 6.69 0 11:42 04.04.2021
702 Snow -1 1022 100 4000 6.69 0 11:24 04.04.2021
703 Snow -2 1023 74 2600 2.06 240 10:46 04.04.2021
704 Snow -2 1023 59 10000 2.06 170 09:59 04.04.2021
705 Snow -2 1023 59 10000 2.06 170 09:27 04.04.2021
706 Snow -1 1023 47 10000 0.51 0 08:55 04.04.2021
707 Snow -1 1023 47 10000 0.51 0 08:37 04.04.2021
708 Snow -1 1023 47 10000 0.51 0 08:19 04.04.2021
709 Snow -1 1025 40 10000 2.57 220 06:39 04.04.2021
710 Snow -2 1025 40 10000 7.72 70 05:33 04.04.2021
711 Snow -5 1028 63 6000 10.8 60 01:47 04.04.2021
712 Clouds -6 1030 79 10000 8.75 50 00:25 04.04.2021
713 Clouds -6 1030 79 10000 9.26 60 23:52 03.04.2021
714 Clouds -6 1030 79 10000 9.26 60 23:33 03.04.2021
715 Clouds -6 1030 79 10000 8.23 60 22:53 03.04.2021
716 Clouds -6 1030 79 10000 8.23 60 22:23 03.04.2021
717 Clouds -6 1031 79 10000 7.72 60 21:59 03.04.2021
718 Clouds -6 1031 79 10000 7.72 60 21:39 03.04.2021
719 Clouds -6 1031 79 10000 7.72 60 21:19 03.04.2021
720 Clouds -6 1031 79 10000 8.75 60 20:38 03.04.2021
721 Clouds -6 1031 79 10000 8.75 60 20:18 03.04.2021
722 Clouds -6 1031 79 10000 8.75 50 19:43 03.04.2021
723 Clouds -6 1031 79 10000 8.75 50 19:18 03.04.2021
724 Clouds -6 1031 79 10000 8.75 50 18:44 03.04.2021
725 Clouds -6 1031 73 10000 6.69 50 17:58 03.04.2021
726 Clouds -6 1031 73 10000 6.69 50 17:28 03.04.2021
727 Clouds -6 1031 73 10000 6.69 40 16:59 03.04.2021
728 Clouds -6 1031 73 10000 6.69 40 16:32 03.04.2021
729 Clouds -6 1031 68 10000 6.17 40 15:57 03.04.2021
730 Clouds -6 1031 68 10000 6.17 40 15:39 03.04.2021
731 Clouds -6 1031 68 10000 6.17 40 15:18 03.04.2021
732 Clouds -7 1031 79 10000 7.72 10 14:37 03.04.2021
733 Clouds -7 1031 79 10000 7.72 10 14:18 03.04.2021
734 Clouds -8 1031 79 10000 7.72 20 13:42 03.04.2021
735 Clouds -8 1031 79 10000 7.72 20 13:20 03.04.2021
736 Clouds -8 1031 73 10000 6.17 30 12:41 03.04.2021
737 Clouds -8 1031 73 10000 6.17 30 12:19 03.04.2021
738 Clouds -8 1031 79 10000 6.69 40 11:32 03.04.2021
739 Clouds -8 1031 79 10000 7.72 10 10:50 03.04.2021
740 Clouds -8 1031 79 10000 7.72 10 10:30 03.04.2021
741 Clouds -8 1031 86 10000 6.69 360 09:51 03.04.2021
742 Clouds -8 1031 86 10000 6.69 360 09:28 03.04.2021
743 Clouds -8 1031 73 10000 7.2 10 08:44 03.04.2021
744 Clouds -8 1031 73 10000 7.2 10 08:26 03.04.2021
745 Clouds -8 1031 73 10000 6.69 360 07:28 03.04.2021
746 Clouds -9 1031 79 10000 7.72 350 05:43 03.04.2021
747 Clouds -9 1031 73 10000 7.72 350 03:35 03.04.2021
748 Clouds -8 1032 73 10000 7.72 340 02:49 03.04.2021
749 Clouds -8 1032 73 10000 7.72 340 02:23 03.04.2021
750 Clouds -8 1031 79 10000 7.72 340 00:20 03.04.2021
751 Snow -8 1032 86 10000 6.69 340 23:47 02.04.2021
752 Snow -8 1032 86 10000 6.69 340 23:24 02.04.2021
753 Snow -8 1032 86 10000 6.69 340 22:52 02.04.2021
754 Snow -8 1032 86 10000 6.69 340 22:33 02.04.2021
755 Snow -8 1032 86 10000 5.66 350 21:46 02.04.2021
756 Snow -8 1032 86 10000 5.66 350 21:23 02.04.2021
757 Snow -8 1031 93 10000 4.63 350 20:48 02.04.2021
758 Snow -8 1031 93 10000 4.63 350 20:28 02.04.2021
759 Snow -8 1031 93 6000 4.12 350 19:58 02.04.2021
760 Snow -8 1031 93 6000 4.12 350 19:39 02.04.2021
761 Snow -8 1031 93 6000 4.12 350 19:20 02.04.2021
762 Snow -8 1031 93 10000 4.12 340 18:39 02.04.2021
763 Snow -8 1031 93 10000 4.12 340 18:20 02.04.2021
764 Snow -7 1031 86 10000 4.12 340 17:37 02.04.2021
765 Snow -7 1031 93 10000 3.09 340 16:50 02.04.2021
766 Snow -7 1031 93 10000 3.09 340 16:22 02.04.2021
767 Snow -7 1031 93 5000 3.09 350 15:35 02.04.2021
768 Snow -7 1030 93 3500 3.09 350 14:55 02.04.2021
769 Snow -7 1030 93 3500 3.09 350 14:31 02.04.2021
770 Snow -7 1030 93 3500 3.09 350 14:31 02.04.2021
771 Snow -7 1030 93 2200 2.57 340 13:44 02.04.2021
772 Snow -7 1030 93 2200 2.57 340 13:23 02.04.2021
773 Snow -7 1029 93 1400 2.06 340 12:41 02.04.2021
774 Snow -7 1029 93 1400 2.06 340 12:20 02.04.2021
775 Snow -7 1029 93 1600 2.06 350 11:56 02.04.2021
776 Snow -7 1029 93 1600 2.06 350 11:21 02.04.2021
777 Snow -7 1029 93 1600 2.06 350 11:21 02.04.2021
778 Snow -7 1028 93 1600 2.06 330 10:51 02.04.2021
779 Snow -7 1028 93 1600 2.06 330 10:30 02.04.2021
780 Snow -7 1028 93 1100 1.54 310 09:53 02.04.2021
781 Snow -9 1029 94 132 3.95 331 09:27 02.04.2021
782 Snow -9 1029 94 132 3.95 331 08:58 02.04.2021
783 Snow -8 1028 94 136 3.63 345 08:33 02.04.2021
784 Snow -8 1028 94 147 3.03 338 07:31 02.04.2021
785 Snow -8 1028 95 127 3.27 320 06:53 02.04.2021
786 Snow -8 1027 95 123 4.04 300 05:57 02.04.2021
787 Snow -4 1022 96 100 5.56 260 02:47 02.04.2021
788 Snow 1 1013 100 1000 18.01 160 00:53 02.04.2021
789 Snow 1 1013 100 1000 18.01 160 00:23 02.04.2021
790 Snow 0 1012 100 750 17.49 170 23:40 01.04.2021
791 Snow 0 1012 100 750 17.49 170 23:18 01.04.2021
792 Fog 1 1010 100 700 26.24 160 22:21 01.04.2021
793 Snow 1 1009 100 700 25.21 160 21:51 01.04.2021
794 Snow 1 1009 100 700 25.21 160 21:29 01.04.2021
795 Snow 1 1008 100 600 24.69 160 20:54 01.04.2021
796 Snow 1 1008 100 600 24.69 160 20:28 01.04.2021
797 Snow 0 1007 100 550 23.66 160 19:57 01.04.2021
798 Snow 0 1007 100 550 23.66 160 19:37 01.04.2021
799 Snow 1 1007 100 1000 24.69 160 18:47 01.04.2021
800 Snow 1 1007 100 1000 24.69 160 18:19 01.04.2021
801 Snow 1 1006 100 800 24.18 160 17:57 01.04.2021
802 Snow 1 1006 100 800 24.18 160 17:38 01.04.2021
803 Snow 1 1006 100 800 24.18 160 17:19 01.04.2021
804 Snow 1 1007 100 1000 25.72 160 16:41 01.04.2021
805 Snow 1 1007 100 1200 22.12 160 15:49 01.04.2021
806 Snow 1 1007 100 1200 22.12 160 15:21 01.04.2021
807 Snow 1 1007 100 1000 21.61 160 14:51 01.04.2021
808 Snow 1 1007 100 1000 21.61 160 14:28 01.04.2021
809 Snow 1 1008 93 1000 23.15 150 13:58 01.04.2021
810 Snow 1 1008 93 1000 23.15 150 13:32 01.04.2021
811 Snow 1 1007 93 1000 21.09 150 12:56 01.04.2021
812 Snow 1 1007 93 1000 21.09 150 12:37 01.04.2021
813 Snow 1 1007 93 1000 21.09 150 12:18 01.04.2021
814 Snow 0 1010 93 900 22.64 150 11:42 01.04.2021
815 Snow 0 1010 93 900 22.64 150 11:18 01.04.2021
816 Snow 1 1011 86 4800 22.12 160 10:45 01.04.2021
817 Snow 1 1011 86 4800 22.12 160 10:25 01.04.2021
818 Snow 0 1012 86 1200 21.09 150 09:32 01.04.2021
819 Snow 0 1013 86 1200 24.18 150 08:54 01.04.2021
820 Snow -1 1013 86 1200 24.18 150 08:32 01.04.2021
821 Snow -1 1013 93 700 22.64 160 07:22 01.04.2021
822 Snow -1 1013 86 2500 21.09 160 06:56 01.04.2021
823 Snow -1 1014 86 1500 20.58 160 05:34 01.04.2021
824 Snow -2 1016 93 650 20.06 150 03:20 01.04.2021
825 Snow -2 1018 80 1500 15.43 150 00:23 01.04.2021
826 Snow -3 1018 80 9000 13.89 150 23:44 31.03.2021
827 Snow -3 1020 80 10000 12.35 150 22:56 31.03.2021
828 Snow -3 1020 80 10000 12.35 150 22:37 31.03.2021
829 Snow -3 1020 80 10000 12.35 150 22:18 31.03.2021
830 Clouds -3 1020 80 10000 10.29 150 21:40 31.03.2021
831 Clouds -3 1020 80 10000 10.29 150 21:19 31.03.2021
832 Snow -4 1021 80 10000 7.72 160 20:41 31.03.2021
833 Snow -4 1021 80 10000 7.72 160 20:22 31.03.2021
834 Clouds -4 1021 80 10000 5.66 170 19:43 31.03.2021
835 Clouds -4 1021 80 10000 5.66 170 19:21 31.03.2021
836 Clouds -4 1022 80 10000 5.66 160 18:57 31.03.2021
837 Clouds -4 1022 80 10000 5.66 160 18:38 31.03.2021
838 Clouds -4 1022 86 10000 3.6 180 17:51 31.03.2021
839 Clouds -4 1022 86 10000 3.6 180 17:30 31.03.2021
840 Snow -5 1023 86 10000 3.6 180 16:55 31.03.2021
841 Snow -5 1023 86 10000 3.6 180 16:36 31.03.2021
842 Snow -5 1023 80 10000 2.06 170 15:59 31.03.2021
843 Snow -5 1023 80 10000 2.06 170 15:41 31.03.2021
844 Snow -5 1023 80 10000 2.06 170 15:19 31.03.2021
845 Snow -6 1023 86 10000 2.57 200 14:42 31.03.2021
846 Snow -6 1023 86 10000 2.57 200 14:19 31.03.2021
847 Snow -6 1022 86 10000 3.09 210 13:35 31.03.2021
848 Snow -6 1021 86 10000 3.6 200 12:41 31.03.2021
849 Snow -6 1021 86 10000 3.6 200 12:20 31.03.2021
850 Snow -6 1020 86 10000 3.6 210 11:39 31.03.2021
851 Snow -6 1020 86 10000 3.6 210 11:20 31.03.2021
852 Snow -6 1018 86 8000 3.09 210 10:46 31.03.2021
853 Snow -6 1018 86 8000 3.09 210 10:46 31.03.2021
854 Snow -6 1018 86 8000 3.09 210 10:24 31.03.2021
855 Snow -6 1016 93 3400 3.09 220 09:37 31.03.2021
856 Snow -5 1013 93 9000 2.06 220 08:54 31.03.2021
857 Snow -5 1013 93 9000 2.06 220 08:33 31.03.2021
858 Snow -5 1011 93 900 2.57 230 07:49 31.03.2021
859 Snow -5 1008 93 900 2.57 230 06:38 31.03.2021
860 Snow -3 999 100 1000 6.69 220 03:46 31.03.2021
861 Snow 1 992 100 1200 20.58 160 01:35 31.03.2021
862 Snow 2 991 93 1900 18.01 160 00:48 31.03.2021
863 Snow 2 991 93 1900 18.01 160 00:19 31.03.2021
864 Snow 3 991 87 2600 15.95 160 23:33 30.03.2021
865 Snow 4 989 81 3300 16.98 150 22:58 30.03.2021
866 Snow 4 989 81 3300 16.98 150 22:39 30.03.2021
867 Snow 4 989 81 3300 16.98 150 22:21 30.03.2021
868 Snow 4 989 75 3100 16.46 160 21:46 30.03.2021
869 Snow 4 989 75 3100 16.46 160 21:20 30.03.2021
870 Snow 4 989 75 3100 16.46 160 21:20 30.03.2021
871 Snow 4 988 70 4900 16.98 150 20:51 30.03.2021
872 Snow 4 988 70 4900 16.98 150 20:28 30.03.2021
873 Snow 5 988 60 10000 13.89 160 19:50 30.03.2021
874 Rain 4 988 60 10000 13.89 160 19:27 30.03.2021
875 Rain 4 988 60 10000 7.72 160 18:39 30.03.2021
876 Clouds 4 988 65 10000 13.38 150 17:56 30.03.2021
877 Clouds 4 988 65 10000 13.38 150 17:38 30.03.2021
878 Snow 2 988 65 10000 13.38 150 17:20 30.03.2021
879 Snow 2 989 65 10000 14.4 150 16:44 30.03.2021
880 Snow 2 989 65 10000 14.4 150 16:23 30.03.2021
881 Snow 2 989 65 10000 16.46 150 15:20 30.03.2021
882 Snow 2 991 87 4500 8.23 160 14:56 30.03.2021
883 Snow 2 991 87 4500 8.23 160 14:22 30.03.2021
884 Snow 0 991 100 2500 3.09 0 13:58 30.03.2021
885 Snow 0 991 100 2500 3.09 0 13:36 30.03.2021
886 Snow -2 992 93 1500 7.2 70 12:49 30.03.2021
887 Snow -2 992 93 1500 7.2 70 12:49 30.03.2021
888 Snow -2 992 93 1500 7.2 70 12:27 30.03.2021
889 Snow -2 993 93 2500 6.17 70 11:56 30.03.2021
890 Snow -2 993 93 2500 6.17 70 11:23 30.03.2021
891 Snow -2 995 80 4200 5.66 80 10:46 30.03.2021
892 Snow -2 995 80 4200 5.66 80 10:26 30.03.2021
893 Snow -1 996 69 10000 1.54 0 09:50 30.03.2021
894 Snow -1 996 69 10000 1.54 0 09:31 30.03.2021
895 Snow -2 997 74 4500 5.66 100 08:55 30.03.2021
896 Snow -2 997 74 4500 5.66 100 08:37 30.03.2021
897 Snow -1 998 55 10000 3.09 160 07:51 30.03.2021
898 Snow -1 998 55 10000 3.09 160 07:22 30.03.2021
899 Snow -1 1000 69 6000 5.14 0 05:26 30.03.2021
900 Snow -1 1001 64 5000 8.75 160 04:58 30.03.2021
901 Snow -1 1002 51 10000 7.2 150 00:30 30.03.2021
902 Snow -1 1003 51 10000 7.72 150 23:34 29.03.2021
903 Clouds -1 1004 51 10000 7.72 140 22:51 29.03.2021
904 Clouds -1 1004 51 10000 7.72 140 22:26 29.03.2021
905 Clouds -1 1004 47 10000 4.63 150 21:47 29.03.2021
906 Clouds -1 1004 47 10000 4.63 150 21:27 29.03.2021
907 Clouds -2 1004 54 10000 7.2 140 20:48 29.03.2021
908 Clouds -2 1004 54 10000 7.2 140 20:27 29.03.2021
909 Clouds -2 1005 29 10000 4.12 150 19:49 29.03.2021
910 Clouds -2 1005 29 10000 4.12 150 19:22 29.03.2021
911 Clouds -1 1005 29 10000 3.09 170 18:44 29.03.2021
912 Clouds -1 1005 29 10000 3.09 170 18:26 29.03.2021
913 Clouds -5 1006 42 10000 1.54 0 17:50 29.03.2021
914 Clouds -5 1006 42 10000 1.54 0 17:30 29.03.2021
915 Clouds -7 1006 49 10000 0.51 0 16:42 29.03.2021
916 Clouds -7 1006 49 10000 0.51 0 16:23 29.03.2021
917 Clouds -8 1007 45 10000 1.54 0 15:36 29.03.2021
918 Clouds -8 1007 45 10000 1.54 0 15:18 29.03.2021
919 Clouds -9 1007 45 10000 1.03 120 14:45 29.03.2021
920 Clouds -10 1007 44 10000 1.03 120 13:55 29.03.2021
921 Clouds -10 1007 44 10000 1.03 120 13:31 29.03.2021
922 Clouds -11 1008 48 10000 2.06 130 12:54 29.03.2021
923 Clouds -11 1008 48 10000 2.06 130 12:36 29.03.2021
924 Clouds -11 1008 44 10000 2.06 130 11:43 29.03.2021
925 Clouds -11 1008 44 10000 2.06 130 11:24 29.03.2021
926 Clouds -12 1008 52 10000 2.06 100 10:43 29.03.2021
927 Clouds -12 1008 52 10000 2.06 100 10:18 29.03.2021
928 Clouds -12 1009 48 10000 2.06 90 09:31 29.03.2021
929 Clouds -12 1008 44 10000 2.06 80 08:30 29.03.2021
930 Clouds -13 1009 52 10000 2.06 100 07:54 29.03.2021
931 Clouds -13 1009 52 10000 2.06 100 06:57 29.03.2021
932 Clouds -13 1009 52 10000 2.06 100 06:22 29.03.2021
933 Clouds -13 1010 61 10000 5.14 70 02:32 29.03.2021
934 Clouds -13 1010 66 10000 7.2 70 00:27 29.03.2021
935 Clouds -12 1010 67 10000 7.2 60 23:58 28.03.2021
936 Clouds -12 1010 67 10000 7.2 60 23:25 28.03.2021
937 Clouds -12 1010 67 10000 7.2 60 22:48 28.03.2021
938 Clouds -12 1010 67 10000 7.2 60 22:28 28.03.2021
939 Clouds -12 1010 72 10000 5.66 60 21:47 28.03.2021
940 Clouds -12 1010 72 10000 5.66 60 21:25 28.03.2021
941 Clouds -12 1010 67 10000 5.14 60 20:54 28.03.2021
942 Clouds -12 1010 67 10000 5.14 60 20:35 28.03.2021
943 Clouds -13 1010 67 10000 5.14 60 20:00 28.03.2021
944 Clouds -13 1010 72 10000 6.69 60 19:41 28.03.2021
945 Clouds -13 1010 72 10000 6.69 60 19:20 28.03.2021
946 Clouds -13 1010 72 10000 7.72 60 18:49 28.03.2021
947 Clouds -13 1010 72 10000 7.72 60 18:19 28.03.2021
948 Clouds -14 1010 72 10000 6.17 60 17:41 28.03.2021
949 Clouds -14 1010 72 10000 6.17 60 17:18 28.03.2021
950 Clouds -14 1011 72 10000 5.66 60 16:39 28.03.2021
951 Clouds -14 1011 72 10000 5.66 60 16:21 28.03.2021
952 Clouds -14 1010 66 10000 5.66 50 15:24 28.03.2021
953 Clouds -14 1011 61 10000 5.14 40 14:49 28.03.2021
954 Clouds -14 1011 61 10000 5.14 40 14:25 28.03.2021
955 Clouds -15 1011 61 10000 5.66 50 13:36 28.03.2021
956 Clouds -16 1011 72 10000 4.63 50 12:58 28.03.2021
957 Clouds -16 1011 72 10000 4.63 50 12:35 28.03.2021
958 Clouds -16 1010 66 10000 5.66 50 11:59 28.03.2021
959 Clouds -16 1010 66 10000 5.66 50 11:38 28.03.2021
960 Clouds -16 1010 60 10000 6.17 40 10:55 28.03.2021
961 Clouds -16 1010 60 10000 6.17 40 10:32 28.03.2021
962 Clouds -16 1010 60 10000 6.17 20 09:56 28.03.2021
963 Clouds -16 1010 60 10000 6.17 20 09:28 28.03.2021
964 Clouds -16 1010 66 10000 7.2 20 08:56 28.03.2021
965 Clouds -16 1010 66 10000 7.2 20 08:35 28.03.2021
966 Clouds -17 1010 71 10000 7.2 40 07:43 28.03.2021
967 Clouds -16 1010 66 10000 8.75 10 06:22 28.03.2021
968 Clouds -17 1011 71 10000 9.77 10 03:50 28.03.2021
969 Clouds -18 1010 78 10000 10.29 10 00:45 28.03.2021
970 Clouds -18 1011 78 10000 9.26 10 23:59 27.03.2021
971 Clouds -18 1011 78 10000 9.26 10 23:36 27.03.2021
972 Clouds -17 1010 66 10000 11.83 20 22:49 27.03.2021
973 Clouds -17 1010 66 10000 11.83 20 22:30 27.03.2021
974 Snow -18 1010 65 10000 13.38 20 21:45 27.03.2021
975 Snow -18 1010 65 10000 13.38 20 21:21 27.03.2021
976 Snow -18 1010 71 10000 14.92 20 20:59 27.03.2021
977 Snow -18 1010 71 10000 14.92 20 20:37 27.03.2021
978 Snow -18 1010 71 10000 14.92 20 20:19 27.03.2021
979 Snow -18 1010 78 10000 14.4 20 19:41 27.03.2021
980 Snow -18 1010 78 10000 14.4 20 19:22 27.03.2021
981 Snow -18 1010 78 10000 11.83 10 18:47 27.03.2021
982 Snow -18 1010 78 10000 11.83 10 18:22 27.03.2021
983 Snow -18 1010 60 10000 13.89 20 17:37 27.03.2021
984 Snow -18 1010 60 10000 13.89 20 17:18 27.03.2021
985 Snow -19 1011 71 10000 13.38 40 16:47 27.03.2021
986 Snow -19 1011 71 10000 13.38 40 16:26 27.03.2021
987 Snow -19 1011 71 10000 13.38 20 15:45 27.03.2021
988 Snow -19 1011 71 10000 13.38 20 15:19 27.03.2021
989 Snow -20 1011 84 10000 12.86 20 14:42 27.03.2021
990 Snow -20 1010 77 10000 13.89 20 13:40 27.03.2021
991 Snow -20 1010 77 10000 13.89 20 13:20 27.03.2021
992 Snow -20 1010 84 10000 13.89 30 12:47 27.03.2021
993 Snow -20 1010 84 10000 14.4 30 11:53 27.03.2021
994 Snow -20 1010 84 10000 14.4 30 11:33 27.03.2021
995 Snow -20 1009 84 900 15.43 20 10:58 27.03.2021
996 Clear -28 1011 71 10000 7.8 24 10:39 27.03.2021
997 Clear -28 1011 72 10000 7.66 23 09:58 27.03.2021
998 Clear -28 1011 73 10000 7.5 23 09:21 27.03.2021
999 Clear -28 1011 73 10000 7.5 23 08:40 27.03.2021
1000 Clear -28 1010 72 10000 7.64 23 07:56 27.03.2021
1001 Clear -28 1009 73 10000 7.08 24 07:22 27.03.2021
1002 Clear -28 1009 73 10000 7.08 24 06:43 27.03.2021
1003 Clear -27 1009 73 10000 7.21 30 04:42 27.03.2021
1004 Clear -26 1009 75 10000 7.05 24 02:58 27.03.2021
1005 Clouds -26 1009 80 10000 5.06 34 00:45 27.03.2021
1006 Snow -19 1007 65 900 11.83 20 00:25 27.03.2021
1007 Snow -19 1007 65 900 11.83 20 23:38 26.03.2021
1008 Snow -19 1007 60 10000 10.8 10 22:45 26.03.2021
1009 Snow -19 1007 60 10000 10.8 10 22:24 26.03.2021
1010 Snow -19 1007 55 10000 10.29 10 21:25 26.03.2021
1011 Snow -18 1007 50 10000 8.75 20 20:58 26.03.2021
1012 Snow -18 1007 50 10000 8.75 20 20:32 26.03.2021
1013 Snow -18 1007 50 10000 8.75 10 19:53 26.03.2021
1014 Snow -18 1007 50 10000 8.75 10 19:35 26.03.2021
1015 Snow -18 1007 50 10000 8.23 20 18:59 26.03.2021
1016 Snow -18 1007 50 10000 8.23 20 18:36 26.03.2021
1017 Snow -18 1007 50 10000 8.23 20 18:18 26.03.2021
1018 Snow -18 1008 55 10000 6.69 10 17:43 26.03.2021
1019 Snow -18 1009 71 8000 6.69 360 16:53 26.03.2021
1020 Snow -18 1009 71 8000 6.69 360 16:30 26.03.2021
1021 Snow -18 1009 78 3200 7.2 10 15:43 26.03.2021
1022 Snow -17 1010 78 2500 6.17 10 14:57 26.03.2021
1023 Snow -17 1010 78 2500 6.17 10 14:20 26.03.2021
1024 Snow -17 1010 78 2300 5.66 360 13:33 26.03.2021
1025 Snow -17 1010 78 2400 5.66 10 12:48 26.03.2021
1026 Snow -17 1010 85 2300 5.66 20 11:50 26.03.2021
1027 Snow -17 1010 85 2300 5.66 20 11:31 26.03.2021
1028 Snow -16 1011 72 6000 4.12 10 10:46 26.03.2021
1029 Snow -16 1011 72 6000 4.12 10 10:27 26.03.2021
1030 Snow -17 1011 78 8000 6.69 340 09:41 26.03.2021
1031 Snow -16 1011 66 10000 5.66 330 08:59 26.03.2021
1032 Snow -16 1011 66 10000 5.66 330 08:35 26.03.2021
1033 Snow -17 1011 60 10000 4.12 330 07:58 26.03.2021
1034 Snow -17 1011 60 10000 4.12 330 07:22 26.03.2021
1035 Snow -16 1012 60 10000 5.14 350 06:57 26.03.2021
1036 Snow -16 1012 60 10000 5.14 350 06:27 26.03.2021
1037 Snow -17 1012 71 10000 3.6 360 05:25 26.03.2021
1038 Clouds -16 1013 78 10000 5.66 360 01:57 26.03.2021
1039 Snow -16 1013 78 7000 7.72 340 00:27 26.03.2021
1040 Clouds -16 1013 78 9000 5.14 340 23:44 25.03.2021
1041 Clouds -15 1013 66 10000 2.57 80 22:56 25.03.2021
1042 Clouds -15 1013 66 10000 2.57 80 22:28 25.03.2021
1043 Clouds -15 1013 72 10000 2.06 30 21:51 25.03.2021
1044 Clouds -15 1013 72 10000 2.06 30 21:33 25.03.2021
1045 Snow -14 1013 72 10000 0.51 0 20:45 25.03.2021
1046 Snow -14 1013 72 10000 0.51 0 20:25 25.03.2021
1047 Snow -15 1013 72 10000 2.57 10 19:45 25.03.2021
1048 Snow -15 1013 72 10000 2.57 10 19:27 25.03.2021
1049 Snow -16 1013 85 10000 3.09 350 18:47 25.03.2021
1050 Snow -16 1013 85 10000 3.09 350 18:27 25.03.2021
1051 Snow -16 1012 78 10000 2.57 360 17:51 25.03.2021
1052 Snow -16 1012 78 10000 2.57 360 17:33 25.03.2021
1053 Snow -16 1012 85 7000 3.6 330 16:52 25.03.2021
1054 Snow -16 1012 85 7000 3.6 330 16:31 25.03.2021
1055 Snow -15 1012 78 10000 3.6 320 15:45 25.03.2021
1056 Snow -15 1012 78 10000 3.6 320 15:22 25.03.2021
1057 Snow -16 1012 85 6000 5.14 330 14:46 25.03.2021
1058 Snow -16 1012 85 10000 4.12 320 13:56 25.03.2021
1059 Snow -16 1012 85 10000 4.12 320 13:24 25.03.2021
1060 Snow -15 1012 85 10000 4.63 310 12:45 25.03.2021
1061 Snow -15 1012 85 10000 4.63 310 12:21 25.03.2021
1062 Snow -15 1011 85 2500 6.17 300 11:53 25.03.2021
1063 Snow -15 1011 85 2500 6.17 300 11:30 25.03.2021
1064 Snow -15 1011 85 4000 4.63 310 10:57 25.03.2021
1065 Snow -15 1011 85 4000 4.63 310 10:38 25.03.2021
1066 Snow -15 1011 85 4000 4.63 310 10:18 25.03.2021
1067 Snow -15 1011 85 4000 4.63 310 10:18 25.03.2021
1068 Snow -15 1010 92 4000 5.14 310 09:42 25.03.2021
1069 Snow -15 1010 92 900 6.17 300 08:59 25.03.2021
1070 Snow -15 1010 92 900 6.17 300 08:30 25.03.2021
1071 Snow -14 1009 85 1600 5.14 320 07:26 25.03.2021
1072 Snow -14 1008 85 900 6.17 320 06:42 25.03.2021
1073 Snow -14 1008 85 900 6.17 320 06:22 25.03.2021
1074 Snow -13 1007 66 10000 4.12 280 04:42 25.03.2021
1075 Snow -14 1006 85 6000 2.57 10 01:20 25.03.2021
1076 Snow -14 1006 85 6000 2.57 20 00:18 25.03.2021
1077 Snow -14 1005 85 4500 3.09 340 23:39 24.03.2021
1078 Snow -14 1005 85 4500 3.09 340 23:18 24.03.2021
1079 Snow -13 1004 85 3800 2.57 360 22:39 24.03.2021
1080 Snow -13 1004 85 3500 1.54 60 21:51 24.03.2021
1081 Snow -13 1004 85 3500 1.54 60 21:32 24.03.2021
1082 Snow -13 1004 78 3000 2.57 330 20:56 24.03.2021
1083 Snow -13 1004 78 3000 2.57 330 20:38 24.03.2021
1084 Snow -13 1004 78 3000 2.57 330 20:18 24.03.2021
1085 Snow -12 1003 67 10000 2.57 310 19:31 24.03.2021
1086 Clouds -12 1003 61 10000 2.57 290 18:52 24.03.2021
1087 Clouds -12 1003 61 10000 2.57 290 18:24 24.03.2021
1088 Clouds -12 1003 61 10000 2.57 290 18:24 24.03.2021
1089 Snow -13 1002 66 10000 5.14 300 17:53 24.03.2021
1090 Snow -13 1002 66 10000 5.14 300 17:53 24.03.2021
1091 Snow -13 1002 66 10000 5.14 300 17:32 24.03.2021
1092 Clouds -13 1002 66 6000 4.63 290 16:56 24.03.2021
1093 Clouds -13 1002 66 6000 4.63 290 16:38 24.03.2021
1094 Snow -13 1002 78 10000 4.63 300 16:18 24.03.2021
1095 Snow -13 1002 78 10000 4.63 300 15:33 24.03.2021
1096 Clouds -13 1001 85 10000 4.12 290 14:59 24.03.2021
1097 Clouds -13 1001 85 10000 4.12 290 14:29 24.03.2021
1098 Snow -13 1001 85 5000 3.6 290 13:58 24.03.2021
1099 Snow -13 1001 85 5000 3.6 290 13:28 24.03.2021
1100 Snow -13 1000 78 8000 3.6 330 12:50 24.03.2021
1101 Snow -13 1000 78 8000 3.6 330 12:29 24.03.2021
1102 Snow -13 1000 72 10000 3.6 350 11:54 24.03.2021
1103 Snow -13 1000 72 10000 3.6 350 11:35 24.03.2021
1104 Snow -13 1000 72 10000 3.6 350 11:35 24.03.2021
1105 Snow -13 1000 72 10000 2.57 340 10:48 24.03.2021
1106 Snow -13 1000 72 10000 2.57 340 10:28 24.03.2021
1107 Clouds -13 999 66 10000 4.12 340 09:54 24.03.2021
1108 Clouds -13 999 66 10000 4.12 340 09:25 24.03.2021
1109 Clouds -13 999 56 10000 5.66 350 08:57 24.03.2021
1110 Clouds -13 999 56 10000 5.66 350 08:34 24.03.2021
1111 Clouds -13 999 56 10000 4.63 10 07:48 24.03.2021
1112 Clouds -13 999 56 10000 4.63 10 07:18 24.03.2021
1113 Clouds -13 999 56 10000 4.12 20 06:41 24.03.2021
1114 Snow -13 999 61 10000 5.66 340 01:26 24.03.2021
1115 Clouds -13 999 66 10000 6.17 340 00:40 24.03.2021
1116 Clouds -12 999 67 10000 5.66 340 23:46 23.03.2021
1117 Clouds -12 999 67 10000 5.66 340 23:19 23.03.2021
1118 Clouds -12 999 61 10000 5.66 340 22:47 23.03.2021
1119 Clouds -12 999 61 10000 5.66 340 22:24 23.03.2021
1120 Clouds -12 999 67 10000 4.12 340 21:45 23.03.2021
1121 Clouds -12 999 67 10000 4.12 340 21:25 23.03.2021
1122 Clouds -12 999 67 10000 4.63 360 20:45 23.03.2021
1123 Clouds -12 999 67 10000 4.63 360 20:25 23.03.2021
1124 Clouds -12 1000 67 10000 4.12 360 19:47 23.03.2021
1125 Clouds -12 1000 67 10000 4.12 360 19:26 23.03.2021
1126 Clouds -12 1000 67 10000 4.12 360 18:44 23.03.2021
1127 Clouds -12 1000 67 10000 4.12 360 18:22 23.03.2021
1128 Clouds -12 1000 67 10000 3.09 10 17:46 23.03.2021
1129 Clouds -12 1000 67 10000 3.09 10 17:21 23.03.2021
1130 Clouds -12 1000 67 10000 3.09 50 16:42 23.03.2021
1131 Clouds -12 1000 67 10000 3.09 50 16:19 23.03.2021
1132 Clouds -13 999 67 10000 4.12 340 15:40 23.03.2021
1133 Clouds -13 999 66 10000 4.63 340 14:55 23.03.2021
1134 Clouds -13 999 66 10000 4.63 340 14:37 23.03.2021
1135 Clouds -13 999 66 10000 4.63 340 14:18 23.03.2021
1136 Snow -13 999 78 10000 6.17 330 13:41 23.03.2021
1137 Snow -13 999 78 10000 6.17 330 13:20 23.03.2021
1138 Clouds -12 999 67 10000 6.17 320 12:43 23.03.2021
1139 Clouds -12 999 67 10000 6.17 320 12:20 23.03.2021
1140 Snow -12 998 79 10000 5.66 320 11:45 23.03.2021
1141 Clouds -12 998 79 10000 6.69 330 10:45 23.03.2021
1142 Clouds -12 998 79 10000 6.69 330 10:26 23.03.2021
1143 Clouds -12 998 79 10000 6.69 330 10:26 23.03.2021
1144 Clouds -11 998 79 10000 7.2 330 09:58 23.03.2021
1145 Clouds -11 998 79 10000 7.2 330 09:39 23.03.2021
1146 Clouds -11 998 79 10000 7.2 330 09:20 23.03.2021
1147 Clouds -11 997 92 10000 6.69 320 08:40 23.03.2021
1148 Clouds -11 997 92 10000 6.69 320 08:22 23.03.2021
1149 Clouds -10 996 92 10000 6.17 330 07:48 23.03.2021
1150 Snow -10 996 92 10000 6.17 330 07:20 23.03.2021
1151 Snow -10 995 92 10000 7.2 340 06:33 23.03.2021
1152 Snow -8 993 93 10000 1.54 210 03:23 23.03.2021
1153 Snow -7 993 93 3200 2.57 270 02:20 23.03.2021
1154 Snow -6 992 73 5000 7.72 150 23:44 22.03.2021
1155 Snow -7 992 79 10000 5.66 160 22:56 22.03.2021
1156 Snow -7 992 79 10000 5.66 160 22:38 22.03.2021
1157 Clouds -7 992 79 10000 5.66 160 22:20 22.03.2021
1158 Clouds -6 992 68 10000 5.66 150 21:42 22.03.2021
1159 Clouds -6 992 68 10000 5.66 150 21:23 22.03.2021
1160 Clouds -7 993 73 10000 5.66 150 20:42 22.03.2021
1161 Clouds -7 993 73 10000 5.66 150 20:22 22.03.2021
1162 Clouds -7 993 79 10000 5.14 170 19:55 22.03.2021
1163 Clouds -7 993 79 10000 5.14 170 19:37 22.03.2021
1164 Clouds -7 993 79 10000 5.14 170 19:19 22.03.2021
1165 Snow -6 994 68 10000 4.63 160 18:40 22.03.2021
1166 Snow -6 994 68 10000 4.63 160 18:21 22.03.2021
1167 Snow -6 994 68 10000 5.14 160 17:44 22.03.2021
1168 Snow -6 994 68 10000 5.14 160 17:21 22.03.2021
1169 Snow -7 994 73 10000 3.6 160 16:45 22.03.2021
1170 Snow -7 994 73 10000 3.6 160 16:22 22.03.2021
1171 Snow -7 995 73 5000 4.12 160 15:39 22.03.2021
1172 Snow -7 995 73 5000 4.12 160 15:20 22.03.2021
1173 Snow -7 996 73 5000 3.6 170 14:57 22.03.2021
1174 Snow -7 996 73 5000 3.6 170 14:34 22.03.2021
1175 Clouds -7 996 73 10000 1.34 140 13:49 22.03.2021
1176 Snow -7 996 73 10000 1.54 140 13:28 22.03.2021
1177 Snow -8 996 73 10000 1.54 140 12:56 22.03.2021
1178 Snow -8 996 73 10000 1.54 140 12:26 22.03.2021
1179 Snow -8 997 79 10000 2.06 120 11:50 22.03.2021
1180 Snow -8 997 79 10000 2.06 120 11:29 22.03.2021
1181 Snow -8 997 86 10000 0.51 190 10:46 22.03.2021
1182 Snow -8 997 86 10000 0.51 190 10:26 22.03.2021
1183 Snow -8 997 86 10000 1.54 150 09:56 22.03.2021
1184 Snow -8 997 86 10000 1.54 150 09:34 22.03.2021
1185 Snow -8 997 86 8000 1.03 200 08:47 22.03.2021
1186 Snow -8 997 86 8000 1.03 200 08:47 22.03.2021
1187 Snow -8 997 86 8000 1.03 200 08:28 22.03.2021
1188 Snow -8 997 86 4500 2.57 270 07:54 22.03.2021
1189 Snow -8 997 86 4500 2.57 270 07:34 22.03.2021
1190 Snow -8 997 86 5000 2.51 143 06:51 22.03.2021
1191 Clouds -8 998 73 10000 4.63 330 03:24 22.03.2021
1192 Clouds -8 998 73 10000 6.17 330 00:53 22.03.2021
1193 Clouds -8 998 73 10000 6.17 330 00:19 22.03.2021
1194 Clouds -7 998 79 10000 7.2 320 23:47 21.03.2021
1195 Clouds -7 998 79 10000 7.2 320 23:18 21.03.2021
1196 Snow -7 997 93 10000 9.26 320 22:53 21.03.2021
1197 Snow -6 996 93 10000 9.26 320 21:43 21.03.2021
1198 Snow -6 996 93 10000 9.26 320 21:25 21.03.2021
1199 Clouds -6 995 93 10000 8.75 320 20:57 21.03.2021
1200 Clouds -6 995 93 10000 8.75 320 20:39 21.03.2021
1201 Clouds -6 995 93 10000 8.75 320 20:21 21.03.2021
1202 Clouds -5 995 93 10000 9.77 320 19:48 21.03.2021
1203 Snow -5 995 93 10000 9.77 320 19:20 21.03.2021
1204 Clouds -5 994 93 10000 9.26 320 18:45 21.03.2021
1205 Snow -5 994 93 10000 9.26 320 18:26 21.03.2021
1206 Snow -4 993 92 572 7.15 300 17:44 21.03.2021
1207 Snow -4 993 93 1400 7.2 300 17:19 21.03.2021
1208 Snow -4 993 93 1400 7.2 300 16:51 21.03.2021
1209 Snow -4 993 93 1400 7.2 300 16:27 21.03.2021
1210 Snow -4 993 93 5000 8.23 290 15:49 21.03.2021
1211 Snow -4 993 93 5000 8.23 290 15:23 21.03.2021
1212 Snow -4 992 93 2000 6.69 280 14:58 21.03.2021
1213 Snow -4 992 93 2000 6.69 280 14:39 21.03.2021
1214 Snow -4 992 93 2000 6.69 280 14:20 21.03.2021
1215 Snow -4 992 93 3200 4.63 260 13:51 21.03.2021
1216 Snow -4 991 93 4600 5.14 240 12:46 21.03.2021
1217 Snow -4 991 93 4600 5.14 240 12:26 21.03.2021
1218 Snow -4 991 80 10000 3.6 210 11:49 21.03.2021
1219 Snow -4 991 80 10000 3.6 210 11:27 21.03.2021
1220 Snow -4 990 86 10000 6.17 250 10:54 21.03.2021
1221 Snow -4 990 86 10000 6.17 250 10:33 21.03.2021
1222 Snow -4 989 93 7000 6.17 280 09:57 21.03.2021
1223 Snow -4 989 93 7000 6.17 280 09:38 21.03.2021
1224 Snow -4 989 93 7000 6.17 280 09:38 21.03.2021
1225 Snow -4 989 93 7000 6.17 280 09:38 21.03.2021
1226 Snow -4 989 93 7000 6.17 280 09:38 21.03.2021
1227 Snow -4 989 93 7000 6.17 280 09:19 21.03.2021
1228 Snow -3 988 93 7000 6.69 300 08:38 21.03.2021
1229 Snow -3 988 93 7000 6.69 300 08:19 21.03.2021
1230 Snow -3 987 100 10000 3.09 280 07:31 21.03.2021
1231 Snow -3 987 100 3900 5.14 280 06:50 21.03.2021
1232 Snow -2 986 86 10000 3.06 288 04:58 21.03.2021
1233 Snow -2 986 86 10000 3.06 288 04:58 21.03.2021
1234 Clouds -1 987 69 10000 7.72 120 01:00 21.03.2021
1235 Clouds -1 987 69 10000 7.72 120 00:39 21.03.2021
1236 Clouds -1 987 69 10000 7.72 120 00:21 21.03.2021
1237 Drizzle -2 987 80 10000 4.12 160 23:47 20.03.2021
1238 Drizzle -2 987 80 10000 4.12 160 23:20 20.03.2021
1239 Clouds -1 987 80 10000 5.14 170 22:50 20.03.2021
1240 Clouds -1 987 80 10000 5.14 170 22:21 20.03.2021
1241 Clouds 0 988 80 10000 6.17 190 21:45 20.03.2021
1242 Clouds 0 988 80 10000 6.17 190 21:24 20.03.2021
1243 Clouds 1 988 75 10000 5.66 180 20:44 20.03.2021
1244 Clouds 1 988 75 10000 5.66 180 20:22 20.03.2021
1245 Clouds 0 988 74 10000 1.54 0 19:48 20.03.2021
1246 Snow 0 989 74 10000 2.06 0 19:26 20.03.2021
1247 Snow 0 989 74 10000 2.06 0 18:49 20.03.2021
1248 Clouds 0 989 74 10000 2.06 0 18:26 20.03.2021
1249 Clouds 0 990 74 10000 1.54 0 17:54 20.03.2021
1250 Clouds 0 990 74 10000 1.54 0 17:32 20.03.2021
1251 Snow 0 991 80 10000 2.06 0 16:46 20.03.2021
1252 Snow 0 991 80 10000 2.06 0 16:21 20.03.2021
1253 Snow 0 991 80 10000 2.06 0 16:21 20.03.2021
1254 Snow 2 991 60 10000 6.69 150 15:59 20.03.2021
1255 Snow 2 991 60 10000 6.69 150 15:39 20.03.2021
1256 Snow 1 992 64 10000 7.2 160 14:49 20.03.2021
1257 Snow 1 992 64 10000 7.2 160 14:28 20.03.2021
1258 Snow 0 992 80 10000 9.77 150 13:42 20.03.2021
1259 Snow 0 992 80 10000 9.77 150 13:18 20.03.2021
1260 Snow 0 992 86 10000 10.8 150 12:27 20.03.2021
1261 Snow -1 992 93 10000 10.8 160 11:50 20.03.2021
1262 Snow -2 992 93 10000 10.8 160 11:30 20.03.2021
1263 Snow -3 993 100 1200 1.03 0 10:56 20.03.2021
1264 Snow -3 993 100 1200 1.03 0 10:37 20.03.2021
1265 Snow -3 993 100 1200 1.03 0 10:18 20.03.2021
1266 Snow -3 993 93 900 2.06 10 09:42 20.03.2021
1267 Snow -3 993 93 900 2.06 10 09:21 20.03.2021
1268 Snow -3 993 93 800 4.12 80 08:45 20.03.2021
1269 Snow -3 993 80 2700 4.63 90 07:55 20.03.2021
1270 Snow -3 993 80 2700 4.63 90 07:32 20.03.2021
1271 Snow -3 994 68 10000 4.63 70 06:56 20.03.2021
1272 Snow -3 994 68 10000 4.63 70 06:27 20.03.2021
1273 Snow -3 995 59 10000 7.2 80 04:41 20.03.2021
1274 Snow -3 996 54 10000 7.72 70 03:42 20.03.2021
1275 Clouds -3 1001 59 10000 5.14 70 00:42 20.03.2021
1276 Clouds -3 1003 63 10000 7.2 80 23:36 19.03.2021
1277 Clouds -3 1003 63 10000 7.2 80 23:18 19.03.2021
1278 Clouds -3 1004 63 10000 4.63 80 22:40 19.03.2021
1279 Clouds -3 1004 63 10000 4.63 80 22:40 19.03.2021
1280 Clouds -3 1004 63 10000 4.63 80 22:22 19.03.2021
1281 Clouds -2 1006 59 10000 3.09 110 21:37 19.03.2021
1282 Clouds -2 1006 59 10000 3.09 110 21:18 19.03.2021
1283 Clouds -1 1007 55 10000 3.09 100 20:44 19.03.2021
1284 Clouds -1 1007 55 10000 3.09 100 20:26 19.03.2021
1285 Clouds 0 1008 51 10000 3.09 120 19:47 19.03.2021
1286 Clouds 0 1008 51 10000 3.09 120 19:22 19.03.2021
1287 Clouds -1 1009 55 10000 3.6 120 18:49 19.03.2021
1288 Clouds -1 1009 55 10000 3.6 120 18:21 19.03.2021
1289 Clouds -1 1010 51 10000 3.6 110 17:56 19.03.2021
1290 Clouds -1 1010 51 10000 3.6 110 17:37 19.03.2021
1291 Clouds -1 1011 47 10000 3.6 120 16:59 19.03.2021
1292 Clouds -1 1011 47 10000 3.6 120 16:40 19.03.2021
1293 Clouds -1 1011 47 10000 3.6 120 16:21 19.03.2021
1294 Clouds -1 1012 47 10000 4.12 120 15:33 19.03.2021
1295 Clouds -2 1012 54 10000 6.17 130 14:51 19.03.2021
1296 Clouds -2 1012 54 10000 6.17 130 14:32 19.03.2021
1297 Snow -2 1013 54 10000 10.29 160 13:50 19.03.2021
1298 Snow -2 1013 54 10000 10.29 160 13:19 19.03.2021
1299 Snow -2 1013 54 10000 9.77 160 12:42 19.03.2021
1300 Snow -2 1013 54 10000 9.77 160 12:18 19.03.2021
1301 Snow -2 1013 54 10000 8.75 150 11:26 19.03.2021
1302 Snow -2 1013 54 10000 10.29 150 10:42 19.03.2021
1303 Snow -2 1013 54 10000 10.29 150 10:21 19.03.2021
1304 Clouds -2 1014 59 10000 8.23 150 09:44 19.03.2021
1305 Clouds -2 1014 59 10000 8.23 150 09:24 19.03.2021
1306 Snow -2 1013 54 10000 9.26 160 08:51 19.03.2021
1307 Snow -2 1013 54 10000 9.26 160 08:26 19.03.2021
1308 Snow -3 1014 59 6000 10.29 150 07:50 19.03.2021
1309 Snow -3 1014 59 6000 10.29 150 07:31 19.03.2021
1310 Snow -3 1014 68 4000 11.83 150 05:28 19.03.2021
1311 Snow -4 1014 58 10000 8.23 140 01:58 19.03.2021
1312 Clouds -5 1014 58 10000 7.72 130 23:57 18.03.2021
1313 Clouds -5 1014 58 10000 7.72 130 23:29 18.03.2021
1314 Clouds -5 1014 58 10000 4.63 140 22:52 18.03.2021
1315 Clouds -5 1014 58 10000 4.63 140 22:26 18.03.2021
1316 Clouds -5 1014 58 10000 4.63 140 22:26 18.03.2021
1317 Clouds -4 1014 50 10000 7.72 140 21:55 18.03.2021
1318 Clouds -4 1014 50 10000 7.72 140 21:36 18.03.2021
1319 Snow -5 1014 58 10000 8.75 150 20:43 18.03.2021
1320 Snow -5 1014 58 10000 8.75 150 20:22 18.03.2021
1321 Snow -5 1014 58 10000 8.75 160 19:43 18.03.2021
1322 Snow -5 1014 58 10000 8.75 160 19:23 18.03.2021
1323 Snow -5 1014 58 10000 8.75 160 19:23 18.03.2021
1324 Snow -5 1013 63 10000 8.23 160 18:52 18.03.2021
1325 Snow -5 1013 63 10000 8.23 160 18:25 18.03.2021
1326 Snow -6 1013 86 10000 6.69 180 17:43 18.03.2021
1327 Snow -6 1013 86 10000 6.69 180 17:20 18.03.2021
1328 Snow -7 1012 86 4000 7.72 200 16:41 18.03.2021
1329 Snow -7 1012 86 4000 7.72 200 16:23 18.03.2021
1330 Snow -7 1011 86 10000 8.75 190 15:41 18.03.2021
1331 Snow -7 1011 86 10000 8.75 190 15:21 18.03.2021
1332 Snow -7 1010 86 5000 6.69 220 14:49 18.03.2021
1333 Snow -7 1010 86 5000 6.69 220 14:23 18.03.2021
1334 Snow -7 1008 73 10000 7.2 200 13:43 18.03.2021
1335 Snow -7 1008 73 10000 7.2 200 13:25 18.03.2021
1336 Snow -8 1006 73 10000 6.17 220 12:40 18.03.2021
1337 Snow -8 1006 73 10000 6.17 220 12:22 18.03.2021
1338 Snow -8 1004 79 10000 6.17 230 11:46 18.03.2021
1339 Snow -8 1004 79 10000 6.17 230 11:27 18.03.2021
1340 Snow -8 1002 79 10000 5.14 240 10:44 18.03.2021
1341 Snow -8 1002 79 10000 5.14 240 10:25 18.03.2021
1342 Snow -7 1000 86 10000 5.66 260 09:54 18.03.2021
1343 Snow -7 1000 86 10000 5.66 260 09:28 18.03.2021
1344 Snow -7 997 93 7000 5.14 270 08:46 18.03.2021
1345 Snow -7 997 93 7000 5.14 270 08:27 18.03.2021
1346 Snow -7 995 100 2600 6.17 280 07:50 18.03.2021
1347 Snow -7 995 100 2600 6.17 280 07:24 18.03.2021
1348 Snow -6 994 93 2100 5.14 290 06:27 18.03.2021
1349 Snow -6 992 93 1700 4.8 282 05:42 18.03.2021
1350 Snow -6 988 86 7000 1.03 30 01:24 18.03.2021
1351 Snow -7 987 93 2500 2.57 50 23:58 17.03.2021
1352 Snow -8 986 86 1800 3.6 50 22:47 17.03.2021
1353 Snow -8 986 86 1800 3.6 50 22:26 17.03.2021
1354 Snow -8 986 86 1800 4.12 60 21:56 17.03.2021
1355 Snow -8 986 86 1800 4.12 60 21:34 17.03.2021
1356 Snow -8 986 79 10000 3.6 40 20:59 17.03.2021
1357 Snow -8 986 79 10000 3.6 40 20:40 17.03.2021
1358 Snow -8 986 79 10000 3.6 40 20:40 17.03.2021
1359 Snow -8 986 79 10000 3.6 40 20:40 17.03.2021
1360 Snow -8 986 79 10000 3.6 40 20:22 17.03.2021
1361 Snow -8 987 79 10000 4.12 10 19:44 17.03.2021
1362 Snow -8 987 79 10000 4.12 10 19:21 17.03.2021
1363 Snow -9 989 79 10000 5.14 10 18:54 17.03.2021
1364 Snow -9 989 79 10000 5.14 10 18:36 17.03.2021
1365 Snow -9 990 73 10000 8.75 350 17:49 17.03.2021
1366 Snow -9 990 73 10000 8.75 350 17:27 17.03.2021
1367 Clouds -9 987 85 10000 11.62 350 16:47 17.03.2021
1368 Snow -9 994 86 10000 11.83 350 16:25 17.03.2021
1369 Snow -9 994 86 10000 11.83 350 15:56 17.03.2021
1370 Snow -9 994 86 10000 11.83 350 15:36 17.03.2021
1371 Snow -8 997 86 10000 8.75 360 14:45 17.03.2021
1372 Snow -8 997 86 10000 8.75 360 14:27 17.03.2021
1373 Snow -8 998 79 10000 7.72 350 13:55 17.03.2021
1374 Snow -8 998 79 10000 7.72 350 13:31 17.03.2021
1375 Clouds -8 1000 73 10000 7.2 360 12:54 17.03.2021
1376 Clouds -8 1000 73 10000 7.2 360 12:34 17.03.2021
1377 Clouds -8 1001 73 10000 6.69 10 11:51 17.03.2021
1378 Clouds -8 1001 73 10000 6.69 10 11:23 17.03.2021
1379 Snow -8 1002 79 10000 5.14 350 10:55 17.03.2021
1380 Snow -8 1002 79 10000 5.14 350 10:31 17.03.2021
1381 Snow -8 1003 79 10000 5.66 350 09:49 17.03.2021
1382 Snow -8 1003 79 10000 5.66 350 09:28 17.03.2021
1383 Snow -8 1003 73 10000 6.17 330 08:59 17.03.2021
1384 Snow -8 1003 73 10000 6.17 330 08:39 17.03.2021
1385 Snow -8 1003 73 10000 5.66 330 07:55 17.03.2021
1386 Snow -8 1003 73 10000 5.66 330 07:35 17.03.2021
1387 Snow -8 1002 86 10000 4.12 330 06:47 17.03.2021
1388 Snow -8 1000 79 8000 4.12 20 04:26 17.03.2021
1389 Snow -8 1000 73 6000 4.63 350 03:25 17.03.2021
1390 Snow -9 1000 73 10000 4.63 10 00:40 17.03.2021
1391 Snow -9 1000 73 10000 5.66 10 23:40 16.03.2021
1392 Snow -9 1000 73 10000 5.66 10 23:18 16.03.2021
1393 Snow -9 1000 73 10000 7.72 330 22:43 16.03.2021
1394 Snow -9 1000 73 10000 7.72 330 22:24 16.03.2021
1395 Snow -8 1000 73 10000 6.17 350 21:40 16.03.2021
1396 Snow -8 1000 73 10000 6.17 350 21:21 16.03.2021
1397 Snow -8 1001 73 10000 7.2 360 20:46 16.03.2021
1398 Snow -8 1001 73 10000 7.2 360 20:19 16.03.2021
1399 Snow -9 1001 79 10000 8.23 350 19:43 16.03.2021
1400 Snow -9 1001 79 10000 8.23 350 19:24 16.03.2021
1401 Snow -9 1001 79 10000 8.23 340 18:52 16.03.2021
1402 Snow -9 1001 79 10000 8.23 340 18:30 16.03.2021
1403 Snow -9 1002 79 10000 8.23 340 17:51 16.03.2021
1404 Snow -9 1002 79 10000 8.23 340 17:33 16.03.2021
1405 Snow -9 1003 79 10000 8.23 340 16:54 16.03.2021
1406 Snow -9 1003 79 10000 8.23 340 16:54 16.03.2021
1407 Snow -9 1003 79 10000 8.23 340 16:54 16.03.2021
1408 Snow -9 1003 79 10000 8.23 340 16:54 16.03.2021
1409 Snow -9 1003 79 10000 8.23 340 16:54 16.03.2021
1410 Snow -9 1003 79 10000 8.23 340 16:54 16.03.2021
1411 Snow -9 1003 79 10000 8.23 340 16:54 16.03.2021
1412 Snow -9 1003 79 10000 8.23 340 16:31 16.03.2021
1413 Snow -9 1004 79 10000 7.72 340 15:58 16.03.2021
1414 Snow -9 1004 79 10000 7.72 340 15:37 16.03.2021
1415 Snow -9 1004 79 10000 7.72 340 15:19 16.03.2021
1416 Snow -9 1004 79 10000 7.72 340 15:19 16.03.2021
1417 Snow -9 1004 73 10000 6.69 330 14:42 16.03.2021
1418 Snow -9 1004 73 10000 6.69 330 14:22 16.03.2021
1419 Snow -9 1004 73 10000 7.72 330 13:58 16.03.2021
1420 Snow -9 1004 73 10000 7.72 330 13:29 16.03.2021
1421 Clouds -9 1003 79 10000 7.2 330 12:56 16.03.2021
1422 Clouds -9 1003 79 10000 7.2 330 12:38 16.03.2021
1423 Clouds -9 1003 79 10000 7.2 330 12:18 16.03.2021
1424 Clouds -9 1003 79 10000 7.2 330 12:18 16.03.2021
1425 Clouds -9 1003 79 10000 6.69 330 11:35 16.03.2021
1426 Snow -9 1002 86 8000 7.72 330 10:50 16.03.2021
1427 Snow -9 1002 86 8000 7.72 330 10:21 16.03.2021
1428 Snow -9 1002 86 8000 7.72 330 10:21 16.03.2021
1429 Snow -9 1002 86 8000 7.72 330 10:21 16.03.2021
1430 Clouds -9 1001 79 10000 6.17 320 09:41 16.03.2021
1431 Clouds -9 1001 79 10000 6.17 320 09:21 16.03.2021
1432 Snow -9 999 86 10000 5.14 310 08:56 16.03.2021
1433 Snow -9 999 86 10000 5.14 310 08:37 16.03.2021
1434 Snow -9 998 92 8000 6.17 290 07:55 16.03.2021
1435 Snow -9 998 92 8000 6.17 290 07:29 16.03.2021
1436 Snow -9 996 92 6000 6.69 300 06:38 16.03.2021
1437 Snow -9 994 92 2900 4.63 300 05:37 16.03.2021
1438 Snow -8 992 93 4500 6.69 300 04:28 16.03.2021
1439 Snow -7 988 93 1400 6.69 300 02:29 16.03.2021
1440 Snow -7 986 93 1700 7.72 300 01:23 16.03.2021
1441 Snow -6 982 93 1700 6.69 310 23:55 15.03.2021
1442 Snow -6 982 93 1700 6.69 310 23:28 15.03.2021
1443 Snow -5 980 93 3200 7.2 320 22:50 15.03.2021
1444 Snow -5 980 93 3200 7.2 320 22:29 15.03.2021
1445 Snow -4 979 93 6000 4.12 310 21:53 15.03.2021
1446 Snow -4 979 93 6000 4.12 310 21:33 15.03.2021
1447 Snow -4 977 93 5000 5.14 320 20:57 15.03.2021
1448 Snow -4 977 93 5000 5.14 320 20:57 15.03.2021
1449 Snow -4 977 93 5000 5.14 320 20:39 15.03.2021
1450 Snow -4 977 93 5000 5.14 320 20:20 15.03.2021
1451 Snow -3 976 93 2000 2.57 320 19:49 15.03.2021
1452 Snow -3 976 93 2000 2.57 320 19:30 15.03.2021
1453 Snow -3 976 86 2100 2.06 360 18:49 15.03.2021
1454 Snow -3 976 86 2100 2.06 360 18:26 15.03.2021
1455 Snow -2 975 74 10000 1.03 70 17:55 15.03.2021
1456 Snow -2 975 74 10000 1.03 70 17:30 15.03.2021
1457 Clouds -3 975 68 10000 2.06 60 16:50 15.03.2021
1458 Clouds -3 975 68 10000 2.06 60 16:32 15.03.2021
1459 Clouds -5 975 74 10000 3.09 20 15:45 15.03.2021
1460 Clouds -5 975 74 10000 3.09 20 15:26 15.03.2021
1461 Clouds -5 977 74 10000 4.12 360 14:44 15.03.2021
1462 Clouds -5 977 74 10000 4.12 360 14:23 15.03.2021
1463 Clouds -6 978 86 10000 4.63 360 13:47 15.03.2021
1464 Clouds -6 978 86 10000 4.63 360 13:25 15.03.2021
1465 Clouds -6 979 86 10000 4.12 10 12:49 15.03.2021
1466 Clouds -6 979 86 10000 4.12 10 12:20 15.03.2021
1467 Clouds -6 980 79 10000 4.63 40 11:52 15.03.2021
1468 Clouds -6 980 79 10000 4.63 40 11:33 15.03.2021
1469 Clouds -6 981 79 10000 4.63 20 10:56 15.03.2021
1470 Clouds -6 981 79 10000 4.63 20 10:32 15.03.2021
1471 Clouds -7 983 86 10000 4.63 30 09:54 15.03.2021
1472 Clouds -7 983 86 10000 4.63 30 09:35 15.03.2021
1473 Clouds -7 984 79 10000 5.14 360 08:59 15.03.2021
1474 Clouds -7 984 79 10000 5.14 360 08:40 15.03.2021
1475 Clouds -7 984 79 10000 5.14 360 08:18 15.03.2021
1476 Clouds -7 986 73 10000 5.14 20 07:32 15.03.2021
1477 Clouds -6 987 79 10000 5.14 30 06:44 15.03.2021
1478 Clouds -6 988 79 10000 5.14 40 05:34 15.03.2021
1479 Clouds -6 992 73 10000 5.14 10 01:47 15.03.2021
1480 Clouds -6 992 79 10000 5.66 30 00:21 15.03.2021
1481 Clouds -6 993 73 10000 6.17 30 23:21 14.03.2021
1482 Clouds -6 993 73 10000 6.69 40 22:48 14.03.2021
1483 Clouds -6 993 73 10000 6.69 40 22:25 14.03.2021
1484 Clouds -6 993 73 10000 5.66 30 21:50 14.03.2021
1485 Clouds -6 993 73 10000 5.66 30 21:21 14.03.2021
1486 Clouds -6 993 73 10000 5.14 30 20:50 14.03.2021
1487 Clouds -6 993 73 10000 5.14 30 20:27 14.03.2021
1488 Clouds -6 993 68 10000 5.66 30 19:50 14.03.2021
1489 Clouds -6 993 68 10000 5.66 30 19:27 14.03.2021
1490 Clouds -6 993 73 10000 5.14 20 18:58 14.03.2021
1491 Clouds -6 993 73 10000 5.14 20 18:31 14.03.2021
1492 Clouds -7 993 79 10000 6.17 360 17:42 14.03.2021
1493 Clouds -7 993 79 10000 6.17 360 17:23 14.03.2021
1494 Clouds -7 993 73 10000 5.66 30 16:52 14.03.2021
1495 Clouds -7 993 73 10000 5.66 30 16:33 14.03.2021
1496 Clouds -7 993 68 10000 6.69 20 15:57 14.03.2021
1497 Clouds -7 993 68 10000 6.69 20 15:39 14.03.2021
1498 Clouds -8 993 73 10000 6.69 30 14:51 14.03.2021
1499 Clouds -8 993 73 10000 6.69 30 14:29 14.03.2021
1500 Clouds -8 993 67 10000 5.66 40 13:52 14.03.2021
1501 Clouds -8 993 67 10000 5.66 40 13:33 14.03.2021
1502 Clouds -9 993 79 10000 6.69 20 12:48 14.03.2021
1503 Clouds -9 993 79 10000 6.69 20 12:29 14.03.2021
1504 Clouds -9 993 73 10000 6.17 40 11:59 14.03.2021
1505 Clouds -9 993 73 10000 6.17 40 11:37 14.03.2021
1506 Clouds -9 993 73 10000 7.72 60 10:59 14.03.2021
1507 Clouds -9 993 73 10000 7.72 60 10:38 14.03.2021
1508 Clouds -9 993 73 10000 7.72 60 10:38 14.03.2021
1509 Clouds -9 993 73 10000 7.72 60 10:19 14.03.2021
1510 Clouds -9 993 73 10000 5.66 50 09:55 14.03.2021
1511 Clouds -9 993 73 10000 5.66 50 09:36 14.03.2021
1512 Clouds -9 993 73 10000 5.66 50 09:36 14.03.2021
1513 Clouds -9 993 73 10000 5.66 50 09:18 14.03.2021
1514 Clouds -9 993 73 10000 6.17 50 08:36 14.03.2021
1515 Clouds -9 993 67 10000 6.69 40 07:52 14.03.2021
1516 Clouds -9 993 67 10000 6.69 40 07:22 14.03.2021
1517 Clouds -9 993 73 10000 6.17 40 05:33 14.03.2021
1518 Clouds -10 993 67 10000 7.72 70 00:59 14.03.2021
1519 Clouds -10 993 67 10000 7.72 70 00:20 14.03.2021
1520 Clouds -10 993 73 10000 6.17 80 23:57 13.03.2021
1521 Clouds -10 993 73 10000 6.17 80 23:37 13.03.2021
1522 Clouds -10 993 73 10000 6.17 80 23:18 13.03.2021
1523 Clouds -9 993 73 10000 6.17 70 22:43 13.03.2021
1524 Clouds -9 993 73 10000 5.66 70 21:50 13.03.2021
1525 Clouds -9 993 73 10000 5.66 70 21:30 13.03.2021
1526 Clouds -9 993 67 10000 5.66 70 20:55 13.03.2021
1527 Clouds -9 993 67 10000 5.66 70 20:32 13.03.2021
1528 Clouds -9 992 67 10000 5.66 70 19:56 13.03.2021
1529 Clouds -9 992 67 10000 5.66 70 19:36 13.03.2021
1530 Clouds -9 992 67 10000 5.66 70 19:18 13.03.2021
1531 Clouds -9 992 67 10000 5.66 70 19:18 13.03.2021
1532 Clouds -9 992 67 10000 5.66 70 19:18 13.03.2021
1533 Clouds -9 992 67 10000 6.69 80 18:40 13.03.2021
1534 Clouds -9 992 67 10000 6.69 80 18:19 13.03.2021
1535 Clouds -9 992 67 10000 7.2 80 17:44 13.03.2021
1536 Clouds -9 992 67 10000 7.2 80 17:25 13.03.2021
1537 Clear -9 993 73 10000 7.2 80 16:50 13.03.2021
1538 Clear -9 993 73 10000 7.2 80 16:29 13.03.2021
1539 Clear -9 993 67 10000 6.69 70 15:47 13.03.2021
1540 Clear -9 993 62 10000 6.17 70 14:54 13.03.2021
1541 Clear -9 993 62 10000 6.17 70 14:36 13.03.2021
1542 Clear -10 994 67 10000 6.69 70 13:55 13.03.2021
1543 Clear -10 994 67 10000 6.69 70 13:25 13.03.2021
1544 Clear -10 994 62 10000 6.69 80 12:48 13.03.2021
1545 Clear -10 994 62 10000 6.69 80 12:28 13.03.2021
1546 Clear -10 995 66 10000 6.71 80 11:51 13.03.2021
1547 Clear -10 995 66 10000 6.71 80 11:31 13.03.2021
1548 Clear -10 995 67 10000 6.69 80 10:55 13.03.2021
1549 Clear -10 995 67 10000 6.69 80 10:30 13.03.2021
1550 Clouds -9 995 67 10000 6.69 80 09:56 13.03.2021
1551 Clouds -9 995 67 10000 6.69 80 09:31 13.03.2021
1552 Clouds -9 996 67 10000 7.2 80 08:53 13.03.2021
1553 Clouds -9 996 67 10000 7.2 80 08:20 13.03.2021
1554 Clouds -9 997 67 10000 7.2 80 07:56 13.03.2021
1555 Clouds -9 997 67 10000 7.2 80 07:20 13.03.2021
1556 Clouds -9 999 67 10000 6.17 80 04:45 13.03.2021
1557 Clouds -9 1000 73 10000 4.12 80 01:21 13.03.2021
1558 Clouds -9 1000 67 10000 3.09 90 00:23 13.03.2021
1559 Clouds -9 1000 67 10000 2.57 100 23:33 12.03.2021
1560 Clouds -8 1000 62 10000 3.09 40 22:56 12.03.2021
1561 Clouds -8 1000 62 10000 3.09 40 22:29 12.03.2021
1562 Clouds -7 1000 63 10000 3.09 50 21:56 12.03.2021
1563 Clouds -7 1000 63 10000 3.09 50 21:37 12.03.2021
1564 Clouds -7 1000 63 10000 3.09 50 21:37 12.03.2021
1565 Clouds -7 1000 63 10000 3.09 50 21:18 12.03.2021
1566 Clouds -6 1000 58 10000 1.54 120 20:46 12.03.2021
1567 Clouds -6 1000 58 10000 1.54 120 20:21 12.03.2021
1568 Clouds -5 1000 54 10000 2.06 150 19:44 12.03.2021
1569 Clouds -5 1000 54 10000 2.06 150 19:25 12.03.2021
1570 Snow -5 1000 58 10000 3.09 140 18:43 12.03.2021
1571 Snow -5 1000 58 10000 3.09 140 18:24 12.03.2021
1572 Snow -5 1000 63 10000 3.6 170 17:43 12.03.2021
1573 Snow -5 1000 63 10000 3.6 170 17:24 12.03.2021
1574 Snow -5 1000 54 10000 1.03 180 16:44 12.03.2021
1575 Clouds -5 1000 54 10000 1.03 180 16:23 12.03.2021
1576 Clouds -6 1000 58 10000 3.6 130 15:38 12.03.2021
1577 Clouds -7 1000 58 10000 2.57 130 14:53 12.03.2021
1578 Clouds -7 1000 58 10000 2.57 130 14:22 12.03.2021
1579 Clouds -7 1000 63 10000 2.57 120 13:58 12.03.2021
1580 Clouds -7 1000 63 10000 2.57 120 13:58 12.03.2021
1581 Clouds -7 1000 63 10000 2.57 120 13:37 12.03.2021
1582 Clouds -7 1000 63 10000 2.57 120 13:18 12.03.2021
1583 Clouds -7 999 63 10000 3.09 120 12:48 12.03.2021
1584 Clouds -7 999 63 10000 3.09 120 12:27 12.03.2021
1585 Clouds -7 999 63 10000 4.63 140 11:54 12.03.2021
1586 Snow -7 999 63 10000 4.63 140 11:24 12.03.2021
1587 Snow -7 998 73 10000 7.2 150 10:57 12.03.2021
1588 Snow -7 998 73 10000 7.2 150 10:28 12.03.2021
1589 Snow -7 998 73 10000 7.2 150 10:28 12.03.2021
1590 Snow -7 997 73 10000 7.72 160 09:58 12.03.2021
1591 Clouds -7 997 73 10000 7.72 160 09:27 12.03.2021
1592 Clouds -7 997 73 10000 8.23 160 08:50 12.03.2021
1593 Clouds -7 997 73 10000 8.23 160 08:30 12.03.2021
1594 Clouds -7 997 79 6000 7.2 150 07:41 12.03.2021
1595 Snow -7 996 86 5000 5.66 130 06:59 12.03.2021
1596 Snow -7 996 86 5000 5.66 130 06:39 12.03.2021
1597 Snow -7 994 68 10000 4.12 120 03:28 12.03.2021
1598 Drizzle -7 992 79 10000 3.09 90 00:52 12.03.2021
1599 Snow -6 992 79 10000 3.6 80 23:40 11.03.2021
1600 Snow -5 991 80 10000 3.09 40 22:58 11.03.2021
1601 Snow -5 991 80 10000 3.09 40 22:36 11.03.2021
1602 Clouds -5 991 86 10000 3.6 10 21:59 11.03.2021
1603 Clouds -6 991 86 10000 3.6 10 21:41 11.03.2021
1604 Snow -6 991 86 10000 3.6 10 21:20 11.03.2021
1605 Snow -6 990 93 10000 4.12 10 20:48 11.03.2021
1606 Clouds -6 990 93 10000 4.12 10 20:21 11.03.2021
1607 Clouds -5 990 86 10000 3.09 360 19:47 11.03.2021
1608 Clouds -5 990 86 10000 3.09 360 19:28 11.03.2021
1609 Clouds -4 990 74 10000 2.57 250 18:49 11.03.2021
1610 Clouds -4 990 74 10000 2.57 250 18:31 11.03.2021
1611 Clouds -4 990 63 10000 0.51 270 17:45 11.03.2021
1612 Clouds -5 990 63 10000 0.51 270 17:27 11.03.2021
1613 Clouds -6 990 74 10000 0.51 0 16:31 11.03.2021
1614 Snow -6 990 86 10000 4.12 180 15:50 11.03.2021
1615 Snow -6 990 86 10000 4.12 180 15:31 11.03.2021
1616 Snow -6 990 86 8000 3.09 170 14:58 11.03.2021
1617 Snow -6 990 86 8000 3.09 170 14:38 11.03.2021
1618 Snow -6 990 86 8000 3.09 170 14:18 11.03.2021
1619 Snow -6 990 93 4000 3.6 170 13:43 11.03.2021
1620 Snow -6 990 93 4000 3.6 170 13:21 11.03.2021
1621 Snow -6 990 93 600 3.09 160 12:49 11.03.2021
1622 Snow -6 990 93 600 3.09 160 12:27 11.03.2021
1623 Snow -6 991 86 2000 1.54 170 11:45 11.03.2021
1624 Snow -6 991 86 2000 1.54 170 11:27 11.03.2021
1625 Snow -6 991 93 1700 1.54 140 10:50 11.03.2021
1626 Snow -6 991 93 1700 1.54 140 10:22 11.03.2021
1627 Snow -6 991 93 1800 1.03 130 09:48 11.03.2021
1628 Snow -6 991 93 1800 1.03 130 09:29 11.03.2021
1629 Snow -6 991 79 9000 0.51 120 08:48 11.03.2021
1630 Snow -6 991 79 9000 0.51 120 08:24 11.03.2021
1631 Snow -6 992 79 10000 1.03 140 07:44 11.03.2021
1632 Snow -6 992 73 10000 1.03 140 06:51 11.03.2021
1633 Snow -6 992 73 10000 1.03 140 06:32 11.03.2021
1634 -273 0 0 0 0 0 05:46 11.03.2021
1635 Snow -6 994 79 10000 2.57 70 02:20 11.03.2021
1636 Snow -6 996 93 8000 1.04 92 23:54 10.03.2021
1637 Snow -6 996 93 8000 1.09 52 23:22 10.03.2021
1638 Snow -6 996 93 10000 1.54 360 22:39 10.03.2021
1639 Snow -6 996 93 10000 4.12 70 21:57 10.03.2021
1640 Snow -6 996 93 10000 4.12 70 21:38 10.03.2021
1641 Snow -6 996 93 10000 4.12 70 21:20 10.03.2021
1642 Snow -6 997 93 10000 2.06 60 20:42 10.03.2021
1643 Snow -6 997 93 10000 2.06 60 20:21 10.03.2021
1644 Snow -5 997 93 4000 2.06 360 19:40 10.03.2021
1645 Snow -5 997 93 4000 2.06 360 19:21 10.03.2021
1646 Snow -5 998 93 3500 1.54 10 18:42 10.03.2021
1647 Snow -5 998 93 3500 1.54 10 18:23 10.03.2021
1648 Snow -5 998 93 3500 2.06 360 17:42 10.03.2021
1649 Snow -5 998 93 3500 2.06 360 17:21 10.03.2021
1650 Snow -5 998 93 3500 2.57 320 16:55 10.03.2021
1651 Snow -5 998 93 3500 2.57 320 16:37 10.03.2021
1652 Snow -5 998 93 3500 2.57 320 16:18 10.03.2021
1653 Snow -5 998 93 2000 4.63 300 15:39 10.03.2021
1654 Snow -5 998 93 2000 4.63 300 15:21 10.03.2021
1655 Snow -5 998 93 2000 4.63 300 15:21 10.03.2021
1656 Snow -5 998 86 2500 3.6 190 14:40 10.03.2021
1657 Snow -5 998 86 2500 3.6 190 14:19 10.03.2021
1658 Snow -5 999 93 3200 4.63 180 13:43 10.03.2021
1659 Snow -5 999 93 3200 4.63 180 13:18 10.03.2021
1660 Snow -4 998 80 3500 4.12 160 12:41 10.03.2021
1661 Snow -5 999 86 5000 3.6 170 11:59 10.03.2021
1662 Snow -5 999 86 5000 3.6 170 11:31 10.03.2021
1663 Snow -4 999 80 10000 4.12 160 10:57 10.03.2021
1664 Snow -4 999 80 10000 4.12 160 10:34 10.03.2021
1665 Snow -4 999 80 10000 4.12 160 09:59 10.03.2021
1666 Snow -4 999 80 10000 4.12 160 09:41 10.03.2021
1667 Snow -4 999 80 10000 4.12 160 09:21 10.03.2021
1668 Snow -5 999 86 10000 2.06 190 08:46 10.03.2021
1669 Snow -5 999 86 10000 2.06 190 08:28 10.03.2021
1670 Snow -5 999 86 10000 3.09 160 07:55 10.03.2021
1671 Snow -5 999 86 10000 3.09 160 07:29 10.03.2021
1672 Snow -5 999 86 5000 2.06 30 06:54 10.03.2021
1673 Snow -5 999 86 5000 2.06 30 06:23 10.03.2021
1674 Snow -6 1000 74 10000 2.06 30 02:26 10.03.2021
1675 Clouds -6 1001 86 10000 5.66 210 23:49 09.03.2021
1676 Clouds -6 1001 86 10000 5.66 210 23:19 09.03.2021
1677 Drizzle -5 1001 80 10000 4.63 170 22:39 09.03.2021
1678 Drizzle -5 1001 80 10000 4.63 170 22:18 09.03.2021
1679 Clouds -5 1001 80 10000 5.14 150 21:45 09.03.2021
1680 Clouds -5 1001 80 10000 5.14 150 21:24 09.03.2021
1681 Clouds -7 1002 93 10000 2.91 161 20:58 09.03.2021
1682 Clouds -4 1002 92 10000 1.79 190 20:39 09.03.2021
1683 Clouds -5 1000 86 10000 3.6 180 20:20 09.03.2021
1684 Clouds -5 1000 86 10000 3.6 180 19:46 09.03.2021
1685 Clouds -5 1000 86 10000 3.6 180 19:26 09.03.2021
1686 Clouds -4 1000 93 10000 2.06 190 18:48 09.03.2021
1687 Clouds -5 1000 93 10000 2.06 190 18:26 09.03.2021
1688 Clouds -5 1001 100 10000 1.54 180 17:53 09.03.2021
1689 Clouds -5 1001 100 10000 1.54 180 17:30 09.03.2021
1690 Snow -5 1001 100 10000 2.57 320 16:55 09.03.2021
1691 Snow -5 1001 100 10000 2.57 320 16:36 09.03.2021
1692 Snow -5 1001 100 10000 2.57 320 16:18 09.03.2021
1693 Snow -5 1001 93 6000 2.57 360 15:40 09.03.2021
1694 Snow -5 1001 93 6000 2.57 360 15:20 09.03.2021
1695 Snow -5 1001 93 2500 3.09 340 14:28 09.03.2021
1696 Clouds -5 1001 100 2500 1.54 320 13:57 09.03.2021
1697 Clouds -5 1001 100 2500 1.54 320 13:36 09.03.2021
1698 Clouds -5 1001 100 2500 1.54 320 13:18 09.03.2021
1699 Clouds -5 1001 100 4500 1.72 144 12:39 09.03.2021
1700 Clouds -5 1001 100 4500 1.61 168 12:18 09.03.2021
1701 Clouds -5 1001 100 10000 1.61 168 11:41 09.03.2021
1702 Clouds -5 1001 100 10000 1.43 158 11:21 09.03.2021
1703 Mist -5 1001 100 2600 0.51 210 10:54 09.03.2021
1704 Mist -5 1001 100 2600 0.51 210 10:36 09.03.2021
1705 Mist -5 1001 100 2600 0.51 210 10:18 09.03.2021
1706 Clouds -5 1000 93 5000 1.6 140 09:41 09.03.2021
1707 Clouds -5 1000 93 5000 1.23 124 09:22 09.03.2021
1708 Clouds -5 1000 93 10000 2.57 290 08:37 09.03.2021
1709 Clouds -5 1000 93 10000 2.57 290 08:18 09.03.2021
1710 Clouds -5 1000 93 10000 3.09 340 07:37 09.03.2021
1711 Clouds -5 1000 93 10000 3.09 340 07:19 09.03.2021
1712 Clouds -5 999 100 10000 2.06 360 05:55 09.03.2021
1713 Clouds -5 999 100 10000 2.06 360 05:35 09.03.2021
1714 Snow -5 999 93 4500 1.54 50 00:29 09.03.2021
1715 Snow -5 998 93 4000 1.03 30 23:42 08.03.2021
1716 Snow -5 998 93 4000 1.03 30 23:23 08.03.2021
1717 Snow -5 998 93 8000 3.6 340 22:45 08.03.2021
1718 Snow -5 998 93 8000 3.6 340 22:27 08.03.2021
1719 Snow -4 997 93 6000 5.66 280 21:55 08.03.2021
1720 Snow -4 997 93 6000 5.66 280 21:35 08.03.2021
1721 Snow -4 997 93 10000 8.23 290 20:47 08.03.2021
1722 Snow -4 997 93 10000 8.23 290 20:26 08.03.2021
1723 Snow -4 997 93 10000 6.69 290 19:59 08.03.2021
1724 Snow -4 997 93 10000 6.69 290 19:36 08.03.2021
1725 Snow -4 997 93 10000 6.17 280 18:42 08.03.2021
1726 Snow -4 997 93 10000 6.17 280 18:23 08.03.2021
1727 Snow -4 997 93 3500 2.06 260 17:56 08.03.2021
1728 Snow -4 997 93 3500 2.06 260 17:38 08.03.2021
1729 Drizzle -4 996 93 8000 4.12 250 16:55 08.03.2021
1730 Snow -4 996 93 8000 4.12 250 16:29 08.03.2021
1731 Snow -4 996 100 6000 4.12 220 15:52 08.03.2021
1732 Snow -4 996 100 6000 4.12 220 15:52 08.03.2021
1733 Snow -4 996 100 6000 4.12 220 15:29 08.03.2021
1734 Snow -4 996 93 5000 4.63 230 14:51 08.03.2021
1735 Drizzle -4 996 93 5000 4.63 230 14:20 08.03.2021
1736 Snow -4 996 93 4000 5.14 250 13:44 08.03.2021
1737 Snow -4 996 93 4000 5.14 250 13:21 08.03.2021
1738 Snow -4 996 100 4000 5.66 260 12:49 08.03.2021
1739 Snow -4 996 100 4000 5.66 260 12:28 08.03.2021
1740 Snow -4 996 100 7000 5.14 260 11:44 08.03.2021
1741 Snow -4 996 100 7000 5.14 260 11:19 08.03.2021
1742 Snow -4 996 100 9000 3.6 250 10:44 08.03.2021
1743 Snow -4 996 100 9000 3.6 250 10:26 08.03.2021
1744 Snow -4 996 100 9000 4.63 270 09:42 08.03.2021
1745 Snow -4 996 100 9000 4.63 270 09:23 08.03.2021
1746 Snow -4 996 100 6000 5.14 290 08:29 08.03.2021
1747 Snow -3 996 93 2700 4.63 280 07:41 08.03.2021
1748 Snow -3 996 93 2700 4.63 280 07:20 08.03.2021
1749 Clouds -3 996 93 5000 3.6 190 04:28 08.03.2021
1750 Clouds -3 998 93 8000 2.06 280 01:26 08.03.2021
1751 Clouds -3 998 100 10000 1.54 250 00:33 08.03.2021
1752 Clouds -2 999 93 10000 1.54 280 23:41 07.03.2021
1753 Clouds -2 999 93 10000 1.54 280 23:20 07.03.2021
1754 Clouds -2 999 93 10000 2.06 280 22:44 07.03.2021
1755 Clouds -2 999 93 10000 2.06 280 22:44 07.03.2021
1756 Clouds -2 999 93 10000 2.06 280 22:26 07.03.2021
1757 Rain -2 999 100 10000 3.09 290 21:46 07.03.2021
1758 Rain -2 999 100 10000 3.09 290 21:26 07.03.2021
1759 Clouds -1 999 100 10000 1.03 300 20:49 07.03.2021
1760 Clouds -1 999 100 10000 1.03 300 20:31 07.03.2021
1761 Snow -1 999 93 200 2.06 300 19:58 07.03.2021
1762 Snow -1 999 93 200 2.06 300 19:39 07.03.2021
1763 Snow -1 999 93 200 2.06 300 19:20 07.03.2021
1764 Snow 0 1000 93 300 1.54 300 18:47 07.03.2021
1765 Snow 0 1000 93 300 1.54 300 18:20 07.03.2021
1766 Fog 0 1000 93 800 1.54 10 17:44 07.03.2021
1767 Fog 0 1000 93 800 1.54 10 17:21 07.03.2021
1768 Clouds 0 1000 93 6000 1.03 340 16:59 07.03.2021
1769 Clouds 0 1000 93 6000 1.03 340 16:38 07.03.2021
1770 Clouds -1 1000 93 6000 1.03 340 16:19 07.03.2021
1771 Clouds -1 1000 93 6000 1.03 340 16:19 07.03.2021
1772 Clouds -1 1000 93 10000 1.54 20 15:45 07.03.2021
1773 Clouds -1 1000 93 10000 1.54 20 15:23 07.03.2021
1774 Clouds 0 1000 86 10000 0.74 340 14:39 07.03.2021
1775 Clouds 0 1000 86 10000 0.91 341 14:20 07.03.2021
1776 Clouds -1 1001 93 10000 0.91 341 13:41 07.03.2021
1777 Clouds -1 1001 93 10000 0.7 41 13:21 07.03.2021
1778 Clouds -2 1001 100 10000 1.03 40 12:47 07.03.2021
1779 Clouds -2 1001 100 10000 1.03 40 12:47 07.03.2021
1780 Clouds -2 1001 100 10000 1.03 40 12:28 07.03.2021
1781 Clouds -1 1001 93 10000 1.03 100 11:49 07.03.2021
1782 Clouds -1 1001 93 10000 1.03 100 11:22 07.03.2021
1783 Snow -1 1001 100 10000 0.51 160 10:49 07.03.2021
1784 Snow -1 1001 100 10000 0.51 160 10:30 07.03.2021
1785 Snow 1 1001 93 10000 0.51 0 09:46 07.03.2021
1786 Snow 1 1001 93 10000 0.51 0 09:25 07.03.2021
1787 Clouds 1 1001 86 10000 1.03 100 08:46 07.03.2021
1788 Clouds 1 1001 86 10000 1.03 100 08:25 07.03.2021
1789 Rain 0 1002 86 10000 2.68 56 07:51 07.03.2021
1790 Clouds 1 1005 69 10000 1.54 150 02:43 07.03.2021
1791 Clouds 0 1005 80 10000 5.66 40 01:42 07.03.2021
1792 Snow 0 1005 80 10000 6.69 50 23:54 06.03.2021
1793 Snow 0 1005 80 10000 6.69 50 23:35 06.03.2021
1794 Snow 0 1005 80 10000 7.2 60 22:48 06.03.2021
1795 Snow 0 1005 80 10000 7.2 60 22:29 06.03.2021
1796 Snow 1 1005 64 10000 5.66 50 21:59 06.03.2021
1797 Clouds 1 1005 64 10000 5.66 50 21:25 06.03.2021
1798 Clouds 1 1006 75 10000 5.66 40 20:55 06.03.2021
1799 Clouds 1 1006 75 10000 5.66 40 20:36 06.03.2021
1800 Clouds 0 1006 80 10000 6.17 50 19:50 06.03.2021
1801 Clouds 0 1006 80 10000 6.17 50 19:23 06.03.2021
1802 Clouds 1 1006 75 10000 3.09 50 18:57 06.03.2021
1803 Clouds 1 1006 75 10000 3.09 50 18:38 06.03.2021
1804 Clouds 1 1006 75 10000 3.09 50 18:18 06.03.2021
1805 Clouds 1 1007 75 10000 4.12 40 17:45 06.03.2021
1806 Clouds 1 1007 75 10000 4.12 40 17:25 06.03.2021
1807 Clouds 2 1007 64 10000 1.03 210 16:52 06.03.2021
1808 Clouds 2 1007 64 10000 1.03 210 16:29 06.03.2021
1809 Clouds 3 1007 65 10000 1.03 10 15:54 06.03.2021
1810 Clouds 3 1007 65 10000 1.03 10 15:34 06.03.2021
1811 Clouds 0 1007 80 10000 2.06 160 14:54 06.03.2021
1812 Clouds 0 1007 80 10000 2.06 160 14:30 06.03.2021
1813 Clouds 1 1007 69 10000 1.54 0 13:46 06.03.2021
1814 Clouds 1 1007 69 10000 1.54 0 13:24 06.03.2021
1815 Clouds 1 1007 69 10000 0.51 280 12:48 06.03.2021
1816 Clouds 1 1007 69 10000 0.51 280 12:20 06.03.2021
1817 Clouds 1 1006 75 10000 5.66 80 11:58 06.03.2021
1818 Clouds 1 1006 75 10000 5.66 80 11:23 06.03.2021
1819 Clouds 0 1006 86 10000 6.69 60 10:54 06.03.2021
1820 Clouds 0 1006 86 10000 6.69 60 10:35 06.03.2021
1821 Clouds 0 1007 86 10000 6.17 60 09:51 06.03.2021
1822 Clouds 0 1007 86 10000 6.17 60 09:21 06.03.2021
1823 Clouds 1 1007 86 10000 6.69 60 08:53 06.03.2021
1824 Clouds 1 1007 86 10000 6.69 60 08:29 06.03.2021
1825 Clouds 0 1008 93 10000 6.17 60 07:43 06.03.2021
1826 Clouds 0 1008 93 10000 6.17 60 07:21 06.03.2021
1827 Clouds 0 1009 100 10000 5.66 10 05:50 06.03.2021
1828 Clouds -1 1009 93 10000 3.09 30 03:36 06.03.2021
1829 Clouds 0 1010 93 10000 3.09 200 01:32 06.03.2021
1830 Clouds 2 1010 80 10000 6.17 180 00:46 06.03.2021
1831 Clouds 1 1009 93 10000 9.26 180 23:44 05.03.2021
1832 Clouds 1 1009 93 10000 9.26 180 23:19 05.03.2021
1833 Fog 1 1008 93 6000 8.75 170 22:43 05.03.2021
1834 Snow 1 1008 93 6000 8.75 170 22:20 05.03.2021
1835 Snow 1 1007 93 10000 10.8 180 21:43 05.03.2021
1836 Snow 1 1007 93 10000 10.8 180 21:25 05.03.2021
1837 Snow 2 1006 87 10000 10.8 170 20:47 05.03.2021
1838 Clouds 2 1006 87 10000 10.8 170 20:25 05.03.2021
1839 Clouds 2 1006 93 10000 10.29 170 19:48 05.03.2021
1840 Clouds 2 1006 93 10000 10.29 170 19:22 05.03.2021
1841 Fog 2 1005 87 10000 10.29 180 18:45 05.03.2021
1842 Fog 2 1005 87 10000 10.29 180 18:26 05.03.2021
1843 Fog 2 1005 87 10000 10.29 180 18:26 05.03.2021
1844 Rain 3 1004 65 10000 7.2 40 17:51 05.03.2021
1845 Rain 3 1004 65 10000 7.2 40 17:33 05.03.2021
1846 Clouds 4 1004 56 10000 1.54 0 16:44 05.03.2021
1847 Clouds 4 1004 56 10000 1.54 0 16:24 05.03.2021
1848 Clouds 4 1004 56 10000 1.54 0 16:24 05.03.2021
1849 Clouds 2 1005 75 10000 2.06 200 15:55 05.03.2021
1850 Clouds 2 1005 75 10000 2.06 200 15:27 05.03.2021
1851 Clouds 3 1005 65 10000 1.03 0 14:52 05.03.2021
1852 Clouds 3 1005 65 10000 1.03 0 14:34 05.03.2021
1853 Clouds 3 1005 56 10000 0.51 0 13:46 05.03.2021
1854 Clouds 3 1005 56 10000 0.51 0 13:21 05.03.2021
1855 Clouds 2 1005 64 10000 1.03 50 12:46 05.03.2021
1856 Clouds 2 1005 64 10000 1.03 0 11:40 05.03.2021
1857 Clouds 2 1005 64 10000 1.03 0 11:21 05.03.2021
1858 Clear 4 1005 56 10000 3.09 40 10:57 05.03.2021
1859 Clear 4 1005 56 10000 3.09 40 10:57 05.03.2021
1860 Clear 4 1005 56 10000 3.09 40 10:37 05.03.2021
1861 Clear 4 1005 56 10000 3.09 40 10:19 05.03.2021
1862 Clear 3 1005 60 10000 2.06 190 09:45 05.03.2021
1863 Clear 3 1005 60 10000 2.06 190 09:26 05.03.2021
1864 Clear 3 1005 65 10000 3.09 0 08:39 05.03.2021
1865 Clear 3 1005 65 10000 3.09 0 08:20 05.03.2021
1866 Clear 4 1005 60 10000 2.06 170 07:36 05.03.2021
1867 Clear 6 1005 49 10000 6.17 70 06:44 05.03.2021
1868 Clear 6 1005 49 10000 6.17 70 06:26 05.03.2021
1869 Clouds 3 1008 70 10000 1.54 0 01:40 05.03.2021
1870 Clear 5 1008 56 10000 0.51 0 00:19 05.03.2021
1871 Clouds 3 1009 65 10000 2.06 0 23:25 04.03.2021
1872 Clear 3 1009 65 10000 2.57 0 22:37 04.03.2021
1873 Clouds 6 1008 52 10000 6.17 50 21:56 04.03.2021
1874 Clouds 6 1008 52 10000 6.17 50 21:34 04.03.2021
1875 Clouds 3 1009 70 10000 6.69 20 20:59 04.03.2021
1876 Clouds 3 1009 70 10000 6.69 20 20:40 04.03.2021
1877 Clouds 3 1009 70 10000 6.69 20 20:21 04.03.2021
1878 Clouds 6 1009 52 10000 8.75 40 19:53 04.03.2021
1879 Clouds 6 1009 52 10000 8.75 40 19:26 04.03.2021
1880 Clouds 5 1009 56 10000 7.2 40 18:54 04.03.2021
1881 Clouds 5 1009 56 10000 7.2 40 18:30 04.03.2021
1882 Clouds 5 1010 60 10000 9.26 60 17:58 04.03.2021
1883 Clouds 5 1010 60 10000 9.26 60 17:39 04.03.2021
1884 Clouds 5 1010 60 10000 9.26 60 17:18 04.03.2021
1885 Clouds 7 1010 39 10000 6.17 60 16:43 04.03.2021
1886 Clouds 7 1010 39 10000 6.17 60 16:24 04.03.2021
1887 Clouds 2 1011 75 10000 8.75 50 15:46 04.03.2021
1888 Clouds 2 1011 75 10000 8.75 50 15:27 04.03.2021
1889 Clouds 2 1011 75 10000 8.23 40 14:44 04.03.2021
1890 Clouds 2 1011 75 10000 8.23 40 14:18 04.03.2021
1891 Clouds 2 1012 75 10000 7.2 40 13:42 04.03.2021
1892 Clouds 2 1012 75 10000 7.2 40 13:22 04.03.2021
1893 Clouds 2 1012 69 10000 6.69 40 12:42 04.03.2021
1894 Clouds 2 1012 69 10000 6.69 40 12:18 04.03.2021
1895 Clouds 2 1012 69 10000 6.69 60 11:40 04.03.2021
1896 Clouds 2 1012 69 10000 6.69 60 11:20 04.03.2021
1897 Clouds 3 1012 65 10000 6.69 50 10:37 04.03.2021
1898 Clouds 3 1012 65 10000 6.69 50 10:18 04.03.2021
1899 Clouds 3 1012 65 10000 7.2 40 09:28 04.03.2021
1900 Clouds 5 1012 56 10000 6.69 40 08:53 04.03.2021
1901 Clouds 5 1012 56 10000 6.69 40 08:31 04.03.2021
1902 Clouds 4 1012 60 10000 6.69 50 07:46 04.03.2021
1903 Clouds 5 1012 52 10000 9.77 80 06:50 04.03.2021
1904 Clouds 5 1012 52 10000 9.77 80 06:21 04.03.2021
1905 Clouds 5 1014 52 6000 0.51 0 02:39 04.03.2021
1906 Clear 6 1013 45 10000 6.17 60 00:31 04.03.2021
1907 Clear 5 1012 48 10000 8.23 70 22:41 03.03.2021
1908 Clear 5 1012 48 10000 8.23 70 22:23 03.03.2021
1909 Clouds 6 1012 45 10000 7.2 80 21:43 03.03.2021
1910 Clouds 6 1012 45 10000 7.2 80 21:24 03.03.2021
1911 Clouds 7 1012 39 10000 5.14 80 20:55 03.03.2021
1912 Clouds 7 1012 39 10000 5.14 80 20:37 03.03.2021
1913 Clouds 6 1012 49 10000 1.03 0 19:57 03.03.2021
1914 Clouds 6 1012 49 10000 1.03 0 19:38 03.03.2021
1915 Clouds 6 1012 49 10000 1.03 0 19:18 03.03.2021
1916 Clouds 6 1012 49 10000 1.03 0 19:18 03.03.2021
1917 Clouds 7 1012 42 10000 1.03 0 18:41 03.03.2021
1918 Clouds 6 1011 42 10000 8.23 100 17:59 03.03.2021
1919 Clouds 6 1011 42 10000 8.23 100 17:59 03.03.2021
1920 Clouds 6 1011 42 10000 8.23 100 17:36 03.03.2021
1921 Clouds 6 1011 42 10000 8.23 100 17:18 03.03.2021
1922 Clouds 5 1012 45 10000 10.8 80 16:39 03.03.2021
1923 Clouds 5 1012 45 10000 10.8 80 16:21 03.03.2021
1924 Clouds 4 1012 52 10000 10.29 80 15:33 03.03.2021
1925 Clouds 4 1012 48 10000 12.35 80 14:52 03.03.2021
1926 Clouds 4 1012 48 10000 12.35 80 14:29 03.03.2021
1927 Clouds 3 1013 48 10000 8.75 80 13:52 03.03.2021
1928 Clouds 3 1013 48 10000 8.75 80 13:31 03.03.2021
1929 Clouds 3 1012 48 10000 6.17 100 12:44 03.03.2021
1930 Clouds 3 1012 48 10000 6.17 100 12:24 03.03.2021
1931 Clouds 3 1012 48 10000 6.17 100 11:47 03.03.2021
1932 Clouds 3 1012 48 10000 6.17 100 11:28 03.03.2021
1933 Clouds 4 1012 45 10000 9.26 60 10:48 03.03.2021
1934 Clouds 4 1012 45 10000 9.26 60 10:26 03.03.2021
1935 Rain 2 1012 55 10000 9.77 60 09:48 03.03.2021
1936 Rain 2 1012 55 10000 9.77 60 09:24 03.03.2021
1937 Rain 3 1012 44 10000 11.32 60 08:39 03.03.2021
1938 Rain 3 1012 44 10000 11.32 60 08:20 03.03.2021
1939 Clouds -1 1013 85 10000 5.1 74 07:39 03.03.2021
1940 Clouds -3 1013 53 10000 4.47 60 06:50 03.03.2021
1941 Clouds -3 1013 53 10000 4.47 60 05:46 03.03.2021
1942 Clouds -3 1013 53 10000 4.47 60 04:57 03.03.2021
1943 Clouds -3 1013 53 10000 4.47 60 04:25 03.03.2021
1944 Clouds -3 1013 53 10000 4.47 60 01:46 03.03.2021
1945 Clouds -3 1013 53 10000 4.47 60 23:57 02.03.2021
1946 Clouds -3 1013 53 10000 4.47 60 23:22 02.03.2021
1947 Clouds -3 1013 53 10000 4.47 60 22:41 02.03.2021
1948 Clouds -3 1013 54 10000 4.63 60 22:18 02.03.2021
1949 Clouds -3 1013 54 10000 4.63 60 21:40 02.03.2021
1950 Clouds -3 1013 54 10000 4.63 60 21:21 02.03.2021
1951 Clouds -2 1013 46 10000 1.03 60 20:46 02.03.2021
1952 Clouds -2 1013 46 10000 1.03 60 20:22 02.03.2021
1953 Clouds -1 1013 40 10000 2.06 230 19:56 02.03.2021
1954 Clouds -1 1013 40 10000 2.06 230 19:37 02.03.2021
1955 Clouds -2 1013 40 10000 2.06 230 19:18 02.03.2021
1956 Clouds -2 1013 59 10000 3.09 40 18:40 02.03.2021
1957 Clouds -2 1013 59 10000 3.09 40 18:21 02.03.2021
1958 Clouds -1 1013 40 10000 4.12 150 17:49 02.03.2021
1959 Clouds -2 1013 40 10000 4.12 150 17:30 02.03.2021
1960 Clouds -2 1013 40 10000 4.12 150 17:30 02.03.2021
1961 Clouds -2 1013 50 10000 2.57 40 16:56 02.03.2021
1962 Clouds -2 1013 50 10000 2.57 40 16:23 02.03.2021
1963 Clouds -3 1012 43 10000 3.6 40 15:51 02.03.2021
1964 Clouds -4 1012 43 10000 3.6 40 15:25 02.03.2021
1965 Clouds -4 1012 50 10000 1.03 90 14:24 02.03.2021
1966 Clouds -4 1013 46 10000 1.54 70 13:57 02.03.2021
1967 Clouds -4 1013 46 10000 1.54 70 13:38 02.03.2021
1968 Clouds -5 1013 46 10000 1.54 70 13:20 02.03.2021
1969 Clouds -5 1012 46 10000 1.03 130 12:30 02.03.2021
1970 Clouds -4 1011 42 10000 1.54 0 11:57 02.03.2021
1971 Clouds -4 1011 42 10000 1.54 0 11:38 02.03.2021
1972 Clouds -4 1011 42 10000 1.54 0 11:18 02.03.2021
1973 Clouds -4 1011 46 10000 3.09 210 10:35 02.03.2021
1974 Clouds -6 1011 63 10000 8.75 80 09:59 02.03.2021
1975 Clouds -6 1011 63 10000 8.75 80 09:40 02.03.2021
1976 Clouds -6 1011 63 10000 8.75 80 09:19 02.03.2021
1977 Snow -6 1011 42 10000 7.2 90 08:38 02.03.2021
1978 Clouds -7 1012 63 10000 13.89 80 07:58 02.03.2021
1979 Clouds -7 1012 63 10000 13.89 80 07:38 02.03.2021
1980 Clouds -6 1013 45 10000 2.06 0 06:34 02.03.2021
1981 Clouds -10 1014 67 10000 1.54 140 05:46 02.03.2021
1982 Clouds -10 1014 67 10000 1.54 140 05:27 02.03.2021
1983 Clouds -11 1018 73 10000 10.8 70 01:44 02.03.2021
1984 Clear -11 1018 73 10000 10.8 70 01:26 02.03.2021
1985 Clouds -11 1020 67 10000 8.75 70 00:28 02.03.2021
1986 Clear -12 1021 72 10000 8.23 70 23:26 01.03.2021
1987 Snow -12 1022 79 10000 8.23 80 22:42 01.03.2021
1988 Snow -12 1022 79 10000 8.23 80 22:21 01.03.2021
1989 Clouds -11 1023 67 10000 6.17 70 21:46 01.03.2021
1990 Clouds -11 1023 67 10000 6.17 70 21:24 01.03.2021
1991 Clouds -10 1024 62 10000 4.12 60 20:48 01.03.2021
1992 Clouds -10 1024 62 10000 4.12 60 20:27 01.03.2021
1993 Clouds -10 1024 62 10000 3.09 80 19:54 01.03.2021
1994 Clouds -10 1024 62 10000 3.09 80 19:33 01.03.2021
1995 Snow -10 1024 62 10000 2.57 120 18:46 01.03.2021
1996 Snow -10 1024 62 10000 2.57 120 18:25 01.03.2021
1997 Drizzle -10 1025 62 10000 2.57 110 17:56 01.03.2021
1998 Drizzle -10 1025 62 10000 2.57 110 17:37 01.03.2021
1999 Drizzle -11 1025 62 10000 2.57 110 17:18 01.03.2021
2000 Snow -11 1025 73 10000 2.57 110 16:43 01.03.2021
2001 Snow -11 1025 73 10000 2.57 110 16:24 01.03.2021
2002 Snow -11 1025 73 5000 2.57 160 15:41 01.03.2021
2003 Snow -11 1025 73 5000 2.57 160 15:20 01.03.2021
2004 Clouds -11 1024 67 10000 3.09 150 14:44 01.03.2021
2005 Clouds -11 1024 67 10000 3.09 150 14:26 01.03.2021
2006 Clouds -12 1024 72 10000 2.06 230 13:40 01.03.2021
2007 Clouds -12 1024 72 10000 2.06 230 13:22 01.03.2021
2008 Clouds -12 1024 72 10000 2.06 230 13:21 01.03.2021
2009 Clouds -12 1024 72 10000 2.06 60 12:51 01.03.2021
2010 Clouds -13 1024 72 10000 2.06 60 12:30 01.03.2021
2011 Snow -13 1024 78 10000 2.57 70 11:58 01.03.2021
2012 Snow -13 1024 78 10000 2.57 70 11:38 01.03.2021
2013 Snow -13 1024 78 8000 1.54 20 10:44 01.03.2021
2014 Snow -13 1024 78 8000 1.54 20 10:23 01.03.2021
2015 Snow -13 1024 78 10000 0.51 0 09:58 01.03.2021
2016 Snow -13 1024 78 10000 0.51 0 09:40 01.03.2021
2017 Snow -13 1024 78 10000 0.51 0 09:20 01.03.2021
2018 Clouds -12 1023 72 10000 3.6 260 08:47 01.03.2021
2019 Snow -13 1023 72 10000 2.06 220 07:50 01.03.2021
2020 Snow -13 1022 72 10000 3.09 240 06:52 01.03.2021
2021 Clouds -13 1021 72 10000 3.6 240 04:21 01.03.2021
2022 Snow -13 1015 85 5000 5.66 250 00:44 01.03.2021
2023 Snow -13 1013 92 10000 5.66 260 23:36 28.02.2021
2024 Snow -12 1011 92 3000 6.17 280 22:51 28.02.2021
2025 Snow -12 1011 92 3000 6.17 280 22:23 28.02.2021
2026 Snow -11 1009 92 600 6.17 290 21:51 28.02.2021
2027 Snow -11 1009 92 600 6.17 290 21:28 28.02.2021
2028 Snow -10 1007 92 400 7.2 290 20:56 28.02.2021
2029 Snow -10 1007 92 400 7.2 290 20:36 28.02.2021
2030 Snow -8 1003 93 300 11.32 300 19:47 28.02.2021
2031 Snow -8 1003 93 300 11.32 300 19:28 28.02.2021
2032 Snow -5 1001 93 900 4.12 200 18:59 28.02.2021
2033 Snow -5 1001 93 900 4.12 200 18:38 28.02.2021
2034 Snow -5 1001 93 900 4.12 200 18:19 28.02.2021
2035 Snow -5 1002 93 1100 4.12 170 17:46 28.02.2021
2036 Snow -5 1002 93 1100 4.12 170 17:27 28.02.2021
2037 Snow -5 1002 93 1500 4.63 180 16:53 28.02.2021
2038 Snow -5 1002 93 1500 4.63 180 16:34 28.02.2021
2039 Snow -6 1003 93 1000 2.57 220 15:55 28.02.2021
2040 Snow -6 1003 93 1000 2.57 220 15:36 28.02.2021
2041 Snow -6 1003 93 1000 2.57 220 15:18 28.02.2021
2042 Snow -6 1003 100 1300 6.17 180 14:45 28.02.2021
2043 Snow -6 1003 100 1300 6.17 180 14:24 28.02.2021
2044 Snow -6 1002 100 800 6.17 190 13:47 28.02.2021
2045 Snow -6 1002 100 800 6.17 190 13:20 28.02.2021
2046 Snow -6 1001 93 500 11.83 170 12:56 28.02.2021
2047 Snow -6 1001 93 500 11.83 170 12:37 28.02.2021
2048 Snow -6 1001 93 500 11.83 170 12:19 28.02.2021
2049 Snow -6 1000 86 1000 13.89 160 11:43 28.02.2021
2050 Snow -6 1000 86 1000 13.89 160 11:25 28.02.2021
2051 Snow -5 1001 80 8000 8.75 140 10:54 28.02.2021
2052 Snow -5 1001 80 8000 8.75 140 10:28 28.02.2021
2053 Snow -6 1000 79 650 12.86 140 09:51 28.02.2021
2054 Snow -6 1000 79 650 12.86 140 09:32 28.02.2021
2055 Snow -7 1001 63 10000 3.09 0 08:50 28.02.2021
2056 Snow -7 1001 63 10000 3.09 0 08:31 28.02.2021
2057 Clouds -7 1001 63 10000 6.17 120 07:54 28.02.2021
2058 Clouds -7 1001 63 10000 6.17 120 07:36 28.02.2021
2059 Clouds -7 1001 68 3500 7.72 160 06:43 28.02.2021
2060 Snow -8 1002 79 5000 5.66 140 05:24 28.02.2021
2061 Clouds -8 1002 62 10000 5.14 140 03:44 28.02.2021
2062 Snow -9 1002 86 2700 4.12 150 01:55 28.02.2021
2063 Drizzle -9 1002 86 10000 3.09 160 00:52 28.02.2021
2064 Drizzle -9 1002 86 10000 3.09 160 00:34 28.02.2021
2065 Snow -9 1001 86 6000 1.03 160 23:45 27.02.2021
2066 Snow -9 1001 86 6000 1.03 160 23:19 27.02.2021
2067 Snow -10 1001 92 6000 1.03 0 22:49 27.02.2021
2068 Snow -10 1001 92 6000 1.03 0 22:21 27.02.2021
2069 Snow -9 1001 86 6000 2.06 240 21:48 27.02.2021
2070 Snow -9 1001 86 6000 2.06 240 21:29 27.02.2021
2071 Snow -9 1000 86 10000 1.03 180 20:49 27.02.2021
2072 Snow -9 1000 86 10000 1.03 180 20:31 27.02.2021
2073 Snow -9 999 86 2500 2.57 250 19:47 27.02.2021
2074 Snow -9 999 86 2500 2.57 250 19:28 27.02.2021
2075 Snow -9 998 86 2500 4.63 270 18:55 27.02.2021
2076 Snow -9 998 86 2500 4.63 270 18:36 27.02.2021
2077 Snow -9 998 86 2500 4.63 270 18:18 27.02.2021
2078 Snow -9 997 92 1500 5.66 270 17:41 27.02.2021
2079 Snow -9 997 92 1500 5.66 270 17:19 27.02.2021
2080 Snow -8 997 86 1500 5.66 270 16:50 27.02.2021
2081 Snow -8 996 93 3000 5.66 280 16:28 27.02.2021
2082 Snow -8 995 93 6000 6.17 290 15:46 27.02.2021
2083 Snow -8 995 93 6000 6.17 290 15:20 27.02.2021
2084 Snow -7 995 93 8000 5.66 300 14:41 27.02.2021
2085 Snow -7 995 93 8000 5.66 300 14:41 27.02.2021
2086 Snow -7 995 93 8000 5.66 300 14:21 27.02.2021
2087 Snow -7 993 93 10000 5.66 300 13:47 27.02.2021
2088 Snow -7 993 93 10000 5.66 300 13:22 27.02.2021
2089 Snow -6 992 93 6000 7.72 300 12:49 27.02.2021
2090 Snow -6 992 93 6000 7.72 300 12:26 27.02.2021
2091 Snow -6 991 93 8000 2.06 350 11:54 27.02.2021
2092 Snow -6 991 93 8000 2.06 350 11:31 27.02.2021
2093 Snow -6 991 93 10000 2.57 80 10:59 27.02.2021
2094 Snow -6 991 93 10000 2.57 80 10:41 27.02.2021
2095 Snow -6 991 93 10000 2.57 80 10:18 27.02.2021
2096 Snow -6 990 93 3400 3.25 301 09:35 27.02.2021
2097 Snow -6 989 86 1800 2.06 320 08:45 27.02.2021
2098 Snow -6 989 86 1800 2.06 320 08:24 27.02.2021
2099 Snow -5 989 80 10000 3.09 320 07:59 27.02.2021
2100 Snow -5 989 80 10000 3.09 320 07:31 27.02.2021
2101 Clouds -5 987 80 10000 5.66 330 02:31 27.02.2021
2102 Clouds -5 986 80 10000 7.2 320 00:33 27.02.2021
2103 Snow -4 986 86 10000 5.14 320 23:48 26.02.2021
2104 Clouds -4 986 86 10000 5.14 320 23:24 26.02.2021
2105 Clouds -4 985 80 10000 3.09 330 22:40 26.02.2021
2106 Clouds -4 985 80 10000 3.09 330 22:21 26.02.2021
2107 Clouds -4 985 80 10000 2.57 360 21:37 26.02.2021
2108 Clouds -4 984 80 10000 2.57 360 20:59 26.02.2021
2109 Clouds -4 984 80 10000 2.57 360 20:41 26.02.2021
2110 Clouds -4 984 80 10000 2.57 360 20:20 26.02.2021
2111 Clouds -4 984 80 10000 1.03 30 19:40 26.02.2021
2112 Clouds -4 984 80 10000 1.03 30 19:18 26.02.2021
2113 Clouds -4 984 80 10000 2.57 60 18:41 26.02.2021
2114 Clouds -4 984 80 10000 2.57 60 18:21 26.02.2021
2115 Clouds -4 984 74 10000 2.06 50 17:39 26.02.2021
2116 Clouds -5 984 74 10000 2.06 50 17:20 26.02.2021
2117 Clouds -5 984 74 10000 2.57 60 16:49 26.02.2021
2118 Clouds -5 984 74 10000 2.57 60 16:30 26.02.2021
2119 Clouds -5 984 74 10000 3.09 360 15:56 26.02.2021
2120 Clouds -5 984 74 10000 3.09 360 15:36 26.02.2021
2121 Clouds -5 984 74 10000 3.09 360 15:18 26.02.2021
2122 Clouds -6 984 86 10000 3.09 30 14:42 26.02.2021
2123 Clouds -6 984 86 10000 3.09 30 14:24 26.02.2021
2124 Clouds -7 985 93 10000 3.09 40 13:39 26.02.2021
2125 Clouds -7 985 93 10000 3.09 40 13:20 26.02.2021
2126 Clouds -7 985 93 10000 3.6 40 12:34 26.02.2021
2127 Clear -7 985 93 10000 3.6 30 11:50 26.02.2021
2128 Clear -7 985 93 10000 3.6 30 11:32 26.02.2021
2129 Clear -7 985 86 5000 3.69 2 10:46 26.02.2021
2130 Mist -6 986 79 4100 1.54 70 09:55 26.02.2021
2131 Mist -6 986 79 4100 1.54 70 09:31 26.02.2021
2132 Mist -8 986 73 1500 1.03 0 08:54 26.02.2021
2133 Mist -8 986 73 1500 1.03 0 08:25 26.02.2021
2134 Clear -8 986 93 10000 1.03 110 07:49 26.02.2021
2135 Clear -8 986 93 10000 1.03 110 07:49 26.02.2021
2136 Clear -7 986 93 10000 2.06 40 06:36 26.02.2021
2137 Clear -7 987 68 10000 1.54 130 05:31 26.02.2021
2138 Clear -7 987 73 10000 1.03 120 03:47 26.02.2021
2139 Clear -7 988 86 7000 1.03 100 02:35 26.02.2021
2140 Clouds -6 988 79 10000 2.06 20 23:57 25.02.2021
2141 Clouds -6 988 79 10000 2.06 20 23:28 25.02.2021
2142 Clouds -6 989 79 10000 3.09 30 22:50 25.02.2021
2143 Clouds -6 989 79 10000 3.09 30 22:19 25.02.2021
2144 Clouds -6 989 79 10000 3.09 20 21:42 25.02.2021
2145 Clouds -6 989 79 10000 3.09 20 21:23 25.02.2021
2146 Clouds -6 989 79 10000 3.6 360 20:41 25.02.2021
2147 Clouds -6 989 79 10000 3.6 360 20:22 25.02.2021
2148 Clear -5 989 80 10000 5.14 360 19:52 25.02.2021
2149 Clear -5 989 80 10000 5.14 360 19:22 25.02.2021
2150 Clouds -5 990 80 10000 5.14 350 18:57 25.02.2021
2151 Clouds -5 990 80 10000 5.14 350 18:27 25.02.2021
2152 Clouds -4 991 63 10000 6.17 40 17:49 25.02.2021
2153 Clouds -4 991 63 10000 6.17 40 17:26 25.02.2021
2154 Clouds -5 991 63 10000 7.2 40 16:46 25.02.2021
2155 Clouds -5 991 63 10000 7.2 40 16:25 25.02.2021
2156 Clouds -5 992 68 10000 6.17 50 15:30 25.02.2021
2157 Clouds -5 993 68 10000 6.69 50 14:58 25.02.2021
2158 Clouds -6 993 68 10000 6.69 50 14:26 25.02.2021
2159 Clouds -6 994 73 10000 7.2 40 13:55 25.02.2021
2160 Clouds -6 994 73 10000 7.2 40 13:27 25.02.2021
2161 Clouds -7 994 68 10000 4.12 40 12:56 25.02.2021
2162 Clouds -7 994 68 10000 4.12 40 12:22 25.02.2021
2163 Clouds -7 995 73 10000 5.66 50 11:47 25.02.2021
2164 Clouds -7 995 73 10000 5.66 50 11:21 25.02.2021
2165 Clouds -7 995 73 10000 5.14 60 10:46 25.02.2021
2166 Clouds -7 995 73 10000 5.14 60 10:26 25.02.2021
2167 Clouds -7 996 68 10000 5.14 60 09:43 25.02.2021
2168 Clouds -7 996 68 10000 5.66 60 08:56 25.02.2021
2169 Clouds -8 996 68 10000 5.66 60 08:25 25.02.2021
2170 Clouds -8 996 67 10000 6.69 50 07:57 25.02.2021
2171 Clouds -8 996 67 10000 6.69 50 07:35 25.02.2021
2172 Clouds -7 997 68 10000 6.17 60 06:55 25.02.2021
2173 Clear -7 999 73 10000 6.17 60 02:59 25.02.2021
2174 Clouds -7 999 73 10000 6.17 60 01:38 25.02.2021
2175 Clouds -7 999 73 10000 6.17 60 01:38 25.02.2021
2176 Clouds -7 999 79 10000 6.69 50 00:42 25.02.2021
2177 Clear -7 999 73 10000 6.17 50 23:54 24.02.2021
2178 Clear -7 999 73 10000 6.17 50 23:32 24.02.2021
2179 Clear -7 1000 79 10000 5.36 50 22:46 24.02.2021
2180 Clear -7 1000 79 10000 5.66 50 22:26 24.02.2021
2181 Clear -7 1000 79 10000 5.66 50 22:26 24.02.2021
2182 Clear -7 1000 79 10000 5.66 50 21:48 24.02.2021
2183 Clear -7 1000 79 10000 5.66 50 21:24 24.02.2021
2184 Clear -7 1000 73 10000 6.17 60 20:45 24.02.2021
2185 Clear -7 1000 73 10000 6.17 60 20:22 24.02.2021
2186 Clear -6 1000 68 10000 6.17 60 19:40 24.02.2021
2187 Clear -6 1000 68 10000 6.17 60 19:20 24.02.2021
2188 Clear -6 1000 68 10000 6.17 60 19:20 24.02.2021
2189 Clear -6 1000 68 10000 6.17 60 18:50 24.02.2021
2190 Clear -6 1000 68 10000 6.17 60 18:29 24.02.2021
2191 Clear -6 1000 73 10000 6.17 60 17:39 24.02.2021
2192 Clear -6 1000 73 10000 6.17 60 17:21 24.02.2021
2193 Clear -7 1001 73 10000 5.66 60 16:46 24.02.2021
2194 Clear -7 1001 73 10000 5.66 60 16:20 24.02.2021
2195 Clear -7 1001 73 10000 6.17 60 15:49 24.02.2021
2196 Clear -7 1001 73 10000 6.17 60 15:26 24.02.2021
2197 Clear -8 1001 73 10000 5.14 60 14:44 24.02.2021
2198 Clear -8 1001 73 10000 5.14 60 14:26 24.02.2021
2199 Clear -8 1001 73 10000 6.17 60 13:41 24.02.2021
2200 Clear -8 1001 73 10000 6.17 60 13:23 24.02.2021
2201 Clear -7 1001 73 10000 7.2 60 12:53 24.02.2021
2202 Clear -7 1001 73 10000 7.2 60 12:33 24.02.2021
2203 Clouds -7 1001 73 10000 6.17 60 11:52 24.02.2021
2204 Clouds -7 1001 73 10000 6.17 60 11:29 24.02.2021
2205 Clear -7 1002 73 10000 6.17 60 10:38 24.02.2021
2206 Clear -7 1002 73 10000 6.17 60 10:19 24.02.2021
2207 Clear -8 1002 79 10000 4.12 40 09:22 24.02.2021
2208 Clear -8 1002 73 10000 4.12 60 08:45 24.02.2021
2209 Clear -8 1002 73 10000 4.12 60 08:24 24.02.2021
2210 Clear -8 1002 73 10000 4.12 60 08:24 24.02.2021
2211 Clouds -7 1002 73 10000 4.12 50 07:37 24.02.2021
2212 Clouds -7 1002 73 10000 4.12 50 07:18 24.02.2021
2213 Clear -6 1001 79 10000 4.12 30 05:22 24.02.2021
2214 Clouds -6 1001 68 10000 6.17 60 00:47 24.02.2021
2215 Clouds -6 1002 63 10000 5.14 60 23:38 23.02.2021
2216 Clouds -6 1001 63 10000 5.14 70 22:45 23.02.2021
2217 Clouds -6 1001 63 10000 5.14 70 22:22 23.02.2021
2218 Clouds -6 1001 68 10000 4.63 80 21:47 23.02.2021
2219 Clouds -6 1001 68 10000 4.63 80 21:24 23.02.2021
2220 Clouds -5 1001 63 10000 3.6 60 20:56 23.02.2021
2221 Clouds -5 1001 63 10000 3.6 60 20:37 23.02.2021
2222 Clouds -5 1001 63 10000 3.6 60 20:18 23.02.2021
2223 Clouds -4 1000 68 10000 2.57 50 19:41 23.02.2021
2224 Clouds -4 1000 68 10000 2.57 50 19:22 23.02.2021
2225 Clouds -4 1000 74 10000 2.06 40 18:44 23.02.2021
2226 Clouds -4 1000 74 10000 2.06 40 18:24 23.02.2021
2227 Clouds -3 1000 74 10000 2.57 120 17:49 23.02.2021
2228 Clouds -3 1000 74 10000 2.57 120 17:26 23.02.2021
2229 Clouds -3 1000 68 10000 2.06 0 16:44 23.02.2021
2230 Clouds -3 1000 68 10000 2.06 0 16:21 23.02.2021
2231 Snow -4 1000 74 10000 3.09 200 15:46 23.02.2021
2232 Snow -4 1000 74 10000 3.09 200 15:28 23.02.2021
2233 Snow -4 1000 74 10000 1.54 0 14:50 23.02.2021
2234 Snow -5 1000 74 10000 1.54 0 14:28 23.02.2021
2235 Clouds -5 999 74 10000 0.51 0 13:59 23.02.2021
2236 Clouds -5 999 74 10000 0.51 0 13:35 23.02.2021
2237 Snow -6 999 100 10000 1.54 0 12:57 23.02.2021
2238 Snow -6 999 100 10000 1.54 0 12:24 23.02.2021
2239 Snow -5 998 86 2500 5.66 180 11:58 23.02.2021
2240 Snow -5 998 86 2500 5.66 180 11:26 23.02.2021
2241 Snow -5 998 86 3100 1.54 160 10:56 23.02.2021
2242 Snow -5 998 86 3100 1.54 160 10:38 23.02.2021
2243 Snow -5 997 86 1700 2.06 0 09:58 23.02.2021
2244 Snow -5 997 86 1700 2.06 0 09:38 23.02.2021
2245 Snow -5 997 86 1700 2.06 0 09:20 23.02.2021
2246 Snow -5 997 86 1700 2.06 0 09:20 23.02.2021
2247 Snow -4 996 74 2500 6.69 160 08:44 23.02.2021
2248 Snow -4 996 74 2500 6.69 160 08:20 23.02.2021
2249 Snow -3 995 59 10000 7.72 160 06:56 23.02.2021
2250 Snow -3 995 59 8000 8.75 160 05:25 23.02.2021
2251 Snow -4 994 80 4400 6.17 150 02:37 23.02.2021
2252 Snow -4 994 80 4400 6.17 150 02:19 23.02.2021
2253 Clouds -3 994 68 8000 6.17 140 00:19 23.02.2021
2254 Snow -4 993 80 2800 4.63 150 23:30 22.02.2021
2255 Snow -4 993 80 4000 4.63 0 22:43 22.02.2021
2256 Snow -4 993 80 4000 4.63 0 22:23 22.02.2021
2257 Snow -4 993 86 7000 5.14 150 21:58 22.02.2021
2258 Snow -4 993 86 7000 5.14 150 21:38 22.02.2021
2259 Snow -4 992 80 2500 6.17 160 21:20 22.02.2021
2260 Snow -4 992 80 1800 8.23 140 20:44 22.02.2021
2261 Snow -4 992 68 10000 8.75 150 20:25 22.02.2021
2262 Snow -4 991 58 10000 10.29 160 19:46 22.02.2021
2263 Snow -4 991 58 10000 10.29 160 19:28 22.02.2021
2264 Clouds -4 990 50 10000 7.72 170 18:48 22.02.2021
2265 Clouds -4 990 50 10000 7.72 170 18:29 22.02.2021
2266 Clouds -4 990 50 10000 8.23 170 17:49 22.02.2021
2267 Clouds -4 990 50 10000 8.23 170 17:20 22.02.2021
2268 Clouds -4 989 74 10000 8.23 170 16:48 22.02.2021
2269 Clouds -4 989 74 10000 8.23 170 16:29 22.02.2021
2270 Clouds -4 988 86 10000 7.2 170 15:32 22.02.2021
2271 Snow -3 987 80 10000 8.23 170 14:54 22.02.2021
2272 Snow -3 987 80 10000 8.23 170 14:35 22.02.2021
2273 Snow -3 986 86 10000 10.29 180 13:54 22.02.2021
2274 Snow -3 986 86 10000 10.29 180 13:33 22.02.2021
2275 Snow -3 985 86 10000 11.83 160 12:52 22.02.2021
2276 Snow -3 985 86 10000 11.83 160 12:23 22.02.2021
2277 Snow -3 984 80 10000 7.72 160 11:56 22.02.2021
2278 Snow -4 984 80 10000 7.72 160 11:32 22.02.2021
2279 Clouds -5 983 86 10000 10.8 180 10:59 22.02.2021
2280 Clouds -5 983 86 10000 10.8 180 10:40 22.02.2021
2281 Clouds -5 983 86 10000 10.8 180 10:20 22.02.2021
2282 Clouds -5 983 86 10000 10.8 180 09:38 22.02.2021
2283 Clouds -5 983 86 10000 10.8 180 09:19 22.02.2021
2284 Clear -5 982 86 10000 7.72 190 08:49 22.02.2021
2285 Clouds -5 982 86 10000 7.72 190 08:21 22.02.2021
2286 Clouds -6 984 92 10000 4.33 157 07:46 22.02.2021
2287 Clouds -7 984 93 10000 5.42 159 07:22 22.02.2021
2288 Clouds -7 984 93 10000 4.92 167 06:27 22.02.2021
2289 Clouds -7 982 87 10000 2.41 146 04:27 22.02.2021
2290 Clouds -7 981 87 10000 1.61 2 03:23 22.02.2021
2291 Clouds -9 980 90 10000 4.34 11 00:56 22.02.2021
2292 Clouds -13 985 78 10000 5.36 40 00:30 22.02.2021
2293 Clouds -13 985 78 10000 5.36 40 23:57 21.02.2021
2294 Clouds -13 985 78 10000 5.36 40 23:26 21.02.2021
2295 Clouds -13 985 78 10000 5.36 40 22:36 21.02.2021
2296 Clouds -13 985 78 10000 5.36 40 21:53 21.02.2021
2297 Clouds -13 985 78 10000 5.36 40 21:34 21.02.2021
2298 Clouds -13 985 78 10000 5.36 40 21:34 21.02.2021
2299 Clouds -13 985 78 10000 5.36 40 20:58 21.02.2021
2300 Clouds -13 985 78 10000 5.36 40 20:39 21.02.2021
2301 Clouds -13 985 78 10000 5.36 40 20:18 21.02.2021
2302 Clouds -13 985 78 10000 5.36 40 19:46 21.02.2021
2303 Clouds -13 985 78 10000 5.36 40 19:26 21.02.2021
2304 Clouds -13 985 78 10000 5.36 40 18:39 21.02.2021
2305 Clouds -13 985 78 10000 5.36 40 18:21 21.02.2021
2306 Clouds -13 985 78 10000 5.36 40 17:29 21.02.2021
2307 Clouds -13 985 78 10000 5.36 40 17:29 21.02.2021
2308 Clouds -13 985 78 10000 5.36 40 16:55 21.02.2021
2309 Clouds -13 985 78 10000 5.36 40 16:33 21.02.2021
2310 Clouds -13 985 78 10000 5.36 40 15:54 21.02.2021
2311 Clouds -13 985 78 10000 5.36 40 15:21 21.02.2021
2312 Clouds -13 985 78 10000 5.36 40 14:49 21.02.2021
2313 Clouds -13 985 78 10000 5.36 40 14:27 21.02.2021
2314 Clouds -13 985 78 10000 5.36 40 13:46 21.02.2021
2315 Clouds -13 985 78 10000 5.66 40 13:23 21.02.2021
2316 Clouds -13 985 78 10000 5.66 40 12:31 21.02.2021
2317 Clouds -13 986 92 10000 6.17 360 11:45 21.02.2021
2318 Clouds -13 986 92 10000 6.17 360 11:20 21.02.2021
2319 Snow -12 986 79 10000 4.12 40 10:25 21.02.2021
2320 Snow -12 987 85 10000 4.12 40 09:57 21.02.2021
2321 Snow -12 987 85 10000 4.12 40 09:39 21.02.2021
2322 Snow -12 987 85 10000 4.12 40 09:19 21.02.2021
2323 Clouds -13 987 78 10000 2.57 40 08:32 21.02.2021
2324 Clouds -13 988 78 10000 3.09 30 07:40 21.02.2021
2325 Clouds -13 988 78 10000 3.09 30 07:19 21.02.2021
2326 Clouds -13 989 66 10000 5.14 360 04:54 21.02.2021
2327 Clouds -12 991 61 10000 4.12 10 02:31 21.02.2021
2328 Clouds -12 991 67 10000 4.12 30 00:47 21.02.2021
2329 Clouds -12 991 67 10000 4.12 30 00:20 21.02.2021
2330 Clouds -12 992 67 10000 5.66 20 23:28 20.02.2021
2331 Clouds -12 992 67 10000 6.17 360 22:49 20.02.2021
2332 Clouds -12 992 67 10000 6.17 360 22:29 20.02.2021
2333 Clouds -11 992 67 10000 4.12 30 21:47 20.02.2021
2334 Clouds -11 992 67 10000 4.12 30 21:27 20.02.2021
2335 Clouds -11 992 62 10000 3.09 90 20:51 20.02.2021
2336 Clouds -11 992 62 10000 3.09 90 20:30 20.02.2021
2337 Clouds -11 992 62 10000 2.57 50 19:53 20.02.2021
2338 Clouds -11 992 62 10000 2.57 50 19:33 20.02.2021
2339 Clouds -11 992 62 10000 2.06 340 18:46 20.02.2021
2340 Clouds -11 992 62 10000 2.06 340 18:27 20.02.2021
2341 Clouds -11 993 62 10000 3.6 70 17:43 20.02.2021
2342 Clouds -11 993 62 10000 3.6 70 17:25 20.02.2021
2343 Clouds -11 993 62 10000 4.12 40 16:44 20.02.2021
2344 Clouds -11 993 62 10000 4.12 40 16:22 20.02.2021
2345 Clouds -12 993 67 10000 5.14 40 15:38 20.02.2021
2346 Clouds -13 994 72 10000 4.12 60 14:50 20.02.2021
2347 Clouds -13 994 72 10000 4.12 60 14:25 20.02.2021
2348 Clouds -14 994 72 10000 2.57 40 13:53 20.02.2021
2349 Clouds -14 994 72 10000 2.57 40 13:28 20.02.2021
2350 Clouds -13 994 66 10000 2.57 10 12:53 20.02.2021
2351 Clouds -13 994 66 10000 2.57 10 12:32 20.02.2021
2352 Clouds -14 994 78 10000 2.06 20 11:49 20.02.2021
2353 Clouds -14 994 78 10000 2.06 20 11:30 20.02.2021
2354 Clouds -13 994 72 10000 2.06 360 10:50 20.02.2021
2355 Clouds -13 994 72 10000 2.06 360 10:21 20.02.2021
2356 Clouds -13 994 78 10000 2.06 360 09:45 20.02.2021
2357 Clouds -13 994 85 10000 4.12 340 08:51 20.02.2021
2358 Clouds -13 994 85 10000 4.12 340 08:23 20.02.2021
2359 Clear -13 995 72 10000 2.57 30 04:56 20.02.2021
2360 Clouds -14 996 66 10000 2.06 30 02:32 20.02.2021
2361 Clouds -15 996 66 10000 2.06 40 01:55 20.02.2021
2362 Clouds -14 997 56 10000 3.09 10 00:55 20.02.2021
2363 Clouds -14 997 56 10000 3.09 10 00:36 20.02.2021
2364 Clear -14 997 66 10000 3.6 10 23:26 19.02.2021
2365 Clouds -13 997 52 10000 4.12 360 22:45 19.02.2021
2366 Clouds -13 997 52 10000 4.12 360 22:20 19.02.2021
2367 Clouds -13 997 61 10000 5.14 360 21:43 19.02.2021
2368 Clouds -13 997 61 10000 5.14 360 21:23 19.02.2021
2369 Clouds -12 997 61 10000 4.63 360 20:42 19.02.2021
2370 Clouds -12 997 61 10000 4.63 360 20:24 19.02.2021
2371 Clouds -12 996 67 10000 5.14 350 19:47 19.02.2021
2372 Clouds -12 996 67 10000 5.14 350 19:20 19.02.2021
2373 Clouds -12 996 67 10000 5.14 30 18:50 19.02.2021
2374 Clouds -12 996 67 10000 5.14 30 18:26 19.02.2021
2375 Clouds -12 996 67 10000 5.66 20 17:39 19.02.2021
2376 Clouds -12 996 67 10000 6.69 20 16:43 19.02.2021
2377 Clouds -12 996 67 10000 6.69 20 16:22 19.02.2021
2378 Clouds -12 996 61 10000 6.69 20 15:55 19.02.2021
2379 Clouds -12 996 61 10000 6.69 20 15:30 19.02.2021
2380 Clouds -12 996 61 10000 6.69 20 14:52 19.02.2021
2381 Clouds -12 996 61 10000 6.69 20 14:33 19.02.2021
2382 Clouds -13 996 61 10000 7.2 20 13:56 19.02.2021
2383 Clouds -13 996 61 10000 7.2 20 13:36 19.02.2021
2384 Clouds -13 996 61 10000 6.17 20 12:54 19.02.2021
2385 Clouds -13 996 61 10000 6.17 20 12:28 19.02.2021
2386 Clouds -13 996 61 10000 4.63 10 11:59 19.02.2021
2387 Clouds -13 996 61 10000 4.63 10 11:34 19.02.2021
2388 Clouds -13 996 78 10000 5.14 10 10:55 19.02.2021
2389 Clouds -13 996 78 10000 5.14 10 10:33 19.02.2021
2390 Clouds -13 995 78 10000 6.69 350 09:58 19.02.2021
2391 Clouds -13 995 78 10000 6.69 350 09:28 19.02.2021
2392 Clouds -14 994 92 10000 7.2 340 08:55 19.02.2021
2393 Clouds -14 994 92 10000 7.2 340 08:28 19.02.2021
2394 Clouds -14 994 92 10000 7.2 340 08:28 19.02.2021
2395 Clouds -14 994 85 10000 3.6 20 07:56 19.02.2021
2396 Clouds -14 994 85 10000 3.6 20 07:36 19.02.2021
2397 Clouds -13 994 78 10000 8.23 330 06:59 19.02.2021
2398 Clouds -13 994 78 10000 8.23 330 06:31 19.02.2021
2399 Clouds -12 994 72 10000 6.17 10 04:42 19.02.2021
2400 Clouds -11 993 73 10000 5.14 10 02:31 19.02.2021
2401 Clouds -11 993 79 10000 5.14 10 01:26 19.02.2021
2402 Clouds -11 994 79 10000 5.14 360 00:27 19.02.2021
2403 Clouds -11 994 79 10000 6.69 10 23:45 18.02.2021
2404 Clouds -11 994 79 10000 6.69 10 23:27 18.02.2021
2405 Clouds -10 994 73 10000 6.69 20 22:37 18.02.2021
2406 Clouds -10 994 73 10000 6.69 20 22:18 18.02.2021
2407 Clouds -10 993 73 10000 6.17 10 21:37 18.02.2021
2408 Clouds -10 993 73 10000 6.17 10 21:19 18.02.2021
2409 Clouds -10 993 73 10000 6.69 20 20:39 18.02.2021
2410 Clouds -10 993 73 10000 6.69 20 20:20 18.02.2021
2411 Clouds -10 993 73 10000 6.17 20 19:43 18.02.2021
2412 Clouds -10 993 73 10000 6.17 20 19:19 18.02.2021
2413 Clouds -11 993 79 10000 7.2 30 18:48 18.02.2021
2414 Clouds -11 993 79 10000 7.2 30 18:26 18.02.2021
2415 Clouds -10 993 73 10000 6.17 20 17:46 18.02.2021
2416 Clouds -10 993 73 10000 6.17 20 17:24 18.02.2021
2417 Clouds -10 994 79 10000 6.17 10 16:46 18.02.2021
2418 Clouds -10 994 79 10000 6.17 10 16:28 18.02.2021
2419 Snow -10 993 79 10000 6.17 20 15:43 18.02.2021
2420 Snow -10 993 79 10000 6.17 20 15:23 18.02.2021
2421 Snow -10 993 79 10000 4.63 20 14:53 18.02.2021
2422 Snow -10 993 79 10000 4.63 20 14:33 18.02.2021
2423 Snow -10 993 79 10000 5.14 20 13:50 18.02.2021
2424 Snow -10 993 79 10000 5.14 20 13:50 18.02.2021
2425 Snow -10 993 79 10000 5.14 20 13:50 18.02.2021
2426 Snow -10 993 79 10000 5.14 20 13:22 18.02.2021
2427 Clouds -10 993 79 10000 6.69 20 12:55 18.02.2021
2428 Clouds -10 993 79 10000 6.69 20 12:33 18.02.2021
2429 Snow -10 993 79 10000 5.14 30 11:47 18.02.2021
2430 Snow -10 993 79 10000 5.14 30 11:47 18.02.2021
2431 Snow -10 993 79 10000 5.14 30 11:28 18.02.2021
2432 Clouds -10 993 73 10000 5.66 40 10:58 18.02.2021
2433 Clouds -10 993 73 10000 5.66 40 10:37 18.02.2021
2434 Clouds -10 993 73 10000 5.66 40 10:19 18.02.2021
2435 Clouds -10 994 73 10000 5.66 30 09:32 18.02.2021
2436 Snow -10 994 73 10000 6.69 30 08:59 18.02.2021
2437 Snow -10 994 73 10000 6.69 30 08:31 18.02.2021
2438 Snow -11 994 73 10000 6.17 20 07:49 18.02.2021
2439 Snow -11 994 73 10000 6.17 20 07:30 18.02.2021
2440 Snow -11 994 73 10000 7.2 360 06:20 18.02.2021
2441 Clouds -12 996 67 10000 7.2 10 00:53 18.02.2021
2442 Clouds -12 996 67 10000 6.17 20 23:47 17.02.2021
2443 Clouds -12 996 67 10000 6.17 20 23:20 17.02.2021
2444 Clear -13 996 56 10000 6.17 20 22:44 17.02.2021
2445 Clear -13 996 56 10000 6.17 20 22:22 17.02.2021
2446 Clear -13 996 66 10000 6.17 20 21:46 17.02.2021
2447 Clear -13 996 66 10000 6.17 20 21:21 17.02.2021
2448 Clouds -12 996 56 10000 6.17 20 20:44 17.02.2021
2449 Clouds -12 996 56 10000 6.17 20 20:25 17.02.2021
2450 Snow -12 996 61 10000 6.69 20 19:41 17.02.2021
2451 Snow -12 996 61 10000 6.69 20 19:22 17.02.2021
2452 Snow -12 996 67 10000 6.17 10 18:41 17.02.2021
2453 Snow -12 996 67 10000 6.17 10 18:22 17.02.2021
2454 Snow -12 996 56 10000 6.69 20 17:40 17.02.2021
2455 Snow -12 996 56 10000 6.69 20 17:18 17.02.2021
2456 Snow -13 997 66 10000 5.66 40 16:43 17.02.2021
2457 Snow -13 997 66 10000 5.66 40 16:22 17.02.2021
2458 Snow -13 997 66 10000 6.69 20 15:44 17.02.2021
2459 Snow -13 997 66 10000 6.69 20 15:23 17.02.2021
2460 Snow -13 997 61 10000 7.2 20 14:46 17.02.2021
2461 Snow -13 997 61 10000 7.2 20 14:28 17.02.2021
2462 Snow -13 997 61 10000 6.69 20 13:45 17.02.2021
2463 Snow -13 997 61 10000 6.69 20 13:27 17.02.2021
2464 Clouds -13 997 61 10000 7.2 30 12:47 17.02.2021
2465 Clouds -13 997 61 10000 7.2 30 12:23 17.02.2021
2466 Clouds -12 997 61 10000 5.66 30 11:42 17.02.2021
2467 Clouds -12 997 61 10000 5.66 30 11:19 17.02.2021
2468 Clouds -12 997 61 10000 4.63 40 10:45 17.02.2021
2469 Clouds -12 997 61 10000 4.63 40 10:25 17.02.2021
2470 Clouds -12 997 67 10000 6.17 40 09:45 17.02.2021
2471 Clouds -12 997 67 10000 6.17 40 09:26 17.02.2021
2472 Clouds -12 997 67 10000 5.66 50 08:44 17.02.2021
2473 Clouds -12 997 67 10000 5.66 50 08:22 17.02.2021
2474 Clouds -12 996 67 10000 6.17 40 07:34 17.02.2021
2475 Clouds -12 996 67 10000 5.66 50 06:35 17.02.2021
2476 Clouds -12 996 61 10000 4.63 40 02:44 17.02.2021
2477 Clouds -12 996 61 10000 4.63 40 02:21 17.02.2021
2478 Clear -13 995 67 10000 4.63 50 00:35 17.02.2021
2479 Clouds -13 995 61 10000 5.14 80 23:57 16.02.2021
2480 Clouds -13 995 61 10000 5.14 80 23:38 16.02.2021
2481 Clouds -13 994 61 10000 4.63 60 22:45 16.02.2021
2482 Clouds -13 994 61 10000 4.63 60 22:25 16.02.2021
2483 Clouds -12 994 61 10000 4.63 30 21:58 16.02.2021
2484 Clouds -12 994 61 10000 4.63 30 21:39 16.02.2021
2485 Clouds -12 994 61 10000 4.63 30 21:20 16.02.2021
2486 Clouds -11 993 67 10000 4.63 20 20:45 16.02.2021
2487 Clouds -11 993 67 10000 4.63 20 20:20 16.02.2021
2488 Clouds -11 993 67 10000 4.63 30 19:47 16.02.2021
2489 Clouds -11 993 67 10000 4.63 30 19:27 16.02.2021
2490 Clouds -11 992 62 10000 3.6 50 18:42 16.02.2021
2491 Clouds -11 992 62 10000 3.6 50 18:23 16.02.2021
2492 Clouds -11 992 57 10000 4.12 60 17:53 16.02.2021
2493 Clouds -11 992 57 10000 4.12 60 17:27 16.02.2021
2494 Clouds -12 992 72 10000 4.63 70 16:52 16.02.2021
2495 Clouds -12 992 72 10000 4.63 70 16:30 16.02.2021
2496 Clouds -12 992 72 10000 4.63 70 16:30 16.02.2021
2497 Clouds -12 991 72 10000 4.12 70 15:57 16.02.2021
2498 Clouds -12 991 72 10000 4.12 70 15:36 16.02.2021
2499 Clouds -12 991 72 10000 4.12 70 15:18 16.02.2021
2500 Clouds -12 991 61 10000 5.66 80 14:39 16.02.2021
2501 Clouds -12 991 61 10000 5.66 80 14:21 16.02.2021
2502 Clouds -13 991 72 10000 4.63 80 13:44 16.02.2021
2503 Clouds -12 991 67 10000 4.63 80 12:59 16.02.2021
2504 Clouds -12 991 67 10000 4.63 80 12:40 16.02.2021
2505 Clouds -12 991 67 10000 4.63 80 12:19 16.02.2021
2506 Clear -12 990 72 10000 6.17 80 11:39 16.02.2021
2507 Clear -12 990 72 10000 6.17 80 11:20 16.02.2021
2508 Clouds -12 990 72 10000 5.66 80 10:46 16.02.2021
2509 Clouds -12 990 72 10000 5.66 80 10:27 16.02.2021
2510 Clouds -12 989 72 10000 5.66 80 09:53 16.02.2021
2511 Clouds -12 989 72 10000 5.66 80 09:26 16.02.2021
2512 Clouds -12 989 67 10000 6.17 80 08:51 16.02.2021
2513 Clouds -12 989 67 10000 6.17 80 08:29 16.02.2021
2514 Clouds -12 989 67 10000 6.17 80 07:54 16.02.2021
2515 Clouds -11 989 62 10000 6.17 70 06:55 16.02.2021
2516 Clouds -11 990 62 10000 4.63 90 02:42 16.02.2021
2517 Clouds -12 991 67 10000 4.63 90 00:23 16.02.2021
2518 Clouds -11 991 67 10000 5.14 80 23:30 15.02.2021
2519 Clouds -11 992 62 10000 4.12 90 22:51 15.02.2021
2520 Clouds -11 992 62 10000 4.12 90 22:29 15.02.2021
2521 Clouds -11 992 62 10000 3.09 120 21:48 15.02.2021
2522 Clouds -11 992 62 10000 3.09 120 21:25 15.02.2021
2523 Clouds -11 992 67 10000 5.14 80 20:57 15.02.2021
2524 Clouds -11 992 67 10000 5.14 80 20:39 15.02.2021
2525 Clouds -11 992 62 10000 4.12 90 19:51 15.02.2021
2526 Clouds -11 992 62 10000 4.12 90 19:30 15.02.2021
2527 Clouds -10 993 67 10000 5.14 90 18:58 15.02.2021
2528 Clouds -10 993 67 10000 5.14 90 18:30 15.02.2021
2529 Clouds -10 994 62 10000 5.14 90 17:59 15.02.2021
2530 Clouds -10 994 62 10000 5.14 90 17:40 15.02.2021
2531 Clouds -10 994 62 10000 5.14 90 17:21 15.02.2021
2532 Clouds -10 994 62 10000 4.63 110 16:46 15.02.2021
2533 Clouds -10 994 62 10000 4.63 110 16:22 15.02.2021
2534 Clouds -11 995 67 10000 5.14 110 15:44 15.02.2021
2535 Clouds -11 995 67 10000 5.14 110 15:20 15.02.2021
2536 Clouds -12 996 61 10000 4.63 110 14:49 15.02.2021
2537 Clouds -12 996 61 10000 4.63 110 14:21 15.02.2021
2538 Clouds -11 996 67 10000 4.63 110 13:49 15.02.2021
2539 Clouds -11 996 67 10000 4.63 110 13:27 15.02.2021
2540 Clouds -12 997 79 8000 4.63 120 12:52 15.02.2021
2541 Clouds -12 997 79 8000 4.63 120 12:33 15.02.2021
2542 Clouds -12 997 85 10000 3.09 100 11:54 15.02.2021
2543 Clouds -12 997 85 10000 3.09 100 11:27 15.02.2021
2544 Snow -11 998 85 1400 1.03 0 10:58 15.02.2021
2545 Snow -11 998 85 1400 1.03 0 10:40 15.02.2021
2546 Snow -11 998 85 1400 1.03 0 10:21 15.02.2021
2547 Snow -11 998 85 2700 3.53 66 09:51 15.02.2021
2548 Snow -11 998 85 2700 3.53 66 09:32 15.02.2021
2549 Clouds -11 998 85 10000 1.54 80 08:32 15.02.2021
2550 Snow -11 999 92 1700 0.51 160 07:32 15.02.2021
2551 Snow -11 999 85 2700 1.03 120 06:42 15.02.2021
2552 Snow -10 1000 85 3000 1.54 250 04:58 15.02.2021
2553 Clouds -10 1000 67 10000 3.6 70 02:21 15.02.2021
2554 Drizzle -10 1001 62 10000 2.57 110 00:24 15.02.2021
2555 Drizzle -10 1001 67 10000 2.57 110 23:30 14.02.2021
2556 Snow -10 1002 67 10000 2.06 120 22:51 14.02.2021
2557 Snow -10 1002 67 10000 2.06 120 22:30 14.02.2021
2558 Clouds -10 1002 62 10000 1.54 360 21:56 14.02.2021
2559 Clouds -10 1002 62 10000 1.54 360 21:36 14.02.2021
2560 Snow -10 1002 62 10000 1.54 340 20:56 14.02.2021
2561 Snow -10 1002 62 10000 1.54 340 20:32 14.02.2021
2562 Clouds -10 1002 57 10000 3.09 320 19:59 14.02.2021
2563 Clouds -10 1002 57 10000 3.09 320 19:38 14.02.2021
2564 Clouds -10 1002 62 10000 3.6 340 18:48 14.02.2021
2565 Clouds -10 1002 62 10000 3.6 340 18:29 14.02.2021
2566 Snow -10 1003 67 10000 3.6 350 17:48 14.02.2021
2567 Snow -10 1003 67 10000 3.6 350 17:28 14.02.2021
2568 Clouds -10 1003 67 10000 4.63 320 16:43 14.02.2021
2569 Clouds -10 1003 67 10000 4.63 320 16:24 14.02.2021
2570 Clouds -10 1003 67 10000 4.63 330 15:45 14.02.2021
2571 Clouds -10 1003 67 10000 4.63 330 15:26 14.02.2021
2572 Clouds -10 1003 67 10000 5.14 320 14:42 14.02.2021
2573 Clouds -10 1003 67 10000 5.14 320 14:20 14.02.2021
2574 Drizzle -10 1004 67 10000 5.14 340 13:38 14.02.2021
2575 Drizzle -10 1004 67 10000 5.14 340 13:20 14.02.2021
2576 Clouds -10 1004 67 10000 5.66 330 12:24 14.02.2021
2577 Clouds -10 1004 67 10000 5.14 330 11:52 14.02.2021
2578 Clouds -10 1004 67 10000 5.14 330 11:33 14.02.2021
2579 Clouds -10 1004 73 10000 4.63 340 10:59 14.02.2021
2580 Clouds -10 1004 73 10000 4.63 340 10:24 14.02.2021
2581 Clouds -10 1004 62 10000 3.6 350 09:40 14.02.2021
2582 Clouds -10 1004 62 10000 3.6 350 09:21 14.02.2021
2583 Clouds -10 1004 67 10000 5.14 340 08:57 14.02.2021
2584 Clouds -10 1004 67 10000 5.14 340 08:18 14.02.2021
2585 Clouds -10 1004 67 10000 6.17 350 07:19 14.02.2021
2586 Clouds -10 1004 67 10000 5.66 350 06:26 14.02.2021
2587 Clouds -10 1004 73 10000 7.2 350 03:59 14.02.2021
2588 Clouds -10 1003 73 10000 8.23 330 02:29 14.02.2021
2589 Clouds -10 1003 73 10000 8.23 330 01:29 14.02.2021
2590 Clouds -9 1002 73 10000 7.72 330 00:41 14.02.2021
2591 Snow -9 1002 67 10000 8.75 330 23:49 13.02.2021
2592 Snow -9 1002 67 10000 8.75 330 23:25 13.02.2021
2593 Snow -9 1001 73 10000 8.23 330 22:57 13.02.2021
2594 Snow -9 1001 73 10000 8.23 330 22:22 13.02.2021
2595 Snow -9 1001 73 10000 9.77 330 21:49 13.02.2021
2596 Snow -9 1001 73 10000 9.77 330 21:27 13.02.2021
2597 Snow -8 1000 79 10000 9.26 330 20:45 13.02.2021
2598 Snow -8 1000 79 10000 9.26 330 20:26 13.02.2021
2599 Snow -8 999 73 10000 7.72 330 19:48 13.02.2021
2600 Snow -8 999 73 10000 7.72 330 19:23 13.02.2021
2601 Snow -8 999 86 6000 8.75 330 18:49 13.02.2021
2602 Snow -8 999 86 6000 8.75 330 18:27 13.02.2021
2603 Snow -8 999 86 6000 8.75 330 18:27 13.02.2021
2604 Snow -7 999 73 10000 7.72 330 17:44 13.02.2021
2605 Snow -7 999 73 10000 7.72 330 17:25 13.02.2021
2606 Snow -8 999 79 10000 8.23 330 16:53 13.02.2021
2607 Snow -8 999 79 10000 8.23 330 16:34 13.02.2021
2608 Snow -8 999 86 10000 7.72 330 15:43 13.02.2021
2609 Snow -8 999 86 10000 7.72 330 15:25 13.02.2021
2610 Snow -7 998 79 10000 7.2 330 14:40 13.02.2021
2611 Snow -7 998 79 10000 5.14 360 13:49 13.02.2021
2612 Snow -7 998 79 10000 5.14 360 13:27 13.02.2021
2613 Snow -7 998 73 10000 6.17 350 12:53 13.02.2021
2614 Snow -7 998 73 10000 6.17 350 12:21 13.02.2021
2615 Snow -7 998 79 10000 5.66 360 11:55 13.02.2021
2616 Snow -7 998 79 10000 5.66 360 11:23 13.02.2021
2617 Clouds -7 999 79 10000 5.14 10 10:59 13.02.2021
2618 Clouds -7 999 79 10000 5.14 10 10:41 13.02.2021
2619 Clouds -7 999 79 10000 5.14 10 10:22 13.02.2021
2620 Clouds -7 999 79 10000 4.63 360 09:46 13.02.2021
2621 Clouds -7 999 79 10000 4.63 360 09:25 13.02.2021
2622 Clouds -7 999 79 10000 5.14 20 08:47 13.02.2021
2623 Clouds -7 999 79 10000 5.14 20 08:18 13.02.2021
2624 Clouds -8 999 93 10000 5.66 10 06:59 13.02.2021
2625 Clouds -8 999 93 10000 5.66 10 06:24 13.02.2021
2626 Clouds -8 1000 86 10000 6.17 20 04:31 13.02.2021
2627 Clouds -8 1000 86 10000 6.17 20 04:31 13.02.2021
2628 Clouds -8 1001 86 10000 5.66 30 02:41 13.02.2021
2629 Clouds -8 1001 79 10000 5.66 30 00:54 13.02.2021
2630 Clouds -8 1001 79 10000 5.66 30 00:54 13.02.2021
2631 Clouds -8 1001 79 10000 5.66 30 00:18 13.02.2021
2632 Clouds -8 1002 86 10000 6.17 10 23:45 12.02.2021
2633 Clouds -8 1002 86 10000 6.17 10 23:18 12.02.2021
2634 Clouds -8 1003 86 10000 6.69 10 22:32 12.02.2021
2635 Clouds -8 1004 86 10000 5.66 20 21:58 12.02.2021
2636 Clouds -8 1004 86 10000 5.66 20 21:39 12.02.2021
2637 Clouds -8 1004 86 10000 5.66 20 21:21 12.02.2021
2638 Clouds -7 1004 79 10000 5.14 20 20:40 12.02.2021
2639 Clouds -7 1004 79 10000 5.14 20 20:21 12.02.2021
2640 Clouds -7 1004 79 10000 5.14 10 19:49 12.02.2021
2641 Clouds -7 1004 79 10000 5.14 10 19:28 12.02.2021
2642 Clouds -7 1005 79 10000 5.14 360 18:35 12.02.2021
2643 Clouds -7 1005 79 10000 5.14 30 17:54 12.02.2021
2644 Clouds -7 1005 79 10000 5.14 30 17:35 12.02.2021
2645 Clouds -7 1005 86 10000 4.12 10 16:53 12.02.2021
2646 Clouds -7 1005 86 10000 4.12 10 16:18 12.02.2021
2647 Clouds -7 1005 79 10000 4.63 10 15:43 12.02.2021
2648 Clouds -7 1005 79 10000 4.63 10 15:20 12.02.2021
2649 Clouds -7 1005 79 10000 4.12 10 14:36 12.02.2021
2650 Clouds -7 1005 79 10000 4.63 360 13:49 12.02.2021
2651 Clouds -7 1005 79 10000 4.63 360 13:29 12.02.2021
2652 Clouds -7 1005 86 10000 5.14 10 12:54 12.02.2021
2653 Clouds -7 1005 86 10000 5.14 10 12:35 12.02.2021
2654 Clouds -8 1005 93 10000 5.66 350 11:48 12.02.2021
2655 Clouds -8 1005 93 10000 5.66 350 11:22 12.02.2021
2656 Clouds -7 1004 86 10000 5.14 340 10:50 12.02.2021
2657 Clouds -7 1004 86 10000 5.14 340 10:31 12.02.2021
2658 Clouds -7 1005 86 10000 5.66 340 09:42 12.02.2021
2659 Clouds -7 1005 86 10000 5.66 340 09:23 12.02.2021
2660 Clouds -7 1004 86 10000 5.14 340 08:46 12.02.2021
2661 Clouds -7 1004 86 10000 5.14 340 08:25 12.02.2021
2662 Clouds -7 1004 86 10000 4.63 360 07:52 12.02.2021
2663 Clouds -7 1004 86 10000 4.63 360 07:27 12.02.2021
2664 Clouds -7 1004 86 10000 5.14 350 06:53 12.02.2021
2665 Clouds -7 1004 86 10000 6.17 340 05:38 12.02.2021
2666 Clouds -7 1005 86 10000 5.66 360 03:46 12.02.2021
2667 Clouds -6 1006 79 10000 7.2 340 00:34 12.02.2021
2668 Clouds -6 1006 86 10000 7.2 350 23:38 11.02.2021
2669 Clouds -6 1006 86 10000 7.2 350 23:20 11.02.2021
2670 Clouds -5 1007 80 10000 6.17 350 22:44 11.02.2021
2671 Clouds -5 1007 80 10000 6.17 350 22:23 11.02.2021
2672 Snow -6 1007 93 10000 6.69 340 21:43 11.02.2021
2673 Snow -6 1007 93 10000 6.69 340 21:25 11.02.2021
2674 Snow -6 1007 93 10000 6.69 340 20:57 11.02.2021
2675 Snow -6 1007 93 10000 6.69 340 20:39 11.02.2021
2676 Snow -6 1007 93 10000 6.69 340 20:19 11.02.2021
2677 Clouds -5 1007 86 10000 5.66 350 19:46 11.02.2021
2678 Clouds -5 1007 86 10000 5.66 350 19:26 11.02.2021
2679 Clouds -5 1007 86 10000 5.66 350 19:26 11.02.2021
2680 Clouds -5 1007 86 10000 4.63 350 18:43 11.02.2021
2681 Clouds -5 1007 86 10000 4.63 350 18:21 11.02.2021
2682 Clouds -5 1007 93 10000 3.6 350 17:48 11.02.2021
2683 Clouds -5 1007 93 10000 3.6 350 17:21 11.02.2021
2684 Clouds -5 1007 93 10000 4.63 330 16:46 11.02.2021
2685 Clouds -5 1007 93 10000 4.63 330 16:27 11.02.2021
2686 Clouds -5 1007 93 10000 4.12 340 15:47 11.02.2021
2687 Clouds -5 1007 93 10000 4.12 340 15:26 11.02.2021
2688 Clouds -5 1007 93 10000 3.6 10 14:58 11.02.2021
2689 Clouds -5 1007 93 10000 3.6 10 14:32 11.02.2021
2690 Clouds -4 1007 86 10000 2.06 20 13:44 11.02.2021
2691 Clouds -4 1007 86 10000 2.06 20 13:21 11.02.2021
2692 Clouds -4 1007 86 10000 1.54 30 12:56 11.02.2021
2693 Clouds -4 1007 86 10000 1.54 30 12:35 11.02.2021
2694 Clouds -5 1007 86 10000 2.06 50 11:49 11.02.2021
2695 Clouds -5 1007 86 10000 2.06 50 11:29 11.02.2021
2696 Clouds -5 1007 93 10000 2.57 50 10:57 11.02.2021
2697 Clouds -5 1007 93 10000 2.57 50 10:39 11.02.2021
2698 Clouds -5 1007 93 10000 2.57 50 10:21 11.02.2021
2699 Clouds -5 1008 93 10000 2.57 80 09:41 11.02.2021
2700 Clouds -5 1008 93 10000 2.57 80 09:19 11.02.2021
2701 Clouds -5 1008 86 10000 2.06 50 08:49 11.02.2021
2702 Clouds -4 1008 93 10000 2.06 60 07:53 11.02.2021
2703 Clouds -4 1008 93 10000 2.57 360 06:46 11.02.2021
2704 Clouds -4 1008 93 10000 2.57 360 06:25 11.02.2021
2705 Clouds -4 1009 93 10000 1.03 20 03:47 11.02.2021
2706 Clouds -4 1010 86 10000 1.54 20 02:26 11.02.2021
2707 Clouds -4 1010 86 10000 1.54 50 00:24 11.02.2021
2708 Clouds -4 1010 86 10000 2.57 80 23:59 10.02.2021
2709 Clouds -4 1010 86 10000 2.57 80 23:35 10.02.2021
2710 Clouds -4 1011 93 10000 2.57 50 22:48 10.02.2021
2711 Clouds -4 1011 93 10000 2.57 50 22:25 10.02.2021
2712 Clouds -4 1011 93 10000 3.6 360 21:40 10.02.2021
2713 Clouds -4 1011 93 10000 3.6 360 21:40 10.02.2021
2714 Clouds -4 1011 93 10000 3.6 360 21:22 10.02.2021
2715 Clouds -3 1011 80 10000 1.03 0 20:58 10.02.2021
2716 Clouds -3 1011 80 10000 1.03 0 20:30 10.02.2021
2717 Clouds -3 1011 80 10000 3.09 60 19:59 10.02.2021
2718 Clouds -3 1011 80 10000 3.09 60 19:40 10.02.2021
2719 Clouds -3 1011 80 10000 3.09 60 19:19 10.02.2021
2720 Clouds -3 1012 86 10000 2.57 40 18:39 10.02.2021
2721 Clouds -3 1012 86 10000 2.57 40 18:18 10.02.2021
2722 Clouds -3 1013 93 10000 2.57 10 17:45 10.02.2021
2723 Clouds -3 1013 93 10000 2.57 10 17:21 10.02.2021
2724 Clouds -3 1013 86 10000 2.06 360 16:49 10.02.2021
2725 Clouds -3 1013 86 10000 2.06 360 16:28 10.02.2021
2726 Clouds -3 1014 86 10000 2.06 20 15:44 10.02.2021
2727 Clouds -3 1014 86 10000 2.06 20 15:21 10.02.2021
2728 Snow -3 1015 86 10000 2.57 10 14:41 10.02.2021
2729 Snow -3 1015 86 10000 2.57 10 14:18 10.02.2021
2730 Snow -4 1015 86 10000 2.57 10 13:40 10.02.2021
2731 Snow -4 1016 93 10000 2.06 20 13:21 10.02.2021
2732 Clouds -4 1016 93 10000 2.06 20 12:44 10.02.2021
2733 Clouds -4 1016 93 10000 2.06 20 12:26 10.02.2021
2734 Clouds -4 1017 86 10000 2.06 20 11:41 10.02.2021
2735 Clouds -4 1017 86 10000 2.06 20 11:41 10.02.2021
2736 Clouds -4 1017 86 10000 2.06 20 11:23 10.02.2021
2737 Clouds -4 1017 86 10000 1.54 50 10:46 10.02.2021
2738 Clouds -4 1017 86 10000 1.54 50 10:19 10.02.2021
2739 Clear -3 1018 79 10000 0.89 40 09:43 10.02.2021
2740 Clouds -3 1018 80 10000 1.03 40 09:21 10.02.2021
2741 Clouds -3 1018 80 10000 1.03 40 08:50 10.02.2021
2742 Clouds -3 1018 80 10000 0.51 150 07:59 10.02.2021
2743 Clouds -3 1018 80 10000 0.51 150 07:18 10.02.2021
2744 Clouds -3 1020 80 10000 5.66 180 03:45 10.02.2021
2745 Clouds -3 1021 86 10000 5.66 200 00:51 10.02.2021
2746 Clouds -3 1021 86 10000 5.66 200 23:39 09.02.2021
2747 Clouds -3 1021 86 10000 5.66 200 23:19 09.02.2021
2748 Clouds -3 1021 93 10000 7.2 200 22:41 09.02.2021
2749 Clouds -3 1021 93 10000 7.2 200 22:23 09.02.2021
2750 Clouds -3 1021 93 10000 8.23 200 21:40 09.02.2021
2751 Clouds -3 1021 93 10000 6.69 210 21:19 09.02.2021
2752 Clouds -2 1021 86 10000 5.66 200 20:41 09.02.2021
2753 Clouds -2 1021 86 10000 5.66 200 20:23 09.02.2021
2754 Clouds 0 1021 64 10000 2.06 0 19:40 09.02.2021
2755 Clouds 0 1021 64 10000 2.06 0 19:21 09.02.2021
2756 Clouds 0 1021 55 10000 1.03 130 18:42 09.02.2021
2757 Clouds 0 1021 55 10000 1.03 130 18:21 09.02.2021
2758 Clouds -1 1021 64 10000 1.54 160 17:45 09.02.2021
2759 Clouds -1 1021 64 10000 1.54 160 17:25 09.02.2021
2760 Clouds -1 1021 55 10000 1.54 130 16:50 09.02.2021
2761 Clouds -1 1021 55 10000 1.54 130 16:19 09.02.2021
2762 Clouds -1 1021 55 10000 0.51 180 15:50 09.02.2021
2763 Clouds -1 1021 55 10000 0.51 180 15:28 09.02.2021
2764 Clouds -1 1022 59 10000 1.54 0 14:57 09.02.2021
2765 Clouds -1 1022 59 10000 1.54 0 14:30 09.02.2021
2766 Clouds -1 1022 55 10000 4.63 50 13:59 09.02.2021
2767 Clouds -1 1022 55 10000 4.63 50 13:39 09.02.2021
2768 Clouds -1 1022 55 10000 4.63 50 13:19 09.02.2021
2769 Clouds -1 1022 51 10000 1.03 140 12:41 09.02.2021
2770 Clouds -1 1022 51 10000 1.03 140 12:22 09.02.2021
2771 Clouds -1 1022 51 10000 2.06 160 11:44 09.02.2021
2772 Clouds -1 1022 51 10000 2.06 160 11:21 09.02.2021
2773 Clouds -2 1022 59 10000 0.51 0 10:56 09.02.2021
2774 Clouds -2 1022 59 10000 0.51 0 10:20 09.02.2021
2775 Clouds -1 1022 51 10000 2.06 210 09:46 09.02.2021
2776 Clouds -1 1022 51 10000 2.06 210 09:26 09.02.2021
2777 Clouds 0 1022 43 10000 2.06 190 08:53 09.02.2021
2778 Clouds 0 1022 43 10000 2.06 190 08:28 09.02.2021
2779 Clouds -1 1021 47 10000 0.51 0 07:41 09.02.2021
2780 Clouds -1 1021 43 10000 1.03 160 05:33 09.02.2021
2781 Clear -2 1021 50 10000 1.03 140 03:47 09.02.2021
2782 Clear -1 1020 43 10000 3.09 100 01:50 09.02.2021
2783 Clouds 0 1020 40 10000 4.63 80 00:21 09.02.2021
2784 Clouds -1 1020 43 10000 2.57 110 23:23 08.02.2021
2785 Clear -1 1020 43 10000 6.17 70 22:59 08.02.2021
2786 Clear -1 1020 43 10000 6.17 70 22:41 08.02.2021
2787 Clear -1 1020 43 10000 6.17 70 22:21 08.02.2021
2788 Clear -1 1020 43 10000 5.66 70 21:44 08.02.2021
2789 Clear -1 1020 43 10000 5.66 70 21:21 08.02.2021
2790 Clear 0 1019 40 10000 4.12 80 20:44 08.02.2021
2791 Clear 0 1019 40 10000 4.12 80 20:24 08.02.2021
2792 Clear 0 1019 40 10000 3.6 100 19:58 08.02.2021
2793 Clear 0 1019 40 10000 3.6 100 19:39 08.02.2021
2794 Clear 0 1019 40 10000 3.6 100 19:19 08.02.2021
2795 Clear 0 1019 40 10000 4.12 0 18:41 08.02.2021
2796 Clear 0 1019 40 10000 4.12 0 18:18 08.02.2021
2797 Clear 0 1019 40 10000 6.17 90 17:43 08.02.2021
2798 Clear 0 1019 40 10000 6.17 90 17:22 08.02.2021
2799 Clear 0 1019 37 10000 6.17 90 16:41 08.02.2021
2800 Clear 0 1019 37 10000 6.17 90 16:20 08.02.2021
2801 Clear -1 1019 40 10000 6.69 100 15:41 08.02.2021
2802 Clear -1 1019 40 10000 6.69 100 15:19 08.02.2021
2803 Clear -1 1019 43 10000 5.66 80 14:51 08.02.2021
2804 Clear -1 1019 43 10000 5.66 80 14:30 08.02.2021
2805 Clear -1 1018 39 10000 5.36 90 13:56 08.02.2021
2806 Clear -1 1018 39 10000 5.36 90 13:32 08.02.2021
2807 Clouds -1 1018 40 10000 5.66 90 12:51 08.02.2021
2808 Clouds -1 1018 40 10000 5.66 90 12:33 08.02.2021
2809 Clear -1 1018 40 10000 7.72 60 11:44 08.02.2021
2810 Clear -1 1018 40 10000 7.72 60 11:19 08.02.2021
2811 Clear -1 1018 37 10000 7.72 90 10:44 08.02.2021
2812 Clear -1 1018 37 10000 7.72 90 10:23 08.02.2021
2813 Clouds -1 1018 40 10000 8.75 80 09:50 08.02.2021
2814 Clouds -1 1018 40 10000 8.75 80 09:29 08.02.2021
2815 Clear -1 1018 37 10000 7.2 80 08:41 08.02.2021
2816 Clear -1 1018 37 10000 7.2 80 08:18 08.02.2021
2817 Clear -1 1017 40 10000 8.23 70 07:22 08.02.2021
2818 Clouds -1 1017 40 10000 7.72 70 05:53 08.02.2021
2819 Clouds -1 1016 40 10000 2.06 200 02:28 08.02.2021
2820 Clear -1 1016 43 10000 1.03 140 01:18 08.02.2021
2821 Clouds -1 1016 47 10000 7.2 80 00:21 08.02.2021
2822 Clouds -1 1016 43 10000 5.14 80 23:48 07.02.2021
2823 Clouds -1 1016 43 10000 5.14 80 23:20 07.02.2021
2824 Clear 0 1016 40 10000 6.17 70 22:45 07.02.2021
2825 Clear 0 1016 40 10000 6.17 70 22:26 07.02.2021
2826 Clear 0 1016 43 10000 5.14 90 21:52 07.02.2021
2827 Clear 0 1016 43 10000 5.14 90 21:28 07.02.2021
2828 Clear 1 1016 40 10000 6.69 70 20:54 07.02.2021
2829 Clear 1 1016 40 10000 6.69 70 20:34 07.02.2021
2830 Clear 1 1017 40 10000 3.09 90 19:55 07.02.2021
2831 Clear 1 1017 40 10000 3.09 90 19:31 07.02.2021
2832 Clear 1 1016 40 10000 3.6 80 18:56 07.02.2021
2833 Clear 1 1016 40 10000 3.6 80 18:36 07.02.2021
2834 Clear 1 1016 40 10000 3.6 80 18:18 07.02.2021
2835 Clouds 1 1017 40 10000 3.09 120 17:44 07.02.2021
2836 Clouds 1 1017 40 10000 3.09 120 17:20 07.02.2021
2837 Clouds 1 1017 44 10000 8.23 80 16:48 07.02.2021
2838 Clouds 1 1017 44 10000 8.23 80 16:27 07.02.2021
2839 Clouds 1 1018 40 10000 9.26 90 15:58 07.02.2021
2840 Clouds 1 1018 40 10000 9.26 90 15:40 07.02.2021
2841 Clouds 1 1018 40 10000 9.26 90 15:21 07.02.2021
2842 Clouds 1 1018 44 10000 9.26 90 14:39 07.02.2021
2843 Clouds 1 1018 44 10000 9.26 90 14:21 07.02.2021
2844 Clouds 2 1018 35 10000 9.77 70 13:36 07.02.2021
2845 Clear 1 1019 44 10000 10.8 70 12:59 07.02.2021
2846 Clear 1 1019 44 10000 10.8 70 12:38 07.02.2021
2847 Clear 1 1019 44 10000 10.8 70 12:19 07.02.2021
2848 Clear 2 1019 41 10000 7.2 90 11:39 07.02.2021
2849 Clear 2 1019 41 10000 7.2 90 11:18 07.02.2021
2850 Clear 2 1019 41 10000 8.23 90 10:29 07.02.2021
2851 Clouds 2 1020 44 10000 9.26 80 09:51 07.02.2021
2852 Clouds 2 1020 44 10000 9.26 80 09:25 07.02.2021
2853 Clear 2 1020 48 10000 12.35 80 08:50 07.02.2021
2854 Clear 3 1019 41 10000 12.35 80 07:56 07.02.2021
2855 Clear 3 1020 44 10000 10.29 90 06:25 07.02.2021
2856 Clouds 3 1021 41 10000 10.8 80 04:36 07.02.2021
2857 Clouds 1 1021 44 10000 8.23 100 02:31 07.02.2021
2858 Clouds 0 1021 40 10000 7.2 80 00:38 07.02.2021
2859 Clouds -2 1021 46 10000 6.69 60 23:51 06.02.2021
2860 Clouds -2 1021 50 10000 8.23 60 22:59 06.02.2021
2861 Clouds -2 1021 50 10000 8.23 60 22:21 06.02.2021
2862 Clouds -4 1021 46 10000 1.54 0 21:37 06.02.2021
2863 Clouds -4 1021 46 10000 1.54 0 21:19 06.02.2021
2864 Clear -3 1020 43 10000 3.09 60 20:44 06.02.2021
2865 Clear -3 1020 43 10000 3.09 60 20:22 06.02.2021
2866 Clear -4 1020 54 10000 2.06 140 19:46 06.02.2021
2867 Clear -4 1020 54 10000 2.06 140 19:25 06.02.2021
2868 Clear -2 1020 43 10000 2.06 160 18:45 06.02.2021
2869 Clear -2 1020 43 10000 2.06 160 18:26 06.02.2021
2870 Clear -4 1020 41 10000 11.62 70 17:41 06.02.2021
2871 Snow -4 1019 42 10000 11.83 70 17:21 06.02.2021
2872 Snow -4 1019 42 10000 11.83 70 16:55 06.02.2021
2873 Snow -4 1019 42 10000 11.83 70 16:30 06.02.2021
2874 Snow -5 1018 50 10000 11.83 60 15:53 06.02.2021
2875 Snow -5 1018 50 10000 11.83 60 15:34 06.02.2021
2876 Clouds -6 1019 49 10000 12.86 70 14:59 06.02.2021
2877 Clouds -6 1019 49 10000 12.86 70 14:39 06.02.2021
2878 Clouds -6 1019 49 10000 12.86 70 14:21 06.02.2021
2879 Clouds -7 1020 49 10000 10.29 70 13:45 06.02.2021
2880 Clear -7 1020 63 10000 7.72 60 12:48 06.02.2021
2881 Clear -7 1020 63 10000 7.72 60 12:20 06.02.2021
2882 Clouds -7 1020 68 10000 6.69 40 11:42 06.02.2021
2883 Clouds -7 1020 68 10000 6.69 40 11:20 06.02.2021
2884 Clouds -7 1020 68 10000 8.75 60 10:53 06.02.2021
2885 Clouds -7 1020 68 10000 8.75 60 10:28 06.02.2021
2886 Clouds -7 1021 68 10000 8.75 60 09:56 06.02.2021
2887 Clouds -7 1021 68 10000 8.75 60 09:36 06.02.2021
2888 Clouds -7 1021 68 10000 8.75 60 09:18 06.02.2021
2889 Clouds -7 1021 63 10000 7.2 40 08:29 06.02.2021
2890 Clouds -7 1021 68 10000 8.23 60 07:54 06.02.2021
2891 Clouds -7 1021 63 10000 8.75 50 05:42 06.02.2021
2892 Clouds -8 1021 62 10000 7.72 50 03:48 06.02.2021
2893 Clear -8 1022 73 10000 7.72 50 01:33 06.02.2021
2894 Clouds -8 1022 73 10000 7.72 50 00:46 06.02.2021
2895 Clouds -8 1022 73 10000 7.72 50 00:19 06.02.2021
2896 Clouds -8 1022 73 10000 7.72 50 23:42 05.02.2021
2897 Clouds -8 1022 73 10000 7.72 50 23:24 05.02.2021
2898 Clouds -8 1022 73 10000 7.72 50 22:45 05.02.2021
2899 Clouds -8 1022 73 10000 7.72 50 22:19 05.02.2021
2900 Clouds -9 1022 79 10000 7.72 60 21:44 05.02.2021
2901 Clouds -9 1022 79 10000 7.72 60 21:25 05.02.2021
2902 Clouds -8 1021 73 10000 6.17 40 20:43 05.02.2021
2903 Clouds -8 1021 73 10000 5.14 50 19:51 05.02.2021
2904 Clouds -8 1021 73 10000 5.14 50 19:19 05.02.2021
2905 Clouds -8 1021 73 10000 5.14 50 19:19 05.02.2021
2906 Clouds -8 1020 73 10000 6.17 50 18:53 05.02.2021
2907 Clouds -8 1020 73 10000 6.17 50 18:23 05.02.2021
2908 Clouds -8 1021 73 10000 5.66 60 17:44 05.02.2021
2909 Clouds -8 1021 73 10000 5.66 60 17:22 05.02.2021
2910 Clouds -9 1020 73 10000 5.66 50 16:49 05.02.2021
2911 Clouds -9 1020 73 10000 5.66 50 16:24 05.02.2021
2912 Clouds -9 1020 67 10000 4.12 50 15:57 05.02.2021
2913 Clouds -9 1020 67 10000 4.12 50 15:26 05.02.2021
2914 Clouds -9 1020 67 10000 4.12 60 14:41 05.02.2021
2915 Clouds -9 1020 67 10000 4.12 60 14:23 05.02.2021
2916 Clouds -9 1020 67 10000 4.12 60 14:23 05.02.2021
2917 Clouds -9 1020 67 10000 4.12 60 13:59 05.02.2021
2918 Clouds -9 1020 67 10000 4.12 60 13:37 05.02.2021
2919 Clouds -9 1019 73 10000 3.6 50 12:56 05.02.2021
2920 Clouds -9 1019 73 10000 3.6 50 12:37 05.02.2021
2921 Clouds -10 1019 79 10000 3.09 20 11:42 05.02.2021
2922 Clouds -10 1019 79 10000 3.09 20 11:22 05.02.2021
2923 Clouds -9 1018 67 10000 2.57 40 10:59 05.02.2021
2924 Clouds -9 1018 67 10000 2.57 40 10:27 05.02.2021
2925 Clouds -10 1018 67 10000 3.09 50 09:48 05.02.2021
2926 Clouds -10 1018 67 10000 3.09 50 09:29 05.02.2021
2927 Clouds -9 1017 67 10000 2.57 40 08:58 05.02.2021
2928 Clouds -9 1017 67 10000 2.57 40 08:29 05.02.2021
2929 Clouds -9 1016 67 10000 5.14 40 07:39 05.02.2021
2930 Clouds -9 1016 62 10000 5.14 60 06:57 05.02.2021
2931 Clouds -10 1016 67 10000 5.66 60 05:39 05.02.2021
2932 Clouds -10 1015 57 10000 4.63 80 04:49 05.02.2021
2933 Clouds -10 1016 67 10000 9.26 80 02:25 05.02.2021
2934 Snow -11 1016 62 10000 11.32 70 00:41 05.02.2021
2935 Snow -11 1016 62 10000 11.32 70 00:21 05.02.2021
2936 Snow -11 1018 57 10000 9.77 60 23:59 04.02.2021
2937 Snow -11 1018 57 10000 9.77 60 23:40 04.02.2021
2938 Snow -11 1018 57 10000 9.77 60 23:21 04.02.2021
2939 Snow -12 1018 61 10000 10.29 60 22:51 04.02.2021
2940 Snow -12 1018 61 10000 10.29 60 22:51 04.02.2021
2941 Snow -12 1018 61 10000 10.29 60 22:28 04.02.2021
2942 Snow -12 1019 56 10000 10.29 60 21:42 04.02.2021
2943 Snow -12 1019 56 10000 10.29 60 21:22 04.02.2021
2944 Snow -12 1019 61 10000 9.77 60 20:53 04.02.2021
2945 Snow -12 1019 61 10000 9.77 60 20:34 04.02.2021
2946 Snow -12 1020 61 10000 8.75 60 19:48 04.02.2021
2947 Snow -12 1020 61 10000 8.75 60 19:19 04.02.2021
2948 Snow -12 1020 67 10000 8.75 70 18:38 04.02.2021
2949 Snow -12 1020 67 10000 8.75 70 18:20 04.02.2021
2950 Snow -12 1021 67 10000 9.77 60 17:44 04.02.2021
2951 Snow -12 1021 67 10000 9.77 60 17:21 04.02.2021
2952 Snow -12 1021 67 10000 8.75 60 16:46 04.02.2021
2953 Snow -12 1021 67 10000 8.75 60 16:19 04.02.2021
2954 Snow -12 1022 61 10000 8.75 70 15:40 04.02.2021
2955 Snow -12 1022 61 10000 8.75 70 15:21 04.02.2021
2956 Snow -12 1022 61 10000 7.2 60 14:56 04.02.2021
2957 Snow -12 1022 61 10000 7.2 60 14:37 04.02.2021
2958 Snow -12 1022 61 10000 7.2 60 14:19 04.02.2021
2959 Clear -12 1023 56 10000 6.69 60 13:41 04.02.2021
2960 Clouds -12 1023 61 10000 6.69 70 12:57 04.02.2021
2961 Clouds -12 1023 61 10000 6.69 70 12:21 04.02.2021
2962 Clouds -12 1023 56 10000 7.2 60 11:53 04.02.2021
2963 Clouds -12 1023 56 10000 7.2 60 11:32 04.02.2021
2964 Clouds -12 1023 61 10000 6.17 60 10:45 04.02.2021
2965 Clouds -12 1023 61 10000 6.17 60 10:18 04.02.2021
2966 Clouds -12 1023 61 10000 5.14 70 09:43 04.02.2021
2967 Clouds -12 1023 61 10000 5.14 70 09:19 04.02.2021
2968 Clear -12 1023 56 10000 3.6 60 08:46 04.02.2021
2969 Clear -13 1023 56 10000 3.6 60 08:23 04.02.2021
2970 Clear -13 1022 61 10000 3.09 100 07:42 04.02.2021
2971 Clouds -13 1022 61 10000 3.09 100 07:20 04.02.2021
2972 Clouds -13 1022 66 10000 7.2 60 06:41 04.02.2021
2973 Clouds -14 1022 61 10000 2.06 70 03:54 04.02.2021
2974 Clouds -14 1022 56 10000 2.06 100 02:27 04.02.2021
2975 Clouds -14 1022 66 10000 2.57 80 00:56 04.02.2021
2976 Clouds -15 1022 72 10000 2.06 100 23:40 03.02.2021
2977 Clouds -14 1022 61 10000 2.06 110 22:50 03.02.2021
2978 Clouds -14 1022 61 10000 2.06 110 22:24 03.02.2021
2979 Clouds -14 1021 72 10000 7.2 80 21:59 03.02.2021
2980 Clouds -14 1021 72 10000 7.2 80 21:41 03.02.2021
2981 Clouds -14 1021 72 10000 7.2 80 21:21 03.02.2021
2982 Clouds -14 1021 72 10000 7.2 80 20:46 03.02.2021
2983 Clouds -14 1021 72 10000 7.2 80 20:26 03.02.2021
2984 Clouds -14 1021 72 10000 5.66 70 19:51 03.02.2021
2985 Clouds -14 1021 72 10000 5.66 70 19:23 03.02.2021
2986 Clouds -13 1022 72 10000 4.63 60 18:51 03.02.2021
2987 Clouds -13 1022 72 10000 4.63 60 18:22 03.02.2021
2988 Clouds -14 1022 78 10000 5.14 60 17:57 03.02.2021
2989 Clouds -14 1022 78 10000 5.14 60 17:37 03.02.2021
2990 Clouds -14 1022 78 10000 5.14 60 17:18 03.02.2021
2991 Clouds -14 1022 78 10000 4.12 40 16:36 03.02.2021
2992 Clouds -14 1022 78 10000 4.12 40 16:36 03.02.2021
2993 Clouds -14 1023 78 10000 4.63 70 15:51 03.02.2021
2994 Clouds -14 1023 78 10000 4.63 70 15:31 03.02.2021
2995 Clouds -14 1023 78 10000 4.12 70 14:59 03.02.2021
2996 Clouds -14 1023 78 10000 4.12 70 14:41 03.02.2021
2997 Clouds -14 1023 78 10000 4.12 70 14:19 03.02.2021
2998 Clouds -14 1023 85 10000 4.63 360 13:43 03.02.2021
2999 Clouds -14 1023 85 10000 4.63 360 13:18 03.02.2021
3000 Clouds -14 1023 92 10000 5.14 360 12:39 03.02.2021
3001 Clouds -14 1023 92 10000 5.14 360 12:19 03.02.2021
3002 Snow -14 1023 92 5000 4.63 360 11:41 03.02.2021
3003 Snow -14 1023 92 5000 4.63 360 11:21 03.02.2021
3004 Snow -14 1023 92 2500 6.69 350 10:27 03.02.2021
3005 Snow -13 1023 85 5000 5.66 350 09:58 03.02.2021
3006 Snow -13 1023 85 5000 5.66 350 09:58 03.02.2021
3007 Snow -13 1023 85 5000 5.66 350 09:38 03.02.2021
3008 Snow -13 1023 85 5000 5.66 350 09:19 03.02.2021
3009 Clouds -14 1023 92 4600 5.66 340 08:43 03.02.2021
3010 Clouds -14 1023 85 10000 5.66 350 07:58 03.02.2021
3011 Clouds -14 1023 78 10000 4.63 360 06:42 03.02.2021
3012 Clouds -14 1023 72 10000 5.66 350 05:19 03.02.2021
3013 Clouds -14 1023 78 10000 5.14 350 04:42 03.02.2021
3014 Clouds -14 1023 61 10000 3.6 10 03:51 03.02.2021
3015 Clouds -14 1023 61 10000 5.14 10 02:40 03.02.2021
3016 Clouds -14 1023 66 10000 5.14 340 01:47 03.02.2021
3017 Clouds -14 1023 56 10000 5.14 350 00:24 03.02.2021
3018 Clouds -14 1023 66 10000 4.63 350 23:43 02.02.2021
3019 Clouds -14 1023 66 10000 4.63 350 23:25 02.02.2021
3020 Clouds -14 1022 61 10000 6.17 350 22:46 02.02.2021
3021 Clouds -14 1022 61 10000 6.17 350 22:20 02.02.2021
3022 Clouds -13 1022 56 10000 5.14 10 21:46 02.02.2021
3023 Clouds -13 1022 56 10000 5.14 10 21:24 02.02.2021
3024 Clouds -13 1021 61 10000 5.66 10 20:49 02.02.2021
3025 Clouds -13 1021 61 10000 5.66 10 20:23 02.02.2021
3026 Clouds -13 1021 66 10000 5.14 20 19:55 02.02.2021
3027 Clouds -13 1021 66 10000 5.14 20 19:37 02.02.2021
3028 Clouds -13 1021 66 10000 5.14 20 19:18 02.02.2021
3029 Clouds -13 1021 61 10000 5.66 20 18:41 02.02.2021
3030 Clouds -13 1021 61 10000 5.66 20 18:22 02.02.2021
3031 Clouds -13 1020 66 10000 5.66 20 17:39 02.02.2021
3032 Clouds -13 1020 66 10000 5.66 20 17:21 02.02.2021
3033 Clouds -13 1020 61 10000 5.14 20 16:50 02.02.2021
3034 Clouds -13 1020 61 10000 5.14 20 16:31 02.02.2021
3035 Clouds -12 1020 61 10000 4.63 10 15:57 02.02.2021
3036 Clouds -12 1020 61 10000 4.63 10 15:33 02.02.2021
3037 Snow -12 1020 61 10000 5.66 350 14:56 02.02.2021
3038 Snow -12 1020 61 10000 5.66 350 14:37 02.02.2021
3039 Snow -12 1020 61 10000 5.66 350 14:18 02.02.2021
3040 Clouds -12 1019 56 10000 5.14 360 13:42 02.02.2021
3041 Clouds -12 1019 56 10000 5.14 360 13:22 02.02.2021
3042 Snow -12 1019 61 10000 5.66 360 12:51 02.02.2021
3043 Snow -12 1018 61 10000 5.66 10 11:56 02.02.2021
3044 Snow -12 1018 61 10000 5.66 10 11:38 02.02.2021
3045 Snow -12 1018 61 10000 5.66 10 11:18 02.02.2021
3046 Snow -12 1018 67 10000 6.17 350 10:43 02.02.2021
3047 Snow -12 1018 67 10000 6.17 350 10:25 02.02.2021
3048 Snow -12 1017 72 10000 4.63 360 09:45 02.02.2021
3049 Snow -12 1017 72 10000 4.63 360 09:21 02.02.2021
3050 Snow -12 1016 67 10000 5.14 20 08:38 02.02.2021
3051 Clouds -12 1016 61 10000 5.66 350 07:46 02.02.2021
3052 Clouds -12 1016 61 10000 5.66 350 07:23 02.02.2021
3053 Clouds -12 1015 67 10000 6.69 340 06:40 02.02.2021
3054 Clouds -12 1015 72 10000 6.69 360 05:51 02.02.2021
3055 Clouds -12 1014 72 10000 5.14 340 03:35 02.02.2021
3056 Clouds -11 1013 52 10000 8.23 330 02:24 02.02.2021
3057 Snow -11 1012 79 10000 4.63 350 00:38 02.02.2021
3058 Snow -10 1011 85 10000 7.2 350 23:57 01.02.2021
3059 Snow -10 1009 92 10000 9.26 330 22:57 01.02.2021
3060 Snow -10 1009 92 10000 9.26 330 22:39 01.02.2021
3061 Snow -10 1009 92 10000 9.26 330 22:19 01.02.2021
3062 Snow -9 1008 86 450 8.23 340 21:45 01.02.2021
3063 Snow -9 1008 86 450 8.23 340 21:22 01.02.2021
3064 Snow -8 1006 86 10000 4.12 240 20:42 01.02.2021
3065 Snow -8 1006 86 10000 4.12 240 20:24 01.02.2021
3066 Snow -8 1006 73 10000 5.66 250 19:47 01.02.2021
3067 Snow -8 1006 73 10000 5.66 250 19:21 01.02.2021
3068 Snow -8 1005 86 10000 6.17 250 18:56 01.02.2021
3069 Snow -8 1005 86 10000 6.17 250 18:37 01.02.2021
3070 Snow -8 1005 86 10000 6.17 250 18:19 01.02.2021
3071 Snow -8 1005 93 10000 5.66 250 17:41 01.02.2021
3072 Snow -7 1005 93 10000 5.66 250 17:19 01.02.2021
3073 Snow -7 1005 93 2500 6.69 260 16:33 01.02.2021
3074 Snow -6 1005 93 1000 5.14 220 15:56 01.02.2021
3075 Snow -6 1005 93 1000 5.14 220 15:37 01.02.2021
3076 Snow -6 1005 93 1000 5.14 220 15:19 01.02.2021
3077 Snow -6 1005 79 6000 4.63 170 14:46 01.02.2021
3078 Snow -6 1005 79 6000 4.63 170 14:18 01.02.2021
3079 Snow -6 1005 79 10000 4.63 180 13:42 01.02.2021
3080 Snow -6 1005 79 10000 3.09 170 13:22 01.02.2021
3081 Snow -6 1005 79 10000 3.09 170 12:44 01.02.2021
3082 Snow -6 1005 79 10000 3.09 170 12:44 01.02.2021
3083 Snow -6 1005 79 10000 3.09 170 12:23 01.02.2021
3084 Snow -6 1005 79 10000 3.09 180 11:43 01.02.2021
3085 Snow -6 1005 79 10000 3.09 180 11:20 01.02.2021
3086 Snow -7 1005 79 10000 2.06 150 10:46 01.02.2021
3087 Snow -7 1005 79 10000 2.06 150 10:21 01.02.2021
3088 Snow -7 1005 79 10000 2.34 182 09:47 01.02.2021
3089 Snow -7 1005 79 10000 1.58 137 09:25 01.02.2021
3090 Snow -7 1006 79 10000 2.57 100 08:56 01.02.2021
3091 Snow -7 1006 79 10000 2.57 100 08:21 01.02.2021
3092 Snow -8 1006 86 10000 3.09 60 06:43 01.02.2021
3093 Clouds -8 1007 79 10000 4.63 20 04:32 01.02.2021
3094 Clouds -9 1007 73 10000 4.12 60 01:46 01.02.2021
3095 Clouds -10 1008 85 10000 3.6 60 23:47 31.01.2021
3096 Clouds -11 1008 85 10000 3.09 40 22:56 31.01.2021
3097 Clouds -11 1008 85 10000 3.09 40 22:36 31.01.2021
3098 Clouds -11 1008 85 10000 3.09 40 22:18 31.01.2021
3099 Clouds -9 1008 79 10000 4.63 50 21:41 31.01.2021
3100 Clouds -9 1008 79 10000 4.63 50 21:19 31.01.2021
3101 Clouds -9 1008 79 10000 4.12 30 20:41 31.01.2021
3102 Clouds -9 1008 79 10000 4.12 30 20:20 31.01.2021
3103 Clouds -9 1008 79 10000 4.12 30 20:19 31.01.2021
3104 Clouds -9 1008 86 10000 5.66 20 19:38 31.01.2021
3105 Clouds -9 1008 86 10000 5.66 20 19:19 31.01.2021
3106 Clouds -8 1008 79 10000 4.63 40 18:44 31.01.2021
3107 Clouds -8 1008 79 10000 4.63 40 18:24 31.01.2021
3108 Clear -12 1008 84 10000 5.57 9 17:57 31.01.2021
3109 Clear -12 1008 84 10000 5.57 9 17:38 31.01.2021
3110 Clear -8 1009 79 10000 6.17 20 17:19 31.01.2021
3111 Clear -8 1009 79 10000 6.17 20 16:40 31.01.2021
3112 Clear -8 1009 79 10000 6.17 20 16:20 31.01.2021
3113 Clouds -9 1009 79 10000 6.69 10 15:48 31.01.2021
3114 Clouds -9 1009 79 10000 6.69 10 15:18 31.01.2021
3115 Clouds -9 1009 79 10000 6.69 10 14:36 31.01.2021
3116 Clouds -9 1009 79 10000 6.69 10 14:18 31.01.2021
3117 Clear -9 1010 79 10000 7.72 10 13:39 31.01.2021
3118 Clear -9 1010 79 10000 7.72 10 13:18 31.01.2021
3119 Clear -9 1010 79 10000 5.66 360 12:45 31.01.2021
3120 Clear -9 1010 79 10000 5.66 360 12:20 31.01.2021
3121 Clear -9 1010 79 10000 7.2 10 11:39 31.01.2021
3122 Clear -9 1010 79 10000 7.2 10 11:19 31.01.2021
3123 Clear -9 1010 79 10000 7.2 360 10:45 31.01.2021
3124 Clear -9 1010 79 10000 7.2 360 10:26 31.01.2021
3125 Clouds -9 1009 79 10000 6.17 10 09:39 31.01.2021
3126 Clouds -9 1009 79 10000 5.14 360 08:34 31.01.2021
3127 Clouds -9 1009 79 10000 5.14 360 08:34 31.01.2021
3128 Clear -9 1009 79 10000 5.66 360 07:55 31.01.2021
3129 Clouds -8 1009 73 10000 7.2 10 06:36 31.01.2021
3130 Clouds -8 1008 86 10000 5.66 360 03:46 31.01.2021
3131 Clear -9 1008 86 10000 1.54 40 00:28 31.01.2021
3132 Clear -7 1008 73 10000 2.06 30 23:52 30.01.2021
3133 Clear -8 1008 73 10000 2.06 30 23:24 30.01.2021
3134 Clouds -8 1008 73 10000 2.57 40 22:40 30.01.2021
3135 Clouds -8 1008 73 10000 2.57 40 22:22 30.01.2021
3136 Clouds -8 1007 73 10000 2.57 40 21:39 30.01.2021
3137 Clouds -8 1007 73 10000 2.57 40 21:18 30.01.2021
3138 Clouds -7 1007 68 10000 2.57 50 20:39 30.01.2021
3139 Clouds -6 1007 68 10000 3.6 30 19:59 30.01.2021
3140 Clouds -6 1007 68 10000 3.6 30 19:40 30.01.2021
3141 Clouds -6 1007 68 10000 3.6 30 19:40 30.01.2021
3142 Clouds -6 1007 68 10000 3.6 30 19:19 30.01.2021
3143 Clouds -6 1006 73 10000 3.6 50 18:40 30.01.2021
3144 Clouds -6 1006 73 10000 3.6 50 18:21 30.01.2021
3145 Clouds -5 1006 74 10000 2.57 20 17:49 30.01.2021
3146 Clouds -5 1006 74 10000 2.57 20 17:19 30.01.2021
3147 Clouds -5 1006 74 10000 2.06 50 16:42 30.01.2021
3148 Clouds -5 1006 74 10000 2.06 50 16:23 30.01.2021
3149 Clouds -6 1006 79 10000 1.54 50 15:49 30.01.2021
3150 Clouds -6 1006 79 10000 1.54 50 15:25 30.01.2021
3151 Clouds -6 1006 86 10000 2.06 60 14:58 30.01.2021
3152 Clouds -6 1006 86 10000 2.06 60 14:39 30.01.2021
3153 Clouds -6 1006 86 10000 2.06 60 14:18 30.01.2021
3154 Clouds -6 1007 86 10000 2.06 40 13:24 30.01.2021
3155 Clouds -5 1006 80 10000 2.57 30 12:46 30.01.2021
3156 Clouds -5 1006 80 10000 2.57 30 12:28 30.01.2021
3157 Clear -6 1006 86 10000 2.57 60 11:53 30.01.2021
3158 Clear -6 1006 86 10000 2.57 60 11:24 30.01.2021
3159 Clouds -5 1005 80 10000 2.57 50 10:43 30.01.2021
3160 Clear -5 1005 80 10000 3.6 40 09:43 30.01.2021
3161 Clear -5 1005 80 10000 3.6 40 09:25 30.01.2021
3162 Clouds -4 1005 80 10000 3.6 50 08:47 30.01.2021
3163 Clouds -6 1004 86 10000 3.09 20 07:44 30.01.2021
3164 Clouds -5 1004 86 10000 4.12 20 06:35 30.01.2021
3165 Clear -5 1004 93 10000 4.63 30 04:28 30.01.2021
3166 Clear -4 1004 86 10000 4.12 20 03:33 30.01.2021
3167 Clear -4 1004 86 10000 3.6 10 02:23 30.01.2021
3168 Clear -3 1003 80 10000 4.12 50 01:26 30.01.2021
3169 Clear -3 1003 86 10000 3.6 30 00:35 30.01.2021
3170 Clear -4 1003 86 10000 4.63 20 23:55 29.01.2021
3171 Clear -4 1003 86 10000 4.63 20 23:36 29.01.2021
3172 Clear -4 1003 86 10000 4.63 20 23:18 29.01.2021
3173 Clear -3 1002 86 10000 4.12 30 22:38 29.01.2021
3174 Clear -1 1002 55 10000 0.51 120 21:59 29.01.2021
3175 Clear -1 1002 55 10000 0.51 120 21:28 29.01.2021
3176 Clear -1 1001 59 10000 2.06 190 20:45 29.01.2021
3177 Clear -1 1001 59 10000 2.06 190 20:24 29.01.2021
3178 Clouds -2 1001 69 10000 3.09 30 19:43 29.01.2021
3179 Clouds -2 1001 69 10000 3.09 30 19:22 29.01.2021
3180 Clouds -1 1000 59 10000 2.06 180 18:58 29.01.2021
3181 Clouds -1 1000 59 10000 2.06 180 18:18 29.01.2021
3182 Clouds -2 1000 74 10000 5.14 50 17:37 29.01.2021
3183 Clouds -2 1000 74 10000 5.14 50 17:18 29.01.2021
3184 Clouds -2 1000 80 10000 4.12 30 16:44 29.01.2021
3185 Clouds -2 1000 80 10000 4.12 30 16:23 29.01.2021
3186 Clouds -3 999 80 10000 4.12 40 15:42 29.01.2021
3187 Clouds -3 999 80 10000 4.12 40 15:24 29.01.2021
3188 Clouds -3 999 80 10000 1.03 0 14:32 29.01.2021
3189 Clouds -3 999 80 10000 5.66 40 13:59 29.01.2021
3190 Clouds -3 999 80 10000 5.66 40 13:37 29.01.2021
3191 Clouds -3 999 80 10000 5.66 40 13:18 29.01.2021
3192 Clouds -2 998 69 10000 4.12 30 12:24 29.01.2021
3193 Clouds -1 998 59 10000 3.6 0 11:47 29.01.2021
3194 Clouds -1 998 59 10000 3.6 0 11:19 29.01.2021
3195 Clouds -3 998 80 10000 6.17 50 10:51 29.01.2021
3196 Clouds -3 998 80 10000 6.17 50 10:27 29.01.2021
3197 Clear -2 998 74 10000 4.63 30 09:49 29.01.2021
3198 Clouds -2 998 69 10000 5.14 40 08:58 29.01.2021
3199 Clouds -2 998 69 10000 5.14 40 08:34 29.01.2021
3200 Clear -2 998 74 10000 4.12 40 07:58 29.01.2021
3201 Clear -2 998 74 10000 4.12 40 07:40 29.01.2021
3202 Clear -2 998 74 10000 4.12 40 07:20 29.01.2021
3203 Clear -1 999 69 10000 6.69 10 05:23 29.01.2021
3204 Clear -1 999 64 10000 7.2 50 03:33 29.01.2021
3205 Clouds -1 999 64 10000 6.69 40 00:43 29.01.2021
3206 Clouds -1 999 64 10000 6.69 40 00:22 29.01.2021
3207 Clouds 0 999 55 10000 7.72 50 23:44 28.01.2021
3208 Clouds 0 999 55 10000 7.72 50 23:25 28.01.2021
3209 Clouds 0 999 55 10000 7.72 40 22:47 28.01.2021
3210 Clouds 0 999 55 10000 7.72 40 22:26 28.01.2021
3211 Clouds -1 999 59 10000 7.72 50 21:57 28.01.2021
3212 Clouds -1 999 59 10000 7.72 50 21:34 28.01.2021
3213 Clouds -1 999 59 10000 8.23 40 20:59 28.01.2021
3214 Clouds -1 999 59 10000 8.23 40 20:39 28.01.2021
3215 Clouds -1 999 59 10000 8.23 40 20:18 28.01.2021
3216 Clouds 0 999 55 10000 7.72 60 19:41 28.01.2021
3217 Clouds 0 999 55 10000 7.72 60 19:23 28.01.2021
3218 Clouds -2 1000 74 10000 8.75 50 18:43 28.01.2021
3219 Clouds -2 1000 74 10000 8.75 50 18:20 28.01.2021
3220 Clouds -1 1000 51 10000 7.72 60 17:46 28.01.2021
3221 Clouds -1 1000 51 10000 7.72 60 17:27 28.01.2021
3222 Clouds -1 1001 51 10000 6.17 50 16:45 28.01.2021
3223 Clouds -1 1001 51 10000 6.17 50 16:24 28.01.2021
3224 Clouds -2 1001 54 10000 1.03 360 15:51 28.01.2021
3225 Clouds -2 1001 54 10000 1.03 360 15:20 28.01.2021
3226 Clouds -2 1001 54 10000 4.44 56 14:42 28.01.2021
3227 Clouds -2 1001 54 10000 4.6 55 14:23 28.01.2021
3228 Clouds -1 1001 51 10000 1.03 120 13:49 28.01.2021
3229 Clouds -1 1001 51 10000 1.03 120 13:19 28.01.2021
3230 Clear 0 1001 43 10000 1.03 150 12:45 28.01.2021
3231 Clear 0 1001 43 10000 1.03 150 12:21 28.01.2021
3232 Clear -1 1001 51 10000 3.6 120 11:44 28.01.2021
3233 Clear -1 1001 51 10000 3.6 120 11:20 28.01.2021
3234 Clouds 0 1001 47 10000 5.14 70 10:54 28.01.2021
3235 Clouds 0 1001 47 10000 5.14 70 10:35 28.01.2021
3236 Clouds -1 1000 51 10000 6.17 60 09:59 28.01.2021
3237 Clouds -1 1000 51 10000 6.17 60 09:31 28.01.2021
3238 Clouds -1 1000 47 10000 9.26 70 08:57 28.01.2021
3239 Clouds -1 1000 47 10000 9.26 70 08:39 28.01.2021
3240 Clear -5 1002 84 10000 4.35 50 07:46 28.01.2021
3241 Clouds -5 1002 84 10000 5.27 46 06:51 28.01.2021
3242 Clouds -5 1002 84 10000 5.27 46 06:32 28.01.2021
3243 Clouds -5 1005 49 10000 6.71 50 04:30 28.01.2021
3244 Clouds -5 1005 49 10000 6.71 50 01:41 28.01.2021
3245 Clouds -5 1005 49 10000 6.71 50 01:41 28.01.2021
3246 Clear -5 1005 49 10000 6.71 50 00:27 28.01.2021
3247 Clear -5 1005 49 10000 6.71 50 23:25 27.01.2021
3248 Clear -5 1005 49 10000 6.71 50 22:44 27.01.2021
3249 Clear -5 1005 50 10000 6.69 50 22:25 27.01.2021
3250 Clear -5 1005 50 10000 6.69 50 21:57 27.01.2021
3251 Clear -5 1005 50 10000 6.69 50 21:39 27.01.2021
3252 Clear -5 1005 50 10000 6.69 50 21:21 27.01.2021
3253 Clear -7 1005 63 10000 5.66 60 20:40 27.01.2021
3254 Clear -7 1005 68 10000 7.2 60 19:57 27.01.2021
3255 Clear -7 1005 68 10000 7.2 60 19:38 27.01.2021
3256 Clear -7 1005 68 10000 7.2 60 19:20 27.01.2021
3257 Clear -7 1006 58 10000 7.72 50 18:41 27.01.2021
3258 Clear -7 1006 58 10000 7.72 50 18:22 27.01.2021
3259 Clear -7 1006 53 10000 7.2 50 17:45 27.01.2021
3260 Clear -7 1006 53 10000 7.2 50 17:21 27.01.2021
3261 Clear -11 1007 83 10000 4.85 33 16:48 27.01.2021
3262 Clear -12 1008 83 10000 5.31 31 16:28 27.01.2021
3263 Clear -12 1008 83 10000 5.31 31 15:50 27.01.2021
3264 Clear -12 1008 83 10000 5.31 31 15:31 27.01.2021
3265 Clear -12 1009 83 10000 5.53 30 14:45 27.01.2021
3266 Clear -13 1009 82 10000 5.55 28 14:22 27.01.2021
3267 Clear -12 1009 82 10000 5.48 28 13:45 27.01.2021
3268 Clear -12 1009 82 10000 5.48 28 13:45 27.01.2021
3269 Clear -13 1010 82 10000 5.52 30 12:58 27.01.2021
3270 Clear -13 1010 82 10000 5.52 30 12:39 27.01.2021
3271 Clear -13 1010 83 10000 5.78 31 12:18 27.01.2021
3272 Clear -13 1010 83 10000 5.78 31 11:44 27.01.2021
3273 Clear -12 1011 83 10000 5.81 29 11:21 27.01.2021
3274 Clear -12 1011 83 10000 5.81 29 10:40 27.01.2021
3275 Clear -12 1012 82 10000 5.39 34 10:21 27.01.2021
3276 Clear -12 1012 82 10000 5.39 34 09:47 27.01.2021
3277 Clear -12 1012 82 10000 5.38 38 08:59 27.01.2021
3278 Clear -12 1012 82 10000 5.38 38 08:31 27.01.2021
3279 Clear -11 1013 83 10000 5.35 36 07:43 27.01.2021
3280 Clear -11 1013 83 10000 4.98 45 07:19 27.01.2021
3281 Clouds -10 1014 84 10000 4.71 51 06:19 27.01.2021
3282 Clouds -10 1014 84 10000 4.71 51 05:44 27.01.2021
3283 Clouds -10 1015 85 10000 4.27 50 03:35 27.01.2021
3284 Clouds -10 1015 86 10000 3.71 36 02:23 27.01.2021
3285 Clouds -10 1015 86 10000 3.71 36 01:51 27.01.2021
3286 Clouds -6 1014 73 10000 4.02 70 00:43 27.01.2021
3287 Clouds -6 1014 73 10000 4.02 70 23:50 26.01.2021
3288 Clouds -6 1014 73 10000 4.02 70 23:32 26.01.2021
3289 Clouds -6 1014 73 10000 4.02 70 22:51 26.01.2021
3290 Clouds -6 1014 73 10000 4.02 70 22:33 26.01.2021
3291 Clouds -6 1014 73 10000 4.12 70 21:55 26.01.2021
3292 Clouds -6 1014 73 10000 4.12 70 21:35 26.01.2021
3293 Clouds -6 1013 73 10000 4.12 60 20:59 26.01.2021
3294 Clouds -6 1013 73 10000 4.12 60 20:40 26.01.2021
3295 Clouds -6 1013 73 10000 4.12 60 20:21 26.01.2021
3296 Clouds -6 1013 68 10000 2.06 90 19:46 26.01.2021
3297 Clouds -6 1013 68 10000 2.06 90 19:24 26.01.2021
3298 Clouds -6 1013 73 10000 5.14 70 18:49 26.01.2021
3299 Clouds -6 1013 73 10000 5.14 70 18:28 26.01.2021
3300 Clouds -6 1013 73 10000 4.12 80 17:58 26.01.2021
3301 Clouds -6 1013 73 10000 4.12 80 17:40 26.01.2021
3302 Clouds -6 1013 73 10000 4.12 80 17:19 26.01.2021
3303 Clouds -6 1013 73 10000 4.63 80 16:40 26.01.2021
3304 Clouds -6 1013 73 10000 4.63 80 16:19 26.01.2021
3305 Clouds -6 1013 68 10000 4.12 90 15:48 26.01.2021
3306 Clouds -6 1013 68 10000 4.12 90 15:27 26.01.2021
3307 Clouds -6 1013 68 10000 3.09 70 14:49 26.01.2021
3308 Clouds -6 1013 68 10000 3.09 70 14:29 26.01.2021
3309 Clouds -6 1013 68 10000 2.57 80 13:38 26.01.2021
3310 Clouds -6 1013 68 10000 2.57 80 13:19 26.01.2021
3311 Clouds -6 1013 63 10000 2.66 39 12:44 26.01.2021
3312 Clouds -6 1013 63 10000 2.43 38 12:24 26.01.2021
3313 Clouds -7 1013 73 10000 4.12 80 11:57 26.01.2021
3314 Clouds -7 1013 73 10000 4.12 80 11:57 26.01.2021
3315 Clouds -7 1013 73 10000 4.12 80 11:38 26.01.2021
3316 Clouds -7 1013 68 10000 3.6 70 10:45 26.01.2021
3317 Clouds -7 1013 68 10000 3.6 70 10:27 26.01.2021
3318 Clouds -6 1013 63 10000 1.54 110 09:42 26.01.2021
3319 Clouds -6 1013 63 10000 1.54 110 09:23 26.01.2021
3320 Clouds -6 1013 58 10000 0.51 260 08:52 26.01.2021
3321 Clouds -6 1013 58 10000 0.51 260 08:29 26.01.2021
3322 Clouds -7 1013 63 10000 3.09 0 07:43 26.01.2021
3323 Clouds -7 1013 68 10000 3.6 50 06:21 26.01.2021
3324 Clouds -6 1013 58 10000 2.57 70 05:42 26.01.2021
3325 Clouds -7 1013 68 10000 2.57 50 04:23 26.01.2021
3326 Clouds -7 1014 58 10000 2.06 100 02:44 26.01.2021
3327 Clear -8 1014 62 10000 3.09 60 00:56 26.01.2021
3328 Clouds -7 1014 63 10000 1.54 110 23:39 25.01.2021
3329 Clouds -8 1014 73 10000 1.54 80 22:57 25.01.2021
3330 Clouds -8 1014 73 10000 1.54 80 22:38 25.01.2021
3331 Clouds -8 1014 73 10000 1.54 120 21:52 25.01.2021
3332 Clouds -8 1014 73 10000 1.54 120 21:33 25.01.2021
3333 Clouds -7 1014 63 10000 1.54 100 20:52 25.01.2021
3334 Clouds -7 1014 63 10000 1.54 100 20:33 25.01.2021
3335 Clouds -7 1014 53 10000 1.54 110 19:52 25.01.2021
3336 Clouds -7 1014 53 10000 1.54 110 19:32 25.01.2021
3337 Clouds -8 1014 57 10000 2.06 90 18:49 25.01.2021
3338 Clouds -8 1014 57 10000 2.06 90 18:28 25.01.2021
3339 Clouds -7 1014 53 10000 2.06 110 17:59 25.01.2021
3340 Clouds -7 1014 53 10000 2.06 110 17:41 25.01.2021
3341 Clouds -7 1014 53 10000 2.06 110 17:23 25.01.2021
3342 Clouds -8 1015 57 10000 2.06 90 16:41 25.01.2021
3343 Clouds -8 1015 57 10000 2.06 90 16:22 25.01.2021
3344 Clouds -9 1015 62 10000 2.06 100 15:50 25.01.2021
3345 Clouds -9 1015 62 10000 2.06 100 15:32 25.01.2021
3346 Clouds -8 1015 62 10000 2.06 120 14:50 25.01.2021
3347 Clouds -8 1015 62 10000 2.06 120 14:20 25.01.2021
3348 Clouds -8 1015 67 10000 1.54 110 13:54 25.01.2021
3349 Clouds -8 1015 67 10000 1.54 110 13:35 25.01.2021
3350 Clouds -8 1016 67 10000 1.03 120 12:49 25.01.2021
3351 Clouds -8 1016 67 10000 1.03 120 12:24 25.01.2021
3352 Clouds -9 1016 86 10000 2.57 40 11:57 25.01.2021
3353 Clouds -9 1016 86 10000 2.57 40 11:22 25.01.2021
3354 Clouds -9 1016 73 10000 1.54 100 10:44 25.01.2021
3355 Clouds -9 1016 73 10000 1.54 100 10:21 25.01.2021
3356 Clouds -8 1016 67 10000 1.03 150 09:47 25.01.2021
3357 Clouds -8 1016 67 10000 1.03 150 09:28 25.01.2021
3358 Clouds -8 1016 73 10000 1.54 120 08:33 25.01.2021
3359 Clouds -8 1016 79 10000 2.57 50 07:46 25.01.2021
3360 Clouds -8 1016 79 10000 2.57 50 07:27 25.01.2021
3361 Clouds -9 1017 79 10000 2.57 30 06:25 25.01.2021
3362 Clouds -7 1018 68 10000 3.09 70 01:37 25.01.2021
3363 Clouds -7 1017 68 10000 5.14 60 00:35 25.01.2021
3364 Clouds -6 1018 58 10000 1.54 90 23:20 24.01.2021
3365 Clouds -7 1018 63 10000 6.17 70 22:47 24.01.2021
3366 Clouds -7 1018 63 10000 6.17 70 22:28 24.01.2021
3367 Clouds -7 1019 63 10000 2.57 70 21:58 24.01.2021
3368 Clouds -7 1019 63 10000 2.57 70 21:27 24.01.2021
3369 Clear -6 1019 58 10000 1.54 0 20:47 24.01.2021
3370 Clear -6 1019 58 10000 1.54 0 20:23 24.01.2021
3371 Clouds -7 1019 68 10000 7.72 60 19:57 24.01.2021
3372 Clouds -7 1019 68 10000 7.72 60 19:39 24.01.2021
3373 Clouds -7 1019 68 10000 7.72 60 19:19 24.01.2021
3374 Clear -6 1020 63 10000 5.14 70 18:55 24.01.2021
3375 Clear -6 1020 63 10000 5.14 70 18:36 24.01.2021
3376 Clear -6 1020 63 10000 5.14 70 18:18 24.01.2021
3377 Clouds -6 1020 58 10000 4.63 70 17:43 24.01.2021
3378 Clouds -6 1020 58 10000 4.63 70 17:19 24.01.2021
3379 Clouds -6 1020 58 10000 2.06 100 16:41 24.01.2021
3380 Clouds -6 1020 58 10000 2.06 100 16:21 24.01.2021
3381 Clear -7 1020 63 10000 1.03 0 15:47 24.01.2021
3382 Clear -7 1020 63 10000 1.03 0 15:21 24.01.2021
3383 Clear -7 1020 68 10000 2.57 80 14:57 24.01.2021
3384 Clear -7 1020 68 10000 2.57 80 14:33 24.01.2021
3385 Clear -7 1021 68 10000 1.54 110 13:40 24.01.2021
3386 Clear -7 1021 68 10000 1.54 110 13:18 24.01.2021
3387 Clouds -7 1021 68 10000 2.57 80 12:40 24.01.2021
3388 Clouds -7 1021 68 10000 2.57 80 12:19 24.01.2021
3389 Clouds -7 1021 68 10000 2.57 70 11:46 24.01.2021
3390 Clouds -7 1021 68 10000 2.57 70 11:23 24.01.2021
3391 Clear -7 1021 68 10000 3.09 70 10:42 24.01.2021
3392 Clouds -7 1021 68 10000 4.12 60 09:59 24.01.2021
3393 Clouds -7 1021 68 10000 4.12 60 09:22 24.01.2021
3394 Clouds -8 1021 73 10000 4.12 50 08:55 24.01.2021
3395 Clouds -8 1021 73 10000 3.6 50 07:41 24.01.2021
3396 Clouds -8 1021 79 10000 2.06 120 02:39 24.01.2021
3397 Clouds -7 1021 68 10000 2.57 60 01:00 24.01.2021
3398 Clouds -7 1021 73 10000 2.57 50 00:24 24.01.2021
3399 Clouds -7 1021 73 10000 1.54 90 23:47 23.01.2021
3400 Clouds -7 1021 73 10000 1.54 90 23:26 23.01.2021
3401 Clouds -7 1021 73 10000 1.54 90 23:26 23.01.2021
3402 Clouds -6 1021 73 10000 1.03 150 22:51 23.01.2021
3403 Clouds -6 1021 73 10000 1.03 150 22:33 23.01.2021
3404 Clear -5 1021 58 10000 1.54 150 21:52 23.01.2021
3405 Clear -5 1021 58 10000 1.54 150 21:22 23.01.2021
3406 Clear -6 1021 68 10000 2.06 100 20:47 23.01.2021
3407 Clear -6 1021 68 10000 2.06 100 20:25 23.01.2021
3408 Clear -6 1021 68 10000 1.54 0 19:47 23.01.2021
3409 Clear -6 1021 68 10000 1.54 0 19:47 23.01.2021
3410 Clear -6 1021 68 10000 1.54 0 19:23 23.01.2021
3411 Clear -5 1021 58 10000 1.03 0 18:49 23.01.2021
3412 Clear -5 1021 58 10000 1.03 0 18:26 23.01.2021
3413 Clear -5 1021 63 10000 1.54 170 17:54 23.01.2021
3414 Clear -5 1021 63 10000 1.54 170 17:27 23.01.2021
3415 Clouds -6 1022 73 10000 1.03 120 16:50 23.01.2021
3416 Clouds -6 1022 73 10000 1.03 120 16:31 23.01.2021
3417 Clouds -5 1022 68 10000 2.57 100 15:48 23.01.2021
3418 Clouds -5 1022 68 10000 2.57 100 15:26 23.01.2021
3419 Clouds -5 1022 74 10000 4.12 90 14:37 23.01.2021
3420 Clouds -5 1022 74 10000 4.12 90 14:19 23.01.2021
3421 Clouds -6 1022 79 10000 5.66 70 13:40 23.01.2021
3422 Clouds -6 1022 79 10000 5.66 70 13:21 23.01.2021
3423 Clouds -6 1023 79 10000 6.17 70 12:41 23.01.2021
3424 Clouds -6 1023 79 10000 6.17 70 12:21 23.01.2021
3425 Clouds -5 1022 80 10000 4.63 70 11:34 23.01.2021
3426 Clouds -4 1023 86 10000 3.09 100 10:52 23.01.2021
3427 Clouds -4 1023 86 10000 3.09 100 10:22 23.01.2021
3428 Clouds -3 1023 80 10000 2.57 170 09:49 23.01.2021
3429 Clouds -3 1023 80 10000 4.12 170 08:57 23.01.2021
3430 Clouds -3 1023 80 10000 4.12 170 08:37 23.01.2021
3431 Clouds -3 1023 80 10000 5.14 160 07:37 23.01.2021
3432 Clouds -4 1022 86 10000 8.75 170 05:44 23.01.2021
3433 Clouds -6 1019 79 10000 3.6 30 00:56 23.01.2021
3434 Clouds -6 1019 73 10000 4.12 10 23:59 22.01.2021
3435 Clouds -6 1019 73 10000 4.12 10 23:35 22.01.2021
3436 Clouds -6 1019 86 10000 6.17 10 22:40 22.01.2021
3437 Clouds -5 1019 80 10000 6.69 40 21:56 22.01.2021
3438 Clouds -5 1019 80 10000 6.69 40 21:37 22.01.2021
3439 Clouds -5 1019 80 10000 6.69 40 21:37 22.01.2021
3440 Clouds -5 1019 80 10000 6.69 40 21:19 22.01.2021
3441 Clouds -5 1019 86 10000 6.17 50 20:43 22.01.2021
3442 Clouds -5 1019 86 10000 6.17 50 20:22 22.01.2021
3443 Snow -4 1019 68 10000 7.72 60 19:26 22.01.2021
3444 Snow -5 1019 80 10000 6.17 50 18:59 22.01.2021
3445 Snow -5 1019 80 10000 6.17 50 18:41 22.01.2021
3446 Snow -5 1019 80 10000 6.17 50 18:23 22.01.2021
3447 Clouds -5 1020 74 10000 6.17 50 17:44 22.01.2021
3448 Clouds -5 1020 74 10000 6.17 50 17:24 22.01.2021
3449 Clouds -5 1020 80 10000 3.6 60 16:44 22.01.2021
3450 Clouds -5 1020 80 10000 3.6 60 16:23 22.01.2021
3451 Clouds -6 1021 86 10000 3.09 50 15:30 22.01.2021
3452 Clouds -6 1021 79 10000 1.54 50 14:59 22.01.2021
3453 Clouds -6 1021 79 10000 1.54 50 14:31 22.01.2021
3454 Clouds -6 1022 79 10000 1.54 90 13:51 22.01.2021
3455 Clouds -6 1022 79 10000 1.54 90 13:31 22.01.2021
3456 Clouds -6 1022 79 10000 1.54 100 12:52 22.01.2021
3457 Clouds -6 1022 79 10000 1.54 100 12:26 22.01.2021
3458 Clear -6 1022 79 10000 1.03 120 11:47 22.01.2021
3459 Clear -6 1022 79 10000 1.03 120 11:25 22.01.2021
3460 Clear -6 1022 86 10000 1.54 120 10:45 22.01.2021
3461 Clear -6 1022 86 10000 1.54 120 10:20 22.01.2021
3462 Clear -6 1022 79 10000 1.03 90 09:35 22.01.2021
3463 Clouds -5 1022 80 10000 1.03 60 08:51 22.01.2021
3464 Clouds -5 1022 80 10000 1.03 60 08:30 22.01.2021
3465 Clouds -5 1022 80 10000 0.51 0 07:38 22.01.2021
3466 Clear -4 1022 80 10000 0.51 160 03:40 22.01.2021
3467 Clouds -4 1021 80 10000 2.06 0 00:54 22.01.2021
3468 Clouds -4 1021 80 10000 3.6 30 23:56 21.01.2021
3469 Clouds -4 1021 80 10000 3.6 30 23:38 21.01.2021
3470 Clear -4 1022 86 10000 6.17 50 22:59 21.01.2021
3471 Clear -4 1022 86 10000 6.17 50 22:41 21.01.2021
3472 Clear -4 1021 80 10000 3.6 60 21:44 21.01.2021
3473 Clear -4 1021 80 10000 3.6 60 21:23 21.01.2021
3474 Clear -4 1021 86 10000 1.03 0 20:57 21.01.2021
3475 Clear -4 1021 86 10000 1.03 0 20:39 21.01.2021
3476 Clear -4 1021 86 10000 1.03 0 20:18 21.01.2021
3477 Clear -3 1021 68 10000 2.06 20 19:46 21.01.2021
3478 Clear -3 1021 68 10000 2.06 20 19:24 21.01.2021
3479 Clear -3 1021 74 10000 1.54 30 18:42 21.01.2021
3480 Clear -3 1021 74 10000 1.54 30 18:21 21.01.2021
3481 Clear -3 1021 68 10000 1.03 40 17:57 21.01.2021
3482 Clear -3 1021 68 10000 1.03 40 17:21 21.01.2021
3483 Clouds -4 1021 63 10000 1.03 140 16:55 21.01.2021
3484 Clouds -4 1021 63 10000 1.03 140 16:37 21.01.2021
3485 Clouds -4 1021 63 10000 1.03 140 16:18 21.01.2021
3486 Clouds -3 1021 59 10000 2.06 160 15:46 21.01.2021
3487 Clouds -3 1021 59 10000 2.06 160 15:24 21.01.2021
3488 Clouds -3 1020 63 10000 1.03 130 14:44 21.01.2021
3489 Clouds -3 1020 63 10000 1.03 130 14:23 21.01.2021
3490 Clouds -3 1020 74 10000 2.57 80 13:43 21.01.2021
3491 Clouds -3 1020 74 10000 2.57 80 13:23 21.01.2021
3492 Clouds -4 1019 74 10000 1.03 160 12:42 21.01.2021
3493 Clouds -4 1019 74 10000 1.03 160 12:24 21.01.2021
3494 Clouds -3 1019 80 10000 2.57 70 11:51 21.01.2021
3495 Clouds -3 1019 80 10000 2.57 70 11:30 21.01.2021
3496 Clouds -4 1018 86 10000 2.57 60 10:52 21.01.2021
3497 Clouds -4 1018 86 10000 2.57 60 10:33 21.01.2021
3498 Clouds -4 1018 93 10000 4.63 40 09:45 21.01.2021
3499 Clouds -4 1018 93 10000 4.63 40 09:26 21.01.2021
3500 Clouds -3 1017 86 10000 1.54 80 08:48 21.01.2021
3501 Clouds -3 1017 86 10000 1.54 80 08:27 21.01.2021
3502 Clouds -3 1017 86 10000 4.12 50 07:43 21.01.2021
3503 Clouds -3 1017 86 10000 4.12 50 07:20 21.01.2021
3504 Clouds -3 1017 74 10000 1.54 150 05:24 21.01.2021
3505 Clouds -4 1016 86 10000 1.54 120 04:28 21.01.2021
3506 Clouds -3 1015 80 10000 1.54 0 01:25 21.01.2021
3507 Clouds -4 1015 93 10000 3.6 60 00:40 21.01.2021
3508 Clouds -4 1015 86 10000 1.54 50 23:39 20.01.2021
3509 Clouds -4 1015 86 10000 1.54 50 23:21 20.01.2021
3510 Clouds -3 1015 80 10000 2.06 30 22:48 20.01.2021
3511 Clouds -3 1015 80 10000 2.06 30 22:28 20.01.2021
3512 Clouds -3 1015 86 10000 3.09 20 21:48 20.01.2021
3513 Clouds -3 1015 86 10000 3.09 20 21:22 20.01.2021
3514 Clouds -3 1014 86 10000 4.63 30 20:50 20.01.2021
3515 Clouds -3 1014 86 10000 4.63 30 20:21 20.01.2021
3516 Clouds -2 1014 86 10000 5.14 40 19:47 20.01.2021
3517 Clouds -2 1014 86 10000 5.14 40 19:27 20.01.2021
3518 Clouds -2 1014 80 10000 6.17 50 18:43 20.01.2021
3519 Clouds -2 1014 80 10000 6.17 50 18:20 20.01.2021
3520 Clouds -2 1014 74 10000 3.6 40 17:44 20.01.2021
3521 Clouds -2 1014 74 10000 3.6 40 17:26 20.01.2021
3522 Clouds -2 1015 74 10000 4.12 20 16:47 20.01.2021
3523 Clouds -2 1015 74 10000 4.12 20 16:22 20.01.2021
3524 Clouds -2 1015 80 10000 5.66 70 15:38 20.01.2021
3525 Clouds -2 1015 74 10000 4.12 60 14:58 20.01.2021
3526 Clouds -2 1015 74 10000 4.12 60 14:39 20.01.2021
3527 Clouds -2 1015 74 10000 4.12 60 14:19 20.01.2021
3528 Clouds -2 1016 86 10000 4.63 50 13:37 20.01.2021
3529 Clouds -3 1016 93 10000 3.6 30 12:56 20.01.2021
3530 Clouds -3 1016 93 10000 3.6 30 12:22 20.01.2021
3531 Clouds -3 1016 93 10000 3.6 30 12:22 20.01.2021
3532 Clouds -2 1016 74 10000 3.09 40 11:41 20.01.2021
3533 Clouds -2 1016 74 10000 3.09 40 11:20 20.01.2021
3534 Clouds -1 1016 74 10000 3.09 60 10:49 20.01.2021
3535 Clouds -1 1016 74 10000 3.09 60 10:25 20.01.2021
3536 Clouds 0 1016 74 10000 3.09 60 09:38 20.01.2021
3537 Clouds 0 1016 74 10000 3.09 60 09:19 20.01.2021
3538 Clouds 1 1016 64 10000 0.51 0 08:44 20.01.2021
3539 Clouds 1 1016 64 10000 0.51 0 08:23 20.01.2021
3540 Clouds 1 1016 69 10000 3.6 160 07:53 20.01.2021
3541 Clouds 1 1016 69 10000 3.6 160 07:20 20.01.2021
3542 Clouds 3 1014 60 10000 8.75 160 04:44 20.01.2021
3543 Clouds 4 1014 52 10000 10.8 140 02:57 20.01.2021
3544 Clouds 2 1012 60 10000 9.77 160 00:58 20.01.2021
3545 Snow 2 1011 69 10000 11.32 160 23:57 19.01.2021
3546 Snow 2 1011 69 10000 11.32 160 23:38 19.01.2021
3547 Clouds 0 1010 69 10000 8.75 170 22:59 19.01.2021
3548 Clouds 0 1010 69 10000 8.75 170 22:40 19.01.2021
3549 Clouds 0 1010 69 10000 8.75 170 22:21 19.01.2021
3550 Clouds 1 1009 55 10000 7.2 180 21:55 19.01.2021
3551 Clouds 1 1009 55 10000 7.2 180 21:36 19.01.2021
3552 Clouds 0 1009 64 10000 2.06 30 20:50 19.01.2021
3553 Clouds 0 1009 64 10000 2.06 30 20:30 19.01.2021
3554 Clouds 0 1008 59 10000 0.51 0 19:56 19.01.2021
3555 Clouds 0 1008 59 10000 0.51 0 19:56 19.01.2021
3556 Clouds 0 1008 59 10000 0.51 0 19:37 19.01.2021
3557 Clouds 0 1008 59 10000 0.51 0 19:19 19.01.2021
3558 Clouds 4 1008 35 10000 2.57 210 18:39 19.01.2021
3559 Clouds 4 1008 35 10000 2.57 210 18:21 19.01.2021
3560 Clouds 4 1008 35 10000 3.09 180 17:45 19.01.2021
3561 Clouds 4 1008 35 10000 3.09 180 17:23 19.01.2021
3562 Clouds 0 1008 51 10000 1.54 160 16:44 19.01.2021
3563 Clouds 0 1008 51 10000 1.54 160 16:24 19.01.2021
3564 Clouds -2 1009 80 10000 5.14 30 15:55 19.01.2021
3565 Clouds -2 1009 80 10000 5.14 30 15:34 19.01.2021
3566 Clouds -3 1009 80 10000 8.23 50 14:51 19.01.2021
3567 Clouds -3 1009 80 10000 8.23 50 14:31 19.01.2021
3568 Clouds -2 1010 59 10000 2.06 50 13:53 19.01.2021
3569 Clouds -2 1010 59 10000 2.06 50 13:34 19.01.2021
3570 Clouds -2 1011 59 10000 2.06 60 12:58 19.01.2021
3571 Clouds -2 1011 59 10000 2.06 60 12:36 19.01.2021
3572 Clouds -2 1011 59 10000 2.06 60 12:18 19.01.2021
3573 Clouds -3 1011 80 10000 1.54 60 11:43 19.01.2021
3574 Clouds -3 1011 80 10000 1.54 60 11:22 19.01.2021
3575 Clouds -3 1012 74 10000 2.06 10 10:50 19.01.2021
3576 Clouds -3 1012 74 10000 2.06 10 10:29 19.01.2021
3577 Clouds -3 1012 74 10000 1.03 90 09:51 19.01.2021
3578 Clouds -3 1012 74 10000 1.03 90 09:20 19.01.2021
3579 Clouds -3 1013 68 10000 1.03 10 08:45 19.01.2021
3580 Clouds -2 1013 64 10000 2.06 140 07:58 19.01.2021
3581 Clouds -2 1013 64 10000 2.06 140 07:22 19.01.2021
3582 Clouds -3 1013 59 10000 1.54 170 04:55 19.01.2021
3583 Clouds -4 1013 74 10000 2.06 0 02:24 19.01.2021
3584 Clouds -4 1014 63 10000 3.6 70 00:47 19.01.2021
3585 Clouds -4 1014 74 10000 6.17 50 23:57 18.01.2021
3586 Clouds -4 1014 74 10000 6.17 50 23:29 18.01.2021
3587 Clouds -2 1014 46 10000 2.06 100 22:50 18.01.2021
3588 Clouds -4 1014 68 10000 2.21 74 22:24 18.01.2021
3589 Clouds -3 1014 54 10000 1.54 190 21:49 18.01.2021
3590 Clouds -3 1014 54 10000 1.54 190 21:24 18.01.2021
3591 Clouds -3 1014 50 10000 1.54 150 20:59 18.01.2021
3592 Clouds -3 1014 50 10000 1.54 150 20:38 18.01.2021
3593 Clouds -3 1014 50 10000 1.54 150 20:20 18.01.2021
3594 Clouds -2 1014 54 10000 1.03 0 19:48 18.01.2021
3595 Clouds -2 1014 54 10000 1.03 0 19:27 18.01.2021
3596 Clouds -3 1015 59 10000 0.51 20 18:44 18.01.2021
3597 Clouds -3 1015 59 10000 0.51 20 18:21 18.01.2021
3598 Clouds -3 1015 68 10000 1.54 110 17:40 18.01.2021
3599 Clouds -3 1015 68 10000 1.54 110 17:18 18.01.2021
3600 Clouds -3 1015 59 10000 1.03 110 16:41 18.01.2021
3601 Clouds -3 1015 59 10000 1.03 110 16:19 18.01.2021
3602 Clouds -2 1015 64 10000 2.06 0 15:41 18.01.2021
3603 Clouds -2 1015 64 10000 2.06 0 15:19 18.01.2021
3604 Clouds -3 1015 68 10000 6.69 80 14:43 18.01.2021
3605 Clouds -3 1015 68 10000 6.69 80 14:25 18.01.2021
3606 Clouds -3 1015 68 10000 7.2 70 13:45 18.01.2021
3607 Clouds -3 1015 68 10000 7.2 70 13:26 18.01.2021
3608 Clouds -3 1016 68 10000 5.66 70 12:51 18.01.2021
3609 Clouds -3 1016 68 10000 5.66 70 12:20 18.01.2021
3610 Clouds -4 1017 74 10000 7.72 70 11:56 18.01.2021
3611 Clouds -4 1017 74 10000 7.72 70 11:37 18.01.2021
3612 Clouds -4 1017 74 10000 7.72 70 11:18 18.01.2021
3613 Clouds -4 1017 86 10000 5.66 80 10:39 18.01.2021
3614 Clouds -4 1018 86 10000 6.69 60 09:43 18.01.2021
3615 Clouds -4 1018 86 10000 6.69 60 09:24 18.01.2021
3616 Clouds -4 1018 80 10000 5.66 80 08:50 18.01.2021
3617 Clouds -4 1018 80 10000 5.66 80 08:18 18.01.2021
3618 Clouds -4 1018 80 10000 5.66 80 07:33 18.01.2021
3619 Clouds -4 1019 74 10000 2.57 120 05:32 18.01.2021
3620 Clouds -4 1018 80 10000 3.09 100 04:33 18.01.2021
3621 Clouds -5 1019 86 10000 3.4 67 03:59 18.01.2021
3622 Clouds -5 1019 86 10000 3.4 67 03:41 18.01.2021
3623 Clouds -5 1019 86 10000 2.14 92 03:19 18.01.2021
3624 Snow -4 1019 80 10000 1.03 180 02:37 18.01.2021
3625 Snow -4 1018 80 10000 3.09 160 00:49 18.01.2021
3626 Snow -5 1018 80 10000 3.09 160 00:30 18.01.2021
3627 Snow -5 1018 86 10000 2.57 150 23:48 17.01.2021
3628 Snow -5 1018 86 10000 2.57 150 23:20 17.01.2021
3629 Snow -4 1018 74 10000 4.12 220 22:41 17.01.2021
3630 Snow -4 1018 74 10000 4.12 220 22:22 17.01.2021
3631 Snow -4 1018 68 10000 5.66 200 21:40 17.01.2021
3632 Snow -4 1018 68 10000 5.66 200 21:22 17.01.2021
3633 Snow -4 1017 68 10000 5.66 210 20:49 17.01.2021
3634 Snow -4 1017 68 10000 5.66 210 20:29 17.01.2021
3635 Snow -4 1016 68 10000 6.69 210 19:43 17.01.2021
3636 Snow -4 1016 68 10000 6.69 210 19:24 17.01.2021
3637 Snow -5 1015 74 10000 7.72 210 18:49 17.01.2021
3638 Snow -5 1015 74 10000 7.72 210 18:27 17.01.2021
3639 Snow -5 1014 86 10000 8.75 210 17:49 17.01.2021
3640 Snow -5 1014 86 10000 8.75 210 17:28 17.01.2021
3641 Snow -5 1013 86 10000 8.75 220 16:44 17.01.2021
3642 Snow -5 1013 86 10000 8.75 220 16:24 17.01.2021
3643 Snow -4 1012 93 3500 8.75 220 15:44 17.01.2021
3644 Snow -4 1012 93 3500 8.75 220 15:25 17.01.2021
3645 Snow -4 1011 80 10000 8.75 220 14:53 17.01.2021
3646 Snow -4 1011 80 10000 8.75 220 14:27 17.01.2021
3647 Snow -4 1010 80 10000 8.23 210 13:58 17.01.2021
3648 Snow -4 1010 80 10000 8.23 210 13:40 17.01.2021
3649 Snow -4 1010 80 10000 8.23 210 13:21 17.01.2021
3650 Snow -4 1009 80 5000 8.23 220 12:41 17.01.2021
3651 Snow -4 1009 80 5000 8.23 220 12:22 17.01.2021
3652 Clouds -3 1008 80 10000 6.69 220 11:25 17.01.2021
3653 Clouds -3 1007 86 10000 6.69 220 10:51 17.01.2021
3654 Snow -3 1007 86 10000 6.69 220 10:24 17.01.2021
3655 Snow -3 1006 93 2600 5.66 200 09:50 17.01.2021
3656 Snow -3 1003 93 300 13.89 170 08:58 17.01.2021
3657 Snow -3 1003 93 300 13.89 170 08:40 17.01.2021
3658 Rain -1 1004 59 1300 12.86 150 04:30 17.01.2021
3659 Snow -2 1006 59 10000 6.17 150 02:51 17.01.2021
3660 Snow -2 1008 64 3100 11.83 150 00:56 17.01.2021
3661 Snow -2 1008 64 3100 11.83 150 00:21 17.01.2021
3662 Snow -3 1008 68 10000 8.23 140 23:52 16.01.2021
3663 Snow -3 1008 68 10000 8.23 140 23:22 16.01.2021
3664 Clouds -4 1009 54 10000 2.57 140 22:53 16.01.2021
3665 Clouds -4 1009 54 10000 2.57 140 22:19 16.01.2021
3666 Clouds -4 1009 50 10000 6.17 150 21:46 16.01.2021
3667 Clouds -4 1009 50 10000 6.17 150 21:23 16.01.2021
3668 Clouds -5 1009 63 10000 1.54 0 20:48 16.01.2021
3669 Clouds -5 1009 63 10000 1.54 0 20:24 16.01.2021
3670 Clouds -6 1009 73 10000 4.63 70 19:49 16.01.2021
3671 Clouds -6 1009 73 10000 4.63 70 19:29 16.01.2021
3672 Clouds -6 1010 79 10000 5.66 90 18:46 16.01.2021
3673 Clouds -6 1010 79 10000 5.66 90 18:27 16.01.2021
3674 Clouds -5 1010 68 10000 0.51 90 17:51 16.01.2021
3675 Clouds -5 1010 68 10000 0.51 90 17:31 16.01.2021
3676 Clouds -5 1011 68 10000 3.6 100 16:53 16.01.2021
3677 Clouds -5 1011 68 10000 3.6 100 16:35 16.01.2021
3678 Clouds -5 1011 74 10000 4.12 120 15:58 16.01.2021
3679 Clouds -5 1011 74 10000 4.12 120 15:39 16.01.2021
3680 Clouds -5 1010 74 10000 3.6 110 14:33 16.01.2021
3681 Clouds -5 1010 80 10000 4.12 120 13:53 16.01.2021
3682 Clouds -5 1010 80 10000 4.12 120 13:53 16.01.2021
3683 Clouds -5 1010 80 10000 4.12 120 13:31 16.01.2021
3684 Clouds -4 1010 80 10000 1.54 30 12:48 16.01.2021
3685 Clouds -4 1010 80 10000 1.54 30 12:27 16.01.2021
3686 Clouds -4 1010 80 10000 4.12 60 11:56 16.01.2021
3687 Clouds -4 1010 80 10000 4.12 60 11:27 16.01.2021
3688 Clouds -4 1009 80 10000 3.09 50 10:59 16.01.2021
3689 Clouds -4 1009 80 10000 3.09 50 10:41 16.01.2021
3690 Clouds -4 1009 80 10000 3.09 50 09:55 16.01.2021
3691 Clouds -4 1009 80 10000 3.09 50 09:20 16.01.2021
3692 Clouds -4 1009 80 10000 2.11 74 08:19 16.01.2021
3693 Clouds -5 1008 86 10000 2.16 58 06:52 16.01.2021
3694 Snow -5 1007 80 10000 2.32 44 05:32 16.01.2021
3695 Snow -5 1006 68 10000 2.35 67 03:44 16.01.2021
3696 Clouds -6 1006 63 10000 3.35 66 02:47 16.01.2021
3697 Clouds -5 1005 58 10000 1.04 66 00:47 16.01.2021
3698 Clouds -5 1005 58 10000 2.59 69 00:23 16.01.2021
3699 Clouds -4 1005 54 10000 2.57 90 23:39 15.01.2021
3700 Clouds -4 1004 50 10000 5.66 70 22:42 15.01.2021
3701 Clouds -4 1004 50 10000 5.66 70 22:21 15.01.2021
3702 Clouds -5 1004 63 10000 6.69 70 21:44 15.01.2021
3703 Clouds -5 1004 63 10000 7.72 70 20:50 15.01.2021
3704 Clouds -5 1004 63 10000 7.72 70 20:24 15.01.2021
3705 Clouds -5 1003 63 10000 7.2 70 19:58 15.01.2021
3706 Clouds -5 1003 63 10000 7.2 70 19:39 15.01.2021
3707 Clouds -5 1003 63 10000 7.2 70 19:21 15.01.2021
3708 Clouds -5 1003 63 10000 7.2 70 18:42 15.01.2021
3709 Clouds -5 1003 63 10000 7.2 70 18:18 15.01.2021
3710 Clouds -5 1004 63 10000 6.17 70 17:42 15.01.2021
3711 Clouds -5 1004 63 10000 6.17 70 17:21 15.01.2021
3712 Clouds -5 1004 63 10000 5.66 70 16:49 15.01.2021
3713 Clouds -5 1004 63 10000 5.66 70 16:24 15.01.2021
3714 Clouds -5 1004 63 10000 6.17 60 15:41 15.01.2021
3715 Clouds -5 1004 63 10000 6.17 60 15:21 15.01.2021
3716 Clouds -5 1005 63 10000 7.2 70 14:48 15.01.2021
3717 Clouds -5 1005 63 10000 7.2 70 14:27 15.01.2021
3718 Clouds -5 1005 63 10000 7.2 70 13:43 15.01.2021
3719 Clouds -5 1005 63 10000 7.2 70 13:23 15.01.2021
3720 Clouds -5 1005 63 10000 5.66 80 12:58 15.01.2021
3721 Clouds -5 1005 63 10000 5.66 80 12:33 15.01.2021
3722 Clouds -5 1005 68 10000 5.14 80 11:59 15.01.2021
3723 Clouds -5 1005 68 10000 5.14 80 11:41 15.01.2021
3724 Clouds -5 1005 68 10000 3.6 90 10:57 15.01.2021
3725 Clouds -5 1005 68 10000 3.6 90 10:39 15.01.2021
3726 Clouds -5 1005 68 10000 3.6 90 10:19 15.01.2021
3727 Clouds -5 1005 68 10000 2.57 100 09:45 15.01.2021
3728 Clouds -5 1005 68 10000 2.57 100 09:27 15.01.2021
3729 Clouds -5 1005 68 10000 4.12 70 08:27 15.01.2021
3730 Clouds -5 1005 74 10000 4.12 70 07:41 15.01.2021
3731 Clouds -5 1005 74 10000 4.12 70 07:20 15.01.2021
3732 Clouds -5 1005 74 10000 5.66 90 05:36 15.01.2021
3733 Clouds -6 1005 86 10000 4.63 90 02:19 15.01.2021
3734 Snow -5 1005 86 10000 3.09 80 00:20 15.01.2021
3735 Snow -5 1006 93 4000 3.09 70 23:29 14.01.2021
3736 Snow -5 1005 93 10000 0.51 40 22:50 14.01.2021
3737 Snow -5 1005 93 10000 0.51 40 22:27 14.01.2021
3738 Snow -5 1005 100 10000 0.51 50 21:56 14.01.2021
3739 Snow -5 1005 100 10000 0.51 50 21:37 14.01.2021
3740 Snow -5 1005 100 10000 0.51 50 21:19 14.01.2021
3741 Snow -5 1005 100 10000 1.03 60 20:42 14.01.2021
3742 Snow -5 1004 93 10000 2.06 60 19:57 14.01.2021
3743 Snow -5 1004 93 10000 2.06 60 19:36 14.01.2021
3744 Snow -5 1004 93 10000 2.06 60 19:36 14.01.2021
3745 Snow -5 1004 100 10000 0.97 112 18:57 14.01.2021
3746 Snow -5 1004 100 10000 1.18 99 18:36 14.01.2021
3747 Snow -5 1004 93 10000 0.51 180 17:55 14.01.2021
3748 Snow -5 1004 93 10000 0.51 180 17:29 14.01.2021
3749 Snow -5 1004 93 800 1.03 180 16:54 14.01.2021
3750 Snow -5 1004 93 800 1.03 180 16:30 14.01.2021
3751 Clouds -5 1004 93 10000 1.26 60 15:54 14.01.2021
3752 Clouds -5 1004 93 10000 1.26 60 15:30 14.01.2021
3753 Clouds -5 1004 93 10000 1.54 90 14:45 14.01.2021
3754 Clouds -5 1004 93 10000 1.54 90 14:24 14.01.2021
3755 Clouds -5 1003 93 10000 1.54 20 13:56 14.01.2021
3756 Clouds -5 1003 93 10000 1.54 20 13:24 14.01.2021
3757 Clouds -5 1003 100 10000 2.06 20 12:57 14.01.2021
3758 Clouds -5 1003 100 10000 2.06 20 12:22 14.01.2021
3759 Clouds -5 1003 93 10000 2.06 40 11:58 14.01.2021
3760 Clouds -5 1003 93 10000 2.06 40 11:38 14.01.2021
3761 Clouds -5 1003 93 10000 2.06 40 11:19 14.01.2021
3762 Clouds -5 1002 93 10000 2.06 10 10:40 14.01.2021
3763 Clouds -5 1002 93 10000 2.06 10 10:19 14.01.2021
3764 Drizzle -5 1002 93 10000 3.6 10 09:42 14.01.2021
3765 Drizzle -5 1002 93 10000 3.6 10 09:21 14.01.2021
3766 Clouds -4 1002 93 10000 4.12 350 08:34 14.01.2021
3767 Clouds -4 1001 93 10000 4.12 340 07:58 14.01.2021
3768 Clouds -4 1001 93 10000 4.12 340 07:39 14.01.2021
3769 Clouds -4 1001 93 10000 5.14 340 06:38 14.01.2021
3770 Snow -4 1000 93 10000 0.51 310 04:59 14.01.2021
3771 Snow -4 998 100 5000 0.51 310 00:34 14.01.2021
3772 Snow -4 997 100 5000 0.51 290 23:33 13.01.2021
3773 Snow -3 996 93 5000 0.51 290 22:51 13.01.2021
3774 Snow -3 996 93 5000 0.51 290 22:26 13.01.2021
3775 Snow -3 995 93 7000 0.51 280 21:50 13.01.2021
3776 Snow -3 995 93 7000 0.51 280 21:24 13.01.2021
3777 Snow -3 994 93 10000 1.03 280 20:51 13.01.2021
3778 Snow -3 994 93 10000 1.03 280 20:28 13.01.2021
3779 Snow -3 993 93 2500 1.03 280 19:56 13.01.2021
3780 Snow -3 993 93 2500 1.03 280 19:31 13.01.2021
3781 Snow -3 992 93 2000 1.03 270 18:58 13.01.2021
3782 Snow -3 992 93 2000 1.03 270 18:36 13.01.2021
3783 Snow -3 992 100 10000 7.42 293 17:51 13.01.2021
3784 Snow -3 992 100 10000 7.93 292 17:23 13.01.2021
3785 Snow -3 991 93 4000 7.93 292 16:50 13.01.2021
3786 Snow -3 991 93 4000 7.36 296 16:21 13.01.2021
3787 Snow -3 991 93 4000 7.36 296 16:21 13.01.2021
3788 Snow -3 990 92 176 7.36 296 15:52 13.01.2021
3789 Snow -3 990 92 176 7.36 296 15:32 13.01.2021
3790 Drizzle -3 990 93 1500 6.98 301 14:43 13.01.2021
3791 Snow -4 990 93 6000 6.18 302 13:51 13.01.2021
3792 Snow -4 990 93 6000 5.48 302 13:27 13.01.2021
3793 Snow -4 990 100 5000 5.88 308 12:47 13.01.2021
3794 Snow -4 990 100 5000 5.74 306 12:28 13.01.2021
3795 Snow -4 990 100 8000 4.12 330 11:55 13.01.2021
3796 Snow -4 990 100 8000 4.12 330 11:35 13.01.2021
3797 Snow -4 990 100 5000 4.12 330 10:55 13.01.2021
3798 Snow -4 990 100 5000 4.12 330 10:37 13.01.2021
3799 Snow -4 990 100 4900 2.06 320 09:55 13.01.2021
3800 Snow -4 990 100 4900 2.06 320 09:30 13.01.2021
3801 Snow -4 990 93 3100 6.23 320 08:51 13.01.2021
3802 Snow -4 990 93 3100 6.23 320 08:31 13.01.2021
3803 Snow -4 990 93 7000 1.03 50 07:35 13.01.2021
3804 Snow -5 990 93 10000 3.09 40 06:54 13.01.2021
3805 Snow -5 991 86 10000 4.12 20 04:20 13.01.2021
3806 Snow -5 991 86 10000 4.12 20 03:45 13.01.2021
3807 Snow -5 991 86 10000 4.12 20 03:27 13.01.2021
3808 Clouds -5 994 93 3100 4.63 40 01:32 13.01.2021
3809 Clouds -5 994 93 2800 4.63 20 00:29 13.01.2021
3810 Snow -5 995 93 6000 4.63 30 23:22 12.01.2021
3811 Snow -5 996 93 2700 4.63 20 22:46 12.01.2021
3812 Snow -5 996 93 2700 4.63 20 22:46 12.01.2021
3813 Snow -5 996 93 2700 4.63 20 22:24 12.01.2021
3814 Snow -5 996 93 3500 4.63 360 21:51 12.01.2021
3815 Snow -5 996 93 3500 4.63 360 21:30 12.01.2021
3816 Clouds -5 997 93 10000 5.14 360 20:49 12.01.2021
3817 Clouds -5 997 93 10000 5.14 360 20:27 12.01.2021
3818 Clouds -5 997 93 10000 5.66 20 19:56 12.01.2021
3819 Clouds -5 997 93 10000 5.66 20 19:37 12.01.2021
3820 Snow -5 997 93 6000 3.09 30 18:49 12.01.2021
3821 Snow -5 997 93 6000 3.09 30 18:24 12.01.2021
3822 Snow -5 998 93 6000 4.12 10 17:48 12.01.2021
3823 Snow -5 998 93 6000 4.12 10 17:30 12.01.2021
3824 Snow -5 999 93 8000 4.63 20 16:44 12.01.2021
3825 Snow -5 999 93 8000 4.63 20 16:24 12.01.2021
3826 Clouds -5 1000 86 10000 4.63 30 15:45 12.01.2021
3827 Clouds -5 1000 86 10000 4.63 30 15:21 12.01.2021
3828 Clouds -5 1000 86 10000 4.63 10 14:44 12.01.2021
3829 Clouds -5 1000 86 10000 4.63 10 14:25 12.01.2021
3830 Snow -5 1000 86 10000 4.12 20 13:52 12.01.2021
3831 Snow -5 1000 86 10000 4.12 20 13:22 12.01.2021
3832 Snow -5 1001 86 4000 4.12 20 12:29 12.01.2021
3833 Snow -5 1001 86 10000 3.6 10 11:42 12.01.2021
3834 Clouds -5 1001 93 10000 4.12 10 10:55 12.01.2021
3835 Clouds -5 1001 93 10000 4.12 10 10:55 12.01.2021
3836 Clouds -5 1001 93 10000 4.12 10 10:26 12.01.2021
3837 Clouds -5 1002 86 10000 4.63 10 09:59 12.01.2021
3838 Clouds -5 1002 86 10000 4.63 10 09:39 12.01.2021
3839 Clouds -5 1002 86 10000 4.63 10 09:20 12.01.2021
3840 Clouds -5 1002 86 10000 4.12 10 08:26 12.01.2021
3841 Clouds -5 1003 86 10000 3.6 360 07:37 12.01.2021
3842 Clouds -5 1003 86 10000 4.12 10 06:59 12.01.2021
3843 Clouds -5 1003 93 10000 4.12 360 05:38 12.01.2021
3844 Clouds -5 1004 93 10000 3.6 360 03:33 12.01.2021
3845 Clouds -5 1005 100 6000 3.6 10 02:21 12.01.2021
3846 Snow -5 1005 100 10000 3.09 10 01:43 12.01.2021
3847 Snow -5 1005 93 10000 4.12 350 00:32 12.01.2021
3848 Snow -5 1005 93 6000 4.12 350 23:40 11.01.2021
3849 Snow -5 1005 93 6000 4.12 350 23:18 11.01.2021
3850 Snow -5 1005 93 6000 4.12 350 22:45 11.01.2021
3851 Snow -5 1005 93 6000 4.12 350 22:27 11.01.2021
3852 Snow -5 1005 93 6000 3.6 360 21:45 11.01.2021
3853 Snow -5 1005 93 6000 3.6 360 21:25 11.01.2021
3854 Clouds -5 1005 100 10000 3.09 20 20:58 11.01.2021
3855 Clouds -5 1005 100 10000 3.09 20 20:37 11.01.2021
3856 Clouds -5 1005 100 10000 3.09 20 20:19 11.01.2021
3857 Snow -5 1005 100 6000 2.57 360 19:42 11.01.2021
3858 Snow -5 1005 100 6000 2.57 360 19:21 11.01.2021
3859 Snow -4 1005 93 6000 2.06 350 18:42 11.01.2021
3860 Snow -4 1005 93 6000 2.06 350 18:23 11.01.2021
3861 Snow -4 1005 93 2500 2.06 330 17:42 11.01.2021
3862 Snow -4 1005 93 2500 2.06 330 17:24 11.01.2021
3863 Snow -4 1006 100 2500 0.51 320 16:48 11.01.2021
3864 Snow -4 1006 100 2500 0.51 320 16:29 11.01.2021
3865 Snow -4 1006 100 7000 2.45 294 15:54 11.01.2021
3866 Snow -4 1006 100 7000 2.45 294 15:34 11.01.2021
3867 Snow -4 1005 100 3500 2.4 285 14:51 11.01.2021
3868 Snow -4 1005 100 3500 2.4 285 14:32 11.01.2021
3869 Snow -4 1005 100 1800 2.28 278 13:46 11.01.2021
3870 Snow -4 1005 100 1800 2.45 271 13:22 11.01.2021
3871 Snow -3 1004 93 1600 2.45 271 12:44 11.01.2021
3872 Snow -3 1004 93 1600 2.89 290 12:25 11.01.2021
3873 Snow -3 1004 93 1600 2.89 290 12:25 11.01.2021
3874 Snow -3 1004 93 1800 0.51 280 11:47 11.01.2021
3875 Snow -3 1003 93 1200 0.51 270 10:59 11.01.2021
3876 Snow -3 1003 93 1200 0.51 270 10:39 11.01.2021
3877 Snow -3 1003 93 1200 0.51 270 10:21 11.01.2021
3878 Snow -3 1002 100 1200 3.78 281 09:37 11.01.2021
3879 Snow -3 1002 100 1200 4.09 276 09:19 11.01.2021
3880 Snow -2 1002 93 1800 4.09 276 08:38 11.01.2021
3881 Snow -2 1001 100 1000 2.06 230 07:50 11.01.2021
3882 Snow -2 1001 100 1000 2.06 230 07:25 11.01.2021
3883 Snow -2 1001 100 2400 3.6 220 06:49 11.01.2021
3884 Snow 1 997 93 3700 13.89 170 02:52 11.01.2021
3885 Snow 2 996 80 4400 16.98 160 00:57 11.01.2021
3886 Snow 3 997 81 5000 16.98 150 23:48 10.01.2021
3887 Snow 3 997 81 5000 16.98 150 23:23 10.01.2021
3888 Snow 1 998 93 4600 0.51 160 22:46 10.01.2021
3889 Snow 1 998 93 4600 0.51 160 22:20 10.01.2021
3890 Snow 0 998 100 3000 2.57 50 21:44 10.01.2021
3891 Snow 0 998 100 3000 2.57 50 21:20 10.01.2021
3892 Snow 0 998 100 5000 5.66 160 20:50 10.01.2021
3893 Snow 0 998 100 5000 5.66 160 20:29 10.01.2021
3894 Snow -1 998 100 5000 4.63 160 19:42 10.01.2021
3895 Snow -1 998 100 5000 4.63 160 19:24 10.01.2021
3896 Snow 2 998 93 7000 5.14 170 18:46 10.01.2021
3897 Snow 2 998 93 7000 5.14 170 18:21 10.01.2021
3898 Snow -1 999 100 5000 2.91 107 17:28 10.01.2021
3899 Snow -1 999 100 3500 1.54 40 16:58 10.01.2021
3900 Snow -1 999 100 3500 1.54 40 16:32 10.01.2021
3901 Snow -1 999 93 3500 3.6 60 15:48 10.01.2021
3902 Snow -1 999 93 3500 3.6 60 15:25 10.01.2021
3903 Snow -1 999 93 4000 4.63 50 14:44 10.01.2021
3904 Snow -1 999 93 4000 4.63 50 14:25 10.01.2021
3905 Snow -1 1000 93 1800 4.63 50 13:54 10.01.2021
3906 Snow -1 1000 93 3500 4.12 60 13:36 10.01.2021
3907 Snow -1 1000 93 3500 4.12 60 13:36 10.01.2021
3908 Snow -1 1000 93 3500 4.12 60 13:18 10.01.2021
3909 Snow -1 1000 93 3900 2.57 50 12:42 10.01.2021
3910 Snow -1 1000 93 2300 3.21 85 11:58 10.01.2021
3911 Snow -1 1000 93 2300 2.67 79 11:22 10.01.2021
3912 Snow -2 1000 93 3200 2.67 79 10:58 10.01.2021
3913 Snow -2 1000 93 3200 2.67 79 10:30 10.01.2021
3914 Snow -2 1000 93 3600 2.6 72 09:58 10.01.2021
3915 Snow -2 1000 93 3600 2.94 72 09:24 10.01.2021
3916 Snow -3 1000 100 3600 3.31 67 08:20 10.01.2021
3917 Snow -3 1001 100 3100 3.15 68 07:29 10.01.2021
3918 Snow -2 1001 93 1200 3.59 62 06:19 10.01.2021
3919 Snow -3 1001 93 1400 3.59 62 05:36 10.01.2021
3920 Snow -2 1003 69 10000 2.72 70 02:56 10.01.2021
3921 Clouds -2 1004 64 10000 1.54 150 00:52 10.01.2021
3922 Clouds -3 1004 64 10000 3.59 78 23:49 09.01.2021
3923 Clouds -3 1004 64 10000 3.59 78 23:30 09.01.2021
3924 Clouds -3 1004 63 10000 4.07 78 22:48 09.01.2021
3925 Clouds -3 1004 63 10000 4.31 79 22:19 09.01.2021
3926 Clouds -4 1005 68 10000 4.31 79 21:57 09.01.2021
3927 Clouds -4 1005 68 10000 4.31 79 21:39 09.01.2021
3928 Clouds -4 1005 68 10000 4.17 89 21:19 09.01.2021
3929 Clouds -3 1005 59 10000 1.03 0 20:44 09.01.2021
3930 Clouds -4 1005 58 10000 0.51 50 19:45 09.01.2021
3931 Clouds -4 1005 58 10000 0.51 50 19:23 09.01.2021
3932 Clouds -3 1005 59 10000 1.03 90 18:56 09.01.2021
3933 Clouds -3 1005 59 10000 1.03 90 18:34 09.01.2021
3934 Clouds -2 1006 59 10000 3.23 86 17:50 09.01.2021
3935 Clouds -2 1006 59 10000 3.23 86 17:31 09.01.2021
3936 Clouds -3 1006 63 10000 0.51 80 16:36 09.01.2021
3937 Clouds -3 1007 63 10000 1.54 100 15:53 09.01.2021
3938 Clouds -3 1007 63 10000 1.54 100 15:34 09.01.2021
3939 Clouds -2 1007 46 10000 2.74 88 14:42 09.01.2021
3940 Clouds -2 1007 46 10000 2.92 92 14:21 09.01.2021
3941 Clouds -4 1007 58 10000 0.51 50 13:50 09.01.2021
3942 Clouds -4 1007 58 10000 0.51 50 13:31 09.01.2021
3943 Clouds -4 1007 50 10000 2.57 0 12:59 09.01.2021
3944 Clouds -4 1007 50 10000 2.57 0 12:27 09.01.2021
3945 Clouds -3 1007 50 10000 0.51 30 11:57 09.01.2021
3946 Clouds -3 1007 50 10000 0.51 30 11:36 09.01.2021
3947 Clouds -3 1008 43 10000 1.54 90 10:56 09.01.2021
3948 Clouds -3 1008 43 10000 1.54 90 10:37 09.01.2021
3949 Clouds -3 1008 43 10000 1.54 90 10:18 09.01.2021
3950 Clouds -4 1008 46 10000 3.04 77 09:42 09.01.2021
3951 Clouds -4 1008 46 10000 2.16 63 09:18 09.01.2021
3952 Clouds -3 1008 43 10000 2.1 91 07:46 09.01.2021
3953 Clouds -2 1008 31 10000 2.07 118 06:42 09.01.2021
3954 Clouds -2 1008 31 10000 2.22 105 06:23 09.01.2021
3955 Drizzle -3 1010 39 4300 13.38 80 03:49 09.01.2021
3956 Snow -3 1012 36 10000 10.29 80 02:40 09.01.2021
3957 Snow -3 1012 36 10000 10.29 80 02:22 09.01.2021
3958 Clouds -6 1014 58 10000 9.77 60 01:24 09.01.2021
3959 Snow -6 1015 63 8000 11.32 60 00:28 09.01.2021
3960 Snow -5 1015 39 10000 12.35 60 23:41 08.01.2021
3961 Snow -6 1016 49 10000 10.29 60 22:39 08.01.2021
3962 Snow -7 1017 68 10000 10.8 40 21:52 08.01.2021
3963 Clear -7 1018 63 10000 8.23 40 20:59 08.01.2021
3964 Clear -7 1018 63 10000 8.23 40 20:35 08.01.2021
3965 Snow -8 1018 67 10000 10.29 50 19:57 08.01.2021
3966 Snow -8 1018 67 10000 10.29 50 19:24 08.01.2021
3967 Snow -8 1018 73 10000 10.8 50 18:54 08.01.2021
3968 Snow -8 1018 73 10000 10.8 50 18:32 08.01.2021
3969 Clear -8 1020 73 10000 9.26 60 17:53 08.01.2021
3970 Clear -8 1020 73 10000 9.26 60 17:25 08.01.2021
3971 Snow -8 1020 73 10000 9.77 70 16:47 08.01.2021
3972 Snow -8 1021 73 10000 10.29 70 15:49 08.01.2021
3973 Snow -8 1021 73 10000 10.29 70 15:29 08.01.2021
3974 Snow -8 1022 73 10000 9.26 60 14:40 08.01.2021
3975 Snow -8 1022 73 10000 8.75 50 13:50 08.01.2021
3976 Snow -8 1022 73 10000 8.75 50 13:21 08.01.2021
3977 Snow -8 1022 73 10000 8.75 60 12:51 08.01.2021
3978 Snow -8 1022 73 10000 8.75 60 12:22 08.01.2021
3979 Snow -8 1022 73 10000 8.23 40 11:48 08.01.2021
3980 Snow -8 1022 73 10000 8.23 40 11:29 08.01.2021
3981 Snow -8 1023 79 10000 8.75 30 10:55 08.01.2021
3982 Snow -8 1023 79 10000 8.75 30 10:37 08.01.2021
3983 Clear -8 1023 79 10000 10.29 10 09:53 08.01.2021
3984 Clear -8 1023 79 10000 10.29 10 09:32 08.01.2021
3985 Clouds -8 1023 73 10000 8.75 10 08:39 08.01.2021
3986 Clouds -9 1024 73 10000 8.23 360 07:29 08.01.2021
3987 Snow -8 1024 79 10000 10.29 10 06:21 08.01.2021
3988 Drizzle -8 1025 79 10000 8.23 360 00:24 08.01.2021
3989 Clouds -8 1025 79 10000 7.72 350 23:41 07.01.2021
3990 Snow -8 1025 79 10000 7.72 350 22:50 07.01.2021
3991 Snow -8 1025 79 10000 7.72 350 22:32 07.01.2021
3992 Snow -8 1026 73 10000 9.77 350 21:49 07.01.2021
3993 Snow -8 1026 73 10000 9.77 350 21:27 07.01.2021
3994 Snow -8 1026 79 10000 10.29 340 20:48 07.01.2021
3995 Snow -8 1026 79 10000 10.29 340 20:29 07.01.2021
3996 Snow -8 1026 79 10000 8.75 360 19:47 07.01.2021
3997 Snow -8 1026 79 10000 8.75 360 19:23 07.01.2021
3998 Snow -7 1026 86 10000 7.72 360 18:46 07.01.2021
3999 Snow -7 1026 86 10000 7.72 360 18:20 07.01.2021
4000 Snow -6 1025 86 10000 9.26 350 17:32 07.01.2021
4001 Snow -5 1025 80 10000 5.66 340 16:55 07.01.2021
4002 Snow -5 1025 80 10000 5.66 340 16:32 07.01.2021
4003 Clouds -5 1025 80 10000 6.17 340 15:48 07.01.2021
4004 Clouds -5 1025 80 10000 6.17 340 15:30 07.01.2021
4005 Snow -5 1024 86 10000 6.17 330 14:31 07.01.2021
4006 Snow -5 1023 100 10000 7.72 330 13:50 07.01.2021
4007 Snow -5 1023 100 10000 7.72 330 13:30 07.01.2021
4008 Snow -4 1022 100 504 4.54 317 12:55 07.01.2021
4009 Snow -4 1022 92 3500 5.1 300 12:23 07.01.2021
4010 Snow -3 1022 92 3500 5.1 300 11:41 07.01.2021
4011 Snow -3 1022 92 3500 5.1 300 11:23 07.01.2021
4012 Snow -3 1022 92 2000 4.6 250 10:37 07.01.2021
4013 Snow -3 1022 92 2000 4.6 250 10:18 07.01.2021
4014 Snow -2 1021 92 120 5.7 250 09:41 07.01.2021
4015 Snow -2 1020 100 98 6.7 220 08:40 07.01.2021
4016 Snow -2 1020 100 85 6.7 220 08:21 07.01.2021
4017 Snow -1 1018 100 85 14.4 160 07:42 07.01.2021
4018 Snow 0 1018 98 255 15.4 160 06:46 07.01.2021
4019 Snow 0 1019 97 850 18 160 02:19 07.01.2021
4020 Clouds 0 1019 96 3169 18.5 150 00:22 07.01.2021
4021 Clouds 0 1019 96 3169 20.1 150 23:31 06.01.2021
4022 Snow 0 1019 95 9292 19.5 160 22:29 06.01.2021
4023 Snow 0 1020 95 9292 19.5 160 21:42 06.01.2021
4024 Clouds 0 1020 95 7250 19.5 160 21:22 06.01.2021
4025 Clouds -1 1020 86 7250 19 160 20:50 06.01.2021
4026 Clouds -1 1020 86 7184 19 160 20:22 06.01.2021
4027 Clouds 0 1020 95 7185 18.5 160 19:49 06.01.2021
4028 Clouds 0 1020 94 10000 18.5 160 19:29 06.01.2021
4029 Clouds 0 1021 94 10000 17 160 18:52 06.01.2021
4030 Clouds 0 1023 93 10000 12.06 163 18:34 06.01.2021
4031 Clouds 0 1021 92 10000 19.5 160 17:59 06.01.2021
4032 Clouds 0 1021 92 10000 19.5 160 17:41 06.01.2021
4033 Clouds 0 1021 93 10000 19.5 160 17:21 06.01.2021
4034 Clouds 0 1021 93 10000 17 160 16:39 06.01.2021
4035 Clouds 0 1021 93 10000 17 160 16:18 06.01.2021
4036 Clouds 0 1022 93 10000 18.5 150 15:49 06.01.2021
4037 Clouds 0 1022 93 10000 18.5 150 15:24 06.01.2021
4038 Clouds 0 1022 93 10000 16.5 160 14:41 06.01.2021
4039 Clouds 0 1022 94 10000 16.5 160 14:19 06.01.2021
4040 Clouds 0 1023 94 10000 15.4 160 13:40 06.01.2021
4041 Clouds 0 1023 94 10000 15.4 160 13:18 06.01.2021
4042 Clouds 0 1023 94 10000 13.9 160 12:45 06.01.2021
4043 Clouds -1 1024 86 10000 15.4 160 11:50 06.01.2021
4044 Snow -1 1024 86 2667 15.4 160 11:24 06.01.2021
4045 Snow -1 1023 92 2667 16.5 160 10:46 06.01.2021
4046 Snow -1 1024 92 1133 11.8 160 09:53 06.01.2021
4047 Snow -1 1024 92 1133 11.8 160 09:34 06.01.2021
4048 Snow -1 1024 92 567 15.4 160 08:55 06.01.2021
4049 Snow -1 1024 92 644 15.4 160 08:21 06.01.2021
4050 Snow -1 1024 92 644 14.9 160 07:53 06.01.2021
4051 Snow -1 1024 92 291 15.4 160 06:45 06.01.2021
4052 Snow -1 1024 92 1928 14.9 160 05:32 06.01.2021
4053 Snow -1 1024 92 529 13.4 160 04:31 06.01.2021
4054 Snow -2 1026 92 178 9.39 190 02:45 06.01.2021
4055 Snow -2 1026 92 5000 9.8 190 02:22 06.01.2021
4056 Snow -2 1025 86 5000 7.2 200 00:29 06.01.2021
4057 Snow -2 1026 86 9000 7.2 220 23:23 05.01.2021
4058 Snow -2 1024 92 4000 11.8 180 22:41 05.01.2021
4059 Snow -2 1024 92 4000 11.8 180 22:20 05.01.2021
4060 Snow -2 1023 92 3000 12.9 160 21:52 05.01.2021
4061 Snow -2 1024 86 1000 11.3 160 20:41 05.01.2021
4062 Snow -2 1024 86 1000 11.3 160 20:41 05.01.2021
4063 Snow -3 1024 86 7000 9.3 160 20:23 05.01.2021
4064 Snow -4 1025 73 10000 2.1 0 19:42 05.01.2021
4065 Snow -4 1025 73 10000 2.1 0 19:21 05.01.2021
4066 Clouds -4 1024 85 10000 0.5 0 18:43 05.01.2021
4067 Clouds -4 1024 85 10000 0.5 0 18:24 05.01.2021
4068 Clouds -5 1025 92 10000 1.5 360 17:50 05.01.2021
4069 Clouds -5 1025 92 10000 0.5 100 17:27 05.01.2021
4070 Clouds -6 1025 92 10000 0.5 100 16:53 05.01.2021
4071 Clouds -6 1025 92 10000 0.5 100 16:22 05.01.2021
4072 Clouds -6 1025 92 10000 2.6 30 15:50 05.01.2021
4073 Clouds -6 1025 92 10000 2.6 30 15:25 05.01.2021
4074 Clouds -6 1025 100 10000 2.1 30 14:41 05.01.2021
4075 Snow -6 1025 100 2400 1 350 13:51 05.01.2021
4076 Snow -6 1025 100 2400 1 350 13:30 05.01.2021
4077 Snow -6 1024 100 2200 3.6 300 12:50 05.01.2021
4078 Snow -6 1024 100 2200 3.6 300 12:28 05.01.2021
4079 Clouds -4 1021 53 10000 5.81 150 11:40 05.01.2021
4080 Clouds -4 1021 53 10000 6.2 150 11:22 05.01.2021
4081 Clouds -4 1021 53 10000 6.2 150 11:21 05.01.2021
4082 Clouds -4 1021 53 10000 6.2 150 10:44 05.01.2021
4083 Snow -6 1020 73 9701 4.1 160 09:58 05.01.2021
4084 Snow -6 1020 73 9701 4.1 160 09:38 05.01.2021
4085 Snow -7 1019 92 211 2.6 160 08:42 05.01.2021
4086 Snow -7 1019 92 940 2.6 160 08:18 05.01.2021
4087 Snow -6 1014 92 670 1.5 20 05:29 05.01.2021
4088 Snow -6 1012 92 1512 4.1 350 02:56 05.01.2021
4089 Snow -4 1012 92 1500 3.1 240 00:23 05.01.2021
4090 Snow -4 1012 100 3000 6.2 220 23:40 04.01.2021
4091 Snow -4 1012 100 3000 6.2 220 23:21 04.01.2021
4092 Snow -4 1011 100 2400 6.2 230 22:45 04.01.2021
4093 Snow -3 1010 92 2000 8.7 200 21:58 04.01.2021
4094 Snow -3 1010 92 2000 8.7 200 21:39 04.01.2021
4095 Snow -4 1010 100 1500 5.7 210 20:58 04.01.2021
4096 Snow -4 1010 100 1500 5.7 210 20:34 04.01.2021
4097 Snow -4 1009 100 1000 5.7 210 19:59 04.01.2021
4098 Snow -4 1009 100 1000 5.7 210 19:40 04.01.2021
4099 Snow -4 1009 100 1000 5.7 210 19:19 04.01.2021
4100 Snow -4 1009 100 3000 6.7 200 18:43 04.01.2021
4101 Snow -4 1009 100 1200 3.6 220 17:48 04.01.2021
4102 Snow -4 1009 100 1200 3.6 220 17:28 04.01.2021
4103 Snow -4 1009 100 3500 3.6 220 16:58 04.01.2021
4104 Snow -4 1009 100 3500 3.6 220 16:39 04.01.2021
4105 Snow -4 1009 100 3500 3.6 220 16:21 04.01.2021
4106 Snow -4 1009 100 200 2.6 220 15:47 04.01.2021
4107 Snow -4 1009 100 400 4.1 220 15:21 04.01.2021
4108 Snow -3 1007 92 50 7.2 160 13:57 04.01.2021
4109 Snow -3 1007 92 50 7.2 160 13:36 04.01.2021
4110 Snow -3 1007 92 200 8.7 160 12:55 04.01.2021
4111 Snow -3 1007 92 200 8.7 160 12:30 04.01.2021
4112 Snow -4 1006 92 200 10.3 160 11:41 04.01.2021
4113 Snow -4 1006 92 200 10.3 160 11:18 04.01.2021
4114 Snow -4 1006 92 600 10.3 160 10:44 04.01.2021
4115 Snow -4 1006 92 600 10.3 160 10:22 04.01.2021
4116 Snow -4 1005 92 186 14.9 150 09:36 04.01.2021
4117 Snow -4 1005 92 372 14.9 150 09:18 04.01.2021
4118 Snow -4 1005 92 372 14.9 150 09:18 04.01.2021
4119 Snow -4 1006 79 10000 14.9 150 08:23 04.01.2021
4120 Snow -4 1007 73 10000 6.7 130 07:47 04.01.2021
4121 Snow -5 1008 85 10000 13.4 150 05:42 04.01.2021
4122 Snow -5 1008 85 10000 13.4 150 05:20 04.01.2021
4123 Snow -5 1009 79 147 6.2 160 02:27 04.01.2021
4124 Snow -5 1008 92 137 9.3 210 00:27 04.01.2021
4125 Snow -4 1007 92 137 11.8 200 23:38 03.01.2021
4126 Snow -4 1005 85 1000 9.3 140 22:59 03.01.2021
4127 Snow -4 1005 85 1000 9.3 140 22:40 03.01.2021
4128 Snow -4 1005 85 1000 9.3 140 22:22 03.01.2021
4129 Snow -4 1006 79 1400 6.7 120 21:45 03.01.2021
4130 Snow -4 1006 79 1400 6.7 120 21:24 03.01.2021
4131 Snow -5 1005 79 10000 5.1 80 20:42 03.01.2021
4132 Snow -5 1005 79 10000 5.1 80 20:20 03.01.2021
4133 Snow -5 1006 79 9000 3.6 70 19:52 03.01.2021
4134 Snow -5 1006 79 182 3.58 70 19:33 03.01.2021
4135 Rain -5 1005 85 10000 1.5 80 18:52 03.01.2021
4136 Snow -5 1005 85 10000 1.5 80 18:33 03.01.2021
4137 Snow -5 1005 85 10000 1 130 17:53 03.01.2021
4138 Snow -5 1005 85 10000 1 130 17:30 03.01.2021
4139 Snow -6 1004 92 10000 3.6 70 16:57 03.01.2021
4140 Snow -6 1004 92 10000 3.6 70 16:39 03.01.2021
4141 Snow -6 1004 92 10000 3.6 70 16:19 03.01.2021
4142 Snow -6 1004 92 10000 3.1 60 15:45 03.01.2021
4143 Clouds -6 1004 92 10000 3.1 60 15:23 03.01.2021
4144 Snow -5 1004 92 10000 2.6 20 14:44 03.01.2021
4145 Snow -5 1004 92 10000 2.6 20 14:22 03.01.2021
4146 Snow -5 1004 92 10000 3.1 20 13:38 03.01.2021
4147 Snow -5 1004 92 10000 3.1 20 13:19 03.01.2021
4148 Snow -5 1002 100 1129 5.7 320 11:57 03.01.2021
4149 Snow -5 1002 100 1129 5.7 320 11:39 03.01.2021
4150 Snow -5 1002 100 428 5.7 320 11:21 03.01.2021
4151 Snow -4 1001 92 428 4.6 320 10:34 03.01.2021
4152 Snow -4 999 100 353 5.1 300 09:52 03.01.2021
4153 Snow -4 999 100 203 5.1 300 09:28 03.01.2021
4154 Snow -4 998 92 656 5.7 290 08:32 03.01.2021
4155 Snow -4 997 92 166 3.6 290 07:24 03.01.2021
4156 Snow -4 995 100 128 1 140 05:23 03.01.2021
4157 Snow -4 993 92 188 0.5 160 02:26 03.01.2021
4158 Snow -4 992 79 245 2.1 80 00:56 03.01.2021
4159 Snow -4 992 85 123 1.5 40 23:53 02.01.2021
4160 Snow -4 992 85 135 1.5 40 23:20 02.01.2021
4161 Snow -4 992 92 1500 1.5 50 22:49 02.01.2021
4162 Snow -4 992 92 1500 1.5 50 22:49 02.01.2021
4163 Snow -4 992 92 1500 1.5 50 22:31 02.01.2021
4164 Snow -4 991 92 4000 2.6 360 21:49 02.01.2021
4165 Snow -4 991 92 4000 2.6 360 21:29 02.01.2021
4166 Snow -4 992 92 2000 2.6 20 20:46 02.01.2021
4167 Snow -4 992 92 2000 2.6 20 20:26 02.01.2021
4168 Snow -4 991 92 3000 2.1 20 19:49 02.01.2021
4169 Snow -4 991 92 3000 2.1 20 19:20 02.01.2021
4170 Snow -3 991 79 10000 3.1 40 18:52 02.01.2021
4171 Snow -3 991 79 10000 3.1 40 18:33 02.01.2021
4172 Snow -4 991 85 10000 3.1 20 17:49 02.01.2021
4173 Snow -4 991 85 10000 3.1 20 17:30 02.01.2021
4174 Snow -4 992 85 10000 3.1 30 16:48 02.01.2021
4175 Snow -4 992 85 10000 2.6 20 16:22 02.01.2021
4176 Snow -4 992 85 10000 2.6 20 15:50 02.01.2021
4177 Clouds -4 992 85 10000 2.6 20 15:28 02.01.2021
4178 Clouds -4 992 79 10000 3.6 10 14:47 02.01.2021
4179 Clouds -4 992 79 10000 3.6 10 14:26 02.01.2021
4180 Clouds -4 992 73 10000 4.6 50 13:44 02.01.2021
4181 Clouds -5 992 73 10000 4.6 40 12:59 02.01.2021
4182 Clouds -5 992 73 10000 4.6 40 12:40 02.01.2021
4183 Clouds -5 992 73 10000 4.6 40 12:19 02.01.2021
4184 Clouds -5 992 85 10000 5.7 50 11:38 02.01.2021
4185 Clouds -5 992 85 10000 5.7 50 11:20 02.01.2021
4186 Clouds -4 993 79 10000 5.7 50 10:41 02.01.2021
4187 Clouds -4 993 79 10000 5.7 50 10:23 02.01.2021
4188 Clouds -4 993 73 10000 4.6 50 09:43 02.01.2021
4189 Clouds -4 993 73 10000 4.6 50 09:20 02.01.2021
4190 Clouds -4 994 62 10000 4.6 60 08:48 02.01.2021
4191 Clouds -4 994 62 10000 4.6 60 08:19 02.01.2021
4192 Clouds -4 995 68 10000 4.6 50 07:25 02.01.2021
4193 Clouds -4 995 73 10000 3.6 60 06:58 02.01.2021
4194 Clouds -5 996 79 10000 4.6 50 05:57 02.01.2021
4195 Clouds -5 997 73 10000 1.5 110 04:26 02.01.2021
4196 Clouds -4 1000 73 10000 1.5 160 00:49 02.01.2021
4197 Clouds -4 1000 73 10000 1.5 160 00:28 02.01.2021
4198 Clouds -4 1000 73 10000 5.1 70 23:43 01.01.2021
4199 Clouds -4 1000 73 10000 5.1 70 23:19 01.01.2021
4200 Clouds -5 1001 79 10000 5.1 70 22:47 01.01.2021
4201 Clouds -5 1001 79 10000 5.1 70 22:22 01.01.2021
4202 Clouds -5 1002 85 10000 4.1 60 21:43 01.01.2021
4203 Clouds -5 1002 85 10000 4.1 60 21:21 01.01.2021
4204 Clouds -4 1003 79 10000 1 150 20:51 01.01.2021
4205 Clouds -4 1003 79 10000 1 150 20:19 01.01.2021
4206 Clouds -4 1004 79 10000 1 120 19:42 01.01.2021
4207 Clouds -4 1004 79 10000 1 120 19:23 01.01.2021
4208 Clouds -4 1005 79 10000 4.1 70 18:49 01.01.2021
4209 Clouds -4 1005 79 10000 4.1 70 18:31 01.01.2021
4210 Clouds -4 1005 85 10000 2.1 80 17:59 01.01.2021
4211 Clouds -4 1004 79 10000 4.92 80 17:41 01.01.2021
4212 Clouds -4 1006 79 10000 5.1 80 17:18 01.01.2021
4213 Clouds -4 1006 79 10000 5.1 80 16:37 01.01.2021
4214 Clouds -4 1007 79 10000 5.1 70 15:45 01.01.2021
4215 Clouds -4 1008 85 10000 5.7 60 14:56 01.01.2021
4216 Clouds -4 1008 85 10000 5.7 60 14:37 01.01.2021
4217 Clouds -4 1009 85 10000 4.1 60 13:52 01.01.2021
4218 Clouds -4 1009 85 10000 4.1 60 13:33 01.01.2021
4219 Clouds -4 1009 85 10000 6.7 80 12:47 01.01.2021
4220 Clouds -4 1009 85 10000 6.7 80 12:20 01.01.2021
4221 Clouds -4 1010 85 10000 5.7 60 11:39 01.01.2021
4222 Clouds -4 1010 85 10000 5.7 60 11:18 01.01.2021
4223 Clouds -4 1010 92 10000 4.1 70 10:43 01.01.2021
4224 Snow -5 1011 92 10000 3.6 80 09:50 01.01.2021
4225 Snow -5 1011 92 10000 3.6 80 09:22 01.01.2021
4226 Snow -4 1012 92 10000 2.6 60 08:30 01.01.2021
4227 Snow -4 1011 92 4488 1.5 20 04:54 01.01.2021
4228 Snow -4 1011 92 4488 1.5 20 04:30 01.01.2021
4229 Snow -4 1010 92 10000 0.5 310 01:39 01.01.2021
4230 Snow -4 1009 92 8683 3.1 270 00:32 01.01.2021
4231 Snow -3 1008 92 7819 4.1 220 23:38 31.12.2020
4232 Snow -3 1008 92 4312 4.1 220 23:20 31.12.2020
4233 Snow -3 1007 92 4312 4.1 220 22:41 31.12.2020
4234 Snow -3 1007 92 1165 4.1 220 22:21 31.12.2020
4235 Snow -3 1006 92 1165 5.7 220 21:50 31.12.2020
4236 Snow -3 1006 92 1165 5.7 220 21:31 31.12.2020
4237 Snow -3 1004 92 250 6.7 220 20:58 31.12.2020
4238 Snow -3 1004 92 180 6.7 220 20:26 31.12.2020
4239 Snow -3 1003 92 180 7.7 220 19:49 31.12.2020
4240 Snow -3 1003 92 180 7.7 220 19:31 31.12.2020
4241 Snow -2 1000 100 141 7.7 210 18:51 31.12.2020
4242 Snow -2 1000 100 124 7.7 210 18:25 31.12.2020
4243 Snow -1 998 100 124 9.8 210 17:46 31.12.2020
4244 Snow -1 998 100 170 9.8 210 17:28 31.12.2020
4245 Snow 0 996 98 10000 11.8 190 16:55 31.12.2020
4246 Snow 0 996 98 10000 11.8 190 16:37 31.12.2020
4247 Snow 0 996 98 10000 11.8 190 16:18 31.12.2020
4248 Snow 1 992 98 4000 13.4 170 15:42 31.12.2020
4249 Snow 1 992 98 4000 13.4 170 15:19 31.12.2020
4250 Snow 1 987 98 2000 22.6 160 14:41 31.12.2020
4251 Snow 1 987 94 2000 22.6 160 14:22 31.12.2020
4252 Snow 1 985 100 7000 21.6 160 13:57 31.12.2020
4253 Snow 1 985 100 7000 21.6 160 13:36 31.12.2020
4254 Snow 1 985 100 7000 21.6 160 13:18 31.12.2020
4255 Rain 3 984 93 10000 19.5 160 12:45 31.12.2020
4256 Snow 3 984 93 73 19.5 160 12:27 31.12.2020
4257 Snow 3 984 93 73 19 150 11:47 31.12.2020
4258 Snow 3 984 93 73 19 150 11:47 31.12.2020
4259 Snow 3 984 93 179 19 150 11:28 31.12.2020
4260 Snow 3 984 93 179 19 150 11:28 31.12.2020
4261 Snow 3 984 93 179 19 150 11:28 31.12.2020
4262 Snow 3 984 93 179 19 150 11:28 31.12.2020
4263 Snow 3 984 93 179 19 150 11:28 31.12.2020
4264 Rain 3 984 93 179 19 150 11:28 31.12.2020
4265 Snow 3 984 93 179 19 150 11:28 31.12.2020
4266 Snow 3 984 93 179 19 150 11:28 31.12.2020
4267 Snow 3 984 93 179 19 150 11:28 31.12.2020
4268 Snow 3 984 93 179 19 150 11:28 31.12.2020
4269 Rain 5 985 75 179 10.8 160 10:41 31.12.2020
4270 Snow 5 985 75 817 10.8 160 10:23 31.12.2020
4271 Rain 6 986 75 817 12.9 150 09:48 31.12.2020
4272 Snow 6 986 75 1950 12.9 150 09:24 31.12.2020
4273 Rain 0 987 94 1950 1 0 08:47 31.12.2020
4274 Snow 0 987 93 6722 1 0 08:29 31.12.2020
4275 Rain 2 986 93 6722 7.92 118 07:54 31.12.2020
4276 Rain 0 987 97 352 6.91 93 07:24 31.12.2020
4277 Snow -1 1002 80 1189 1.79 30 05:30 31.12.2020
4278 Snow -1 1002 80 207 1.79 30 03:36 31.12.2020
4279 Snow -1 1002 80 258 1.79 30 02:36 31.12.2020
4280 Snow -1 1002 80 10000 2.1 30 01:56 31.12.2020
4281 Snow -1 1002 80 10000 2.1 30 01:37 31.12.2020
4282 Snow -1 1004 80 8000 1 210 00:57 31.12.2020
4283 Snow -1 1004 80 8000 1 210 00:39 31.12.2020
4284 Snow -1 1005 74 10000 0.5 140 23:39 30.12.2020
4285 Snow -1 1005 74 10000 0.5 140 23:18 30.12.2020
4286 Snow 0 1006 97 10000 1 190 22:36 30.12.2020
4287 Snow 0 1007 97 10000 5.1 60 21:54 30.12.2020
4288 Snow 0 1007 95 10000 5.1 60 21:28 30.12.2020
4289 Snow 0 1007 95 10000 5.1 60 21:28 30.12.2020
4290 Snow -1 1008 86 10000 3.6 70 20:57 30.12.2020
4291 Snow -1 1008 86 10000 3.6 70 20:39 30.12.2020
4292 Snow -1 1008 86 10000 3.6 70 20:19 30.12.2020
4293 Snow -1 1009 86 10000 3.6 40 19:37 30.12.2020
4294 Clouds -1 1009 86 10000 3.6 40 19:19 30.12.2020
4295 Snow 0 1011 92 10000 3 105 18:41 30.12.2020
4296 Clouds 0 1011 91 10000 3.24 103 18:22 30.12.2020
4297 Clouds 0 1011 91 10000 1.5 80 17:50 30.12.2020
4298 Clouds 0 1011 91 10000 1.5 80 17:30 30.12.2020
4299 Clouds 1 1012 69 10000 7.7 160 16:48 30.12.2020
4300 Clouds 1 1012 69 10000 7.7 160 16:25 30.12.2020
4301 Snow 0 1012 92 10000 11.3 150 15:45 30.12.2020
4302 Snow 0 1012 93 10000 11.3 150 15:24 30.12.2020
4303 Snow 0 1012 93 10000 11.8 160 14:43 30.12.2020
4304 Snow 0 1012 93 10000 11.8 160 14:22 30.12.2020
4305 Snow 0 1011 94 9000 12.9 160 13:26 30.12.2020
4306 Snow 0 1011 95 8000 11.8 160 12:28 30.12.2020
4307 Snow -1 1011 92 4000 13.4 160 11:50 30.12.2020
4308 Snow -1 1011 92 4000 13.4 160 11:24 30.12.2020
4309 Snow -1 1010 100 1500 13.4 160 10:59 30.12.2020
4310 Snow -1 1010 100 1500 13.4 160 10:39 30.12.2020
4311 Snow -1 1010 100 1500 13.4 160 10:20 30.12.2020
4312 Snow -1 1010 100 710 12.9 160 09:48 30.12.2020
4313 Snow -1 1010 100 155 12.9 160 09:25 30.12.2020
4314 Snow -1 1010 92 118 9.3 180 08:27 30.12.2020
4315 Snow -1 1010 92 119 7.7 180 07:29 30.12.2020
4316 Snow -2 1010 100 110 8.2 180 06:52 30.12.2020
4317 Snow -2 1010 100 110 8.2 180 06:30 30.12.2020
4318 Snow -2 1009 100 101 10.3 190 05:43 30.12.2020
4319 Snow -2 1009 100 101 10.3 190 05:24 30.12.2020
4320 Snow -2 1007 100 125 12.3 170 03:28 30.12.2020
4321 Snow -1 1006 86 125 16.5 160 02:40 30.12.2020
4322 Snow -1 1006 86 213 17 160 01:56 30.12.2020
4323 Snow -1 1006 86 213 17 160 01:32 30.12.2020
4324 Snow -1 1006 86 148 18 150 00:50 30.12.2020
4325 Snow -1 1006 86 193 18 150 00:30 30.12.2020
4326 Snow -1 1006 80 260 17 150 23:54 29.12.2020
4327 Snow -1 1006 80 260 17 150 23:36 29.12.2020
4328 Snow 0 1007 94 8000 13.9 150 22:58 29.12.2020
4329 Snow 0 1007 94 8000 13.9 150 22:40 29.12.2020
4330 Clouds 0 1007 92 8000 13.9 150 22:20 29.12.2020
4331 Clouds -1 1007 63 10000 13.9 160 21:46 29.12.2020
4332 Clouds -1 1007 63 10000 13.9 160 21:24 29.12.2020
4333 Clouds -1 1008 63 10000 10.8 140 20:46 29.12.2020
4334 Clouds -1 1008 63 10000 10.8 140 20:25 29.12.2020
4335 Clouds -1 1008 63 10000 9.8 140 19:47 29.12.2020
4336 Clouds -1 1008 63 10000 9.8 140 19:23 29.12.2020
4337 Rain -2 1009 63 10000 7.7 140 18:54 29.12.2020
4338 Rain -2 1009 63 10000 7.7 140 18:32 29.12.2020
4339 Rain -2 1010 63 10000 9.3 150 17:57 29.12.2020
4340 Rain -2 1010 63 10000 9.3 150 17:37 29.12.2020
4341 Rain -3 1010 63 10000 9.3 150 17:18 29.12.2020
4342 Clouds -3 1011 63 10000 12.3 150 16:35 29.12.2020
4343 Clouds -3 1011 73 10000 12.9 150 15:53 29.12.2020
4344 Clouds -3 1011 73 10000 12.9 150 15:34 29.12.2020
4345 Rain -3 1011 73 10000 14.9 150 14:58 29.12.2020
4346 Snow -3 1011 73 10000 14.9 150 14:36 29.12.2020
4347 Rain -4 1011 73 10000 14.9 150 14:18 29.12.2020
4348 Rain -4 1011 73 10000 14.9 150 14:18 29.12.2020
4349 Snow -4 1012 73 4000 13.4 150 13:39 29.12.2020
4350 Snow -4 1012 73 4000 13.4 150 13:18 29.12.2020
4351 Snow -4 1012 85 1500 12.3 150 12:37 29.12.2020
4352 Snow -4 1012 85 1500 12.3 150 12:19 29.12.2020
4353 Snow -3 1013 79 2500 12.9 150 11:51 29.12.2020
4354 Snow -3 1013 79 2500 12.9 150 11:31 29.12.2020
4355 Snow -4 1013 79 6000 12.9 150 10:23 29.12.2020
4356 Snow -4 1014 85 4100 12.3 160 09:48 29.12.2020
4357 Snow -4 1014 85 4100 12.3 160 09:20 29.12.2020
4358 Snow -4 1015 95 1491 9.11 162 08:52 29.12.2020
4359 Clouds -4 1015 95 4051 9 167 08:22 29.12.2020
4360 Clouds -4 1014 79 1886 6.7 190 07:26 29.12.2020
4361 Snow -4 1014 79 4814 6.7 190 06:26 29.12.2020
4362 Clouds -4 1014 85 4412 6.2 200 04:49 29.12.2020
4363 Snow -4 1014 79 10000 4.6 180 00:49 29.12.2020
4364 Snow -4 1014 79 10000 4.6 180 00:20 29.12.2020
4365 Clouds -4 1013 79 10000 5.1 180 23:34 28.12.2020
4366 Snow -5 1013 100 10000 7.2 200 22:28 28.12.2020
4367 Snow -5 1013 100 10000 7.2 200 22:28 28.12.2020
4368 Snow -4 1012 92 6000 5.7 190 21:46 28.12.2020
4369 Snow -4 1012 92 6000 5.7 190 21:27 28.12.2020
4370 Snow -4 1012 92 900 5.7 200 20:43 28.12.2020
4371 Snow -4 1012 92 900 5.7 200 20:23 28.12.2020
4372 Snow -4 1011 100 600 7.7 190 19:50 28.12.2020
4373 Snow -4 1011 100 600 7.7 190 19:25 28.12.2020
4374 Snow -3 1010 92 500 5.7 190 18:59 28.12.2020
4375 Snow -3 1010 92 500 5.7 190 18:30 28.12.2020
4376 Snow -3 1010 100 500 8.2 170 17:49 28.12.2020
4377 Snow -3 1010 100 500 8.2 170 17:31 28.12.2020
4378 Snow -2 1010 92 600 9.3 180 16:59 28.12.2020
4379 Snow -2 1010 92 600 9.3 180 16:29 28.12.2020
4380 Snow -2 1010 86 5000 11.8 180 15:54 28.12.2020
4381 Snow -2 1010 86 5000 11.8 180 15:33 28.12.2020
4382 Snow -1 1009 80 10000 11.8 180 14:31 28.12.2020
4383 Snow -1 1009 80 10000 12.9 190 13:47 28.12.2020
4384 Snow -1 1009 86 3500 10.8 190 13:20 28.12.2020
4385 Snow -1 1008 92 4500 11.8 190 12:27 28.12.2020
4386 Snow 0 1007 98 1200 12.3 170 11:55 28.12.2020
4387 Snow 0 1007 98 1200 12.3 170 11:36 28.12.2020
4388 Clouds 0 1007 95 1200 12.3 170 11:18 28.12.2020
4389 Snow 0 1006 96 3500 13.9 170 10:29 28.12.2020
4390 Snow 1 1005 86 7090 14.4 160 09:57 28.12.2020
4391 Snow 1 1005 86 7090 14.4 160 09:37 28.12.2020
4392 Snow 1 1005 86 10000 14.4 160 09:18 28.12.2020
4393 Snow 1 1000 100 10000 17 160 06:53 28.12.2020
4394 Snow 2 999 100 420 20.6 160 05:23 28.12.2020
4395 Rain 5 1000 93 5839 17.5 160 03:34 28.12.2020
4396 Rain 13 1000 47 8280 4.6 130 01:55 28.12.2020
4397 Rain 11 1003 57 10000 4.6 0 23:55 27.12.2020
4398 Rain 5 1005 81 10000 6.87 143 23:35 27.12.2020
4399 Snow 8 1005 70 10000 1 0 22:40 27.12.2020
4400 Rain 8 1005 62 10000 3.6 0 21:55 27.12.2020
4401 Rain 8 1005 62 10000 3.6 0 21:22 27.12.2020
4402 Clouds 6 1006 75 10000 3.6 200 20:32 27.12.2020
4403 Clouds 5 1007 60 10000 3.6 190 19:24 27.12.2020
4404 Clouds 1 1008 64 10000 1.5 70 18:51 27.12.2020
4405 Clouds 1 1008 64 10000 1.5 70 18:22 27.12.2020
4406 Clouds -1 1009 68 10000 9.3 40 17:59 27.12.2020
4407 Clouds -1 1009 68 10000 9.3 40 17:39 27.12.2020
4408 Clouds -1 1009 68 10000 9.3 40 17:18 27.12.2020
4409 Clouds 0 1011 84 10000 8.2 50 16:25 27.12.2020
4410 Clouds -1 1013 58 10000 4.6 40 15:37 27.12.2020
4411 Clouds 0 1013 87 10000 1 170 14:57 27.12.2020
4412 Clouds 0 1013 87 10000 1 170 14:38 27.12.2020
4413 Clouds 0 1014 86 10000 3.1 320 13:42 27.12.2020
4414 Clouds 0 1014 85 10000 3.1 320 13:19 27.12.2020
4415 Clouds -2 1014 54 10000 10.3 60 12:41 27.12.2020
4416 Clouds -2 1015 50 10000 2.1 0 11:46 27.12.2020
4417 Clouds -2 1015 50 10000 2.1 0 11:28 27.12.2020
4418 Clouds -3 1017 45 10000 2.6 0 10:51 27.12.2020
4419 Clouds -4 1017 53 10000 1.5 110 10:23 27.12.2020
4420 Clouds -4 1017 53 10000 1.5 110 09:42 27.12.2020
4421 Clouds -3 1017 35 10000 1.5 140 08:29 27.12.2020
4422 Clouds -4 1017 41 10000 0.5 0 07:59 27.12.2020
4423 Clouds -4 1017 41 10000 0.5 0 07:25 27.12.2020
4424 Clouds -7 1018 52 10000 3.6 0 05:44 27.12.2020
4425 Snow -7 1020 52 10000 8.2 60 03:26 27.12.2020
4426 Clouds -8 1020 57 10000 10.3 60 02:42 27.12.2020
4427 Snow -8 1020 67 10000 9.8 40 01:32 27.12.2020
4428 Snow -9 1022 72 10000 9.3 60 23:57 26.12.2020
4429 Snow -9 1022 72 10000 9.3 60 23:27 26.12.2020
4430 Snow -9 1023 66 10000 8.2 60 22:47 26.12.2020
4431 Clouds -9 1023 56 10000 6.2 60 22:20 26.12.2020
4432 Clouds -9 1023 56 10000 6.2 60 21:55 26.12.2020
4433 Clouds -9 1023 56 10000 6.2 60 21:33 26.12.2020
4434 Clouds -10 1023 66 10000 7.2 80 20:59 26.12.2020
4435 Clouds -10 1023 66 10000 7.2 80 20:36 26.12.2020
4436 Clouds -10 1023 66 10000 7.2 80 20:36 26.12.2020
4437 Clouds -10 1023 66 10000 7.2 80 20:18 26.12.2020
4438 Clouds -10 1021 66 10000 8.2 80 19:25 26.12.2020
4439 Clouds -11 1021 61 10000 7.2 80 18:49 26.12.2020
4440 Clouds -11 1021 61 10000 7.2 80 18:27 26.12.2020
4441 Clouds -10 1022 66 10000 7.2 70 17:40 26.12.2020
4442 Clouds -10 1022 66 10000 7.2 70 17:20 26.12.2020
4443 Clouds -10 1021 72 10000 7.2 80 16:35 26.12.2020
4444 Clouds -10 1021 66 10000 5.1 90 15:27 26.12.2020
4445 Clouds -10 1021 66 10000 5.1 90 15:27 26.12.2020
4446 Clouds -10 1021 66 10000 5.1 90 15:27 26.12.2020
4447 Clouds -10 1019 66 10000 6.2 80 14:51 26.12.2020
4448 Clear -10 1019 66 10000 6.2 80 14:28 26.12.2020
4449 Clear -10 1018 72 10000 5.7 80 13:51 26.12.2020
4450 Clear -10 1018 72 10000 5.7 80 13:31 26.12.2020
4451 Clear -11 1017 72 10000 5.7 90 12:48 26.12.2020
4452 Clear -10 1016 72 10000 5.1 80 12:30 26.12.2020
4453 Clear -10 1016 72 10000 5.1 80 12:30 26.12.2020
4454 Clear -10 1016 72 10000 5.1 80 11:51 26.12.2020
4455 Clear -10 1016 72 10000 5.1 80 11:22 26.12.2020
4456 Clear -9 1015 66 10000 5.1 70 10:55 26.12.2020
4457 Clear -9 1015 66 10000 5.1 70 10:28 26.12.2020
4458 Clear -9 1014 72 10000 5.7 80 09:52 26.12.2020
4459 Clear -9 1014 72 10000 5.7 80 09:31 26.12.2020
4460 Clear -10 1013 78 10000 5.7 80 08:39 26.12.2020
4461 Clear -10 1013 78 10000 4.1 80 07:56 26.12.2020
4462 Clouds -9 1012 85 10000 4.1 30 06:47 26.12.2020
4463 Clouds -9 1009 78 10000 3.1 100 03:52 26.12.2020
4464 Clouds -9 1008 85 10000 1 60 01:49 26.12.2020
4465 Clouds -10 1008 85 10000 3.1 100 00:28 26.12.2020
4466 Snow -9 1007 92 10000 2.1 80 23:43 25.12.2020
4467 Snow -9 1007 92 10000 2.1 80 23:25 25.12.2020
4468 Snow -10 1007 92 6000 2.1 110 22:50 25.12.2020
4469 Snow -10 1007 92 6000 2.1 110 22:23 25.12.2020
4470 Clouds -10 1006 92 10000 1.5 120 21:37 25.12.2020
4471 Clouds -10 1006 92 10000 1.5 120 21:19 25.12.2020
4472 Rain -9 1006 85 10000 4.1 110 20:38 25.12.2020
4473 Snow -8 1005 92 1300 4.1 60 19:54 25.12.2020
4474 Snow -8 1005 92 1300 4.1 60 19:36 25.12.2020
4475 Snow -8 1005 92 8000 2.6 40 18:39 25.12.2020
4476 Snow -8 1005 92 700 2.1 150 17:58 25.12.2020
4477 Snow -8 1005 92 700 2.1 150 17:35 25.12.2020
4478 Snow -8 1006 92 2200 4.1 70 16:51 25.12.2020
4479 Snow -8 1006 92 2200 4.1 70 16:21 25.12.2020
4480 Snow -8 1006 92 800 2.6 90 15:49 25.12.2020
4481 Snow -8 1006 92 800 2.6 90 15:25 25.12.2020
4482 Snow -8 1006 92 3100 2.6 80 14:32 25.12.2020
4483 Snow -8 1006 92 1200 1.38 251 13:49 25.12.2020
4484 Snow -8 1006 92 1200 2.39 237 13:26 25.12.2020
4485 Snow -8 1007 85 568 2.1 110 12:56 25.12.2020
4486 Snow -8 1007 85 147 2.1 110 12:27 25.12.2020
4487 Snow -8 1007 92 147 1.5 40 11:46 25.12.2020
4488 Snow -8 1007 92 250 1.5 40 11:23 25.12.2020
4489 Snow -8 1007 85 250 1 0 10:43 25.12.2020
4490 Snow -8 1007 85 349 1.5 0 09:49 25.12.2020
4491 Snow -8 1007 85 355 1.5 0 09:26 25.12.2020
4492 Snow -8 1008 85 355 3.1 170 08:37 25.12.2020
4493 Snow -7 1008 73 8280 6.2 220 06:52 25.12.2020
4494 Snow -7 1008 73 7468 6.2 220 06:21 25.12.2020
4495 Snow -7 1006 73 957 6.7 240 02:23 25.12.2020
4496 Snow -7 1005 79 1149 7.2 250 00:35 25.12.2020
4497 Snow -7 1004 85 3475 4.1 240 23:32 24.12.2020
4498 Snow -7 1003 85 3475 3.6 260 22:56 24.12.2020
4499 Snow -7 1003 85 4022 3.6 260 22:25 24.12.2020
4500 Snow -6 1002 85 4022 6.2 270 21:53 24.12.2020
4501 Snow -6 1002 85 279 6.2 270 21:25 24.12.2020
4502 Snow -6 1000 92 3900 6.2 260 19:56 24.12.2020
4503 Snow -6 998 92 4000 7.2 260 18:22 24.12.2020
4504 Snow -5 996 92 1600 7.2 270 17:45 24.12.2020
4505 Snow -5 996 92 1600 7.2 270 17:26 24.12.2020
4506 Snow -5 994 100 139 9.3 280 16:27 24.12.2020
4507 Snow -4 993 92 139 7.7 280 15:49 24.12.2020
4508 Snow -4 993 92 201 7.7 280 15:29 24.12.2020
4509 Snow -3 990 92 201 11.3 280 14:58 24.12.2020
4510 Snow -3 990 92 201 11.3 280 14:40 24.12.2020
4511 Snow -3 990 92 515 11.3 280 14:22 24.12.2020
4512 Snow -2 987 92 515 9.3 270 13:39 24.12.2020
4513 Snow -2 987 92 869 9.3 270 13:19 24.12.2020
4514 Snow -1 985 100 4000 8.7 250 12:41 24.12.2020
4515 Snow -1 985 100 4000 8.7 250 12:19 24.12.2020
4516 Snow 0 983 96 1500 9.8 180 11:39 24.12.2020
4517 Snow 0 983 95 1500 9.8 180 11:20 24.12.2020
4518 Snow 1 982 95 39 12.3 170 10:47 24.12.2020
4519 Snow 1 982 96 64 12.3 170 10:28 24.12.2020
4520 Snow 1 982 100 64 12.3 160 09:51 24.12.2020
4521 Snow 1 982 100 50 12.3 160 09:23 24.12.2020
4522 Snow 1 981 95 75 12.3 160 07:59 24.12.2020
4523 Snow 1 981 95 75 12.3 160 07:38 24.12.2020
4524 Snow 1 981 94 104 14.4 160 06:52 24.12.2020
4525 Snow 2 981 80 78 13.4 150 04:24 24.12.2020
4526 Snow 2 982 96 43 12.3 160 01:54 24.12.2020
4527 Snow 2 982 96 51 12.3 160 01:30 24.12.2020
4528 Snow 4 982 69 53 7.2 160 00:56 24.12.2020
4529 Snow 4 982 69 53 7.2 160 00:20 24.12.2020
4530 Snow 3 982 74 53 10.3 150 23:40 23.12.2020
4531 Snow 3 982 74 48 10.3 150 23:22 23.12.2020
4532 Snow 4 982 97 10000 4.6 90 22:52 23.12.2020
4533 Snow 4 982 97 10000 4.6 90 22:29 23.12.2020
4534 Snow 3 981 74 10000 4.1 100 21:49 23.12.2020
4535 Snow 3 981 74 10000 4.1 100 21:24 23.12.2020
4536 Snow 4 982 69 10000 4.1 100 20:49 23.12.2020
4537 Rain 4 982 69 10000 4.1 100 20:31 23.12.2020
4538 Snow 4 982 69 10000 2.6 100 19:59 23.12.2020
4539 Snow 4 982 69 10000 2.6 100 19:38 23.12.2020
4540 Snow 4 982 69 10000 2.6 100 19:19 23.12.2020
4541 Snow 5 983 60 10000 4.6 110 18:46 23.12.2020
4542 Snow 5 983 60 10000 4.6 110 18:22 23.12.2020
4543 Snow 3 981 74 61 4.92 110 17:39 23.12.2020
4544 Snow 3 984 74 10000 5.1 110 17:20 23.12.2020
4545 Snow 3 984 74 10000 5.1 110 16:47 23.12.2020
4546 Snow 3 984 74 10000 5.1 110 16:29 23.12.2020
4547 Snow 3 985 88 10000 8.7 60 15:54 23.12.2020
4548 Snow 3 985 83 10000 8.7 60 15:29 23.12.2020
4549 Snow 2 986 83 10000 7.7 60 14:59 23.12.2020
4550 Snow 2 986 83 10000 7.7 60 14:39 23.12.2020
4551 Clouds 1 986 91 10000 7.7 60 14:20 23.12.2020
4552 Clouds 1 987 91 10000 8.7 80 13:44 23.12.2020
4553 Clouds 1 987 91 10000 8.7 80 13:44 23.12.2020
4554 Rain 1 987 98 10000 8.7 80 13:19 23.12.2020
4555 Rain 1 987 97 7000 9.3 80 12:53 23.12.2020
4556 Snow 1 987 98 7000 9.3 80 12:28 23.12.2020
4557 Snow -1 988 92 3000 8.2 50 11:53 23.12.2020
4558 Snow -1 988 92 3000 8.2 50 11:21 23.12.2020
4559 Snow -1 990 92 339 9.8 60 10:50 23.12.2020
4560 Snow -1 990 92 339 9.8 60 10:32 23.12.2020
4561 Snow -1 992 86 710 8.7 60 09:36 23.12.2020
4562 Snow -1 995 80 1923 8.7 60 08:51 23.12.2020
4563 Snow -1 995 80 3611 8.7 60 08:23 23.12.2020
4564 Snow -1 998 92 3611 8.2 50 07:43 23.12.2020
4565 Snow -1 1000 92 10000 8.7 70 06:42 23.12.2020
4566 Snow -2 1003 100 10000 9.8 80 05:55 23.12.2020
4567 Snow -2 1003 100 10000 9.8 80 05:20 23.12.2020
4568 Snow -3 1010 100 146 3.6 60 01:57 23.12.2020
4569 Snow -3 1010 92 222 2.6 60 00:32 23.12.2020
4570 Snow -3 1011 92 170 1.5 100 23:41 22.12.2020
4571 Snow -3 1011 92 176 1.5 100 23:22 22.12.2020
4572 Snow -3 1011 92 2000 1 110 22:42 22.12.2020
4573 Snow -3 1011 92 2000 1 110 22:24 22.12.2020
4574 Snow -3 1011 92 1100 0.5 270 21:50 22.12.2020
4575 Snow -3 1011 92 1100 0.5 270 21:20 22.12.2020
4576 Snow -3 1011 100 1000 2.1 240 20:54 22.12.2020
4577 Snow -3 1011 100 1000 2.1 240 20:35 22.12.2020
4578 Snow -3 1010 100 800 2.1 230 19:56 22.12.2020
4579 Snow -3 1010 100 800 2.1 230 19:38 22.12.2020
4580 Snow -3 1010 100 800 2.1 230 19:19 22.12.2020
4581 Snow -3 1010 100 1100 3.1 210 18:43 22.12.2020
4582 Snow -3 1010 100 1100 3.1 210 18:24 22.12.2020
4583 Snow -2 1009 92 700 3.1 220 17:41 22.12.2020
4584 Snow -2 1009 92 700 3.1 220 17:18 22.12.2020
4585 Snow -1 1007 92 500 12.9 190 16:47 22.12.2020
4586 Snow -1 1007 92 500 12.9 190 16:21 22.12.2020
4587 Snow 0 1004 98 1200 18.5 170 15:47 22.12.2020
4588 Snow 0 1004 97 1200 18.5 170 15:29 22.12.2020
4589 Snow 0 1003 97 1000 21.1 160 14:58 22.12.2020
4590 Snow 0 1003 97 1000 21.1 160 14:39 22.12.2020
4591 Snow 0 1003 97 1000 21.1 160 14:20 22.12.2020
4592 Snow 0 1003 97 4100 21.1 160 13:44 22.12.2020
4593 Snow 0 1003 97 4100 21.1 160 13:19 22.12.2020
4594 Snow 0 1002 97 3000 20.1 160 12:53 22.12.2020
4595 Snow 0 1002 97 3000 20.1 160 12:34 22.12.2020
4596 Snow 0 1002 97 10000 21.6 160 11:58 22.12.2020
4597 Snow 0 1002 97 10000 21.6 160 11:39 22.12.2020
4598 Snow 0 1002 97 10000 21.6 160 11:20 22.12.2020
4599 Snow 0 1002 97 174 20.1 160 10:53 22.12.2020
4600 Snow 0 1002 98 194 20.1 160 10:24 22.12.2020
4601 Snow 0 1002 98 194 21.6 160 09:57 22.12.2020
4602 Snow 0 1002 97 1349 21.6 160 09:24 22.12.2020
4603 Snow 0 1001 97 1349 23.7 150 08:53 22.12.2020
4604 Snow 0 1001 97 1349 23.7 150 08:53 22.12.2020
4605 Snow 0 1001 96 1587 23.7 150 08:32 22.12.2020
4606 Snow 0 1001 96 1587 24.7 150 07:55 22.12.2020
4607 Snow 0 1001 96 1587 24.7 150 07:55 22.12.2020
4608 Snow 0 1001 96 2175 24.7 150 07:19 22.12.2020
4609 Snow 0 1001 95 4412 25.7 150 05:48 22.12.2020
4610 Snow -1 1002 80 7757 24.2 150 03:46 22.12.2020
4611 Snow -1 1003 74 7341 24.7 150 01:35 22.12.2020
4612 Snow -2 1004 86 8211 21.6 150 23:56 21.12.2020
4613 Snow -2 1004 86 8211 21.6 150 23:38 21.12.2020
4614 Snow -2 1004 86 6131 21.6 150 23:18 21.12.2020
4615 Snow -2 1004 74 6131 20.1 150 22:36 21.12.2020
4616 Snow -2 1004 74 10000 20.1 150 22:18 21.12.2020
4617 Snow -2 1004 79 10000 16.5 150 21:42 21.12.2020
4618 Snow -2 1004 79 10000 16.5 150 21:24 21.12.2020
4619 Snow -2 1005 79 1000 12.9 150 20:42 21.12.2020
4620 Snow -2 1005 79 1000 12.9 150 20:20 21.12.2020
4621 Snow -3 1006 79 400 9.8 150 19:46 21.12.2020
4622 Snow -3 1006 79 400 9.8 150 19:20 21.12.2020
4623 Snow -3 1006 86 400 9.3 150 18:54 21.12.2020
4624 Snow -3 1007 93 6762 18.62 161 18:36 21.12.2020
4625 Snow -4 1006 92 400 9.8 150 18:18 21.12.2020
4626 Snow -4 1006 92 400 9.8 150 17:41 21.12.2020
4627 Snow -4 1006 92 400 9.8 150 17:22 21.12.2020
4628 Snow -4 1007 92 400 9.3 160 16:39 21.12.2020
4629 Snow -4 1007 92 400 9.3 160 16:18 21.12.2020
4630 Snow -4 1008 92 165 8.05 170 15:41 21.12.2020
4631 Snow -4 1008 92 1000 10.3 160 14:57 21.12.2020
4632 Snow -4 1008 92 1000 10.3 160 14:22 21.12.2020
4633 Snow -4 1008 85 10000 7.7 170 13:52 21.12.2020
4634 Snow -4 1008 85 10000 7.7 170 13:33 21.12.2020
4635 Snow -4 1007 73 10000 8.2 180 12:57 21.12.2020
4636 Snow -4 1007 73 10000 8.2 180 12:57 21.12.2020
4637 Snow -4 1007 73 10000 8.2 180 12:37 21.12.2020
4638 Snow -4 1007 73 10000 8.2 180 12:18 21.12.2020
4639 Snow -5 1006 85 8000 9.3 160 11:42 21.12.2020
4640 Snow -5 1006 85 8000 9.3 160 11:22 21.12.2020
4641 Snow -5 1006 79 763 7.2 180 10:55 21.12.2020
4642 Snow -5 1006 79 763 7.2 180 10:37 21.12.2020
4643 Snow -5 1006 85 1158 6.7 200 09:55 21.12.2020
4644 Snow -5 1006 85 1158 6.7 200 09:37 21.12.2020
4645 Snow -5 1006 85 4857 6.7 200 09:18 21.12.2020
4646 Snow -5 1005 73 1706 6.2 200 08:21 21.12.2020
4647 Snow -5 1004 92 368 5.1 220 06:48 21.12.2020
4648 Snow -5 1002 100 627 5.7 220 04:59 21.12.2020
4649 Snow -5 1002 100 1163 5.7 220 04:27 21.12.2020
4650 Snow -3 999 86 284 13.9 150 00:36 21.12.2020
4651 Snow -3 999 86 501 4.1 170 23:47 20.12.2020
4652 Snow -3 999 86 1264 4.1 170 23:20 20.12.2020
4653 Snow -3 999 79 1264 3.1 150 22:44 20.12.2020
4654 Snow -3 999 79 6119 3.1 150 22:23 20.12.2020
4655 Snow -2 999 63 10000 6.2 130 21:55 20.12.2020
4656 Snow -2 999 63 10000 6.2 130 21:37 20.12.2020
4657 Snow -2 999 63 10000 6.2 130 21:18 20.12.2020
4658 Clouds -3 999 53 10000 3.1 120 20:42 20.12.2020
4659 Clouds -3 999 53 10000 3.1 120 20:21 20.12.2020
4660 Snow -4 999 53 10000 4.6 90 19:42 20.12.2020
4661 Snow -4 999 53 10000 4.6 90 19:20 20.12.2020
4662 Snow -4 1000 58 10000 4.6 80 18:54 20.12.2020
4663 Snow -4 1000 58 10000 4.6 80 18:35 20.12.2020
4664 Snow -4 1001 62 10000 4.1 110 17:47 20.12.2020
4665 Snow -4 1001 62 10000 4.1 110 17:28 20.12.2020
4666 Snow -4 1002 58 10000 5.1 130 16:57 20.12.2020
4667 Snow -4 1002 58 10000 5.1 130 16:38 20.12.2020
4668 Snow -4 1002 58 10000 5.1 130 16:19 20.12.2020
4669 Snow -4 1002 53 10000 5.1 120 15:37 20.12.2020
4670 Snow -4 1002 53 10000 5.1 120 15:18 20.12.2020
4671 Clouds -4 1003 58 10000 5.36 120 14:38 20.12.2020
4672 Clouds -5 1003 62 10000 4.1 120 14:19 20.12.2020
4673 Clouds -5 1003 62 10000 4.1 120 13:41 20.12.2020
4674 Clouds -5 1003 62 10000 4.1 120 13:21 20.12.2020
4675 Clouds -6 1004 62 10000 4.6 120 12:49 20.12.2020
4676 Clouds -7 1005 67 10000 6.2 140 12:22 20.12.2020
4677 Clouds -7 1005 67 10000 6.2 140 11:49 20.12.2020
4678 Clouds -7 1005 67 10000 6.2 140 11:26 20.12.2020
4679 Clouds -7 1005 67 10000 5.1 70 10:49 20.12.2020
4680 Clouds -7 1005 67 10000 5.1 70 10:22 20.12.2020
4681 Clouds -8 1006 72 10000 1 60 09:56 20.12.2020
4682 Clouds -8 1006 72 10000 1 60 09:37 20.12.2020
4683 Clouds -8 1006 72 10000 1 60 09:18 20.12.2020
4684 Clouds -6 1006 73 10000 2.6 160 08:47 20.12.2020
4685 Clouds -6 1006 73 10000 2.6 160 08:28 20.12.2020
4686 Clouds -6 1006 67 10000 1 0 07:21 20.12.2020
4687 Clear -8 1008 61 10000 3.1 100 03:44 20.12.2020
4688 Clear -8 1009 72 10000 6.2 70 01:30 20.12.2020
4689 Clear -8 1009 78 10000 6.2 70 00:20 20.12.2020
4690 Clear -8 1009 78 10000 7.2 60 23:18 19.12.2020
4691 Clear -8 1009 78 10000 5.7 60 22:44 19.12.2020
4692 Clear -8 1009 78 10000 5.7 60 22:25 19.12.2020
4693 Clouds -7 1009 79 10000 5.7 70 21:58 19.12.2020
4694 Clouds -7 1009 79 10000 5.7 70 21:58 19.12.2020
4695 Clouds -7 1009 79 10000 5.7 70 21:39 19.12.2020
4696 Clouds -7 1009 79 10000 5.7 70 21:39 19.12.2020
4697 Clouds -7 1009 79 10000 5.7 70 21:21 19.12.2020
4698 Clouds -8 1009 78 10000 4.6 70 20:40 19.12.2020
4699 Clouds -8 1009 78 10000 4.6 70 20:18 19.12.2020
4700 Clouds -7 1009 79 10000 5.1 70 19:49 19.12.2020
4701 Clouds -7 1009 79 10000 5.1 70 19:29 19.12.2020
4702 Clouds -7 1009 73 10000 3.6 60 18:37 19.12.2020
4703 Clouds -7 1009 73 10000 3.6 60 18:19 19.12.2020
4704 Clouds -7 1008 79 10000 4.6 40 17:44 19.12.2020
4705 Clouds -7 1008 79 10000 3.6 30 17:22 19.12.2020
4706 Clouds -7 1008 79 10000 3.6 30 16:43 19.12.2020
4707 Clouds -7 1008 79 10000 3.6 30 16:25 19.12.2020
4708 Clouds -7 1008 73 10000 3.6 60 15:55 19.12.2020
4709 Clouds -7 1008 73 10000 3.6 60 15:33 19.12.2020
4710 Clouds -7 1008 79 10000 4.6 70 14:40 19.12.2020
4711 Clouds -7 1008 79 10000 4.6 70 14:21 19.12.2020
4712 Clouds -7 1007 79 10000 4.1 70 13:41 19.12.2020
4713 Clouds -7 1007 79 10000 4.1 70 13:20 19.12.2020
4714 Clouds -7 1007 79 10000 3.6 70 12:44 19.12.2020
4715 Clouds -7 1007 79 10000 3.6 70 12:25 19.12.2020
4716 Clouds -7 1007 79 10000 4.1 70 11:57 19.12.2020
4717 Clouds -7 1007 79 10000 4.1 70 11:36 19.12.2020
4718 Clouds -6 1006 79 10000 4.6 80 10:43 19.12.2020
4719 Clouds -6 1006 79 10000 4.6 80 10:25 19.12.2020
4720 Clouds -6 1006 79 10000 5.1 80 09:56 19.12.2020
4721 Clouds -6 1006 79 10000 5.1 80 09:38 19.12.2020
4722 Clouds -6 1005 79 10000 5.7 80 08:37 19.12.2020
4723 Clouds -6 1005 79 10000 5.7 80 07:53 19.12.2020
4724 Clouds -6 1005 79 10000 5.7 80 07:18 19.12.2020
4725 Clouds -5 1005 73 10000 5.1 70 06:39 19.12.2020
4726 Clouds -5 1005 73 10000 4.6 80 05:19 19.12.2020
4727 Clouds -6 1005 79 10000 3.6 80 03:29 19.12.2020
4728 Clouds -6 1006 85 10000 2.24 140 00:41 19.12.2020
4729 Snow -6 1006 85 10000 2.6 140 00:19 19.12.2020
4730 Snow -6 1006 85 10000 2.6 140 23:48 18.12.2020
4731 Snow -6 1007 85 8000 0.5 250 23:24 18.12.2020
4732 Snow -6 1007 85 8000 0.5 250 22:49 18.12.2020
4733 Snow -6 1007 85 8000 0.5 250 22:24 18.12.2020
4734 Snow -6 1007 79 10000 1.5 130 21:59 18.12.2020
4735 Snow -6 1007 79 10000 1.5 130 21:38 18.12.2020
4736 Snow -6 1007 79 10000 1.5 130 21:20 18.12.2020
4737 Snow -6 1007 85 3000 1 0 20:24 18.12.2020
4738 Snow -6 1007 79 1881 2.19 147 19:47 18.12.2020
4739 Snow -6 1007 79 1146 2.04 164 19:23 18.12.2020
4740 Clouds -6 1007 79 10000 2.1 133 18:46 18.12.2020
4741 Clouds -6 1008 85 10000 1.5 100 18:26 18.12.2020
4742 Clouds -6 1008 85 10000 1.5 100 17:50 18.12.2020
4743 Clouds -6 1008 85 10000 1.5 100 17:20 18.12.2020
4744 Clouds -6 1008 85 10000 1.2 86 16:45 18.12.2020
4745 Clouds -6 1008 85 10000 1.27 29 16:21 18.12.2020
4746 Rain -6 1009 92 10000 1.27 29 15:52 18.12.2020
4747 Clouds -6 1009 92 10000 1.27 29 15:34 18.12.2020
4748 Rain -5 1009 79 10000 2.04 355 14:57 18.12.2020
4749 Rain -5 1009 79 10000 2.76 343 14:26 18.12.2020
4750 Rain -5 1009 79 10000 1 0 13:59 18.12.2020
4751 Rain -5 1009 79 10000 1 0 13:40 18.12.2020
4752 Rain -5 1009 79 10000 1 0 13:21 18.12.2020
4753 Snow -5 1010 85 8000 0.5 0 12:42 18.12.2020
4754 Rain -5 1010 85 10000 2.1 280 11:29 18.12.2020
4755 Snow -5 1010 92 6542 4.1 320 10:58 18.12.2020
4756 Snow -5 1010 92 6542 4.1 320 10:37 18.12.2020
4757 Snow -5 1010 92 5409 4.1 320 10:19 18.12.2020
4758 Snow -5 1010 92 5409 5.7 320 09:38 18.12.2020
4759 Snow -5 1010 92 3486 5.7 320 09:20 18.12.2020
4760 Snow -5 1011 92 3486 3.6 340 08:52 18.12.2020
4761 Snow -5 1011 92 4034 3.6 340 08:22 18.12.2020
4762 Snow -5 1011 92 6205 4.1 330 07:20 18.12.2020
4763 Snow -5 1011 92 6205 3.6 310 06:59 18.12.2020
4764 Snow -5 1011 92 2713 3.6 310 06:22 18.12.2020
4765 Clouds -5 1011 85 2713 2.6 350 05:33 18.12.2020
4766 Snow -5 1011 92 2413 6.2 330 04:50 18.12.2020
4767 Snow -4 1011 92 727 4.6 330 01:49 18.12.2020
4768 Snow -4 1011 92 1434 4.6 330 01:22 18.12.2020
4769 Snow -4 1010 92 5000 2.1 20 23:57 17.12.2020
4770 Clouds -4 1010 79 10000 2.6 20 23:25 17.12.2020
4771 Clouds -3 1010 79 10000 2.6 20 22:52 17.12.2020
4772 Snow -3 1010 79 10000 2.6 20 22:28 17.12.2020
4773 Snow -3 1010 79 10000 2.6 20 22:28 17.12.2020
4774 Snow -3 1009 73 10000 3.1 20 21:55 17.12.2020
4775 Snow -3 1009 73 10000 3.1 20 21:37 17.12.2020
4776 Snow -3 1009 73 10000 3.1 20 21:18 17.12.2020
4777 Snow -3 1009 79 10000 2.6 30 20:41 17.12.2020
4778 Clouds -3 1009 79 10000 2.6 30 20:18 17.12.2020
4779 Clouds -3 1008 79 10000 2.1 40 19:47 17.12.2020
4780 Clouds -3 1008 79 10000 2.1 40 19:24 17.12.2020
4781 Clouds -3 1007 79 10000 2.1 30 18:42 17.12.2020
4782 Clouds -3 1007 79 10000 2.1 30 18:23 17.12.2020
4783 Clouds -3 1007 73 10000 0.5 0 17:53 17.12.2020
4784 Clouds -3 1007 73 10000 0.5 0 17:32 17.12.2020
4785 Clouds -3 1007 79 10000 1 0 16:46 17.12.2020
4786 Clouds -3 1007 79 10000 1 0 16:27 17.12.2020
4787 Clouds -4 1006 79 10000 1.5 0 15:56 17.12.2020
4788 Clouds -4 1006 79 10000 1.5 0 15:34 17.12.2020
4789 Clouds -4 1005 79 10000 1 10 14:55 17.12.2020
4790 Clouds -4 1005 79 10000 1 10 14:35 17.12.2020
4791 Clouds -4 1005 79 10000 2.6 40 13:58 17.12.2020
4792 Clouds -4 1005 79 10000 2.6 40 13:39 17.12.2020
4793 Clouds -4 1005 79 10000 2.6 40 12:56 17.12.2020
4794 Clouds -4 1005 79 10000 2.6 40 12:33 17.12.2020
4795 Clouds -4 1004 73 10000 3.1 40 11:58 17.12.2020
4796 Clouds -4 1004 73 10000 3.1 40 11:38 17.12.2020
4797 Clouds -4 1004 73 10000 3.1 40 11:20 17.12.2020
4798 Clouds -4 1004 68 10000 2.1 60 10:33 17.12.2020
4799 Clouds -5 1003 73 10000 1.5 70 09:36 17.12.2020
4800 Clouds -6 1003 73 10000 2.1 360 08:40 17.12.2020
4801 Clouds -6 1002 79 10000 2.6 360 07:41 17.12.2020
4802 Clouds -6 1002 79 10000 2.6 360 07:20 17.12.2020
4803 Clouds -6 1002 85 10000 3.6 40 06:45 17.12.2020
4804 Clouds -6 1002 85 10000 3.6 40 06:27 17.12.2020
4805 Clear -5 1002 85 10000 4.6 10 01:57 17.12.2020
4806 Clear -5 1003 85 10000 4.6 30 00:20 17.12.2020
4807 Clear -5 1002 79 10000 4.47 40 23:38 16.12.2020
4808 Clouds -5 1003 79 10000 4.6 20 23:18 16.12.2020
4809 Clouds -5 1003 79 10000 4.6 20 22:47 16.12.2020
4810 Clouds -5 1003 79 10000 4.6 20 22:28 16.12.2020
4811 Clouds -5 1002 79 10000 4.1 40 21:42 16.12.2020
4812 Clouds -5 1002 79 10000 4.1 40 21:22 16.12.2020
4813 Clouds -5 1002 79 10000 6.2 20 20:49 16.12.2020
4814 Clouds -5 1002 79 10000 6.2 20 20:20 16.12.2020
4815 Clouds -5 1002 85 10000 4.6 360 19:38 16.12.2020
4816 Clouds -5 1002 85 10000 4.6 360 19:18 16.12.2020
4817 Clear -4 1001 68 10000 4.6 40 18:47 16.12.2020
4818 Clear -4 1001 68 10000 4.6 40 18:25 16.12.2020
4819 Clouds -4 1002 73 10000 5.36 30 17:36 16.12.2020
4820 Clouds -4 1002 68 10000 5.7 40 16:56 16.12.2020
4821 Clouds -4 1002 68 10000 5.7 40 16:36 16.12.2020
4822 Clouds -4 1002 79 10000 6.2 20 16:18 16.12.2020
4823 Clouds -4 1002 79 10000 6.2 20 15:46 16.12.2020
4824 Clouds -4 1002 79 10000 6.2 20 15:18 16.12.2020
4825 Clouds -3 1002 58 10000 6.7 50 14:44 16.12.2020
4826 Clouds -3 1002 58 10000 6.7 50 14:26 16.12.2020
4827 Clouds -3 1003 58 10000 7.7 60 13:41 16.12.2020
4828 Clouds -4 1003 58 10000 7.7 60 13:20 16.12.2020
4829 Clouds -4 1003 68 10000 8.2 40 12:43 16.12.2020
4830 Clouds -3 1003 68 10000 8.7 50 11:51 16.12.2020
4831 Clouds -3 1003 68 10000 8.7 50 11:32 16.12.2020
4832 Clouds -4 1004 73 10000 7.7 30 10:56 16.12.2020
4833 Clouds -4 1004 73 10000 7.7 30 10:36 16.12.2020
4834 Clouds -4 1004 85 10000 7.2 40 09:56 16.12.2020
4835 Clouds -4 1004 85 10000 7.2 40 09:32 16.12.2020
4836 Clouds -4 1005 85 10000 7.2 30 08:23 16.12.2020
4837 Clouds -4 1005 85 10000 7.7 50 07:45 16.12.2020
4838 Clouds -4 1005 85 10000 7.7 50 07:23 16.12.2020
4839 Clouds -4 1006 85 10000 7.7 60 05:31 16.12.2020
4840 Clouds -3 1008 86 10000 3.6 70 01:59 16.12.2020
4841 Clouds -3 1009 92 10000 5.1 160 23:57 15.12.2020
4842 Clouds -3 1009 92 10000 5.1 160 23:37 15.12.2020
4843 Clouds -2 1008 86 6000 6.7 160 22:44 15.12.2020
4844 Clouds -2 1008 86 6000 6.7 160 22:22 15.12.2020
4845 Clouds -2 1008 74 10000 7.7 160 21:49 15.12.2020
4846 Clouds -2 1008 74 10000 7.7 160 21:24 15.12.2020
4847 Rain -2 1008 86 10000 6.2 170 20:46 15.12.2020
4848 Rain -2 1008 86 10000 6.2 170 20:27 15.12.2020
4849 Snow -2 1007 86 5000 6.2 180 19:55 15.12.2020
4850 Snow -2 1007 86 5000 6.2 180 19:34 15.12.2020
4851 Clouds -2 1007 86 10000 9.3 160 18:57 15.12.2020
4852 Clouds -2 1007 86 10000 9.3 160 18:38 15.12.2020
4853 Clouds -2 1007 86 10000 9.3 160 18:20 15.12.2020
4854 Rain -2 1006 86 10000 8.7 160 17:41 15.12.2020
4855 Snow -2 1006 86 10000 8.2 180 17:21 15.12.2020
4856 Snow -2 1006 86 10000 8.2 180 16:34 15.12.2020
4857 Clouds -1 1006 86 10000 7.7 160 15:59 15.12.2020
4858 Clouds -1 1006 86 10000 7.7 160 15:34 15.12.2020
4859 Clouds -1 1006 80 10000 5.1 170 14:56 15.12.2020
4860 Clouds -1 1006 80 10000 5.1 170 14:37 15.12.2020
4861 Clouds -1 1006 80 10000 5.1 170 14:19 15.12.2020
4862 Clouds -5 1006 85 10000 0.5 0 13:47 15.12.2020
4863 Clouds -6 1006 85 10000 4.1 40 13:22 15.12.2020
4864 Clouds -6 1006 85 10000 4.1 40 12:44 15.12.2020
4865 Clouds -6 1006 85 10000 4.1 40 12:18 15.12.2020
4866 Clouds -7 1006 85 10000 3.6 50 11:49 15.12.2020
4867 Clouds -7 1006 85 10000 3.6 50 11:20 15.12.2020
4868 Clouds -8 1006 72 10000 4.08 159 10:44 15.12.2020
4869 Clouds -8 1006 72 10000 4.07 166 10:19 15.12.2020
4870 Clouds -9 1006 85 10000 2.1 90 09:39 15.12.2020
4871 Clouds -9 1006 85 10000 2.1 90 09:21 15.12.2020
4872 Clouds -9 1006 78 10000 2.6 50 08:39 15.12.2020
4873 Clouds -9 1006 78 10000 2.6 50 08:20 15.12.2020
4874 Clouds -9 1006 72 10000 2.1 120 07:41 15.12.2020
4875 Clear -9 1006 72 10000 1 110 06:51 15.12.2020
4876 Clear -9 1006 78 10000 5.1 70 05:34 15.12.2020
4877 Clear -9 1008 78 10000 6.7 50 00:39 15.12.2020
4878 Clear -8 1009 72 10000 6.2 10 23:48 14.12.2020
4879 Clear -8 1009 72 10000 6.2 10 23:19 14.12.2020
4880 Clouds -8 1010 72 10000 6.7 40 22:40 14.12.2020
4881 Clouds -8 1011 78 10000 8.2 360 21:56 14.12.2020
4882 Clouds -8 1011 78 10000 8.2 360 21:36 14.12.2020
4883 Clouds -8 1011 78 10000 8.2 360 21:18 14.12.2020
4884 Clear -8 1012 78 10000 9.8 20 20:46 14.12.2020
4885 Clear -8 1012 78 10000 9.8 20 20:27 14.12.2020
4886 Clear -7 1012 67 10000 10.8 20 19:41 14.12.2020
4887 Clear -7 1012 67 10000 10.8 20 19:23 14.12.2020
4888 Clear -7 1013 73 10000 10.28 20 18:43 14.12.2020
4889 Clear -8 1014 72 10000 9.8 20 18:23 14.12.2020
4890 Clear -8 1014 72 10000 9.8 20 17:38 14.12.2020
4891 Clear -8 1014 72 10000 9.8 20 17:19 14.12.2020
4892 Clouds -8 1014 72 10000 9.3 30 16:42 14.12.2020
4893 Clouds -8 1014 72 10000 9.3 30 16:23 14.12.2020
4894 Clouds -8 1015 78 10000 9.8 20 15:33 14.12.2020
4895 Clouds -8 1016 78 10000 8.7 20 14:51 14.12.2020
4896 Clouds -8 1016 78 10000 8.7 20 14:32 14.12.2020
4897 Clouds -8 1016 85 10000 8.7 20 13:58 14.12.2020
4898 Clouds -8 1016 85 10000 8.7 20 13:37 14.12.2020
4899 Clouds -8 1017 72 10000 9.3 20 12:58 14.12.2020
4900 Clouds -8 1017 72 10000 9.3 20 12:40 14.12.2020
4901 Clouds -8 1017 72 10000 9.3 20 12:20 14.12.2020
4902 Clear -7 1017 67 10000 6.71 20 11:30 14.12.2020
4903 Clouds -7 1017 67 10000 6.7 20 10:29 14.12.2020
4904 Snow -7 1017 67 10000 6.7 20 09:58 14.12.2020
4905 Snow -7 1017 67 10000 6.7 20 09:25 14.12.2020
4906 Clouds -7 1017 67 10000 6.7 20 08:45 14.12.2020
4907 Clouds -7 1017 67 10000 6.7 20 08:26 14.12.2020
4908 Clouds -7 1017 67 10000 6.7 30 07:26 14.12.2020
4909 Clouds -7 1017 67 10000 5.7 40 06:44 14.12.2020
4910 Clouds -7 1017 67 6910 6.2 30 04:27 14.12.2020
4911 Clouds -8 1016 67 3949 3.1 80 02:25 14.12.2020
4912 Clouds -8 1016 67 2945 1 0 00:52 14.12.2020
4913 Clouds -8 1018 78 2945 4.47 300 00:30 14.12.2020
4914 Clouds -8 1016 67 4617 4.1 320 23:46 13.12.2020
4915 Clouds -8 1016 67 4732 4.1 320 23:24 13.12.2020
4916 Clouds -8 1015 78 4732 4.6 300 22:45 13.12.2020
4917 Clouds -8 1015 78 4188 4.6 300 22:18 13.12.2020
4918 Clouds -8 1015 72 4188 4.6 290 21:42 13.12.2020
4919 Clouds -8 1015 72 2709 4.6 290 21:22 13.12.2020
4920 Snow -8 1014 78 2709 4.6 300 20:35 13.12.2020
4921 Snow -8 1014 85 1563 4.6 300 19:51 13.12.2020
4922 Snow -8 1014 85 1563 4.6 300 19:30 13.12.2020
4923 Snow -8 1013 92 1460 5.1 290 18:58 13.12.2020
4924 Snow -8 1013 92 1460 5.1 290 18:39 13.12.2020
4925 Snow -8 1013 92 1214 5.1 290 18:19 13.12.2020
4926 Snow -8 1013 92 1214 6.2 300 17:46 13.12.2020
4927 Snow -8 1013 92 440 6.2 300 17:20 13.12.2020
4928 Snow -7 1012 92 440 5.7 300 16:54 13.12.2020
4929 Snow -7 1012 92 440 5.7 300 16:36 13.12.2020
4930 Snow -7 1011 92 331 5.1 300 15:57 13.12.2020
4931 Snow -7 1011 92 331 5.1 300 15:38 13.12.2020
4932 Snow -7 1011 92 228 5.1 300 15:18 13.12.2020
4933 Snow -6 1010 92 228 5.1 290 14:42 13.12.2020
4934 Snow -6 1010 92 184 5.1 290 14:19 13.12.2020
4935 Snow -5 1009 92 184 5.1 310 13:41 13.12.2020
4936 Snow -5 1009 92 156 5.1 310 13:22 13.12.2020
4937 Snow -5 1008 100 143 5.1 300 12:39 13.12.2020
4938 Snow -5 1008 100 118 5.1 300 12:20 13.12.2020
4939 Snow -4 1006 92 118 5.7 290 11:35 13.12.2020
4940 Snow -4 1005 92 129 3.1 180 10:49 13.12.2020
4941 Snow -4 1005 92 129 3.1 180 10:30 13.12.2020
4942 Snow -4 1004 92 128 2.6 130 09:54 13.12.2020
4943 Snow -5 1004 79 617 1.85 266 08:58 13.12.2020
4944 Snow -5 1004 79 617 1.85 266 08:33 13.12.2020
4945 Clouds -6 1003 79 10000 1.14 219 07:35 13.12.2020
4946 Clouds -6 1002 73 10000 1.76 67 04:23 13.12.2020
4947 Clouds -6 1002 79 10000 1.5 60 02:40 13.12.2020
4948 Clouds -5 1002 67 10000 3.6 40 01:57 13.12.2020
4949 Clouds -6 1002 67 10000 2.6 120 00:49 13.12.2020
4950 Clouds -6 1002 67 10000 3.6 40 23:55 12.12.2020
4951 Clouds -6 1002 67 10000 3.6 40 23:31 12.12.2020
4952 Clouds -6 1002 62 10000 1 0 22:49 12.12.2020
4953 Clouds -7 1001 79 10000 2.1 40 21:59 12.12.2020
4954 Clouds -7 1001 79 10000 2.1 40 21:34 12.12.2020
4955 Clouds -6 1001 53 10000 1.5 210 20:55 12.12.2020
4956 Clouds -6 1001 53 10000 1.5 210 20:29 12.12.2020
4957 Clouds -7 1001 73 10000 3.6 40 19:57 12.12.2020
4958 Clouds -7 1001 73 10000 3.6 40 19:39 12.12.2020
4959 Clouds -7 1001 73 10000 3.6 40 19:20 12.12.2020
4960 Clouds -7 1001 73 10000 4.6 60 18:42 12.12.2020
4961 Clouds -7 1001 73 10000 4.6 60 18:23 12.12.2020
4962 Clouds -7 1001 73 10000 3.6 20 17:47 12.12.2020
4963 Clouds -7 1002 73 10000 3.6 40 16:55 12.12.2020
4964 Clouds -7 1002 73 10000 3.6 40 16:20 12.12.2020
4965 Clouds -7 1002 73 10000 3.6 50 15:45 12.12.2020
4966 Clouds -7 1002 73 10000 3.6 50 15:27 12.12.2020
4967 Clouds -7 1003 62 10000 2.1 0 14:45 12.12.2020
4968 Clouds -6 1003 62 10000 2.6 100 13:55 12.12.2020
4969 Clouds -6 1003 62 10000 2.6 100 13:36 12.12.2020
4970 Clouds -6 1004 48 10000 1.5 120 12:58 12.12.2020
4971 Clouds -6 1004 53 10000 1.5 130 11:48 12.12.2020
4972 Clouds -7 1005 57 10000 3.28 50 10:53 12.12.2020
4973 Clouds -6 1005 57 10000 2.6 110 09:46 12.12.2020
4974 Clouds -7 1005 62 10000 2.1 40 08:57 12.12.2020
4975 Clouds -7 1007 62 10000 2.1 130 02:57 12.12.2020
4976 Clouds -8 1007 72 10000 2.1 100 23:55 11.12.2020
4977 Clouds -8 1008 72 10000 2.6 70 22:39 11.12.2020
4978 Clouds -8 1008 72 10000 2.1 100 20:50 11.12.2020
4979 Clouds -8 1007 78 10000 1.5 100 18:27 11.12.2020
4980 Clouds -8 1007 72 10000 2.1 110 16:34 11.12.2020
4981 Clear -9 1006 78 10000 3.6 30 14:18 11.12.2020
4982 Clear -8 1006 78 10000 4.1 40 13:25 11.12.2020
4983 Clouds -8 1006 72 10000 3.6 40 12:20 11.12.2020
4984 Clouds -8 1006 72 10000 3.6 40 11:52 11.12.2020
4985 Clouds -8 1006 78 10000 3.6 40 10:55 11.12.2020
4986 Clouds -8 1006 78 10000 3.1 40 09:42 11.12.2020
4987 Clouds -7 1006 79 10000 4.1 50 06:25 11.12.2020
4988 Clouds -7 1006 79 10000 4.6 60 05:20 11.12.2020
4989 Clouds -6 1007 85 10000 3.1 60 02:38 11.12.2020
4990 Clouds -7 1007 73 10000 3.6 60 00:34 11.12.2020
4991 Clouds -7 1006 79 10000 4.6 50 22:57 10.12.2020
4992 Clouds -8 1006 78 10000 3.58 40 21:37 10.12.2020
4993 Clouds -8 1006 78 10000 4.1 40 20:49 10.12.2020
4994 Clouds -7 1006 73 10000 4.47 50 19:49 10.12.2020
4995 Clouds -7 1006 73 10000 4.1 50 19:21 10.12.2020
4996 Clouds -7 1006 73 10000 4.1 50 18:44 10.12.2020
4997 Clouds -8 1005 78 10000 4.6 60 16:56 10.12.2020
4998 Clouds -7 1005 73 10000 4.6 60 15:51 10.12.2020
4999 Clouds -7 1005 79 10000 3.1 20 14:58 10.12.2020
5000 Clouds -7 1005 79 10000 3.1 20 14:39 10.12.2020
5001 Clouds -7 1005 85 10000 3.1 30 13:25 10.12.2020
5002 Clouds -7 1005 73 10000 4.1 40 11:48 10.12.2020
5003 Clouds -7 1004 67 10000 4.6 50 10:29 10.12.2020
5004 Clouds -7 1004 73 10000 5.1 50 08:19 10.12.2020
5005 Clouds -6 1004 67 10000 4.1 40 06:57 10.12.2020
5006 Clouds -6 1004 67 10000 4.6 50 05:26 10.12.2020
5007 Clouds -6 1004 67 10000 6.7 50 02:31 10.12.2020
5008 Clouds -6 1004 67 10000 6.7 50 01:18 10.12.2020
5009 Clouds -6 1006 62 10000 4.6 60 23:35 09.12.2020
5010 Clouds -6 1006 57 10000 4.1 40 20:37 09.12.2020
5011 Clouds -6 1006 53 10000 3.1 60 19:40 09.12.2020
5012 Clouds -6 1007 57 10000 2.6 50 18:36 09.12.2020
5013 Clouds -6 1008 57 10000 4.6 50 16:57 09.12.2020
5014 Clouds -6 1008 57 10000 4.6 50 16:26 09.12.2020
5015 Clouds -7 1008 57 10000 4.1 50 15:41 09.12.2020
5016 Clouds -6 1009 53 10000 3.1 60 14:50 09.12.2020
5017 Clouds -6 1009 53 10000 3.1 60 14:26 09.12.2020
5018 Clouds -7 1009 62 10000 4.6 60 13:19 09.12.2020
5019 Clouds -7 1009 62 10000 4.6 60 12:57 09.12.2020
5020 Clouds -7 1009 62 10000 4.6 60 12:23 09.12.2020
5021 Clouds -7 1009 62 10000 3.6 40 11:33 09.12.2020
5022 Clouds -7 1009 67 10000 4.1 40 09:51 09.12.2020
5023 Clouds -7 1009 67 10000 3.6 50 08:34 09.12.2020
5024 Clouds -7 1009 67 10000 3.6 40 06:29 09.12.2020
5025 Clouds -7 1009 67 10000 4.1 60 05:27 09.12.2020
5026 Clouds -6 1009 62 10000 4.1 60 02:31 09.12.2020
5027 Clear -6 1009 57 10000 3.1 40 00:24 09.12.2020
5028 Clear -7 1008 67 10000 3.6 20 23:33 08.12.2020
5029 Clouds -6 1008 62 10000 6.2 50 21:54 08.12.2020
5030 Clouds -6 1008 67 10000 5.7 60 20:24 08.12.2020
5031 Clouds -6 1008 62 10000 5.1 60 19:29 08.12.2020
5032 Clouds -6 1008 57 10000 4.1 60 18:34 08.12.2020
5033 Clouds -6 1008 62 10000 5.1 60 16:39 08.12.2020
5034 Clear -6 1008 62 10000 6.7 60 15:18 08.12.2020
5035 Clear -6 1009 62 10000 5.1 50 13:49 08.12.2020
5036 Clouds -7 1011 81 10000 4.08 44 12:38 08.12.2020
5037 Clouds -6 1010 67 10000 5.1 80 11:52 08.12.2020
5038 Clouds -6 1012 81 10000 4.01 48 10:54 08.12.2020
5039 Clouds -6 1012 81 10000 4.01 48 10:34 08.12.2020
5040 Clear -5 1010 53 10000 1 0 09:38 08.12.2020
5041 Clear -6 1011 67 10000 5.7 60 07:35 08.12.2020
5042 Clear -5 1012 62 10000 5.1 60 05:26 08.12.2020
5043 Clear -5 1013 67 10000 3.6 100 02:24 08.12.2020
5044 Clear -4 1013 68 10000 5.7 60 00:44 08.12.2020
5045 Clear -4 1013 68 10000 6.7 80 23:25 07.12.2020
5046 Clouds -4 1013 73 10000 8.2 70 22:20 07.12.2020
5047 Clouds -4 1014 73 10000 6.2 70 21:26 07.12.2020
5048 Clouds -3 1014 73 10000 5.7 70 19:23 07.12.2020
5049 Clouds -2 1014 79 10000 2.1 100 17:57 07.12.2020
5050 Clouds -2 1014 79 10000 2.1 100 17:20 07.12.2020
5051 Clouds -2 1014 74 10000 2.6 100 16:38 07.12.2020
5052 Clouds -2 1015 86 10000 1.5 110 15:24 07.12.2020
5053 Clouds -2 1015 86 10000 1.5 110 14:33 07.12.2020
5054 Snow -2 1014 86 10000 2.6 70 13:36 07.12.2020
5055 Snow -1 1014 86 10000 2.6 40 12:30 07.12.2020
5056 Snow -1 1014 86 3334 2.1 200 11:42 07.12.2020
5057 Snow -1 1013 80 2487 5.1 180 10:36 07.12.2020
5058 Snow -1 1013 86 341 5.1 180 09:24 07.12.2020
5059 Snow -1 1012 86 181 7.2 170 07:40 07.12.2020
5060 Snow -1 1011 86 125 7.7 160 05:27 07.12.2020
5061 Snow -1 1011 92 125 7.7 160 04:35 07.12.2020
5062 Snow -1 1009 80 2086 1.5 0 00:52 07.12.2020
5063 Snow 0 1008 97 10000 6.7 150 22:53 06.12.2020
5064 Snow 0 1008 97 1244 6.2 160 21:53 06.12.2020
5065 Snow -2 1008 92 538 0.5 0 20:47 06.12.2020
5066 Snow -2 1008 92 2023 0.5 0 20:26 06.12.2020
5067 Snow -2 1007 92 2023 3.64 121 19:39 06.12.2020
5068 Snow -2 1006 100 1800 4.06 118 17:45 06.12.2020
5069 Snow -2 1006 100 3000 1 30 16:39 06.12.2020
5070 Snow -2 1006 100 5216 1.5 40 14:50 06.12.2020
5071 Snow -2 1005 100 3650 1.5 30 13:30 06.12.2020
5072 Snow -1 1005 86 5488 2.1 0 12:36 06.12.2020
5073 Snow -1 1005 80 2763 3.1 160 11:54 06.12.2020
5074 Snow -1 1005 80 3047 3.1 160 11:28 06.12.2020
5075 Clouds 0 1004 95 3047 4.1 150 10:39 06.12.2020
5076 Snow 0 1004 95 5424 6.2 160 09:39 06.12.2020
5077 Snow -2 1003 100 4658 0.5 0 07:53 06.12.2020
5078 Snow -2 1003 100 10000 3.1 50 05:22 06.12.2020
5079 Snow -1 1004 86 10000 6.2 160 00:57 06.12.2020
5080 Snow -1 1004 86 10000 6.2 160 00:37 06.12.2020
5081 Snow -1 1004 86 10000 6.2 160 00:19 06.12.2020
5082 Snow -1 1003 92 10000 3.6 150 22:26 05.12.2020
5083 Clouds 0 1005 91 10000 6.27 131 21:58 05.12.2020
5084 Clouds 0 1005 91 10000 6.27 131 21:37 05.12.2020
5085 Snow 0 1003 92 3000 7.2 150 21:19 05.12.2020
5086 Snow -1 1003 92 800 11.3 160 18:55 05.12.2020
5087 Snow 0 1002 97 2000 11.8 160 17:57 05.12.2020
5088 Snow 0 1002 97 10000 11.8 160 16:51 05.12.2020
5089 Snow 0 1002 97 10000 11.8 160 16:29 05.12.2020
5090 Snow 0 1002 97 4000 10.8 160 15:36 05.12.2020
5091 Snow 0 1002 98 1800 9.3 170 14:24 05.12.2020
5092 Snow 0 1002 98 2000 12.3 170 11:51 05.12.2020
5093 Snow 0 1002 98 246 14.4 160 10:48 05.12.2020
5094 Snow 0 1002 97 110 14.4 160 10:22 05.12.2020
5095 Snow 0 1002 97 98 14.9 160 07:48 05.12.2020
5096 Snow 0 1002 97 51 16.5 160 06:22 05.12.2020
5097 Snow 1 1003 96 65 17 160 03:39 05.12.2020
5098 Snow 1 1005 95 44 11.3 170 23:48 04.12.2020
5099 Snow 1 1005 95 4000 13.9 170 21:59 04.12.2020
5100 Clouds 1 1005 89 4000 13.4 170 19:57 04.12.2020
5101 Snow 1 1005 91 4000 13.9 170 18:52 04.12.2020
5102 Snow 1 1005 90 4000 13.9 170 18:18 04.12.2020
5103 Clouds 2 1005 91 7000 10.3 170 17:26 04.12.2020
5104 Clouds 2 1006 90 8000 10.3 170 15:37 04.12.2020
5105 Snow 2 1006 88 7000 14.9 160 13:40 04.12.2020
5106 Snow 2 1006 91 7000 14.9 160 13:21 04.12.2020
5107 Snow 1 1006 90 5000 12.9 160 12:49 04.12.2020
5108 Snow 0 1007 93 6791 2.6 200 10:40 04.12.2020
5109 Snow 1 1006 100 1090 2.6 0 09:46 04.12.2020
5110 Snow -1 1008 86 164 3.6 60 06:42 04.12.2020
5111 Snow -1 1009 86 167 6.2 80 05:59 04.12.2020
5112 Snow -1 1013 86 1064 1.34 114 01:56 04.12.2020
5113 Snow -2 1017 50 10000 4.1 80 22:52 03.12.2020
5114 Snow -2 1017 50 10000 4.1 80 22:27 03.12.2020
5115 Clouds -2 1019 42 10000 4.6 70 20:49 03.12.2020
5116 Clouds -3 1020 49 10000 1 110 19:29 03.12.2020
5117 Clouds -1 1021 83 10000 2.66 105 18:53 03.12.2020
5118 Clouds -2 1021 36 10000 1 0 17:53 03.12.2020
5119 Clouds -2 1021 36 10000 1 0 17:18 03.12.2020
5120 Clouds -4 1023 45 10000 9.8 70 15:55 03.12.2020
5121 Clouds -4 1023 45 10000 9.8 70 15:30 03.12.2020
5122 Clouds -6 1024 57 10000 12.9 70 14:48 03.12.2020
5123 Snow -6 1026 48 10000 9.8 60 13:36 03.12.2020
5124 Snow -6 1027 48 10000 12.3 70 12:28 03.12.2020
5125 Clouds -7 1028 48 10000 9.8 60 11:38 03.12.2020
5126 Snow -8 1029 61 10000 13.9 60 10:25 03.12.2020
5127 Snow -9 1032 56 10000 10.3 60 07:48 03.12.2020
5128 Clouds -10 1033 61 10000 9.8 60 03:38 03.12.2020
5129 Clear -10 1034 61 10000 9.3 70 01:24 03.12.2020
5130 Clear -10 1034 78 10000 8.2 70 23:19 02.12.2020
5131 Clouds -9 1034 78 10000 9.8 70 22:28 02.12.2020
5132 Clouds -9 1034 78 10000 8.2 50 21:29 02.12.2020
5133 Clouds -10 1034 72 10000 6.2 70 20:48 02.12.2020
5134 Clouds -10 1034 72 10000 6.2 70 20:29 02.12.2020
5135 Clouds -9 1034 66 10000 6.2 80 19:22 02.12.2020
5136 Clouds -9 1033 61 10000 6.2 70 17:48 02.12.2020
5137 Clouds -9 1033 61 10000 6.2 70 17:29 02.12.2020
5138 Clouds -9 1032 66 10000 7.7 70 15:37 02.12.2020
5139 Clouds -9 1032 66 10000 7.7 80 13:20 02.12.2020
5140 Clear -8 1031 61 10000 7.2 70 11:20 02.12.2020
5141 Clear -8 1031 67 10000 6.7 90 10:24 02.12.2020
5142 Clear -8 1030 67 10000 6.7 80 07:42 02.12.2020
5143 Snow -6 1027 79 10000 1.5 20 23:22 01.12.2020
5144 Snow -7 1026 85 10000 1.93 40 22:20 01.12.2020
5145 Clouds -7 1027 94 6447 2.02 18 19:36 01.12.2020
5146 Snow -6 1022 79 10000 4.6 360 18:55 01.12.2020
5147 Snow -6 1020 85 10000 5.7 330 16:47 01.12.2020
5148 Snow -6 1018 92 8000 5.7 300 14:53 01.12.2020
5149 Snow -6 1016 73 4000 4.1 310 12:45 01.12.2020
5150 Snow -5 1015 62 7000 5.7 320 11:29 01.12.2020
5151 Snow -6 1014 85 4500 8.7 330 10:53 01.12.2020
5152 Snow -6 1014 85 4500 8.7 330 10:26 01.12.2020
5153 Snow -5 1009 92 2466 5.7 360 07:46 01.12.2020
5154 Snow -6 1006 79 4725 1 0 05:58 01.12.2020
5155 Clouds -6 1001 73 10000 6.7 10 01:33 01.12.2020
5156 Clear -6 1000 73 10000 6.7 350 00:38 01.12.2020
5157 Clear -6 1000 67 10000 8.7 30 23:20 30.11.2020
5158 Clouds -6 999 67 10000 8.7 50 22:42 30.11.2020
5159 Clouds -6 999 67 10000 8.7 50 22:22 30.11.2020
5160 Clouds -5 997 67 10000 7.7 360 20:34 30.11.2020
5161 Clouds -6 997 73 10000 7.7 360 19:41 30.11.2020
5162 Clouds -5 997 67 10000 8.2 10 18:21 30.11.2020
5163 Clouds -5 997 62 10000 7.7 10 17:46 30.11.2020
5164 Clouds -5 998 67 10000 5.7 360 16:53 30.11.2020
5165 Clouds -5 1000 79 10000 4.1 50 14:53 30.11.2020
5166 Clouds -5 1001 67 10000 5.7 80 13:55 30.11.2020
5167 Clouds -5 1001 67 10000 5.7 80 13:22 30.11.2020
5168 Clouds -4 1001 68 10000 5.7 60 12:26 30.11.2020
5169 Clouds -4 1002 68 10000 5.1 70 11:46 30.11.2020
5170 Clouds -4 1003 68 10000 6.2 80 10:25 30.11.2020
5171 Clouds -4 1004 62 10000 5.7 70 09:33 30.11.2020
5172 Clouds -1 1010 68 10000 6.2 160 01:29 30.11.2020
5173 Clouds -2 1010 74 10000 6.7 160 23:28 29.11.2020
5174 Clouds -1 1010 74 10000 9.8 150 21:46 29.11.2020
5175 Clouds -1 1010 74 10000 9.8 150 21:28 29.11.2020
5176 Rain -1 1009 80 10000 9.8 160 19:31 29.11.2020
5177 Clouds -1 1009 80 10000 9.3 160 17:43 29.11.2020
5178 Snow -2 1007 86 9159 9.3 160 14:53 29.11.2020
5179 Snow -3 1007 92 2186 8.2 190 12:46 29.11.2020
5180 Snow -1 1005 80 3159 9.8 170 11:41 29.11.2020
5181 Snow -2 1004 92 3188 10.8 160 09:26 29.11.2020
5182 Snow -2 1003 86 3188 9.8 170 08:37 29.11.2020
5183 Snow -1 1000 80 4821 7.7 210 04:21 29.11.2020
5184 Snow -1 994 86 142 6.2 170 23:19 28.11.2020
5185 Snow -3 994 86 7000 2.6 0 22:55 28.11.2020
5186 Clouds -3 992 73 10000 3.1 40 20:44 28.11.2020
5187 Clouds -3 992 68 10000 1 160 19:38 28.11.2020
5188 Clouds -3 992 68 10000 1 160 19:19 28.11.2020
5189 Clouds -3 991 68 10000 1.5 80 18:27 28.11.2020
5190 Clouds -4 990 68 10000 2.1 100 17:41 28.11.2020
5191 Clouds -4 990 73 10000 2.1 100 16:40 28.11.2020
5192 Clouds -5 989 73 10000 2.1 100 14:31 28.11.2020
5193 Clouds -3 987 63 10000 1.5 140 11:29 28.11.2020
5194 Clouds -3 987 63 10000 1.5 120 10:28 28.11.2020
5195 Snow -3 989 68 10000 6.7 70 06:26 28.11.2020
5196 Snow -4 992 79 4507 8.2 80 03:26 28.11.2020
5197 Snow -3 995 68 10000 6.2 80 00:49 28.11.2020
5198 Snow -4 997 79 8000 2.6 100 22:55 27.11.2020
5199 Snow -4 998 85 4000 2.6 0 21:33 27.11.2020
5200 Snow -4 999 85 1500 3.1 170 20:30 27.11.2020
5201 Snow -3 999 73 10000 6.2 140 19:25 27.11.2020
5202 Snow -4 1000 85 10000 7.2 160 18:28 27.11.2020
5203 Snow -4 1003 73 10000 4.1 220 14:46 27.11.2020
5204 Snow -5 1003 79 10000 4.1 190 13:26 27.11.2020
5205 Snow -5 1003 85 3500 7.2 200 12:47 27.11.2020
5206 Clouds -4 1003 79 10000 5.7 230 11:47 27.11.2020
5207 Snow -5 1003 85 4000 5.7 220 10:50 27.11.2020
5208 Snow -5 1003 92 2889 6.7 200 09:57 27.11.2020
5209 Snow -4 1004 93 2391 7.04 235 07:29 27.11.2020
5210 Snow -5 1003 94 1279 6.25 251 22:28 26.11.2020
5211 Snow -5 1003 94 1279 6.25 251 21:56 26.11.2020
5212 Snow -4 1000 68 10000 4.6 280 20:59 26.11.2020
5213 Rain -4 999 73 10000 6.2 290 19:19 26.11.2020
5214 Snow -4 997 79 5000 4.1 290 17:53 26.11.2020
5215 Clouds -4 995 68 10000 4.1 30 14:57 26.11.2020
5216 Clouds -4 993 73 10000 3.6 30 13:42 26.11.2020
5217 Clouds -4 991 73 10000 6.2 360 12:44 26.11.2020
5218 Clouds -4 991 73 10000 6.2 360 12:23 26.11.2020
5219 Clouds -3 988 73 10000 8.2 320 10:38 26.11.2020
5220 Snow -6 986 100 10000 3.6 190 09:48 26.11.2020
5221 Snow -6 986 100 10000 3.6 190 09:30 26.11.2020
5222 Snow -6 984 100 10000 7.2 190 08:39 26.11.2020
5223 Snow -6 982 92 203 8.7 180 06:55 26.11.2020
5224 Snow -6 975 85 205 2.1 250 23:54 25.11.2020
5225 Snow -6 973 85 8000 2.1 240 21:26 25.11.2020
5226 Rain -7 971 100 5000 1.5 270 19:56 25.11.2020
5227 Snow -7 970 100 2500 2.1 270 18:28 25.11.2020
5228 Snow -7 970 100 2000 3.1 280 17:23 25.11.2020
5229 Snow -6 968 92 600 3.6 300 15:41 25.11.2020
5230 Snow -5 967 92 1400 7.7 320 14:19 25.11.2020
5231 Snow -5 967 92 1400 7.7 320 13:43 25.11.2020
5232 Snow -5 967 100 1600 9.3 320 12:30 25.11.2020
5233 Snow -4 968 92 2000 11.3 330 11:20 25.11.2020
5234 Snow -4 971 100 381 12.3 330 09:20 25.11.2020
5235 Snow -2 973 92 381 5.1 360 08:49 25.11.2020
5236 Snow -2 979 92 277 8.2 80 05:20 25.11.2020
5237 Snow -2 984 92 182 7.7 80 03:31 25.11.2020
5238 Clouds 0 991 96 1850 8.7 140 00:48 25.11.2020
5239 Snow 0 993 96 1250 14.4 150 23:57 24.11.2020
5240 Snow 0 993 96 1250 14.4 150 23:34 24.11.2020
5241 Snow 0 994 95 6778 12.3 150 22:38 24.11.2020
5242 Snow -1 996 80 4000 11.3 150 21:31 24.11.2020
5243 Snow 0 996 97 6000 15.9 150 20:51 24.11.2020
5244 Snow -1 998 80 3000 15.4 150 19:47 24.11.2020
5245 Rain 0 1000 96 10000 16.5 150 17:32 24.11.2020
5246 Clouds 0 1001 97 10000 14.9 150 16:57 24.11.2020
5247 Clouds 0 1001 97 10000 14.9 150 16:37 24.11.2020
5248 Clouds -1 1002 74 10000 15.9 150 15:55 24.11.2020
5249 Clouds -1 1002 74 10000 15.9 150 15:19 24.11.2020
5250 Clouds -2 1003 79 10000 15.4 140 14:44 24.11.2020
5251 Clouds -1 1004 74 10000 16.5 150 13:20 24.11.2020
5252 Snow -1 1004 68 4000 10.8 160 12:38 24.11.2020
5253 Clouds -2 1005 92 10000 11.3 149 11:59 24.11.2020
5254 Clouds -2 1006 63 10000 7.2 140 11:22 24.11.2020
5255 Clouds -2 1006 63 10000 7.2 140 10:25 24.11.2020
5256 Snow -2 1007 68 10000 9.3 150 09:38 24.11.2020
5257 Clouds -3 1008 63 10000 7.7 130 08:57 24.11.2020
5258 Snow -3 1010 63 10000 5.7 150 05:53 24.11.2020
5259 Clouds -4 1012 53 10000 7.2 120 00:41 24.11.2020
5260 Clouds -5 1013 57 10000 4.6 100 22:24 23.11.2020
5261 Clouds -5 1012 57 10000 4.1 110 21:29 23.11.2020
5262 Clouds -5 1012 53 10000 4.1 110 20:29 23.11.2020
5263 Clouds -6 1013 57 10000 3.6 110 19:56 23.11.2020
5264 Clouds -5 1012 49 10000 5.7 120 17:53 23.11.2020
5265 Clouds -5 1012 45 10000 4.6 120 16:56 23.11.2020
5266 Clouds -6 1014 86 10000 4.32 120 14:50 23.11.2020
5267 Clouds -7 1012 52 10000 1.5 110 13:58 23.11.2020
5268 Clouds -7 1012 62 10000 2.1 100 12:41 23.11.2020
5269 Clouds -7 1012 62 10000 2.1 100 12:18 23.11.2020
5270 Clouds -7 1012 57 10000 1.5 120 11:41 23.11.2020
5271 Clouds -7 1011 62 10000 3.6 100 10:19 23.11.2020
5272 Clouds -6 1011 73 10000 1 50 08:59 23.11.2020
5273 Clouds -6 1011 73 10000 1 50 08:36 23.11.2020
5274 Snow -6 1010 79 10000 2.6 350 06:36 23.11.2020
5275 Snow -5 1005 92 2216 6.2 330 23:59 22.11.2020
5276 Snow -5 1004 92 625 6.7 330 22:44 22.11.2020
5277 Snow -5 1003 92 336 5.7 320 21:26 22.11.2020
5278 Snow -5 1001 92 336 5.7 340 20:43 22.11.2020
5279 Snow -4 999 79 148 5.1 50 19:51 22.11.2020
5280 Snow -4 999 79 3000 2.6 40 18:40 22.11.2020
5281 Clouds -4 998 68 10000 1.5 210 16:39 22.11.2020
5282 Clouds -4 998 68 10000 4.1 40 15:29 22.11.2020
5283 Clouds -4 998 68 10000 2.1 30 14:28 22.11.2020
5284 Clouds -4 998 62 10000 2.1 50 12:49 22.11.2020
5285 Clouds -4 998 68 10000 2.1 50 11:56 22.11.2020
5286 Clouds -4 998 68 10000 2.1 50 11:20 22.11.2020
5287 Clouds -4 998 62 10000 4.6 70 10:38 22.11.2020
5288 Clouds -4 999 62 10000 3.6 70 08:36 22.11.2020
5289 Clouds -4 1001 73 10000 1 80 01:47 22.11.2020
5290 Clouds -3 1001 68 10000 4.1 80 23:21 21.11.2020
5291 Clouds -3 1001 68 10000 2.6 100 21:47 21.11.2020
5292 Clouds -3 1001 68 10000 3.1 100 21:18 21.11.2020
5293 Clouds -4 1001 73 10000 2.1 90 20:33 21.11.2020
5294 Snow -4 1001 79 10000 1 40 19:52 21.11.2020
5295 Snow -4 1001 79 10000 1 40 19:26 21.11.2020
5296 Snow -3 1001 86 4000 2.1 180 17:57 21.11.2020
5297 Snow -2 1001 74 10000 1.5 140 16:48 21.11.2020
5298 Clouds -3 1001 79 10000 2.1 120 15:51 21.11.2020
5299 Clouds -3 1001 79 10000 2.1 120 15:21 21.11.2020
5300 Clouds -3 1002 79 10000 2.6 140 14:43 21.11.2020
5301 Snow -3 1002 79 10000 2.1 130 13:48 21.11.2020
5302 Snow -3 1002 86 10000 3.1 160 12:26 21.11.2020
5303 Snow -3 1002 86 10000 3.1 160 11:56 21.11.2020
5304 Snow -3 1002 86 3500 2.6 160 10:39 21.11.2020
5305 Snow -3 1001 86 1960 2.6 180 09:32 21.11.2020
5306 Snow -2 1001 86 1960 1 0 08:51 21.11.2020
5307 Snow -3 1001 86 921 0.5 160 05:47 21.11.2020
5308 Snow -3 1001 79 982 1 330 04:33 21.11.2020
5309 Clouds -3 1001 73 10000 1.5 120 00:38 21.11.2020
5310 Clouds -3 1001 73 10000 1.5 110 23:25 20.11.2020
5311 Clouds -2 1001 74 10000 1.5 110 21:56 20.11.2020
5312 Clouds -2 1001 74 10000 1.5 110 21:38 20.11.2020
5313 Clouds -2 1001 74 10000 1.5 110 21:38 20.11.2020
5314 Clouds -2 1001 74 10000 1.5 110 21:18 20.11.2020
5315 Clouds -2 1000 74 10000 1 20 19:44 20.11.2020
5316 Rain -2 1000 79 10000 2.1 130 18:36 20.11.2020
5317 Clouds -1 1000 74 10000 2.1 150 17:47 20.11.2020
5318 Clouds -1 1000 74 10000 2.1 150 17:23 20.11.2020
5319 Clouds -2 1000 79 10000 0.45 130 16:38 20.11.2020
5320 Clouds -3 1000 86 10000 1 80 15:56 20.11.2020
5321 Clouds -2 999 79 10000 2.67 130 14:58 20.11.2020
5322 Clouds -2 999 79 10000 1 170 13:44 20.11.2020
5323 Clouds -2 999 79 10000 1 170 13:18 20.11.2020
5324 Clouds -2 999 79 10000 2.6 120 12:34 20.11.2020
5325 Clouds -2 999 86 10000 1 120 11:45 20.11.2020
5326 Clouds -2 999 86 10000 2.68 131 10:53 20.11.2020
5327 Clouds -2 998 100 10000 1.5 110 08:53 20.11.2020
5328 Clouds -2 998 100 10000 1.5 110 08:25 20.11.2020
5329 Clouds -2 999 86 10000 0.5 160 07:32 20.11.2020
5330 Clouds -1 999 80 10000 1.5 160 03:44 20.11.2020
5331 Clouds 0 1000 91 10000 5.7 160 22:35 19.11.2020
5332 Clouds 1 1000 74 10000 7.2 160 21:55 19.11.2020
5333 Clouds 1 1000 74 10000 7.2 160 21:36 19.11.2020
5334 Clouds 1 1000 74 10000 6.2 180 20:32 19.11.2020
5335 Snow 2 1000 69 10000 5.7 180 19:49 19.11.2020
5336 Snow 2 1000 69 10000 5.7 180 19:24 19.11.2020
5337 Clouds 3 1000 55 10000 3.1 140 17:40 19.11.2020
5338 Clouds 2 1001 69 10000 2.6 160 16:54 19.11.2020
5339 Clouds 2 1001 69 10000 5.1 150 15:36 19.11.2020
5340 Clouds 2 1001 69 10000 5.1 150 15:18 19.11.2020
5341 Rain 1 1001 80 10000 7.2 170 13:46 19.11.2020
5342 Rain 1 1001 80 10000 7.2 170 13:18 19.11.2020
5343 Clouds 1 1001 86 10000 5.1 170 12:35 19.11.2020
5344 Clouds 1 1001 86 10000 4.1 170 11:44 19.11.2020
5345 Clouds 1 1001 86 10000 4.1 170 11:25 19.11.2020
5346 Clouds 3 1000 69 10000 1 200 10:52 19.11.2020
5347 Clouds 3 1000 69 10000 1 200 10:18 19.11.2020
5348 Rain 3 1000 69 10000 4.6 110 09:38 19.11.2020
5349 Rain 3 1000 69 10000 4.6 110 09:18 19.11.2020
5350 Clouds 3 1000 69 10000 2.1 180 08:19 19.11.2020
5351 Clouds 3 1001 69 10000 4.6 70 02:44 19.11.2020
5352 Clouds 3 1001 64 10000 6.2 80 01:45 19.11.2020
5353 Clouds 3 1002 64 10000 5.1 90 23:52 18.11.2020
5354 Clouds 3 1002 64 10000 5.1 90 23:24 18.11.2020
5355 Clouds 3 1002 59 10000 4.1 90 22:36 18.11.2020
5356 Clouds 3 1002 59 10000 4.1 90 22:18 18.11.2020
5357 Clouds 4 1002 55 10000 6.7 100 21:38 18.11.2020
5358 Clouds 2 1002 55 10000 6.7 100 21:19 18.11.2020
5359 Clouds 1 1003 86 10000 4.1 350 19:46 18.11.2020
5360 Clouds 1 1003 86 10000 4.1 350 19:25 18.11.2020
5361 Clouds 1 1003 86 10000 2.6 10 18:49 18.11.2020
5362 Clouds 2 1003 80 10000 1.5 130 17:59 18.11.2020
5363 Clouds 2 1003 80 10000 1.5 130 17:35 18.11.2020
5364 Clouds 1 1003 86 10000 1.5 160 16:23 18.11.2020
5365 Clouds 1 1003 86 10000 2.6 200 15:36 18.11.2020
5366 Clouds 1 1003 86 10000 4.1 180 14:40 18.11.2020
5367 Rain 2 1003 74 10000 4.1 180 13:43 18.11.2020
5368 Rain 2 1003 74 10000 4.1 180 13:20 18.11.2020
5369 Clouds 4 1003 55 10000 0.5 0 12:29 18.11.2020
5370 Clouds 4 1002 55 10000 1.5 0 11:34 18.11.2020
5371 Snow 3 1002 64 10000 2.1 0 10:31 18.11.2020
5372 Snow 3 1002 59 10000 4.6 170 09:52 18.11.2020
5373 Clouds 1 1001 64 4878 1.5 0 07:45 18.11.2020
5374 Clouds 1 1002 55 8212 2.1 200 06:34 18.11.2020
5375 Clouds 0 1004 84 10000 1 0 00:29 18.11.2020
5376 Clouds -2 1004 58 10000 1.5 80 23:34 17.11.2020
5377 Clouds -3 1004 68 10000 2.6 60 22:49 17.11.2020
5378 Clouds -3 1004 68 10000 2.6 60 22:29 17.11.2020
5379 Clouds -3 1004 68 10000 4.1 40 21:50 17.11.2020
5380 Clouds -3 1004 68 10000 4.1 40 21:30 17.11.2020
5381 Clouds -3 1004 63 10000 3.6 40 20:50 17.11.2020
5382 Clouds -3 1004 63 10000 3.6 40 20:50 17.11.2020
5383 Clouds -3 1004 63 10000 3.6 40 20:26 17.11.2020
5384 Clouds 0 1004 84 10000 8.2 160 19:54 17.11.2020
5385 Clouds -4 1005 62 10000 1.5 0 18:30 17.11.2020
5386 Clouds -3 1005 53 10000 3.1 190 17:44 17.11.2020
5387 Clouds -4 1005 53 10000 1 200 16:54 17.11.2020
5388 Clouds -4 1005 53 10000 1 200 16:20 17.11.2020
5389 Clouds -4 1006 53 10000 2.6 130 15:41 17.11.2020
5390 Clouds -4 1006 53 10000 2.6 130 15:22 17.11.2020
5391 Clouds -5 1006 49 10000 3.1 50 14:54 17.11.2020
5392 Clouds -5 1006 49 10000 3.1 50 14:22 17.11.2020
5393 Clouds -5 1006 49 10000 3.34 120 13:36 17.11.2020
5394 Clouds -5 1007 49 10000 1.5 60 12:48 17.11.2020
5395 Clouds -5 1007 49 10000 1.5 60 12:24 17.11.2020
5396 Clouds -4 1007 38 10000 2.6 160 11:42 17.11.2020
5397 Clouds -5 1007 45 10000 1 90 10:46 17.11.2020
5398 Clouds -5 1007 45 10000 1 90 10:23 17.11.2020
5399 Clouds -5 1008 49 10000 2.6 70 09:49 17.11.2020
5400 Clouds -6 1008 49 10000 2.6 70 09:24 17.11.2020
5401 Clouds -6 1008 48 10000 3.6 160 08:22 17.11.2020
5402 Clouds -6 1008 48 10000 5.1 60 07:44 17.11.2020
5403 Clouds -6 1009 44 10000 1.5 90 05:21 17.11.2020
5404 Clouds -7 1010 41 10000 1.5 110 03:31 17.11.2020
5405 Clouds -7 1010 48 10000 2.1 90 02:31 17.11.2020
5406 Clouds -7 1011 44 10000 0.5 80 01:23 17.11.2020
5407 Clouds -7 1011 44 10000 1.5 140 00:42 17.11.2020
5408 Clouds -8 1011 48 10000 1.5 140 23:41 16.11.2020
5409 Clouds -8 1011 48 10000 1.5 140 23:22 16.11.2020
5410 Clouds -7 1011 44 10000 1 70 22:37 16.11.2020
5411 Clouds -7 1011 44 10000 1 70 22:18 16.11.2020
5412 Clouds -8 1012 48 10000 1 140 21:43 16.11.2020
5413 Clouds -8 1012 48 10000 1 140 21:23 16.11.2020
5414 Clouds -7 1012 41 10000 3.23 69 20:27 16.11.2020
5415 Clouds -7 1012 41 10000 3.6 50 19:56 16.11.2020
5416 Clouds -7 1012 41 10000 3.6 50 19:32 16.11.2020
5417 Clouds -7 1012 44 10000 1.5 0 18:56 16.11.2020
5418 Clouds -7 1012 44 10000 1.5 0 18:28 16.11.2020
5419 Clouds -7 1012 52 10000 6.2 60 17:42 16.11.2020
5420 Clouds -7 1012 52 10000 6.2 60 17:20 16.11.2020
5421 Clouds -7 1012 52 10000 6.7 60 16:52 16.11.2020
5422 Clouds -7 1012 52 10000 6.7 60 16:27 16.11.2020
5423 Clouds -8 1012 57 10000 6.7 60 15:50 16.11.2020
5424 Clouds -8 1012 57 10000 6.7 60 15:29 16.11.2020
5425 Clouds -8 1012 61 10000 7.2 50 14:53 16.11.2020
5426 Clouds -8 1012 57 10000 8.2 60 13:59 16.11.2020
5427 Clouds -8 1012 57 10000 8.2 60 13:30 16.11.2020
5428 Clouds -8 1012 57 10000 7.7 60 12:33 16.11.2020
5429 Clear -8 1012 57 10000 6.7 60 11:43 16.11.2020
5430 Clear -8 1012 57 10000 6.7 60 11:24 16.11.2020
5431 Clear -8 1012 61 10000 5.7 50 10:46 16.11.2020
5432 Clear -8 1012 61 10000 5.7 50 10:26 16.11.2020
5433 Clear -8 1012 61 10000 7.2 60 09:53 16.11.2020
5434 Clear -8 1012 61 10000 7.2 60 09:35 16.11.2020
5435 Clear -9 1012 66 10000 5.7 50 08:49 16.11.2020
5436 Clear -9 1012 66 10000 5.7 50 08:22 16.11.2020
5437 Clear -9 1012 66 10000 6.7 60 07:34 16.11.2020
5438 Clouds -9 1011 61 10000 5.7 60 06:46 16.11.2020
5439 Clouds -9 1011 61 10000 6.7 60 05:49 16.11.2020
5440 Clouds -9 1011 61 10000 7.2 60 03:58 16.11.2020
5441 Clouds -9 1010 61 10000 6.2 70 01:45 16.11.2020
5442 Clouds -9 1010 61 10000 6.2 70 00:53 16.11.2020
5443 Clear -9 1010 66 10000 7.2 60 23:33 15.11.2020
5444 Clear -9 1010 61 10000 7.2 60 22:58 15.11.2020
5445 Clear -9 1010 61 10000 7.2 60 22:27 15.11.2020
5446 Clear -10 1010 61 10000 6.7 60 22:00 15.11.2020
5447 Clear -10 1010 61 10000 6.7 60 21:37 15.11.2020
5448 Clear -10 1010 61 10000 6.7 60 21:19 15.11.2020
5449 Clear -9 1010 61 10000 7.2 60 20:40 15.11.2020
5450 Clear -9 1009 61 10000 6.2 50 19:59 15.11.2020
5451 Clear -9 1009 61 10000 6.2 50 19:41 15.11.2020
5452 Clear -9 1009 61 10000 6.2 50 19:21 15.11.2020
5453 Clear -9 1009 61 10000 6.2 60 18:45 15.11.2020
5454 Clear -9 1009 61 10000 6.2 60 18:25 15.11.2020
5455 Clear -9 1008 61 10000 6.2 60 17:59 15.11.2020
5456 Clear -9 1008 61 10000 6.2 60 17:40 15.11.2020
5457 Clear -9 1008 61 10000 6.2 60 17:22 15.11.2020
5458 Clear -9 1008 61 10000 6.2 70 16:44 15.11.2020
5459 Clear -9 1008 61 10000 6.2 70 16:19 15.11.2020
5460 Clear -9 1008 61 10000 6.2 60 15:44 15.11.2020
5461 Clear -9 1008 61 10000 6.2 60 15:25 15.11.2020
5462 Clear -10 1008 66 10000 6.2 70 14:54 15.11.2020
5463 Clear -10 1008 66 10000 6.2 70 14:54 15.11.2020
5464 Clear -10 1008 66 10000 6.2 70 14:27 15.11.2020
5465 Clear -10 1008 66 10000 6.2 80 13:53 15.11.2020
5466 Clear -10 1008 66 10000 6.2 80 13:34 15.11.2020
5467 Clear -9 1008 61 10000 6.2 60 12:50 15.11.2020
5468 Clear -9 1008 61 10000 6.2 60 12:20 15.11.2020
5469 Clear -10 1008 61 10000 6.7 70 11:45 15.11.2020
5470 Clear -10 1008 61 10000 6.7 70 11:19 15.11.2020
5471 Clear -9 1007 61 10000 7.2 30 10:53 15.11.2020
5472 Clear -9 1007 61 10000 7.2 30 10:31 15.11.2020
5473 Clear -10 1007 61 10000 6.2 350 09:56 15.11.2020
5474 Clear -10 1007 61 10000 6.2 350 09:37 15.11.2020
5475 Clear -10 1007 61 10000 6.2 350 09:18 15.11.2020
5476 Clear -10 1007 56 10000 5.7 360 08:43 15.11.2020
5477 Clear -10 1007 61 10000 5.1 30 07:47 15.11.2020
5478 Clear -9 1006 61 10000 6.2 350 06:49 15.11.2020
5479 Clear -9 1006 56 10000 6.7 360 04:56 15.11.2020
5480 Clear -8 1006 57 10000 7.7 30 02:27 15.11.2020
5481 Clear -8 1006 52 10000 10.3 10 00:36 15.11.2020
5482 Clear -8 1006 52 10000 10.3 10 00:18 15.11.2020
5483 Clear -8 1006 52 10000 10.8 20 23:27 14.11.2020
5484 Clear -8 1006 52 10000 11.3 20 22:45 14.11.2020
5485 Clear -8 1006 52 10000 11.3 20 22:26 14.11.2020
5486 Clear -16 1008 83 10000 5.32 18 21:39 14.11.2020
5487 Clear -8 1005 57 10000 10.3 10 21:21 14.11.2020
5488 Clear -8 1005 57 10000 10.3 10 21:21 14.11.2020
5489 Clear -8 1005 57 10000 10.3 10 20:48 14.11.2020
5490 Clear -8 1005 57 10000 10.3 10 20:25 14.11.2020
5491 Clear -8 1005 61 10000 10.3 10 19:46 14.11.2020
5492 Clear -8 1005 61 10000 10.3 10 19:27 14.11.2020
5493 Clear -8 1004 67 10000 10.8 10 18:43 14.11.2020
5494 Clear -8 1004 67 10000 10.8 10 18:23 14.11.2020
5495 Clear -8 1004 67 10000 12.3 10 17:47 14.11.2020
5496 Clear -8 1004 67 10000 12.3 10 17:47 14.11.2020
5497 Clear -8 1004 67 10000 12.3 10 17:29 14.11.2020
5498 Clouds -8 1004 61 10000 12.9 10 16:56 14.11.2020
5499 Clouds -8 1004 61 10000 12.9 10 16:36 14.11.2020
5500 Clouds -8 1004 61 10000 12.9 10 16:18 14.11.2020
5501 Clouds -8 1004 57 10000 12.9 10 15:44 14.11.2020
5502 Clouds -8 1004 57 10000 12.9 10 15:18 14.11.2020
5503 Clouds -8 1004 57 10000 10.3 10 14:38 14.11.2020
5504 Clouds -8 1004 57 10000 10.3 10 14:19 14.11.2020
5505 Clouds -8 1004 61 10000 9.3 10 13:40 14.11.2020
5506 Clouds -8 1004 61 10000 9.3 10 13:21 14.11.2020
5507 Clouds -7 1004 67 10000 10.3 20 12:43 14.11.2020
5508 Clouds -7 1004 67 10000 10.3 20 12:23 14.11.2020
5509 Clouds -7 1003 62 10000 9.3 20 11:41 14.11.2020
5510 Clouds -7 1003 62 10000 9.3 20 11:22 14.11.2020
5511 Clear -7 1003 73 10000 8.2 20 10:41 14.11.2020
5512 Clear -7 1003 73 10000 8.2 20 10:23 14.11.2020
5513 Clear -7 1003 79 10000 6.7 350 09:45 14.11.2020
5514 Clear -7 1003 79 10000 6.7 350 09:27 14.11.2020
5515 Clear -6 1002 73 10000 7.7 20 08:48 14.11.2020
5516 Clouds -6 1002 73 10000 7.7 20 08:23 14.11.2020
5517 Clouds -7 1002 85 10000 6.2 350 07:42 14.11.2020
5518 Clouds -7 1002 85 10000 6.2 350 07:21 14.11.2020
5519 Clouds -6 1001 85 10000 5.1 10 06:29 14.11.2020
5520 Clouds -5 1001 79 10000 5.7 350 05:27 14.11.2020
5521 Clouds -5 1000 73 10000 5.7 40 03:40 14.11.2020
5522 Clouds -5 1000 79 10000 4.6 350 00:43 14.11.2020
5523 Clouds -6 1000 92 10000 5.1 350 23:43 13.11.2020
5524 Clouds -6 1000 92 10000 5.1 350 23:21 13.11.2020
5525 Clouds -6 1000 92 10000 5.7 340 22:42 13.11.2020
5526 Clouds -6 1000 92 10000 5.7 340 22:23 13.11.2020
5527 Clouds -5 1000 79 10000 4.6 350 21:51 13.11.2020
5528 Clouds -5 1000 79 10000 4.6 350 21:29 13.11.2020
5529 Rain -5 999 79 10000 4.6 350 20:56 13.11.2020
5530 Rain -5 999 79 10000 4.6 350 20:37 13.11.2020
5531 Rain -5 999 79 10000 4.6 350 20:19 13.11.2020
5532 Clouds -5 999 79 10000 3.6 40 19:45 13.11.2020
5533 Clouds -5 999 79 10000 3.6 40 19:22 13.11.2020
5534 Snow -5 999 85 10000 4.6 340 18:50 13.11.2020
5535 Rain -5 999 79 10000 3.1 360 17:59 13.11.2020
5536 Rain -5 999 79 10000 3.1 360 17:39 13.11.2020
5537 Rain -5 999 79 10000 3.1 360 17:18 13.11.2020
5538 Snow -5 999 79 10000 2.1 360 16:46 13.11.2020
5539 Snow -5 999 79 10000 2.1 360 16:21 13.11.2020
5540 Snow -5 1000 85 10000 1.5 340 15:41 13.11.2020
5541 Snow -5 1000 85 10000 1.5 340 15:23 13.11.2020
5542 Snow -5 1000 79 10000 0.5 60 14:40 13.11.2020
5543 Snow -5 1000 79 10000 0.5 60 14:19 13.11.2020
5544 Clouds -7 1001 95 10000 1.87 17 13:40 13.11.2020
5545 Clouds -5 1000 73 10000 2.1 80 13:21 13.11.2020
5546 Clouds -5 1000 73 10000 2.1 80 13:21 13.11.2020
5547 Clouds -5 1000 73 10000 2.1 80 12:45 13.11.2020
5548 Clouds -5 1000 73 10000 2.1 80 12:24 13.11.2020
5549 Snow -5 999 67 10000 2.1 70 11:48 13.11.2020
5550 Snow -5 999 67 10000 2.1 70 11:24 13.11.2020
5551 Clouds -5 999 67 10000 1.5 30 10:54 13.11.2020
5552 Clouds -5 999 67 10000 1.5 30 10:34 13.11.2020
5553 Clouds -5 999 85 10000 0.5 0 09:56 13.11.2020
5554 Clouds -5 999 85 10000 0.5 0 09:32 13.11.2020
5555 Clouds -5 999 85 10000 0.5 0 09:32 13.11.2020
5556 Snow -5 999 92 8765 0.5 0 08:57 13.11.2020
5557 Snow -5 999 92 1783 0.5 0 08:33 13.11.2020
5558 Snow -5 999 92 1783 0.5 40 07:55 13.11.2020
5559 Snow -5 999 92 1783 0.5 40 07:37 13.11.2020
5560 Snow -5 999 92 505 0.5 40 07:18 13.11.2020
5561 Snow -5 999 100 360 2.6 320 06:42 13.11.2020
5562 Snow -4 999 92 207 3.1 310 05:42 13.11.2020
5563 Snow -4 998 92 274 0.5 0 04:57 13.11.2020
5564 Snow -4 997 79 10000 0.5 120 01:45 13.11.2020
5565 Clouds -4 997 79 10000 1.82 128 00:37 13.11.2020
5566 Clouds -4 997 79 10000 1.27 113 00:18 13.11.2020
5567 Clouds -4 996 73 10000 2.1 50 23:37 12.11.2020
5568 Clouds -4 996 73 10000 2.1 50 23:18 12.11.2020
5569 Clouds -4 996 73 10000 0.5 70 22:42 12.11.2020
5570 Clouds -4 996 73 10000 0.5 70 22:22 12.11.2020
5571 Clouds -4 995 68 10000 3.1 80 21:42 12.11.2020
5572 Clouds -4 995 68 10000 3.1 80 21:24 12.11.2020
5573 Clouds -5 995 79 10000 1.5 0 20:58 12.11.2020
5574 Clouds -5 995 79 10000 1.5 0 20:39 12.11.2020
5575 Clouds -5 995 79 10000 1.5 0 20:19 12.11.2020
5576 Clouds -4 995 73 10000 1 70 19:44 12.11.2020
5577 Clouds -4 995 73 10000 1 70 19:26 12.11.2020
5578 Clouds -5 994 73 10000 0.5 0 18:48 12.11.2020
5579 Clouds -5 994 73 10000 0.5 0 18:23 12.11.2020
5580 Clouds -5 994 73 10000 1 0 17:45 12.11.2020
5581 Clouds -5 994 73 10000 1 0 17:26 12.11.2020
5582 Clouds -5 994 73 10000 1.5 80 16:47 12.11.2020
5583 Clouds -5 994 67 10000 4.6 60 16:27 12.11.2020
5584 Clouds -5 994 67 10000 4.6 60 15:59 12.11.2020
5585 Clouds -5 994 67 10000 4.6 60 15:40 12.11.2020
5586 Clouds -5 994 67 10000 4.6 60 15:20 12.11.2020
5587 Clouds -5 994 67 10000 5.1 60 14:46 12.11.2020
5588 Clouds -5 994 67 10000 5.1 60 14:25 12.11.2020
5589 Clouds -5 994 67 10000 4.6 60 13:49 12.11.2020
5590 Clouds -5 994 67 10000 4.6 60 13:21 12.11.2020
5591 Clouds -6 994 73 10000 1 100 12:59 12.11.2020
5592 Clouds -6 994 73 10000 1 100 12:39 12.11.2020
5593 Clouds -6 994 73 10000 1 100 12:18 12.11.2020
5594 Clouds -6 996 73 10000 3.6 90 11:45 12.11.2020
5595 Clouds -6 996 73 10000 3.6 90 11:26 12.11.2020
5596 Clouds -7 995 79 10000 5.1 60 10:41 12.11.2020
5597 Clouds -7 996 88 10000 2.73 67 10:23 12.11.2020
5598 Clouds -7 996 88 10000 2.73 67 09:46 12.11.2020
5599 Clouds -8 996 89 10000 3.01 75 09:22 12.11.2020
5600 Clouds -8 996 89 10000 3.01 75 08:56 12.11.2020
5601 Clouds -8 996 89 10000 3.01 75 08:37 12.11.2020
5602 Clouds -8 997 89 10000 3.29 76 08:19 12.11.2020
5603 Clouds -8 997 89 10000 3.29 76 07:42 12.11.2020
5604 Clouds -8 997 90 10000 3.59 74 07:19 12.11.2020
5605 Clouds -8 997 90 10000 3.59 74 06:49 12.11.2020
5606 Clouds -8 998 89 10000 2.71 68 05:23 12.11.2020
5607 Clouds -9 999 89 10000 2.75 69 03:21 12.11.2020
5608 Clouds -10 999 90 10000 2.83 63 01:33 12.11.2020
5609 Clouds -10 999 89 10000 2.18 45 23:59 11.11.2020
5610 Clouds -10 1000 89 10000 2.4 38 23:25 11.11.2020
5611 Clouds -10 1000 89 10000 2.4 38 22:58 11.11.2020
5612 Clouds -10 1000 89 10000 2.4 38 22:39 11.11.2020
5613 Clouds -7 1000 79 10000 3.6 60 22:20 11.11.2020
5614 Clouds -7 1000 79 10000 3.6 60 21:43 11.11.2020
5615 Clouds -7 999 79 10000 3.6 60 21:25 11.11.2020
5616 Clouds -7 999 79 10000 3.6 60 21:25 11.11.2020
5617 Clouds -7 999 79 10000 3.6 50 20:59 11.11.2020
5618 Clouds -7 999 79 10000 3.6 50 20:40 11.11.2020
5619 Clouds -7 999 79 10000 3.6 50 20:21 11.11.2020
5620 Clouds -7 999 79 10000 3.1 50 19:49 11.11.2020
5621 Clouds -7 999 79 10000 3.1 50 19:31 11.11.2020
5622 Clouds -7 996 73 10000 3.1 50 18:54 11.11.2020
5623 Clouds -7 996 73 10000 3.1 50 18:33 11.11.2020
5624 Clear -7 996 79 10000 4.1 60 17:43 11.11.2020
5625 Clear -7 996 79 10000 4.1 60 17:23 11.11.2020
5626 Clear -7 995 79 10000 3.6 30 16:55 11.11.2020
5627 Clear -7 995 79 10000 3.6 30 16:34 11.11.2020
5628 Clouds -8 995 85 10000 3.6 60 15:53 11.11.2020
5629 Clouds -8 995 85 10000 3.6 60 15:27 11.11.2020
5630 Clear -11 997 91 10000 3.39 35 15:00 11.11.2020
5631 Clear -11 997 91 10000 3.39 35 14:39 11.11.2020
5632 Clear -11 997 90 10000 3.17 28 14:18 11.11.2020
5633 Clear -11 997 90 10000 3.17 28 13:43 11.11.2020
5634 Clouds -8 994 85 10000 3.1 50 12:55 11.11.2020
5635 Clouds -8 994 85 10000 3.1 50 12:21 11.11.2020
5636 Clouds -11 995 91 10000 2.95 31 11:51 11.11.2020
5637 Clouds -11 995 91 10000 2.95 31 11:33 11.11.2020
5638 Clouds -7 992 85 10000 3.6 70 10:45 11.11.2020
5639 Clouds -11 994 92 10000 3.27 37 10:27 11.11.2020
5640 Clouds -11 994 92 10000 3.27 37 09:55 11.11.2020
5641 Clouds -11 994 92 10000 3.27 37 09:37 11.11.2020
5642 Clouds -11 993 92 10000 3.18 27 09:19 11.11.2020
5643 Clouds -11 993 92 10000 3.18 27 08:43 11.11.2020
5644 Clouds -11 992 93 10000 3.07 21 08:24 11.11.2020
5645 Clouds -11 992 93 10000 3.07 21 07:43 11.11.2020
5646 Clouds -10 990 94 10000 3.43 8 06:31 11.11.2020
5647 Clouds -10 990 94 10000 3.43 8 05:36 11.11.2020
5648 Clouds -10 990 95 5875 3.04 9 01:47 11.11.2020
5649 Clouds -10 989 96 1945 2.67 2 00:57 11.11.2020
5650 Clouds -10 989 96 814 2.42 360 00:24 11.11.2020
5651 Clouds -10 989 96 814 2.42 360 23:38 10.11.2020
5652 Clouds -10 989 96 825 2.28 3 23:20 10.11.2020
5653 Clouds -10 989 96 825 2.28 3 22:45 10.11.2020
5654 Snow -6 987 92 3000 2.1 50 22:26 10.11.2020
5655 Clouds -10 989 96 2438 2.35 9 21:41 10.11.2020
5656 Snow -6 987 85 2500 2.1 50 21:23 10.11.2020
5657 Snow -6 987 85 2500 2.1 50 20:58 10.11.2020
5658 Snow -6 987 85 2500 2.1 50 20:39 10.11.2020
5659 Snow -6 987 85 2500 2.1 50 20:21 10.11.2020
5660 Snow -6 986 85 4000 2.6 70 19:44 10.11.2020
5661 Snow -6 986 85 4000 2.6 70 19:24 10.11.2020
5662 Snow -6 986 85 5000 2.1 60 18:56 10.11.2020
5663 Snow -6 986 85 5000 2.1 60 18:37 10.11.2020
5664 Snow -6 986 85 5000 2.1 60 18:18 10.11.2020
5665 Snow -6 985 92 8000 1.53 118 17:42 10.11.2020
5666 Snow -6 985 92 8000 1.43 130 17:24 10.11.2020
5667 Snow -6 986 85 5000 0.5 240 16:42 10.11.2020
5668 Snow -6 986 85 5000 0.5 240 16:23 10.11.2020
5669 Snow -6 986 85 8000 2.6 70 15:55 10.11.2020
5670 Clouds -7 988 96 4273 0.9 145 15:37 10.11.2020
5671 Snow -6 986 85 5000 2.1 60 15:18 10.11.2020
5672 Snow -6 986 85 5000 2.1 60 14:40 10.11.2020
5673 Snow -6 986 85 5000 2.1 60 14:19 10.11.2020
5674 Clouds -8 988 96 6396 0.96 141 13:40 10.11.2020
5675 Snow -6 986 79 5000 1.5 70 13:21 10.11.2020
5676 Snow -6 986 79 5000 1.5 70 12:56 10.11.2020
5677 Snow -6 986 73 10000 2.1 80 12:37 10.11.2020
5678 Snow -6 986 73 10000 2.1 80 12:18 10.11.2020
5679 Clouds -10 988 95 1476 2.1 76 11:36 10.11.2020
5680 Clouds -10 989 95 926 2.16 56 11:18 10.11.2020
5681 Clouds -10 989 95 926 2.16 56 10:42 10.11.2020
5682 Clouds -11 989 94 972 2.24 32 10:22 10.11.2020
5683 Clouds -11 989 94 972 2.24 32 09:47 10.11.2020
5684 Clouds -10 989 91 2056 2.18 19 09:26 10.11.2020
5685 Clouds -10 989 91 2056 2.18 19 08:57 10.11.2020
5686 Clouds -10 988 89 10000 1.98 36 08:30 10.11.2020
5687 Clouds -10 988 89 10000 1.98 36 07:47 10.11.2020
5688 Clouds -11 988 88 10000 2.16 46 07:26 10.11.2020
5689 Clouds -10 989 87 10000 1.85 51 06:47 10.11.2020
5690 Clouds -10 989 87 10000 2.25 49 06:23 10.11.2020
5691 Clouds -11 989 87 10000 2.61 45 05:27 10.11.2020
5692 Clouds -11 989 87 10000 2.74 34 02:57 10.11.2020
5693 Clouds -11 990 86 10000 2.71 33 01:38 10.11.2020
5694 Clouds -11 990 86 10000 3.27 37 00:24 10.11.2020
5695 Clouds -11 990 86 10000 3.27 37 23:41 09.11.2020
5696 Clouds -11 990 87 10000 3.44 35 22:57 09.11.2020
5697 Clouds -11 990 87 10000 3.44 35 22:38 09.11.2020
5698 Clouds -6 989 62 10000 5.7 40 22:19 09.11.2020
5699 Clouds -6 989 62 10000 5.7 40 21:39 09.11.2020
5700 Clouds -6 989 62 10000 5.7 40 21:20 09.11.2020
5701 Clouds -6 989 57 10000 6.7 50 20:41 09.11.2020
5702 Clouds -6 989 57 10000 6.7 50 20:21 09.11.2020
5703 Clouds -6 989 57 10000 7.7 30 19:43 09.11.2020
5704 Clouds -7 989 57 10000 9.8 30 19:23 09.11.2020
5705 Clouds -7 989 57 10000 9.8 30 18:56 09.11.2020
5706 Clouds -7 989 57 10000 9.8 30 18:56 09.11.2020
5707 Clouds -7 989 57 10000 9.8 30 18:37 09.11.2020
5708 Clouds -7 989 57 10000 9.8 30 18:18 09.11.2020
5709 Clouds -6 988 57 10000 8.7 30 17:42 09.11.2020
5710 Clouds -7 989 62 10000 8.7 40 17:24 09.11.2020
5711 Clouds -7 989 62 10000 8.7 40 16:41 09.11.2020
5712 Clouds -7 989 62 10000 8.7 40 16:20 09.11.2020
5713 Clouds -7 989 62 10000 8.2 40 15:44 09.11.2020
5714 Clouds -7 990 62 10000 9.3 30 15:25 09.11.2020
5715 Clouds -7 990 62 10000 9.3 30 14:46 09.11.2020
5716 Clouds -7 990 62 10000 9.3 30 14:28 09.11.2020
5717 Clouds -7 990 67 10000 8.7 30 13:52 09.11.2020
5718 Clouds -7 990 67 10000 8.7 30 13:25 09.11.2020
5719 Snow -8 991 85 6000 7.7 30 12:57 09.11.2020
5720 Snow -8 991 85 6000 7.7 30 12:39 09.11.2020
5721 Snow -8 991 85 6000 7.7 30 12:20 09.11.2020
5722 Snow -8 991 78 10000 7.7 30 11:42 09.11.2020
5723 Snow -8 991 78 10000 7.7 30 11:24 09.11.2020
5724 Snow -8 991 78 10000 7.7 30 11:24 09.11.2020
5725 Clouds -8 991 78 10000 8.2 30 10:43 09.11.2020
5726 Clouds -8 991 78 3592 8.2 30 10:25 09.11.2020
5727 Clouds -8 991 85 3592 8.2 30 09:52 09.11.2020
5728 Clouds -8 991 85 10000 8.2 30 09:28 09.11.2020
5729 Clouds -8 991 78 10000 8.7 20 08:49 09.11.2020
5730 Clouds -8 991 78 10000 8.7 20 08:27 09.11.2020
5731 Snow -8 991 85 10000 9.3 20 07:43 09.11.2020
5732 Snow -8 991 85 10000 9.3 20 07:22 09.11.2020
5733 Snow -8 991 85 10000 9.8 20 06:48 09.11.2020
5734 Clouds -9 993 61 10000 7.7 50 03:51 09.11.2020
5735 Clouds -9 994 61 10000 9.3 40 01:56 09.11.2020
5736 Clouds -9 994 61 10000 9.3 40 01:38 09.11.2020
5737 Clouds -9 995 56 10000 8.7 40 00:35 09.11.2020
5738 Clouds -9 995 56 10000 9.3 30 23:40 08.11.2020
5739 Clouds -9 995 56 10000 9.3 30 23:22 08.11.2020
5740 Snow -8 996 52 10000 11.3 30 22:42 08.11.2020
5741 Snow -8 996 52 10000 11.3 30 22:21 08.11.2020
5742 Clouds -8 996 57 10000 10.8 30 21:45 08.11.2020
5743 Clouds -8 996 57 10000 10.8 30 21:21 08.11.2020
5744 Clouds -8 997 61 10000 10.8 30 20:57 08.11.2020
5745 Clouds -8 997 61 10000 10.8 30 20:38 08.11.2020
5746 Clouds -8 997 61 10000 10.8 30 20:19 08.11.2020
5747 Clouds -8 997 57 10000 11.3 30 19:45 08.11.2020
5748 Clouds -8 997 57 10000 11.3 30 19:21 08.11.2020
5749 Clouds -8 998 57 10000 11.8 30 18:56 08.11.2020
5750 Clouds -8 998 57 10000 11.8 30 18:38 08.11.2020
5751 Clouds -8 998 57 10000 11.8 30 18:20 08.11.2020
5752 Snow -8 998 57 10000 12.3 20 17:42 08.11.2020
5753 Snow -8 998 57 10000 12.3 20 17:20 08.11.2020
5754 Snow -8 999 57 10000 13.4 20 16:57 08.11.2020
5755 Mist -8 999 57 10000 13.4 20 16:38 08.11.2020
5756 Snow -8 999 57 10000 13.4 20 16:19 08.11.2020
5757 Snow -8 1000 61 10000 12.9 20 15:45 08.11.2020
5758 Snow -8 1000 61 10000 12.9 20 15:26 08.11.2020
5759 Clouds -8 1001 67 10000 11.62 30 14:43 08.11.2020
5760 Snow -8 1001 57 10000 10.8 360 14:23 08.11.2020
5761 Snow -7 1001 57 10000 10.8 360 13:56 08.11.2020
5762 Snow -7 1001 57 10000 10.8 360 13:26 08.11.2020
5763 Clouds -8 1001 67 10000 11.8 350 12:57 08.11.2020
5764 Clouds -8 1001 67 10000 11.8 350 12:39 08.11.2020
5765 Clear -8 1001 67 10000 11.8 350 12:19 08.11.2020
5766 Snow -7 1002 67 10000 11.8 10 11:55 08.11.2020
5767 Snow -7 1002 67 10000 11.8 10 11:36 08.11.2020
5768 Snow -7 1002 67 10000 11.8 10 11:18 08.11.2020
5769 Clear -7 1002 73 10000 10.3 350 10:41 08.11.2020
5770 Clear -7 1002 73 10000 10.3 350 10:18 08.11.2020
5771 Clear -7 1002 79 10000 8.7 350 09:41 08.11.2020
5772 Clear -7 1003 73 10000 7.2 350 09:19 08.11.2020
5773 Clear -7 1003 73 10000 7.2 350 08:44 08.11.2020
5774 Clear -7 1003 73 10000 7.2 350 08:22 08.11.2020
5775 Clear -7 1004 73 10000 5.7 360 07:53 08.11.2020
5776 Clear -7 1004 73 10000 5.7 360 07:31 08.11.2020
5777 Clouds -7 1004 73 6917 7.2 350 06:29 08.11.2020
5778 Clouds -7 1004 79 6917 6.7 360 05:54 08.11.2020
5779 Clouds -6 1005 73 9925 6.7 350 04:51 08.11.2020
5780 Clouds -6 1005 73 3062 6.7 350 03:25 08.11.2020
5781 Snow -6 1005 79 1274 5.7 10 01:19 08.11.2020
5782 Snow -6 1005 79 1274 5.7 10 01:19 08.11.2020
5783 Snow -6 1005 79 1274 5.7 10 01:19 08.11.2020
5784 Clouds -6 1005 92 10000 6.2 350 00:31 08.11.2020
5785 Snow -6 1004 92 10000 6.2 350 23:57 07.11.2020
5786 Snow -6 1004 92 10000 6.2 350 23:38 07.11.2020
5787 Snow -6 1004 92 10000 6.2 350 23:19 07.11.2020
5788 Snow -6 1003 100 2000 7.7 330 22:40 07.11.2020
5789 Snow -6 1003 100 2000 7.7 330 22:20 07.11.2020
5790 Clouds -5 1002 79 10000 3.1 350 21:43 07.11.2020
5791 Clouds -5 1002 79 10000 3.1 350 21:19 07.11.2020
5792 Rain -5 1001 92 10000 2.1 310 20:47 07.11.2020
5793 Rain -5 1001 92 10000 2.1 310 20:29 07.11.2020
5794 Rain -4 1000 79 10000 1 160 19:50 07.11.2020
5795 Rain -4 1000 79 10000 1 160 19:28 07.11.2020
5796 Clouds -4 1000 79 10000 4.1 300 18:55 07.11.2020
5797 Clouds -4 1000 79 3032 4.02 300 18:37 07.11.2020
5798 Clouds -4 998 68 10000 1.5 200 18:18 07.11.2020
5799 Clouds -4 998 68 10000 1.5 200 17:38 07.11.2020
5800 Clouds -3 997 58 10000 3.6 140 16:58 07.11.2020
5801 Clouds -3 997 58 10000 3.6 140 16:40 07.11.2020
5802 Clouds -3 997 58 10000 3.6 140 16:21 07.11.2020
5803 Clouds -5 996 67 10000 3.1 210 15:43 07.11.2020
5804 Clouds -5 996 67 10000 3.1 210 15:23 07.11.2020
5805 Clouds -5 996 67 10000 2.6 210 14:48 07.11.2020
5806 Clouds -5 996 67 10000 2.6 210 14:29 07.11.2020
5807 Clouds -5 995 73 10000 2.1 240 13:56 07.11.2020
5808 Clouds -5 995 73 10000 2.1 240 13:31 07.11.2020
5809 Snow -4 994 92 10000 3.1 220 12:58 07.11.2020
5810 Snow -4 994 92 10000 3.1 220 12:30 07.11.2020
5811 Clouds -4 993 73 10000 2.6 160 11:45 07.11.2020
5812 Clouds -4 993 73 10000 2.6 160 11:24 07.11.2020
5813 Clouds -5 992 79 10000 2.1 160 10:46 07.11.2020
5814 Snow -5 992 79 3660 2.1 160 10:28 07.11.2020
5815 Snow -5 992 92 3660 3.1 90 09:58 07.11.2020
5816 Snow -5 992 92 3660 3.1 90 09:37 07.11.2020
5817 Snow -5 990 100 701 2.6 270 08:58 07.11.2020
5818 Snow -5 990 100 701 2.6 270 08:37 07.11.2020
5819 Snow -5 990 100 541 2.6 270 08:18 07.11.2020
5820 Snow -5 989 100 541 2.1 360 07:37 07.11.2020
5821 Snow -5 987 92 147 3.6 10 06:48 07.11.2020
5822 Snow -5 986 100 10000 3.1 10 05:37 07.11.2020
5823 Clouds -4 985 100 2253 1 0 03:25 07.11.2020
5824 Snow -4 984 92 6155 6.2 40 01:45 07.11.2020
5825 Snow -4 984 92 404 6.2 40 01:25 07.11.2020
5826 Snow -4 985 85 128 4.6 50 00:28 07.11.2020
5827 Snow -6 984 92 128 7.2 50 23:32 06.11.2020
5828 Snow -6 985 92 1144 8.49 60 22:46 06.11.2020
5829 Snow -6 986 92 3500 8.7 60 22:20 06.11.2020
5830 Snow -6 986 92 3500 8.7 60 21:59 06.11.2020
5831 Snow -6 986 92 3500 8.7 60 21:40 06.11.2020
5832 Snow -6 986 92 3500 8.7 60 21:18 06.11.2020
5833 Snow -5 986 73 5000 8.7 70 20:43 06.11.2020
5834 Clouds -5 986 67 10000 9.8 60 20:20 06.11.2020
5835 Rain -6 987 67 10000 9.8 60 19:45 06.11.2020
5836 Rain -6 987 67 10000 9.8 60 19:27 06.11.2020
5837 Rain -6 989 67 10000 9.8 70 18:47 06.11.2020
5838 Rain -6 989 67 10000 9.8 70 18:28 06.11.2020
5839 Clouds -6 991 62 10000 9.3 70 17:53 06.11.2020
5840 Clouds -6 991 62 10000 9.3 70 17:35 06.11.2020
5841 Snow -6 993 57 10000 7.2 80 16:59 06.11.2020
5842 Snow -6 993 57 10000 7.2 80 16:39 06.11.2020
5843 Snow -6 993 57 10000 7.2 80 16:20 06.11.2020
5844 Clouds -6 994 62 10000 7.7 70 15:41 06.11.2020
5845 Clouds -6 994 62 10000 7.7 70 15:22 06.11.2020
5846 Clouds -6 996 53 10000 4.6 60 14:41 06.11.2020
5847 Clouds -6 996 53 10000 4.6 60 14:18 06.11.2020
5848 Clouds -6 998 48 10000 4.6 90 13:42 06.11.2020
5849 Clouds -6 998 48 10000 4.6 90 13:20 06.11.2020
5850 Clouds -6 999 48 10000 4.6 100 12:43 06.11.2020
5851 Clouds -6 999 48 10000 4.6 100 12:23 06.11.2020
5852 Clouds -6 1000 57 10000 5.7 90 11:39 06.11.2020
5853 Clouds -6 1000 57 10000 5.7 90 11:20 06.11.2020
5854 Clouds -7 1002 62 10000 4.6 100 10:36 06.11.2020
5855 Clouds -7 1002 62 10000 4.6 100 10:18 06.11.2020
5856 Clouds -6 1003 57 10000 5.1 90 09:44 06.11.2020
5857 Clouds -6 1003 57 10000 5.1 90 09:21 06.11.2020
5858 Clouds -7 1004 57 10000 5.1 90 08:48 06.11.2020
5859 Clouds -7 1004 57 10000 5.1 90 08:28 06.11.2020
5860 Clouds -7 1005 62 10000 4.1 90 07:46 06.11.2020
5861 Clouds -7 1005 62 10000 4.1 90 07:21 06.11.2020
5862 Clouds -7 1006 57 10000 4.6 100 06:48 06.11.2020
5863 Clouds -7 1006 67 10000 4.1 80 05:42 06.11.2020
5864 Clouds -7 1007 57 10000 0.5 0 02:53 06.11.2020
5865 Rain -6 1007 67 10000 4.1 320 00:43 06.11.2020
5866 Rain -6 1007 67 10000 4.1 320 00:18 06.11.2020
5867 Rain -6 1007 67 10000 5.1 340 23:29 05.11.2020
5868 Rain -6 1007 73 10000 7.7 320 22:57 05.11.2020
5869 Rain -6 1007 73 10000 7.7 320 22:36 05.11.2020
5870 Rain -6 1007 73 10000 7.7 320 22:18 05.11.2020
5871 Rain -5 1006 62 10000 6.2 340 21:42 05.11.2020
5872 Rain -5 1006 62 10000 6.2 340 21:21 05.11.2020
5873 Rain -5 1006 73 10000 8.2 330 20:45 05.11.2020
5874 Rain -5 1006 73 10000 8.2 330 20:26 05.11.2020
5875 Snow -5 1005 85 10000 7.2 350 19:58 05.11.2020
5876 Snow -5 1005 85 10000 7.2 350 19:40 05.11.2020
5877 Snow -5 1005 85 10000 7.2 350 19:22 05.11.2020
5878 Snow -5 1004 92 10000 2.1 340 18:42 05.11.2020
5879 Snow -5 1004 92 10000 2.1 340 18:24 05.11.2020
5880 Snow -6 1004 92 1400 0.5 350 17:52 05.11.2020
5881 Snow -6 1004 92 1400 0.5 350 17:27 05.11.2020
5882 Rain -3 1002 53 10000 2.72 354 16:53 05.11.2020
5883 Rain -3 1002 53 10000 2.64 331 16:29 05.11.2020
5884 Clouds -5 1001 62 10000 2.6 350 15:59 05.11.2020
5885 Clouds -5 1001 62 10000 2.6 350 15:40 05.11.2020
5886 Clouds -5 1001 62 10000 2.6 350 15:21 05.11.2020
5887 Clouds -4 1001 58 10000 3.6 320 14:44 05.11.2020
5888 Clouds -4 1001 58 10000 3.6 320 14:24 05.11.2020
5889 Rain -5 1001 67 10000 2.6 320 13:42 05.11.2020
5890 Rain -5 1001 67 10000 2.6 320 13:23 05.11.2020
5891 Rain -5 1000 62 10000 3.1 320 12:48 05.11.2020
5892 Rain -5 1000 62 10000 3.1 320 12:24 05.11.2020
5893 Clouds -5 1000 73 10000 4.1 320 11:49 05.11.2020
5894 Clouds -5 1000 73 10000 4.1 320 11:26 05.11.2020
5895 Clouds -5 1000 73 10000 3.6 320 10:53 05.11.2020
5896 Clouds -5 1000 73 10000 3.6 320 10:32 05.11.2020
5897 Clouds -5 1000 73 10000 3.6 320 09:58 05.11.2020
5898 Clouds -5 1000 73 10000 3.6 320 09:38 05.11.2020
5899 Clouds -5 1000 73 4174 3.6 320 09:20 05.11.2020
5900 Clouds -4 1000 68 4174 3.1 320 08:43 05.11.2020
5901 Clouds -4 1000 68 1585 3.1 320 08:24 05.11.2020
5902 Clouds -4 1000 73 1267 3.1 320 07:29 05.11.2020
5903 Snow -4 1000 79 868 3.1 310 06:52 05.11.2020
5904 Snow -4 1000 79 868 3.1 310 06:34 05.11.2020
5905 Snow -4 1001 100 323 2.1 310 04:19 05.11.2020
5906 Clouds -4 1002 92 10000 2.6 100 01:23 05.11.2020
5907 Clouds -4 1003 92 10000 3.1 100 00:30 05.11.2020
5908 Clouds -4 1004 100 10000 2.1 120 23:44 04.11.2020
5909 Clouds -4 1004 100 10000 2.1 120 23:25 04.11.2020
5910 Clouds -2 1004 92 10000 1 0 22:48 04.11.2020
5911 Clouds -2 1004 92 10000 1 0 22:24 04.11.2020
5912 Clouds -3 1003 100 10000 2.1 140 21:56 04.11.2020
5913 Clouds -3 1003 100 10000 2.1 140 21:36 04.11.2020
5914 Clouds -3 1003 100 10000 2.1 140 21:18 04.11.2020
5915 Rain -3 1002 100 10000 2.6 300 20:41 04.11.2020
5916 Rain -3 1002 100 10000 2.6 300 20:23 04.11.2020
5917 Snow -2 999 92 1200 10.3 190 19:44 04.11.2020
5918 Snow -2 999 92 1200 10.3 190 19:44 04.11.2020
5919 Snow -2 999 92 1200 10.3 190 19:26 04.11.2020
5920 Snow -2 999 100 700 11.3 200 18:44 04.11.2020
5921 Snow -2 999 100 700 11.3 200 18:25 04.11.2020
5922 Snow -2 999 100 700 11.3 200 18:25 04.11.2020
5923 Snow -1 998 92 2800 13.9 190 17:57 04.11.2020
5924 Snow -1 998 92 2800 13.9 190 17:38 04.11.2020
5925 Snow -1 998 92 2800 13.9 190 17:19 04.11.2020
5926 Snow -2 995 92 500 13.4 170 16:38 04.11.2020
5927 Snow -2 995 92 500 13.4 170 16:20 04.11.2020
5928 Snow -2 993 86 1000 20.1 170 15:46 04.11.2020
5929 Snow -2 993 86 1000 20.1 170 15:24 04.11.2020
5930 Rain -1 992 74 10000 18.5 170 14:48 04.11.2020
5931 Rain -1 992 74 10000 18.5 170 14:27 04.11.2020
5932 Rain 0 991 98 10000 19.5 160 13:57 04.11.2020
5933 Rain 0 991 98 10000 19.5 160 13:39 04.11.2020
5934 Rain 0 991 94 10000 19.5 160 13:19 04.11.2020
5935 Rain 0 990 92 10000 19.5 160 12:48 04.11.2020
5936 Rain 0 990 92 10000 19.5 160 12:25 04.11.2020
5937 Rain 1 989 64 10000 17.5 170 11:56 04.11.2020
5938 Rain 1 989 64 10000 17.5 170 11:56 04.11.2020
5939 Rain 1 989 64 10000 17.5 170 11:36 04.11.2020
5940 Rain 1 989 64 10000 17.5 170 11:18 04.11.2020
5941 Rain 1 989 64 10000 17.5 170 11:18 04.11.2020
5942 Snow 0 987 91 10000 20.1 170 10:41 04.11.2020
5943 Snow 0 987 91 10000 20.1 170 10:22 04.11.2020
5944 Clouds 0 986 91 10000 19 170 09:47 04.11.2020
5945 Clouds 0 986 91 10000 19 170 09:22 04.11.2020
5946 Clouds 1 985 69 10000 17.5 170 08:44 04.11.2020
5947 Clouds 1 985 69 10000 17.5 170 08:19 04.11.2020
5948 Snow 1 984 80 10000 13.4 170 07:48 04.11.2020
5949 Snow 1 984 80 10000 13.4 170 07:27 04.11.2020
5950 Clouds 1 983 69 10000 17.5 180 06:42 04.11.2020
5951 Clouds 1 983 69 10000 17.5 180 06:18 04.11.2020
5952 Rain 1 977 74 10000 19 170 02:32 04.11.2020
5953 Snow 1 975 74 10000 22.1 180 01:42 04.11.2020
5954 Clouds 2 973 74 8757 23.1 170 00:41 04.11.2020
5955 Snow 1 971 93 3123 25.7 170 23:40 03.11.2020
5956 Snow 1 971 94 508 25.7 170 23:20 03.11.2020
5957 Snow 2 969 93 508 24.2 160 22:41 03.11.2020
5958 Snow 2 969 93 4581 24.2 160 22:20 03.11.2020
5959 Snow 2 966 93 4581 26.7 160 21:56 03.11.2020
5960 Snow 2 966 93 4581 26.7 160 21:37 03.11.2020
5961 Snow 2 966 93 10000 26.7 160 21:18 03.11.2020
5962 Clouds 3 960 93 10000 26.2 160 20:42 03.11.2020
5963 Clouds 3 960 93 10000 26.2 160 20:22 03.11.2020
5964 Snow 3 957 93 10000 26.2 160 19:43 03.11.2020
5965 Snow 3 958 86 9680 24.7 160 19:20 03.11.2020
5966 Snow 4 958 86 9680 24.7 160 18:44 03.11.2020
5967 Snow 4 958 86 10000 24.7 160 18:20 03.11.2020
5968 Snow 5 958 75 10000 21.6 160 17:56 03.11.2020
5969 Snow 5 958 75 10000 21.6 160 17:37 03.11.2020
5970 Snow 5 958 75 10000 21.6 160 17:37 03.11.2020
5971 Snow 5 958 75 10000 21.6 160 17:18 03.11.2020
5972 Rain 3 960 81 10000 21 162 16:43 03.11.2020
5973 Clouds 7 960 52 10000 19 160 16:21 03.11.2020
5974 Clouds 8 960 52 10000 19 160 15:41 03.11.2020
5975 Rain 8 960 52 10000 19 160 15:23 03.11.2020
5976 Rain 9 961 49 10000 20.1 160 14:46 03.11.2020
5977 Rain 9 961 49 9220 20.1 160 14:27 03.11.2020
5978 Snow 9 963 66 9220 8.7 0 13:46 03.11.2020
5979 Snow 6 963 66 10000 8.7 0 13:23 03.11.2020
5980 Snow 3 964 100 10000 6.2 60 12:56 03.11.2020
5981 Snow 3 964 100 10000 6.2 60 12:36 03.11.2020
5982 Snow 3 964 100 10000 6.2 60 12:18 03.11.2020
5983 Snow 2 967 100 10000 5.7 50 11:41 03.11.2020
5984 Snow 2 967 100 7067 5.7 50 11:20 03.11.2020
5985 Snow 1 970 100 7067 10.8 70 10:39 03.11.2020
5986 Snow 1 970 100 2526 10.8 70 10:21 03.11.2020
5987 Snow 0 975 95 2526 13.9 70 09:51 03.11.2020
5988 Snow -1 975 95 2526 13.9 70 09:33 03.11.2020
5989 Snow -1 980 92 2343 12.9 70 08:56 03.11.2020
5990 Snow -1 980 92 2343 12.9 70 08:35 03.11.2020
5991 Snow 0 984 94 2859 10.8 60 07:49 03.11.2020
5992 Snow 0 984 94 942 10.8 60 07:27 03.11.2020
5993 Clouds -1 987 63 4671 11.3 60 06:49 03.11.2020
5994 Snow -1 990 50 3165 10.8 70 05:38 03.11.2020
5995 Snow -3 996 58 10000 7.7 80 03:20 03.11.2020
5996 Clouds -5 998 53 10000 8.7 70 00:42 03.11.2020
5997 Clouds -5 999 53 10000 8.2 60 23:54 02.11.2020
5998 Clouds -5 999 53 10000 8.2 60 23:36 02.11.2020
5999 Clouds -5 1000 53 10000 7.7 80 22:56 02.11.2020
6000 Clouds -5 1000 53 10000 7.7 80 22:36 02.11.2020
6001 Clouds -5 1000 53 10000 7.2 90 21:59 02.11.2020
6002 Clouds -5 1000 53 10000 7.2 90 21:38 02.11.2020
6003 Clouds -5 1000 53 10000 7.2 90 21:19 02.11.2020
6004 Clouds -4 1001 49 10000 4.1 100 20:41 02.11.2020
6005 Clouds -4 1001 49 10000 4.1 100 20:20 02.11.2020
6006 Clouds -4 1001 53 10000 4.1 90 19:49 02.11.2020
6007 Clouds -4 1001 53 10000 4.1 90 19:27 02.11.2020
6008 Clouds -4 1001 53 10000 3.6 60 18:57 02.11.2020
6009 Clouds -4 1001 53 10000 3.6 60 18:39 02.11.2020
6010 Clouds -4 1001 53 10000 3.6 60 18:20 02.11.2020
6011 Clouds -4 1002 58 10000 4.6 40 17:43 02.11.2020
6012 Clouds -4 1002 58 10000 4.6 40 17:25 02.11.2020
6013 Clouds -4 1002 58 10000 1 0 16:56 02.11.2020
6014 Clouds -4 1002 58 10000 1 0 16:37 02.11.2020
6015 Clouds -4 1002 58 10000 1 0 16:18 02.11.2020
6016 Clouds -5 1002 67 10000 4.1 60 15:39 02.11.2020
6017 Clouds -5 1002 67 10000 4.1 60 15:20 02.11.2020
6018 Clouds -5 1002 67 10000 4.1 60 15:20 02.11.2020
6019 Clouds -5 1001 67 10000 3.6 70 14:51 02.11.2020
6020 Clouds -5 1001 67 10000 3.6 70 14:19 02.11.2020
6021 Clouds -6 1002 73 10000 6.2 70 13:51 02.11.2020
6022 Clouds -6 1002 73 10000 6.2 70 13:23 02.11.2020
6023 Clouds -6 1001 79 10000 8.2 60 12:54 02.11.2020
6024 Clouds -6 1001 79 10000 8.2 60 12:29 02.11.2020
6025 Clouds -6 1002 85 10000 7.2 60 11:56 02.11.2020
6026 Clouds -6 1002 85 10000 7.2 60 11:37 02.11.2020
6027 Clouds -6 1002 85 10000 7.2 60 11:18 02.11.2020
6028 Clear -6 1002 85 10000 5.7 70 10:39 02.11.2020
6029 Clear -6 1002 85 10000 5.7 70 10:18 02.11.2020
6030 Clear -5 1002 85 10000 6.2 50 09:43 02.11.2020
6031 Clouds -5 1002 85 10000 6.2 50 09:23 02.11.2020
6032 Clouds -5 1002 85 10000 5.1 60 08:40 02.11.2020
6033 Clear -5 1002 85 10000 5.1 60 08:20 02.11.2020
6034 Clear -5 1002 85 10000 4.1 70 07:49 02.11.2020
6035 Clear -4 1002 85 10000 3.6 40 06:48 02.11.2020
6036 Clear -4 1002 85 10000 3.6 40 06:23 02.11.2020
6037 Snow -4 1001 92 10000 2.6 60 01:40 02.11.2020
6038 Snow -4 1000 92 10000 3.1 60 00:44 02.11.2020
6039 Snow -4 1000 92 10000 3.1 60 00:25 02.11.2020
6040 Clouds -6 1003 95 10000 1.42 66 23:41 01.11.2020
6041 Snow -5 999 92 5000 3.1 50 23:23 01.11.2020
6042 Snow -5 999 92 5000 3.1 50 22:45 01.11.2020
6043 Snow -5 999 92 5000 3.1 50 22:25 01.11.2020
6044 Rain -4 998 85 10000 3.1 50 21:46 01.11.2020
6045 Rain -4 998 85 10000 3.1 50 21:28 01.11.2020
6046 Rain -4 998 79 10000 2.6 40 20:59 01.11.2020
6047 Rain -4 998 79 10000 2.6 40 20:40 01.11.2020
6048 Rain -4 998 79 10000 2.6 40 20:20 01.11.2020
6049 Clouds -4 997 79 9540 1 110 19:41 01.11.2020
6050 Clouds -4 997 79 1325 1 110 19:22 01.11.2020
6051 Snow -4 997 73 1821 1 90 18:42 01.11.2020
6052 Snow -4 997 73 1821 1 90 18:42 01.11.2020
6053 Snow -4 997 73 1645 1 90 18:20 01.11.2020
6054 Snow -4 997 73 1645 1 90 18:20 01.11.2020
6055 Rain -4 996 73 10000 1 100 17:58 01.11.2020
6056 Rain -4 996 73 10000 1 100 17:40 01.11.2020
6057 Rain -4 996 73 10000 1 100 17:21 01.11.2020
6058 Rain -4 996 73 10000 1 100 17:21 01.11.2020
6059 Fog -5 996 73 10000 1.5 110 16:40 01.11.2020
6060 Fog -5 996 73 10000 1.5 110 16:19 01.11.2020
6061 Clouds -5 995 73 10000 2.1 110 15:41 01.11.2020
6062 Clouds -5 995 73 10000 2.1 110 15:22 01.11.2020
6063 Snow -6 995 79 1431 2.1 40 14:59 01.11.2020
6064 Snow -6 995 79 1431 2.1 40 14:41 01.11.2020
6065 Snow -6 995 79 1019 2.1 40 14:21 01.11.2020
6066 Snow -6 995 85 1019 2.6 40 13:49 01.11.2020
6067 Snow -6 995 85 1019 2.6 40 13:31 01.11.2020
6068 Snow -6 994 85 715 3.1 60 12:44 01.11.2020
6069 Snow -6 994 85 1381 3.1 60 12:24 01.11.2020
6070 Snow -6 993 85 1381 3.1 60 11:53 01.11.2020
6071 Clouds -6 993 85 6110 3.1 60 11:19 01.11.2020
6072 Clouds -6 993 92 6110 4.1 60 10:59 01.11.2020
6073 Clouds -6 993 92 6110 4.1 60 10:40 01.11.2020
6074 Clouds -6 993 92 10000 4.1 60 10:21 01.11.2020
6075 Clouds -6 992 85 10000 3.6 60 09:46 01.11.2020
6076 Snow -5 992 92 10000 4.6 60 08:49 01.11.2020
6077 Snow -5 992 92 10000 4.6 60 08:24 01.11.2020
6078 Snow -5 992 92 10000 4.6 60 08:24 01.11.2020
6079 Snow -5 991 92 10000 4.6 50 07:45 01.11.2020
6080 Snow -5 990 85 149 6.2 70 05:30 01.11.2020
6081 Snow -5 989 85 381 3.6 50 01:52 01.11.2020
6082 Snow -5 989 85 1505 3.1 50 00:53 01.11.2020
6083 Snow -5 989 85 8062 1.5 40 23:39 31.10.2020
6084 Snow -5 989 85 10000 1.5 40 23:18 31.10.2020
6085 Snow -5 989 79 10000 1.5 60 22:43 31.10.2020
6086 Snow -5 989 79 10000 1.5 60 22:23 31.10.2020
6087 Snow -5 989 79 4500 1.72 137 21:46 31.10.2020
6088 Snow -5 989 79 4500 1.58 134 21:20 31.10.2020
6089 Clouds -6 990 90 10000 1.58 134 20:39 31.10.2020
6090 Clouds -5 989 73 10000 1 0 20:19 31.10.2020
6091 Clouds -5 989 73 10000 1 0 19:43 31.10.2020
6092 Clouds -5 989 73 10000 1 0 19:24 31.10.2020
6093 Clouds -5 988 62 10000 3.1 70 18:52 31.10.2020
6094 Clouds -5 988 62 10000 3.1 70 18:34 31.10.2020
6095 Clouds -5 989 57 10000 2.6 90 17:43 31.10.2020
6096 Clouds -5 989 57 10000 2.6 90 17:24 31.10.2020
6097 Clouds -5 989 62 10000 4.1 60 16:55 31.10.2020
6098 Clouds -5 989 62 10000 4.1 60 16:33 31.10.2020
6099 Clouds -6 989 73 10000 2.6 40 15:55 31.10.2020
6100 Clouds -6 989 73 10000 2.6 40 15:26 31.10.2020
6101 Clouds -7 990 73 10000 3.6 60 14:55 31.10.2020
6102 Clouds -7 990 73 10000 3.6 60 14:32 31.10.2020
6103 Clouds -7 990 67 10000 3.1 50 13:55 31.10.2020
6104 Clouds -7 990 67 10000 3.1 50 13:37 31.10.2020
6105 Clouds -7 990 67 10000 3.1 50 13:18 31.10.2020
6106 Clouds -7 991 67 10000 3.6 70 12:27 31.10.2020
6107 Clouds -7 991 67 10000 3.6 60 11:42 31.10.2020
6108 Clouds -7 991 67 10000 3.6 60 11:24 31.10.2020
6109 Clouds -7 991 73 10000 3.6 50 10:53 31.10.2020
6110 Clouds -7 991 73 10000 3.6 50 10:32 31.10.2020
6111 Clouds -6 991 67 10000 4.6 30 09:41 31.10.2020
6112 Clouds -6 991 67 10000 4.6 30 09:20 31.10.2020
6113 Clouds -6 992 73 10000 4.6 20 08:28 31.10.2020
6114 Clouds -6 992 73 10000 3.6 50 07:48 31.10.2020
6115 Clouds -6 992 73 10000 3.6 50 07:26 31.10.2020
6116 Clouds -6 992 79 10000 4.1 60 06:38 31.10.2020
6117 Clouds -6 993 85 10000 4.1 60 03:50 31.10.2020
6118 Clouds -6 993 85 10000 4.6 70 02:51 31.10.2020
6119 Clouds -6 994 85 10000 4.1 60 01:23 31.10.2020
6120 Clouds -5 994 85 10000 4.6 20 00:46 31.10.2020
6121 Clouds -5 994 85 10000 4.1 20 23:49 30.10.2020
6122 Clouds -5 994 85 10000 4.1 20 23:23 30.10.2020
6123 Clouds -4 994 68 10000 3.6 50 22:43 30.10.2020
6124 Clouds -4 994 68 10000 3.6 50 22:24 30.10.2020
6125 Clouds -4 994 73 10000 3.6 40 21:52 30.10.2020
6126 Clouds -4 994 73 10000 3.6 40 21:30 30.10.2020
6127 Clouds -4 994 73 10000 4.1 50 20:59 30.10.2020
6128 Clouds -4 994 73 10000 4.1 50 20:39 30.10.2020
6129 Clouds -4 994 73 10000 4.1 50 20:20 30.10.2020
6130 Clouds -4 994 73 10000 4.1 50 19:44 30.10.2020
6131 Clouds -4 994 73 10000 4.1 50 19:19 30.10.2020
6132 Clouds -3 994 68 10000 4.1 50 18:50 30.10.2020
6133 Clouds -3 994 68 10000 4.1 50 18:28 30.10.2020
6134 Clouds -3 994 63 10000 3.6 50 17:49 30.10.2020
6135 Clouds -3 994 63 10000 3.6 50 17:23 30.10.2020
6136 Clouds -4 994 68 10000 3.6 50 16:57 30.10.2020
6137 Clouds -4 994 68 10000 3.6 50 16:37 30.10.2020
6138 Clouds -4 994 68 10000 3.6 50 16:37 30.10.2020
6139 Clouds -4 994 68 10000 3.6 50 16:18 30.10.2020
6140 Clouds -4 994 68 10000 3.1 40 15:40 30.10.2020
6141 Clouds -4 994 68 10000 3.1 40 15:19 30.10.2020
6142 Clouds -4 994 68 10000 4.1 50 14:44 30.10.2020
6143 Clouds -4 994 68 10000 4.1 50 14:25 30.10.2020
6144 Clouds -5 994 67 10000 4.1 60 13:46 30.10.2020
6145 Clouds -5 994 67 10000 4.1 60 13:21 30.10.2020
6146 Clouds -5 994 73 10000 4.1 60 12:54 30.10.2020
6147 Clouds -5 994 73 10000 4.1 60 12:23 30.10.2020
6148 Clouds -6 994 85 10000 3.1 50 11:56 30.10.2020
6149 Clouds -6 994 85 10000 3.1 50 11:23 30.10.2020
6150 Clouds -5 994 85 10000 3.1 40 10:56 30.10.2020
6151 Clouds -5 994 85 10000 3.1 40 10:37 30.10.2020
6152 Clouds -5 994 85 10000 3.1 40 10:19 30.10.2020
6153 Clouds -6 994 85 10000 4.6 70 09:43 30.10.2020
6154 Clouds -6 994 85 10000 4.6 70 09:20 30.10.2020
6155 Clouds -5 994 79 10000 3.6 40 08:39 30.10.2020
6156 Clouds -5 994 79 10000 3.6 40 08:20 30.10.2020
6157 Clouds -5 994 79 10000 4.1 30 07:47 30.10.2020
6158 Clouds -5 994 79 10000 4.1 30 07:27 30.10.2020
6159 Clouds -5 994 79 10000 3.1 30 06:34 30.10.2020
6160 Clouds -6 994 85 10000 3.6 50 04:28 30.10.2020
6161 Clouds -5 994 67 10000 3.1 70 01:43 30.10.2020
6162 Clouds -5 994 73 10000 3.1 70 00:39 30.10.2020
6163 Clouds -6 994 79 10000 2.6 60 23:48 29.10.2020
6164 Clouds -6 994 79 10000 2.6 60 23:30 29.10.2020
6165 Clouds -6 994 73 10000 3.1 60 22:50 29.10.2020
6166 Clouds -6 994 73 10000 3.1 60 22:29 29.10.2020
6167 Clouds -5 994 73 10000 2.6 50 21:56 29.10.2020
6168 Clouds -5 994 73 10000 2.6 50 21:36 29.10.2020
6169 Clouds -5 994 73 10000 2.6 50 21:18 29.10.2020
6170 Clouds -5 994 73 10000 2.6 50 21:18 29.10.2020
6171 Clouds -5 994 79 10000 2.6 20 20:40 29.10.2020
6172 Clouds -5 994 79 10000 2.6 20 20:19 29.10.2020
6173 Clouds -4 994 73 10000 3.1 20 19:42 29.10.2020
6174 Clouds -4 994 73 10000 3.1 20 19:21 29.10.2020
6175 Clouds -4 993 73 10000 3.1 40 18:48 29.10.2020
6176 Clouds -4 993 73 10000 3.1 40 18:29 29.10.2020
6177 Clouds -5 993 79 10000 3.6 40 17:55 29.10.2020
6178 Clouds -5 993 79 10000 3.6 40 17:37 29.10.2020
6179 Clouds -5 993 79 10000 2.6 40 17:18 29.10.2020
6180 Clouds -5 993 79 10000 2.6 40 16:43 29.10.2020
6181 Clouds -5 993 79 10000 2.6 40 16:19 29.10.2020
6182 Clouds -5 994 79 10000 3.1 60 15:55 29.10.2020
6183 Clouds -5 994 79 10000 3.1 60 15:37 29.10.2020
6184 Clouds -5 994 79 10000 3.1 60 15:18 29.10.2020
6185 Clouds -5 994 73 10000 2.6 60 14:41 29.10.2020
6186 Clouds -5 994 73 10000 2.6 60 14:21 29.10.2020
6187 Clouds -7 995 87 10000 2.2 22 13:45 29.10.2020
6188 Clouds -6 994 67 10000 4.1 80 13:27 29.10.2020
6189 Clouds -6 994 67 10000 4.1 80 12:43 29.10.2020
6190 Clouds -6 994 67 10000 4.1 80 12:20 29.10.2020
6191 Clouds -6 994 67 10000 4.1 80 12:20 29.10.2020
6192 Clouds -6 994 67 10000 3.6 70 11:51 29.10.2020
6193 Clouds -6 994 67 10000 3.6 70 11:27 29.10.2020
6194 Clouds -6 994 67 10000 4.1 80 10:59 29.10.2020
6195 Clouds -6 994 67 10000 4.1 80 10:37 29.10.2020
6196 Clouds -6 994 67 10000 4.1 80 10:18 29.10.2020
6197 Clouds -6 994 67 10000 3.6 80 09:46 29.10.2020
6198 Clouds -6 994 67 10000 3.6 80 09:24 29.10.2020
6199 Clouds -6 994 62 10000 1.5 60 08:41 29.10.2020
6200 Clouds -6 994 62 10000 1.5 60 08:23 29.10.2020
6201 Clouds -7 994 67 10000 1.5 60 07:49 29.10.2020
6202 Clouds -7 994 67 10000 1.5 60 06:59 29.10.2020
6203 Clouds -7 994 67 10000 1.5 60 06:28 29.10.2020
6204 Clouds -7 994 85 10000 2.1 70 04:48 29.10.2020
6205 Clouds -6 995 79 10000 2.24 50 02:19 29.10.2020
6206 Clouds -6 995 79 10000 3.6 70 00:41 29.10.2020
6207 Clouds -6 995 79 10000 3.6 70 00:21 29.10.2020
6208 Clouds -6 995 79 10000 3.1 70 23:41 28.10.2020
6209 Clouds -6 995 79 10000 3.1 70 23:20 28.10.2020
6210 Clouds -6 995 79 10000 2.68 60 22:43 28.10.2020
6211 Clouds -6 995 73 10000 2.6 60 22:23 28.10.2020
6212 Clouds -6 995 73 10000 2.6 60 21:45 28.10.2020
6213 Clouds -6 995 73 10000 2.6 60 21:26 28.10.2020
6214 Clouds -5 995 62 10000 3.1 60 20:44 28.10.2020
6215 Clouds -5 995 62 10000 3.1 60 20:24 28.10.2020
6216 Clouds -5 995 67 10000 2.6 50 19:57 28.10.2020
6217 Clouds -5 995 67 10000 2.6 50 19:39 28.10.2020
6218 Clouds -5 995 67 10000 2.6 50 19:20 28.10.2020
6219 Clouds -5 995 67 10000 2.24 60 18:43 28.10.2020
6220 Clouds -5 995 67 10000 2.6 60 18:20 28.10.2020
6221 Clouds -5 995 67 10000 2.6 60 18:20 28.10.2020
6222 Clouds -5 995 67 10000 2.6 60 17:43 28.10.2020
6223 Clouds -5 995 67 10000 2.6 60 17:21 28.10.2020
6224 Clouds -5 995 67 10000 3.1 60 16:47 28.10.2020
6225 Clouds -5 995 67 10000 3.1 60 16:29 28.10.2020
6226 Clouds -5 995 67 10000 4.1 80 15:45 28.10.2020
6227 Clouds -5 995 67 10000 4.1 80 15:20 28.10.2020
6228 Clouds -7 996 89 10000 2.23 18 14:53 28.10.2020
6229 Clouds -7 996 89 10000 2.23 18 14:32 28.10.2020
6230 Clouds -6 996 73 10000 3.58 80 13:59 28.10.2020
6231 Clouds -6 996 73 10000 3.58 70 12:38 28.10.2020
6232 Clouds -6 996 73 10000 3.58 70 12:20 28.10.2020
6233 Clouds -6 996 73 10000 3.58 70 11:43 28.10.2020
6234 Clouds -6 996 73 10000 3.6 70 11:22 28.10.2020
6235 Clouds -6 996 73 10000 4.02 80 10:58 28.10.2020
6236 Clouds -6 996 73 10000 4.02 80 10:58 28.10.2020
6237 Clouds -6 996 73 10000 4.02 80 10:40 28.10.2020
6238 Clouds -6 996 73 10000 4.02 80 10:40 28.10.2020
6239 Clouds -6 996 73 10000 4.1 80 10:22 28.10.2020
6240 Clouds -6 996 73 10000 4.1 80 09:39 28.10.2020
6241 Clouds -6 996 73 10000 4.1 80 09:21 28.10.2020
6242 Clouds -6 996 73 10000 3.1 80 08:48 28.10.2020
6243 Clouds -6 996 73 10000 3.1 80 08:27 28.10.2020
6244 Clouds -6 996 73 10000 3.6 80 07:48 28.10.2020
6245 Clouds -6 996 73 10000 3.6 80 07:30 28.10.2020
6246 Clouds -6 996 73 10000 4.1 80 06:41 28.10.2020
6247 Clouds -6 997 79 10000 4.6 70 05:51 28.10.2020
6248 Clear -5 997 79 10000 5.1 80 04:54 28.10.2020
6249 Clear -5 997 79 10000 5.1 80 04:25 28.10.2020
6250 Clear -5 997 79 10000 4.1 80 02:26 28.10.2020
6251 Clear -4 998 73 10000 3.6 80 01:50 28.10.2020
6252 Clear -4 998 79 10000 3.1 80 00:21 28.10.2020
6253 Clear -4 998 79 10000 3.1 80 23:38 27.10.2020
6254 Clear -4 998 79 10000 3.1 80 23:20 27.10.2020
6255 Clouds -4 998 79 10000 3.1 80 22:42 27.10.2020
6256 Clouds -4 998 79 10000 3.1 80 22:19 27.10.2020
6257 Clouds -4 998 79 10000 3.1 80 22:19 27.10.2020
6258 Clouds -4 998 79 10000 3.1 90 21:56 27.10.2020
6259 Clouds -4 998 79 10000 3.1 90 21:37 27.10.2020
6260 Clouds -4 998 79 10000 3.1 90 21:37 27.10.2020
6261 Clouds -4 998 79 10000 3.1 90 21:37 27.10.2020
6262 Clouds -4 998 79 10000 3.1 90 21:37 27.10.2020
6263 Clouds -4 998 79 10000 3.1 90 21:19 27.10.2020
6264 Clouds -4 998 79 10000 2.1 70 20:44 27.10.2020
6265 Clouds -4 998 79 10000 2.1 70 20:22 27.10.2020
6266 Clouds -3 998 73 10000 1.5 50 19:40 27.10.2020
6267 Clouds -3 998 73 10000 1.5 50 19:21 27.10.2020
6268 Clouds -2 998 68 10000 2.1 70 18:59 27.10.2020
6269 Clouds -2 998 68 10000 2.1 70 18:40 27.10.2020
6270 Clouds -2 998 68 10000 2.1 70 18:21 27.10.2020
6271 Clear -2 999 68 10000 1.79 50 17:44 27.10.2020
6272 Clouds -2 999 68 10000 3.1 60 17:22 27.10.2020
6273 Clouds -2 999 68 10000 3.1 60 16:57 27.10.2020
6274 Clouds -2 999 68 10000 3.1 60 16:39 27.10.2020
6275 Clouds -2 999 68 10000 3.1 60 16:21 27.10.2020
6276 Clouds -3 999 68 10000 2.6 60 15:41 27.10.2020
6277 Clouds -4 999 68 10000 2.6 60 15:23 27.10.2020
6278 Clouds -4 1000 73 10000 2.6 60 14:48 27.10.2020
6279 Clouds -4 1000 73 10000 2.6 60 14:29 27.10.2020
6280 Clouds -4 1000 73 10000 2.6 50 13:56 27.10.2020
6281 Clouds -4 1000 73 10000 2.6 50 13:28 27.10.2020
6282 Clouds -5 1001 73 10000 1 100 12:44 27.10.2020
6283 Clouds -5 1001 73 10000 1 100 12:25 27.10.2020
6284 Clouds -5 1001 79 10000 2.1 100 11:58 27.10.2020
6285 Clouds -5 1001 79 10000 2.1 100 11:40 27.10.2020
6286 Clouds -5 1001 79 10000 2.1 100 11:20 27.10.2020
6287 Clear -4 1001 73 10000 0.5 130 10:39 27.10.2020
6288 Clear -4 1001 73 10000 0.5 130 10:19 27.10.2020
6289 Clear -3 1001 73 10000 0.5 80 09:28 27.10.2020
6290 Clear -3 1001 73 10000 1.5 100 08:58 27.10.2020
6291 Clear -3 1001 73 10000 1.5 100 08:30 27.10.2020
6292 Clear -4 1001 79 10000 1.5 100 07:53 27.10.2020
6293 Clear -4 1001 79 10000 1.5 100 07:35 27.10.2020
6294 Clouds -3 1001 73 10000 2.1 120 06:54 27.10.2020
6295 Clouds -3 1001 73 10000 2.1 120 06:20 27.10.2020
6296 Clouds -4 1000 79 10000 1 190 05:45 27.10.2020
6297 Clouds -4 1000 79 10000 1 190 05:24 27.10.2020
6298 Clouds -2 1001 68 10000 1 0 03:20 27.10.2020
6299 Clouds -2 1000 63 1113 2.1 40 01:20 27.10.2020
6300 Clouds -2 1000 68 3727 2.1 30 00:41 27.10.2020
6301 Clouds -2 1000 68 6670 1 50 23:38 26.10.2020
6302 Clouds -2 999 68 10000 2.1 340 22:59 26.10.2020
6303 Clouds -2 999 68 10000 2.1 340 22:39 26.10.2020
6304 Clouds -2 999 68 10000 2.1 340 22:18 26.10.2020
6305 Clouds -2 998 74 10000 3.58 340 21:40 26.10.2020
6306 Clouds -2 998 74 10000 3.6 340 21:19 26.10.2020
6307 Clouds -2 998 74 10000 3.6 340 20:49 26.10.2020
6308 Clouds -2 998 74 10000 3.6 340 20:27 26.10.2020
6309 Clouds -1 997 68 10000 3.6 330 19:56 26.10.2020
6310 Clouds -1 997 68 10000 3.6 330 19:38 26.10.2020
6311 Clouds -1 997 68 10000 3.6 330 19:19 26.10.2020
6312 Clouds -2 996 74 10000 4.6 340 18:42 26.10.2020
6313 Clouds -2 996 74 10000 4.6 340 18:22 26.10.2020
6314 Clouds -1 996 63 10000 5.1 330 17:44 26.10.2020
6315 Clouds -2 996 63 10000 5.1 330 17:24 26.10.2020
6316 Clouds -2 995 68 10000 2.6 360 16:56 26.10.2020
6317 Clouds -2 995 68 10000 2.6 360 16:37 26.10.2020
6318 Clouds -2 995 68 10000 2.6 360 16:18 26.10.2020
6319 Clouds -2 994 68 10000 2.6 360 15:39 26.10.2020
6320 Clouds -2 994 68 10000 2.6 360 15:19 26.10.2020
6321 Clouds -2 994 68 10000 1.5 0 14:45 26.10.2020
6322 Clouds -2 994 68 10000 1.5 0 14:19 26.10.2020
6323 Clouds -3 993 73 10000 1.5 60 13:42 26.10.2020
6324 Clouds -3 993 73 10000 1.5 60 13:22 26.10.2020
6325 Clouds -3 992 73 10000 1.5 60 12:47 26.10.2020
6326 Clouds -3 992 73 10000 1.5 60 12:27 26.10.2020
6327 Clouds -3 992 68 10000 2.6 40 11:55 26.10.2020
6328 Clouds -3 992 68 10000 2.6 40 11:37 26.10.2020
6329 Clouds -3 992 68 10000 2.6 40 11:18 26.10.2020
6330 Clouds -3 991 68 10000 2.6 40 10:41 26.10.2020
6331 Clouds -3 991 68 10000 2.6 40 10:22 26.10.2020
6332 Clouds -3 990 68 10000 3.1 60 09:43 26.10.2020
6333 Clouds -3 990 68 10000 3.1 60 09:23 26.10.2020
6334 Clouds -3 990 68 10000 2.6 40 08:30 26.10.2020
6335 Clouds -3 990 63 10000 3.1 50 07:56 26.10.2020
6336 Clouds -3 990 63 10000 3.1 50 07:37 26.10.2020
6337 Clouds -3 989 68 10000 2.1 20 06:38 26.10.2020
6338 Clouds -4 989 79 10000 3.1 30 04:44 26.10.2020
6339 Clouds -4 989 79 10000 3.1 30 04:18 26.10.2020
6340 Clouds -4 989 79 10000 3.6 10 02:27 26.10.2020
6341 Clouds -4 990 79 10000 4.1 20 01:29 26.10.2020
6342 Clouds -4 990 73 10000 4.6 360 00:33 26.10.2020
6343 Clouds -4 990 79 10000 4.6 360 23:42 25.10.2020
6344 Clouds -4 990 79 10000 4.6 360 23:21 25.10.2020
6345 Clouds -4 991 79 10000 5.1 360 22:41 25.10.2020
6346 Clouds -4 991 79 10000 5.1 360 22:23 25.10.2020
6347 Clouds -3 991 73 10000 5.7 60 21:45 25.10.2020
6348 Clouds -3 991 73 10000 5.7 60 21:26 25.10.2020
6349 Clouds -3 992 79 10000 5.7 50 20:57 25.10.2020
6350 Clouds -3 992 79 10000 5.7 50 20:38 25.10.2020
6351 Clouds -3 992 79 10000 5.7 50 20:19 25.10.2020
6352 Clouds -3 993 79 10000 6.2 60 19:49 25.10.2020
6353 Clouds -3 993 79 10000 6.2 60 19:24 25.10.2020
6354 Clouds -3 994 79 10000 5.7 50 18:57 25.10.2020
6355 Clouds -3 994 79 10000 5.7 50 18:38 25.10.2020
6356 Clouds -3 994 79 10000 5.7 50 18:20 25.10.2020
6357 Clouds -3 995 79 10000 5.36 60 17:39 25.10.2020
6358 Clouds -3 996 79 10000 5.1 60 17:21 25.10.2020
6359 Clouds -3 996 79 10000 5.1 60 16:58 25.10.2020
6360 Clouds -3 996 79 10000 5.1 60 16:39 25.10.2020
6361 Clouds -3 996 79 10000 5.1 60 16:20 25.10.2020
6362 Clouds -4 996 88 10000 3.59 33 15:47 25.10.2020
6363 Clouds -4 997 89 10000 3.45 34 15:25 25.10.2020
6364 Clouds -4 997 89 10000 3.45 34 15:25 25.10.2020
6365 Clouds -4 997 89 10000 3.45 34 14:47 25.10.2020
6366 Clouds -3 999 73 10000 3.6 70 14:28 25.10.2020
6367 Clouds -3 999 73 10000 3.6 70 13:44 25.10.2020
6368 Clouds -3 999 73 10000 3.6 70 13:21 25.10.2020
6369 Clouds -3 999 73 10000 3.6 70 13:21 25.10.2020
6370 Clouds -3 999 68 10000 3.1 43 12:49 25.10.2020
6371 Clouds -3 999 68 10000 2.58 54 12:27 25.10.2020
6372 Clouds -3 999 73 10000 4.1 80 11:57 25.10.2020
6373 Clouds -3 999 73 10000 4.1 80 11:39 25.10.2020
6374 Clouds -3 999 73 10000 4.1 80 11:39 25.10.2020
6375 Clouds -3 999 73 10000 4.1 80 11:18 25.10.2020
6376 Clouds -3 1000 73 10000 4.1 60 10:44 25.10.2020
6377 Clouds -3 1000 73 10000 4.1 60 10:25 25.10.2020
6378 Clouds -3 1001 79 10000 3.6 70 09:48 25.10.2020
6379 Clouds -3 1001 79 10000 3.6 70 09:20 25.10.2020
6380 Clouds -3 1002 79 10000 3.6 80 08:55 25.10.2020
6381 Clouds -3 1002 79 10000 3.6 80 08:36 25.10.2020
6382 Clouds -3 1002 79 10000 3.6 80 08:18 25.10.2020
6383 Clouds -3 1002 79 10000 5.1 70 07:41 25.10.2020
6384 Clouds -3 1002 79 10000 4.1 60 06:52 25.10.2020
6385 Clouds -3 1002 79 10000 4.1 60 06:19 25.10.2020
6386 Clouds -3 1003 73 10000 4.1 60 05:18 25.10.2020
6387 Clouds -3 1005 73 10000 3.1 70 04:20 25.10.2020
6388 Clouds -3 1008 73 10000 4.6 60 02:19 25.10.2020
6389 Clear -3 1009 79 10000 3.6 70 00:52 25.10.2020
6390 Clear -3 1009 79 10000 3.6 70 00:28 25.10.2020
6391 Clear -3 1010 79 10000 3.1 70 23:54 24.10.2020
6392 Clear -3 1010 79 10000 3.1 70 23:31 24.10.2020
6393 Clear -3 1010 79 10000 2.1 40 22:58 24.10.2020
6394 Clear -3 1010 79 10000 2.1 40 22:40 24.10.2020
6395 Clear -3 1010 79 10000 2.1 40 22:21 24.10.2020
6396 Clouds -2 1010 74 10000 2.6 40 21:43 24.10.2020
6397 Clouds -2 1010 74 10000 2.6 40 21:21 24.10.2020
6398 Clouds -1 1010 74 10000 2.1 40 20:58 24.10.2020
6399 Clouds -1 1010 74 10000 2.1 40 20:39 24.10.2020
6400 Clouds -1 1010 74 10000 2.1 40 20:20 24.10.2020
6401 Clouds -1 1010 74 10000 1.5 30 19:40 24.10.2020
6402 Clouds -1 1010 74 10000 1.5 30 19:22 24.10.2020
6403 Clouds -1 1010 80 10000 2.1 40 18:49 24.10.2020
6404 Clouds -1 1010 80 10000 2.1 40 18:28 24.10.2020
6405 Clouds -1 1010 80 10000 1.5 20 17:43 24.10.2020
6406 Clouds -1 1010 80 10000 1.5 20 17:25 24.10.2020
6407 Clear -2 1010 68 10000 1.34 50 16:48 24.10.2020
6408 Clouds -2 1010 68 10000 1.5 50 16:30 24.10.2020
6409 Clouds -2 1010 68 10000 1.5 50 15:57 24.10.2020
6410 Clouds -2 1010 68 10000 1.5 50 15:37 24.10.2020
6411 Clouds -2 1010 68 10000 1.5 50 15:18 24.10.2020
6412 Clouds -2 1010 74 10000 1 60 14:30 24.10.2020
6413 Clouds -2 1010 68 10000 1 90 13:55 24.10.2020
6414 Clouds -2 1010 68 10000 1 90 13:36 24.10.2020
6415 Clouds -2 1010 68 10000 1 90 13:18 24.10.2020
6416 Clouds -2 1009 74 10000 1 60 12:37 24.10.2020
6417 Clouds -2 1009 74 10000 1 60 12:19 24.10.2020
6418 Clear -1 1008 68 10000 2.1 340 11:49 24.10.2020
6419 Clear -1 1008 68 10000 2.1 340 11:23 24.10.2020
6420 Clear -1 1008 74 10000 2.1 360 10:44 24.10.2020
6421 Clear -1 1008 74 10000 2.1 360 10:26 24.10.2020
6422 Clear -1 1007 74 10000 2.6 330 09:46 24.10.2020
6423 Clear -1 1007 74 10000 2.6 330 09:26 24.10.2020
6424 Clear -1 1007 74 10000 2.1 330 08:57 24.10.2020
6425 Clouds -1 1007 74 10000 2.1 330 08:19 24.10.2020
6426 Clouds -1 1006 74 10000 3.1 320 07:51 24.10.2020
6427 Clouds -1 1006 74 10000 3.1 320 07:21 24.10.2020
6428 Clouds -1 1006 74 10000 3.1 320 06:51 24.10.2020
6429 Clouds -1 1005 80 10000 3.1 320 05:47 24.10.2020
6430 Clouds -1 1004 68 10000 1 290 02:26 24.10.2020
6431 Clouds -2 1002 74 10000 2.6 60 00:59 24.10.2020
6432 Clouds -2 1002 74 10000 2.6 60 00:39 24.10.2020
6433 Clouds -2 1002 74 10000 2.6 60 00:21 24.10.2020
6434 Clouds -2 1002 74 10000 2.1 50 23:43 23.10.2020
6435 Clouds -2 1002 74 10000 2.1 50 23:23 23.10.2020
6436 Clouds -1 1002 74 10000 3.1 30 22:56 23.10.2020
6437 Clouds -1 1002 74 10000 3.1 30 22:36 23.10.2020
6438 Clouds -1 1002 74 10000 3.1 30 22:18 23.10.2020
6439 Clouds -1 1001 68 10000 2.6 20 21:39 23.10.2020
6440 Clouds -1 1001 68 10000 2.6 20 21:21 23.10.2020
6441 Clouds -1 1001 74 10000 3.1 10 20:39 23.10.2020
6442 Clouds -1 1001 74 10000 3.1 10 20:20 23.10.2020
6443 Clouds -1 1000 68 10000 4.1 20 19:48 23.10.2020
6444 Clouds -1 1000 68 10000 4.1 20 19:30 23.10.2020
6445 Clouds -1 1000 63 10000 4.6 10 18:52 23.10.2020
6446 Clouds -1 1000 63 10000 4.6 10 18:30 23.10.2020
6447 Clouds -1 1000 63 10000 4.6 10 17:48 23.10.2020
6448 Clouds -1 1000 63 10000 4.6 10 17:23 23.10.2020
6449 Clouds -1 1000 63 10000 6.2 10 16:56 23.10.2020
6450 Clouds -1 1000 63 10000 6.2 10 16:56 23.10.2020
6451 Clouds -1 1000 63 10000 6.2 10 16:56 23.10.2020
6452 Clouds -1 1000 63 10000 6.2 10 16:56 23.10.2020
6453 Clouds -2 1000 63 10000 6.2 10 16:36 23.10.2020
6454 Clouds -2 1000 63 10000 6.2 10 16:18 23.10.2020
6455 Clouds -2 1000 63 10000 6.2 20 15:42 23.10.2020
6456 Clouds -2 1000 63 10000 6.2 20 15:23 23.10.2020
6457 Clouds -2 1000 68 10000 5.7 360 14:51 23.10.2020
6458 Clouds -2 1000 68 10000 5.7 360 14:33 23.10.2020
6459 Clouds -2 1000 68 10000 6.7 10 13:55 23.10.2020
6460 Clouds -2 1000 68 10000 6.7 10 13:37 23.10.2020
6461 Clouds -2 1000 68 10000 6.7 10 13:18 23.10.2020
6462 Clouds -2 1000 68 10000 7.2 10 12:42 23.10.2020
6463 Clouds -2 1000 68 10000 7.2 10 12:23 23.10.2020
6464 Clouds -2 1000 68 10000 6.7 10 11:42 23.10.2020
6465 Clouds -2 1000 68 10000 6.7 10 11:20 23.10.2020
6466 Clouds -2 1000 74 10000 4.6 360 10:43 23.10.2020
6467 Clouds -2 1000 74 10000 4.6 360 10:23 23.10.2020
6468 Clouds -2 1001 68 10000 5.1 360 09:43 23.10.2020
6469 Clouds -2 1001 68 10000 5.1 360 09:23 23.10.2020
6470 Clouds -2 1001 68 10000 7.7 20 08:52 23.10.2020
6471 Clouds -2 1001 68 10000 7.7 20 08:28 23.10.2020
6472 Clear -2 1001 63 10000 7.2 20 07:30 23.10.2020
6473 Clear -3 1001 73 10000 6.7 10 06:57 23.10.2020
6474 Clear -3 1001 73 10000 6.7 10 06:20 23.10.2020
6475 Clear -3 1002 79 10000 6.7 360 04:56 23.10.2020
6476 Clear -2 1004 74 10000 7.7 350 02:32 23.10.2020
6477 Clear -2 1004 74 10000 8.2 20 01:23 23.10.2020
6478 Clear -2 1005 74 10000 6.2 10 00:36 23.10.2020
6479 Clouds -3 1006 86 10000 5.7 350 23:45 22.10.2020
6480 Clouds -3 1006 86 10000 5.7 350 23:24 22.10.2020
6481 Clouds -3 1007 79 10000 4.6 10 22:48 22.10.2020
6482 Clouds -3 1007 79 10000 4.6 10 22:27 22.10.2020
6483 Clouds -2 1007 74 10000 4.6 20 21:58 22.10.2020
6484 Clouds -2 1007 74 10000 4.6 20 21:40 22.10.2020
6485 Clouds -2 1007 74 10000 4.6 20 21:20 22.10.2020
6486 Clouds -2 1007 68 10000 4.1 60 20:45 22.10.2020
6487 Clear -2 1007 68 10000 4.6 60 20:25 22.10.2020
6488 Clear -2 1007 68 10000 4.6 60 19:58 22.10.2020
6489 Clear -2 1007 68 10000 4.6 60 19:39 22.10.2020
6490 Clear -2 1007 68 10000 4.6 60 19:18 22.10.2020
6491 Clear -2 1008 68 10000 4.02 70 18:41 22.10.2020
6492 Clouds -2 1008 74 10000 3.6 60 18:19 22.10.2020
6493 Clouds -2 1008 74 10000 3.6 60 17:45 22.10.2020
6494 Clouds -2 1008 74 10000 3.6 60 17:22 22.10.2020
6495 Clouds -2 1009 74 10000 4.1 70 16:45 22.10.2020
6496 Clouds -2 1009 74 10000 4.1 70 16:25 22.10.2020
6497 Clouds -2 1009 74 10000 4.1 70 16:25 22.10.2020
6498 Clear -3 1009 79 10000 4.92 70 15:50 22.10.2020
6499 Clouds -3 1009 79 10000 5.1 70 15:27 22.10.2020
6500 Clouds -3 1009 79 10000 5.1 70 14:58 22.10.2020
6501 Clouds -3 1009 79 10000 5.1 70 14:38 22.10.2020
6502 Clouds -3 1009 79 10000 5.1 70 14:20 22.10.2020
6503 Clouds -3 1009 79 10000 4.6 70 13:43 22.10.2020
6504 Clouds -3 1009 79 10000 4.6 70 13:22 22.10.2020
6505 Clouds -2 1009 79 10000 3.6 70 12:43 22.10.2020
6506 Clouds -2 1009 79 10000 3.6 70 12:22 22.10.2020
6507 Clouds -2 1009 79 10000 3.1 80 11:45 22.10.2020
6508 Clouds -2 1009 79 10000 3.1 80 11:19 22.10.2020
6509 Clouds -2 1009 79 10000 3.6 80 10:49 22.10.2020
6510 Clouds -2 1009 79 10000 3.6 80 10:25 22.10.2020
6511 Snow -2 1009 86 10000 3.6 80 09:44 22.10.2020
6512 Snow -2 1009 86 10000 3.6 80 09:25 22.10.2020
6513 Snow -1 1009 86 10000 2.1 50 08:47 22.10.2020
6514 Snow -1 1009 86 3945 2.1 50 08:27 22.10.2020
6515 Clouds -1 1009 86 3244 2.1 60 07:48 22.10.2020
6516 Clouds -1 1009 86 3657 2.1 60 07:29 22.10.2020
6517 Clouds -1 1009 86 3657 3.6 60 06:46 22.10.2020
6518 Clouds -1 1009 86 1585 3.6 60 06:24 22.10.2020
6519 Clouds -1 1009 92 1585 2.1 40 05:39 22.10.2020
6520 Clouds -1 1009 86 8179 4.6 320 03:37 22.10.2020
6521 Clouds -1 1009 86 10000 3.1 30 01:35 22.10.2020
6522 Rain -1 1009 92 10000 3.1 40 00:24 22.10.2020
6523 Clouds -1 1009 100 10000 4.6 20 23:47 21.10.2020
6524 Clouds -1 1009 100 10000 4.6 20 23:28 21.10.2020
6525 Clouds -1 1008 100 10000 4.1 360 22:39 21.10.2020
6526 Clouds -1 1008 100 10000 4.1 360 22:19 21.10.2020
6527 Clouds 0 1009 93 10000 2.1 40 21:56 21.10.2020
6528 Clouds 0 1009 93 10000 2.1 40 21:37 21.10.2020
6529 Clouds 0 1009 93 10000 2.1 40 21:18 21.10.2020
6530 Rain 1 1009 80 10000 2.1 10 20:45 21.10.2020
6531 Rain 1 1009 80 10000 2.1 10 20:18 21.10.2020
6532 Rain 0 1009 93 10000 2.1 40 19:43 21.10.2020
6533 Rain 0 1009 93 10000 2.1 40 19:25 21.10.2020
6534 Rain 0 1009 93 10000 2.1 50 18:54 21.10.2020
6535 Rain 0 1009 94 10000 2.1 50 18:32 21.10.2020
6536 Rain 0 1009 94 10000 1.5 50 17:55 21.10.2020
6537 Rain 0 1009 95 10000 1.5 50 17:37 21.10.2020
6538 Rain 0 1009 95 10000 1.5 50 17:18 21.10.2020
6539 Rain 0 1010 95 10000 2.87 1 16:40 21.10.2020
6540 Rain 0 1010 95 10000 2.04 1 16:21 21.10.2020
6541 Rain -1 1010 92 10000 2.6 100 15:49 21.10.2020
6542 Rain -1 1010 92 10000 2.6 100 15:29 21.10.2020
6543 Snow 0 1010 94 1500 3.6 280 14:58 21.10.2020
6544 Snow 0 1010 94 1500 3.6 280 14:40 21.10.2020
6545 Snow -1 1010 93 1500 3.6 280 14:22 21.10.2020
6546 Rain -2 1011 86 10000 1.5 90 13:42 21.10.2020
6547 Rain -2 1011 86 10000 1.5 90 13:23 21.10.2020
6548 Clouds -2 1011 86 10000 1 110 12:43 21.10.2020
6549 Clouds -1 1011 86 10000 1 110 12:23 21.10.2020
6550 Clouds 0 1011 93 9664 2.1 140 11:59 21.10.2020
6551 Clouds 0 1011 93 9664 2.1 140 11:39 21.10.2020
6552 Clouds 0 1011 94 7410 2.1 140 11:19 21.10.2020
6553 Clouds 0 1012 94 7410 1 120 10:41 21.10.2020
6554 Clouds 0 1012 97 253 1 120 10:21 21.10.2020
6555 Snow -1 1012 100 253 2.6 110 09:51 21.10.2020
6556 Snow -1 1012 100 129 2.6 110 09:28 21.10.2020
6557 Snow -1 1012 100 129 3.1 270 08:42 21.10.2020
6558 Snow -1 1012 100 162 3.1 270 08:24 21.10.2020
6559 Snow 0 1012 98 162 2.6 150 07:57 21.10.2020
6560 Snow 0 1012 91 1280 2.6 150 07:29 21.10.2020
6561 Snow -1 1012 100 1280 2.1 290 06:48 21.10.2020
6562 Snow -1 1012 100 4656 2.1 290 06:26 21.10.2020
6563 Clouds 0 1012 88 1891 4.6 190 04:45 21.10.2020
6564 Clouds 2 1012 80 10000 6.7 170 00:50 21.10.2020
6565 Rain 1 1011 100 10000 6.7 190 23:42 20.10.2020
6566 Rain 1 1011 100 10000 7.7 190 22:52 20.10.2020
6567 Rain 1 1011 100 10000 7.7 190 22:27 20.10.2020
6568 Rain 2 1010 93 10000 6.7 200 21:49 20.10.2020
6569 Rain 2 1010 93 10000 6.7 200 21:20 20.10.2020
6570 Clouds 3 1010 86 10000 6.2 190 20:45 20.10.2020
6571 Clouds 3 1010 86 10000 6.2 190 20:26 20.10.2020
6572 Rain 2 1010 93 10000 6.2 200 19:59 20.10.2020
6573 Rain 2 1010 93 10000 6.2 200 19:41 20.10.2020
6574 Rain 2 1010 93 10000 6.2 200 19:21 20.10.2020
6575 Clouds 2 1009 100 8000 6.2 200 18:47 20.10.2020
6576 Clouds 2 1009 100 8000 6.2 200 18:29 20.10.2020
6577 Snow 3 1007 93 2500 14.9 160 17:47 20.10.2020
6578 Snow 3 1007 93 2500 14.9 160 17:29 20.10.2020
6579 Snow 3 1007 93 2800 14.9 160 16:48 20.10.2020
6580 Snow 3 1007 93 2800 14.9 160 16:28 20.10.2020
6581 Snow 3 1007 93 2800 14.9 160 16:28 20.10.2020
6582 Clouds 4 1007 93 7000 15.4 160 15:57 20.10.2020
6583 Clouds 4 1007 93 7000 15.4 160 15:38 20.10.2020
6584 Clouds 4 1007 93 7000 15.4 160 15:19 20.10.2020
6585 Clouds 4 1008 93 4700 17 160 14:41 20.10.2020
6586 Clouds 4 1008 93 4700 17 160 14:22 20.10.2020
6587 Rain 3 1008 100 3700 18 170 13:44 20.10.2020
6588 Rain 3 1008 100 3700 18 170 13:24 20.10.2020
6589 Rain 4 1008 93 5000 19.5 170 12:58 20.10.2020
6590 Rain 4 1008 93 5000 19.5 170 12:40 20.10.2020
6591 Rain 4 1008 93 5000 19.5 170 12:21 20.10.2020
6592 Snow 5 1008 93 449 19 170 11:43 20.10.2020
6593 Snow 5 1008 93 789 19 170 11:25 20.10.2020
6594 Snow 5 1009 93 789 19.5 170 10:38 20.10.2020
6595 Snow 5 1009 93 4595 19.5 170 10:19 20.10.2020
6596 Snow 6 1009 87 4595 18.5 160 09:42 20.10.2020
6597 Snow 6 1009 87 9727 18.5 160 09:18 20.10.2020
6598 Snow 5 1010 93 9727 19 160 08:39 20.10.2020
6599 Rain 6 1010 70 10000 21.1 170 07:53 20.10.2020
6600 Clouds 6 1010 70 10000 21.1 170 07:26 20.10.2020
6601 Clouds 6 1012 60 10000 16.5 170 06:33 20.10.2020
6602 Clouds 7 1011 48 10000 12.9 160 05:53 20.10.2020
6603 Clouds 9 1013 39 10000 18 150 03:58 20.10.2020
6604 Clouds 8 1015 39 10000 17.5 150 02:30 20.10.2020
6605 Clouds 8 1016 45 10000 20.1 150 01:20 20.10.2020
6606 Clouds 7 1016 56 10000 19 150 00:49 20.10.2020
6607 Clouds 7 1016 56 10000 19 150 00:22 20.10.2020
6608 Rain 7 1017 72 10000 21.1 150 23:47 19.10.2020
6609 Rain 7 1017 72 10000 21.1 150 23:47 19.10.2020
6610 Rain 7 1017 86 10000 21.1 150 23:24 19.10.2020
6611 Snow 5 1018 75 10000 19 150 22:47 19.10.2020
6612 Snow 5 1018 75 7726 19 150 22:25 19.10.2020
6613 Drizzle 6 1019 70 8000 18 150 21:49 19.10.2020
6614 Drizzle 6 1019 70 8000 18 150 21:23 19.10.2020
6615 Drizzle 5 1020 89 8000 16.5 160 20:52 19.10.2020
6616 Drizzle 5 1020 89 8000 16.5 160 20:33 19.10.2020
6617 Drizzle 5 1021 75 10000 16.5 160 19:56 19.10.2020
6618 Drizzle 5 1021 75 10000 16.5 160 19:38 19.10.2020
6619 Drizzle 5 1021 75 10000 16.5 160 19:18 19.10.2020
6620 Clouds 6 1023 74 10000 13.9 170 18:42 19.10.2020
6621 Clouds 6 1023 76 10000 13.9 170 18:19 19.10.2020
6622 Clouds 6 1023 76 10000 10.3 170 17:45 19.10.2020
6623 Clouds 6 1023 77 10000 10.3 170 17:25 19.10.2020
6624 Clouds 6 1024 60 10000 10.3 170 16:48 19.10.2020
6625 Clouds 6 1024 60 10000 10.3 170 16:28 19.10.2020
6626 Clouds 4 1024 86 10000 12.96 170 15:44 19.10.2020
6627 Clouds 4 1024 86 10000 12.96 170 15:25 19.10.2020
6628 Clouds 4 1024 86 10000 12.96 170 15:25 19.10.2020
6629 Clouds 4 1024 86 10000 12.96 170 14:53 19.10.2020
6630 Clouds 4 1024 86 10000 12.96 170 14:28 19.10.2020
6631 Clouds 4 1024 86 10000 12.96 170 13:55 19.10.2020
6632 Clouds 4 1024 86 10000 12.96 170 13:36 19.10.2020
6633 Clouds 4 1024 86 10000 12.96 170 13:18 19.10.2020
6634 Clouds 4 1024 86 10000 12.96 170 12:43 19.10.2020
6635 Clouds 4 1024 86 10000 12.96 170 12:25 19.10.2020
6636 Clouds 4 1024 86 10000 12.96 170 11:42 19.10.2020
6637 Clouds 4 1024 86 10000 13.4 170 11:21 19.10.2020
6638 Clouds 4 1024 86 10000 13.4 170 10:44 19.10.2020
6639 Clouds 4 1024 86 10000 13.4 170 10:44 19.10.2020
6640 Clouds 4 1024 86 10000 13.4 170 10:21 19.10.2020
6641 Clouds 5 1023 75 10000 12.3 170 09:52 19.10.2020
6642 Clouds 4 1023 75 10000 12.3 170 09:24 19.10.2020
6643 Clouds 4 1021 86 10000 12.9 180 08:49 19.10.2020
6644 Clouds 4 1021 86 10000 12.9 180 08:24 19.10.2020
6645 Clouds 4 1019 93 10000 12.9 180 07:56 19.10.2020
6646 Clouds 4 1019 93 10000 12.9 180 07:20 19.10.2020
6647 Snow 4 1017 100 10000 12.3 180 06:23 19.10.2020
6648 Snow 6 1011 93 10000 24.2 160 04:47 19.10.2020
6649 Snow 6 1010 100 7344 24.2 160 03:44 19.10.2020
6650 Rain 7 1010 81 10000 22.6 170 01:28 19.10.2020
6651 Clouds 7 1010 75 10000 11.3 190 00:28 19.10.2020
6652 Clouds 7 1011 81 10000 7.2 200 23:56 18.10.2020
6653 Clouds 7 1011 81 10000 7.2 200 23:37 18.10.2020
6654 Clouds 7 1011 81 10000 7.2 200 23:18 18.10.2020
6655 Clouds 12 1013 50 10000 9.3 180 22:43 18.10.2020
6656 Clouds 12 1013 50 10000 9.3 180 22:18 18.10.2020
6657 Clouds 11 1015 62 10000 9.8 160 21:38 18.10.2020
6658 Clouds 11 1015 62 10000 9.8 160 21:20 18.10.2020
6659 Clouds 7 1017 81 10000 4.6 200 20:43 18.10.2020
6660 Clouds 7 1017 81 10000 4.6 200 20:23 18.10.2020
6661 Clouds 7 1019 81 10000 2.1 210 19:50 18.10.2020
6662 Clouds 7 1019 81 10000 2.1 210 19:27 18.10.2020
6663 Clouds 6 1020 87 10000 0.5 0 18:51 18.10.2020
6664 Clouds 6 1020 87 10000 0.5 0 18:30 18.10.2020
6665 Clouds 5 1022 93 10000 1 0 17:59 18.10.2020
6666 Clouds 5 1022 93 10000 1 0 17:41 18.10.2020
6667 Clouds 5 1022 93 10000 1 0 17:41 18.10.2020
6668 Clouds 5 1022 93 10000 1 0 17:21 18.10.2020
6669 Clouds 6 1023 87 10000 1 210 16:43 18.10.2020
6670 Clouds 6 1023 87 10000 1 210 16:24 18.10.2020
6671 Clouds 5 1024 93 10000 2.1 0 15:43 18.10.2020
6672 Clouds 5 1024 93 10000 2.1 0 15:21 18.10.2020
6673 Clouds 4 1026 100 10000 1 180 14:58 18.10.2020
6674 Clouds 4 1026 100 10000 1 180 14:31 18.10.2020
6675 Clouds 4 1027 93 10000 3.6 180 13:59 18.10.2020
6676 Clouds 4 1027 93 10000 3.6 180 13:40 18.10.2020
6677 Clouds 4 1027 93 10000 3.6 180 13:22 18.10.2020
6678 Clouds 5 1028 93 10000 3.6 0 12:43 18.10.2020
6679 Clouds 5 1028 93 10000 3.6 0 12:23 18.10.2020
6680 Clouds 5 1030 93 10000 1.5 240 11:46 18.10.2020
6681 Clouds 5 1030 93 10000 1.5 240 11:28 18.10.2020
6682 Clouds 5 1030 93 10000 0.5 0 10:55 18.10.2020
6683 Clouds 5 1030 93 10000 0.5 0 10:37 18.10.2020
6684 Clouds 5 1030 93 10000 0.5 0 10:18 18.10.2020
6685 Clouds 7 1032 81 10000 3.1 180 09:42 18.10.2020
6686 Clouds 7 1032 81 10000 3.1 180 09:42 18.10.2020
6687 Clouds 7 1032 81 10000 3.1 180 09:20 18.10.2020
6688 Snow 6 1033 87 10000 3.96 41 08:45 18.10.2020
6689 Snow 6 1033 87 10000 3.75 43 08:25 18.10.2020
6690 Rain 4 1034 93 10000 6.2 40 07: